<?xml version="1.0" encoding="UTF-8" standalone="no" ?>
<gpx xmlns="http://www.topografix.com/GPX/1/1" xmlns:xsi="http://www.w3.org/2001/XMLSchema-instance" xsi:schemaLocation="http://www.topografix.com/GPX/1/1 http://www.topografix.com/GPX/1/1/gpx.xsd" version="1.1" creator="VisuGPX - https://www.visugpx.com">
  <metadata>
    <name>Hardangervidda 2019</name>
  </metadata>
  <trk>
    <name><![CDATA[AAA9-04-03 17:12:33]]></name>
    <trkseg>
      <trkpt lat="60.46187" lon="7.81639">
        <ele>1122.96</ele>
        <time>2019-04-03T09:32:28Z</time>
      </trkpt>
      <trkpt lat="60.46187" lon="7.81639">
        <ele>1122.96</ele>
        <time>2019-04-03T09:32:30Z</time>
      </trkpt>
      <trkpt lat="60.46187" lon="7.81639">
        <ele>1141.22</ele>
        <time>2019-04-03T09:32:36Z</time>
      </trkpt>
      <trkpt lat="60.46188" lon="7.81637">
        <ele>1140.74</ele>
        <time>2019-04-03T09:32:54Z</time>
      </trkpt>
      <trkpt lat="60.46188" lon="7.81637">
        <ele>1141.22</ele>
        <time>2019-04-03T09:33:14Z</time>
      </trkpt>
      <trkpt lat="60.46188" lon="7.81637">
        <ele>1137.86</ele>
        <time>2019-04-03T09:33:19Z</time>
      </trkpt>
      <trkpt lat="60.46188" lon="7.81638">
        <ele>1140.74</ele>
        <time>2019-04-03T09:33:20Z</time>
      </trkpt>
      <trkpt lat="60.46186" lon="7.81662">
        <ele>1140.74</ele>
        <time>2019-04-03T09:33:29Z</time>
      </trkpt>
      <trkpt lat="60.46182" lon="7.81703">
        <ele>1140.74</ele>
        <time>2019-04-03T09:33:45Z</time>
      </trkpt>
      <trkpt lat="60.46179" lon="7.81727">
        <ele>1140.74</ele>
        <time>2019-04-03T09:33:55Z</time>
      </trkpt>
      <trkpt lat="60.46178" lon="7.81737">
        <ele>1141.7</ele>
        <time>2019-04-03T09:34:00Z</time>
      </trkpt>
      <trkpt lat="60.46174" lon="7.81766">
        <ele>1142.66</ele>
        <time>2019-04-03T09:34:12Z</time>
      </trkpt>
      <trkpt lat="60.46172" lon="7.81785">
        <ele>1144.59</ele>
        <time>2019-04-03T09:34:22Z</time>
      </trkpt>
      <trkpt lat="60.4617" lon="7.81804">
        <ele>1145.07</ele>
        <time>2019-04-03T09:34:32Z</time>
      </trkpt>
      <trkpt lat="60.46169" lon="7.8182">
        <ele>1145.07</ele>
        <time>2019-04-03T09:34:41Z</time>
      </trkpt>
      <trkpt lat="60.46168" lon="7.81833">
        <ele>1145.07</ele>
        <time>2019-04-03T09:34:51Z</time>
      </trkpt>
      <trkpt lat="60.46168" lon="7.81835">
        <ele>1145.07</ele>
        <time>2019-04-03T09:35:03Z</time>
      </trkpt>
      <trkpt lat="60.46167" lon="7.81836">
        <ele>1145.07</ele>
        <time>2019-04-03T09:35:24Z</time>
      </trkpt>
      <trkpt lat="60.46165" lon="7.81842">
        <ele>1145.07</ele>
        <time>2019-04-03T09:35:33Z</time>
      </trkpt>
      <trkpt lat="60.46166" lon="7.81843">
        <ele>1145.07</ele>
        <time>2019-04-03T09:35:51Z</time>
      </trkpt>
      <trkpt lat="60.46165" lon="7.81842">
        <ele>1145.07</ele>
        <time>2019-04-03T09:36:20Z</time>
      </trkpt>
      <trkpt lat="60.46165" lon="7.81841">
        <ele>1145.07</ele>
        <time>2019-04-03T09:36:54Z</time>
      </trkpt>
      <trkpt lat="60.46166" lon="7.81843">
        <ele>1145.07</ele>
        <time>2019-04-03T09:37:12Z</time>
      </trkpt>
      <trkpt lat="60.46167" lon="7.81844">
        <ele>1145.55</ele>
        <time>2019-04-03T09:37:34Z</time>
      </trkpt>
      <trkpt lat="60.46167" lon="7.81843">
        <ele>1145.55</ele>
        <time>2019-04-03T09:37:53Z</time>
      </trkpt>
      <trkpt lat="60.46166" lon="7.81844">
        <ele>1145.55</ele>
        <time>2019-04-03T09:38:11Z</time>
      </trkpt>
      <trkpt lat="60.46166" lon="7.81845">
        <ele>1146.03</ele>
        <time>2019-04-03T09:38:30Z</time>
      </trkpt>
      <trkpt lat="60.46164" lon="7.81846">
        <ele>1144.59</ele>
        <time>2019-04-03T09:38:32Z</time>
      </trkpt>
      <trkpt lat="60.46152" lon="7.81855">
        <ele>1144.11</ele>
        <time>2019-04-03T09:38:43Z</time>
      </trkpt>
      <trkpt lat="60.4614" lon="7.81865">
        <ele>1144.59</ele>
        <time>2019-04-03T09:38:53Z</time>
      </trkpt>
      <trkpt lat="60.46129" lon="7.81874">
        <ele>1144.59</ele>
        <time>2019-04-03T09:39:03Z</time>
      </trkpt>
      <trkpt lat="60.46117" lon="7.81885">
        <ele>1143.63</ele>
        <time>2019-04-03T09:39:15Z</time>
      </trkpt>
      <trkpt lat="60.46104" lon="7.81894">
        <ele>1142.18</ele>
        <time>2019-04-03T09:39:26Z</time>
      </trkpt>
      <trkpt lat="60.46095" lon="7.819">
        <ele>1142.18</ele>
        <time>2019-04-03T09:39:36Z</time>
      </trkpt>
      <trkpt lat="60.46085" lon="7.81906">
        <ele>1143.63</ele>
        <time>2019-04-03T09:39:48Z</time>
      </trkpt>
      <trkpt lat="60.46077" lon="7.81918">
        <ele>1143.63</ele>
        <time>2019-04-03T09:39:59Z</time>
      </trkpt>
      <trkpt lat="60.46074" lon="7.81921">
        <ele>1142.18</ele>
        <time>2019-04-03T09:40:02Z</time>
      </trkpt>
      <trkpt lat="60.46062" lon="7.81937">
        <ele>1142.18</ele>
        <time>2019-04-03T09:40:15Z</time>
      </trkpt>
      <trkpt lat="60.46049" lon="7.81957">
        <ele>1141.7</ele>
        <time>2019-04-03T09:40:27Z</time>
      </trkpt>
      <trkpt lat="60.46039" lon="7.81974">
        <ele>1141.22</ele>
        <time>2019-04-03T09:40:39Z</time>
      </trkpt>
      <trkpt lat="60.46028" lon="7.81989">
        <ele>1141.22</ele>
        <time>2019-04-03T09:40:51Z</time>
      </trkpt>
      <trkpt lat="60.46017" lon="7.82009">
        <ele>1141.22</ele>
        <time>2019-04-03T09:41:03Z</time>
      </trkpt>
      <trkpt lat="60.46007" lon="7.82023">
        <ele>1139.78</ele>
        <time>2019-04-03T09:41:13Z</time>
      </trkpt>
      <trkpt lat="60.45994" lon="7.82029">
        <ele>1140.26</ele>
        <time>2019-04-03T09:41:25Z</time>
      </trkpt>
      <trkpt lat="60.45981" lon="7.82033">
        <ele>1139.78</ele>
        <time>2019-04-03T09:41:37Z</time>
      </trkpt>
      <trkpt lat="60.45971" lon="7.82039">
        <ele>1139.78</ele>
        <time>2019-04-03T09:41:48Z</time>
      </trkpt>
      <trkpt lat="60.45962" lon="7.82046">
        <ele>1140.74</ele>
        <time>2019-04-03T09:41:58Z</time>
      </trkpt>
      <trkpt lat="60.45951" lon="7.8206">
        <ele>1141.22</ele>
        <time>2019-04-03T09:42:11Z</time>
      </trkpt>
      <trkpt lat="60.45939" lon="7.82076">
        <ele>1140.26</ele>
        <time>2019-04-03T09:42:23Z</time>
      </trkpt>
      <trkpt lat="60.45929" lon="7.82091">
        <ele>1140.26</ele>
        <time>2019-04-03T09:42:34Z</time>
      </trkpt>
      <trkpt lat="60.45919" lon="7.82103">
        <ele>1138.82</ele>
        <time>2019-04-03T09:42:44Z</time>
      </trkpt>
      <trkpt lat="60.45906" lon="7.82116">
        <ele>1138.82</ele>
        <time>2019-04-03T09:42:57Z</time>
      </trkpt>
      <trkpt lat="60.45897" lon="7.82127">
        <ele>1137.86</ele>
        <time>2019-04-03T09:43:07Z</time>
      </trkpt>
      <trkpt lat="60.45896" lon="7.82128">
        <ele>1137.86</ele>
        <time>2019-04-03T09:43:08Z</time>
      </trkpt>
      <trkpt lat="60.4589" lon="7.82132">
        <ele>1137.86</ele>
        <time>2019-04-03T09:43:19Z</time>
      </trkpt>
      <trkpt lat="60.45887" lon="7.82133">
        <ele>1136.9</ele>
        <time>2019-04-03T09:43:36Z</time>
      </trkpt>
      <trkpt lat="60.45883" lon="7.82135">
        <ele>1136.9</ele>
        <time>2019-04-03T09:43:40Z</time>
      </trkpt>
      <trkpt lat="60.45873" lon="7.82141">
        <ele>1136.9</ele>
        <time>2019-04-03T09:43:51Z</time>
      </trkpt>
      <trkpt lat="60.45863" lon="7.82145">
        <ele>1136.9</ele>
        <time>2019-04-03T09:44:03Z</time>
      </trkpt>
      <trkpt lat="60.45853" lon="7.82148">
        <ele>1136.9</ele>
        <time>2019-04-03T09:44:14Z</time>
      </trkpt>
      <trkpt lat="60.45842" lon="7.8215">
        <ele>1136.9</ele>
        <time>2019-04-03T09:44:25Z</time>
      </trkpt>
      <trkpt lat="60.45833" lon="7.82151">
        <ele>1136.9</ele>
        <time>2019-04-03T09:44:37Z</time>
      </trkpt>
      <trkpt lat="60.45823" lon="7.82152">
        <ele>1136.9</ele>
        <time>2019-04-03T09:44:48Z</time>
      </trkpt>
      <trkpt lat="60.4581" lon="7.82156">
        <ele>1136.9</ele>
        <time>2019-04-03T09:45:01Z</time>
      </trkpt>
      <trkpt lat="60.45806" lon="7.82155">
        <ele>1136.42</ele>
        <time>2019-04-03T09:45:05Z</time>
      </trkpt>
      <trkpt lat="60.45801" lon="7.82156">
        <ele>1136.9</ele>
        <time>2019-04-03T09:45:10Z</time>
      </trkpt>
      <trkpt lat="60.45793" lon="7.82152">
        <ele>1136.9</ele>
        <time>2019-04-03T09:45:20Z</time>
      </trkpt>
      <trkpt lat="60.45783" lon="7.82154">
        <ele>1136.9</ele>
        <time>2019-04-03T09:45:34Z</time>
      </trkpt>
      <trkpt lat="60.45774" lon="7.82155">
        <ele>1136.9</ele>
        <time>2019-04-03T09:45:46Z</time>
      </trkpt>
      <trkpt lat="60.45765" lon="7.82155">
        <ele>1136.9</ele>
        <time>2019-04-03T09:45:55Z</time>
      </trkpt>
      <trkpt lat="60.45762" lon="7.82156">
        <ele>1136.9</ele>
        <time>2019-04-03T09:45:59Z</time>
      </trkpt>
      <trkpt lat="60.45753" lon="7.82157">
        <ele>1136.9</ele>
        <time>2019-04-03T09:46:09Z</time>
      </trkpt>
      <trkpt lat="60.45743" lon="7.82158">
        <ele>1136.9</ele>
        <time>2019-04-03T09:46:20Z</time>
      </trkpt>
      <trkpt lat="60.45736" lon="7.82158">
        <ele>1136.42</ele>
        <time>2019-04-03T09:46:31Z</time>
      </trkpt>
      <trkpt lat="60.45732" lon="7.82158">
        <ele>1136.42</ele>
        <time>2019-04-03T09:46:57Z</time>
      </trkpt>
      <trkpt lat="60.4572" lon="7.82157">
        <ele>1136.42</ele>
        <time>2019-04-03T09:47:09Z</time>
      </trkpt>
      <trkpt lat="60.45709" lon="7.82159">
        <ele>1136.42</ele>
        <time>2019-04-03T09:47:20Z</time>
      </trkpt>
      <trkpt lat="60.45697" lon="7.82163">
        <ele>1136.42</ele>
        <time>2019-04-03T09:47:32Z</time>
      </trkpt>
      <trkpt lat="60.45688" lon="7.82163">
        <ele>1136.42</ele>
        <time>2019-04-03T09:47:42Z</time>
      </trkpt>
      <trkpt lat="60.45679" lon="7.82163">
        <ele>1136.42</ele>
        <time>2019-04-03T09:47:51Z</time>
      </trkpt>
      <trkpt lat="60.45678" lon="7.82163">
        <ele>1136.42</ele>
        <time>2019-04-03T09:47:52Z</time>
      </trkpt>
      <trkpt lat="60.45669" lon="7.82164">
        <ele>1136.42</ele>
        <time>2019-04-03T09:48:03Z</time>
      </trkpt>
      <trkpt lat="60.45661" lon="7.82166">
        <ele>1136.42</ele>
        <time>2019-04-03T09:48:13Z</time>
      </trkpt>
      <trkpt lat="60.45653" lon="7.82166">
        <ele>1136.42</ele>
        <time>2019-04-03T09:48:21Z</time>
      </trkpt>
      <trkpt lat="60.45649" lon="7.82168">
        <ele>1136.42</ele>
        <time>2019-04-03T09:48:26Z</time>
      </trkpt>
      <trkpt lat="60.45638" lon="7.82169">
        <ele>1136.9</ele>
        <time>2019-04-03T09:48:37Z</time>
      </trkpt>
      <trkpt lat="60.45625" lon="7.8217">
        <ele>1136.9</ele>
        <time>2019-04-03T09:48:48Z</time>
      </trkpt>
      <trkpt lat="60.45613" lon="7.82171">
        <ele>1136.9</ele>
        <time>2019-04-03T09:49:00Z</time>
      </trkpt>
      <trkpt lat="60.45608" lon="7.8217">
        <ele>1136.9</ele>
        <time>2019-04-03T09:49:12Z</time>
      </trkpt>
      <trkpt lat="60.45598" lon="7.82169">
        <ele>1136.9</ele>
        <time>2019-04-03T09:49:22Z</time>
      </trkpt>
      <trkpt lat="60.45586" lon="7.8217">
        <ele>1137.38</ele>
        <time>2019-04-03T09:49:33Z</time>
      </trkpt>
      <trkpt lat="60.4558" lon="7.8217">
        <ele>1137.38</ele>
        <time>2019-04-03T09:49:42Z</time>
      </trkpt>
      <trkpt lat="60.45569" lon="7.82171">
        <ele>1136.42</ele>
        <time>2019-04-03T09:49:54Z</time>
      </trkpt>
      <trkpt lat="60.45556" lon="7.82171">
        <ele>1136.42</ele>
        <time>2019-04-03T09:50:06Z</time>
      </trkpt>
      <trkpt lat="60.45544" lon="7.82172">
        <ele>1137.38</ele>
        <time>2019-04-03T09:50:18Z</time>
      </trkpt>
      <trkpt lat="60.45534" lon="7.82173">
        <ele>1137.38</ele>
        <time>2019-04-03T09:50:29Z</time>
      </trkpt>
      <trkpt lat="60.45522" lon="7.82177">
        <ele>1136.42</ele>
        <time>2019-04-03T09:50:40Z</time>
      </trkpt>
      <trkpt lat="60.4551" lon="7.82182">
        <ele>1136.42</ele>
        <time>2019-04-03T09:50:52Z</time>
      </trkpt>
      <trkpt lat="60.455" lon="7.82185">
        <ele>1136.42</ele>
        <time>2019-04-03T09:51:03Z</time>
      </trkpt>
      <trkpt lat="60.45494" lon="7.82187">
        <ele>1136.42</ele>
        <time>2019-04-03T09:51:13Z</time>
      </trkpt>
      <trkpt lat="60.45486" lon="7.82191">
        <ele>1136.42</ele>
        <time>2019-04-03T09:51:23Z</time>
      </trkpt>
      <trkpt lat="60.45478" lon="7.82199">
        <ele>1137.38</ele>
        <time>2019-04-03T09:51:37Z</time>
      </trkpt>
      <trkpt lat="60.45471" lon="7.82202">
        <ele>1138.34</ele>
        <time>2019-04-03T09:51:47Z</time>
      </trkpt>
      <trkpt lat="60.45461" lon="7.8221">
        <ele>1139.78</ele>
        <time>2019-04-03T09:51:58Z</time>
      </trkpt>
      <trkpt lat="60.45452" lon="7.82212">
        <ele>1139.78</ele>
        <time>2019-04-03T09:52:09Z</time>
      </trkpt>
      <trkpt lat="60.45444" lon="7.82209">
        <ele>1139.78</ele>
        <time>2019-04-03T09:52:20Z</time>
      </trkpt>
      <trkpt lat="60.45434" lon="7.82213">
        <ele>1139.78</ele>
        <time>2019-04-03T09:52:32Z</time>
      </trkpt>
      <trkpt lat="60.45424" lon="7.82221">
        <ele>1139.78</ele>
        <time>2019-04-03T09:52:44Z</time>
      </trkpt>
      <trkpt lat="60.45412" lon="7.82226">
        <ele>1139.78</ele>
        <time>2019-04-03T09:52:55Z</time>
      </trkpt>
      <trkpt lat="60.45404" lon="7.82225">
        <ele>1139.78</ele>
        <time>2019-04-03T09:53:05Z</time>
      </trkpt>
      <trkpt lat="60.45396" lon="7.82229">
        <ele>1139.78</ele>
        <time>2019-04-03T09:53:15Z</time>
      </trkpt>
      <trkpt lat="60.45385" lon="7.82235">
        <ele>1139.78</ele>
        <time>2019-04-03T09:53:27Z</time>
      </trkpt>
      <trkpt lat="60.45376" lon="7.8224">
        <ele>1139.78</ele>
        <time>2019-04-03T09:53:38Z</time>
      </trkpt>
      <trkpt lat="60.45366" lon="7.82246">
        <ele>1139.78</ele>
        <time>2019-04-03T09:53:49Z</time>
      </trkpt>
      <trkpt lat="60.45356" lon="7.82248">
        <ele>1139.78</ele>
        <time>2019-04-03T09:54:01Z</time>
      </trkpt>
      <trkpt lat="60.45348" lon="7.82251">
        <ele>1139.78</ele>
        <time>2019-04-03T09:54:11Z</time>
      </trkpt>
      <trkpt lat="60.45337" lon="7.82253">
        <ele>1140.26</ele>
        <time>2019-04-03T09:54:22Z</time>
      </trkpt>
      <trkpt lat="60.45327" lon="7.82254">
        <ele>1140.26</ele>
        <time>2019-04-03T09:54:33Z</time>
      </trkpt>
      <trkpt lat="60.45315" lon="7.82254">
        <ele>1140.26</ele>
        <time>2019-04-03T09:54:44Z</time>
      </trkpt>
      <trkpt lat="60.45303" lon="7.82252">
        <ele>1140.26</ele>
        <time>2019-04-03T09:54:55Z</time>
      </trkpt>
      <trkpt lat="60.45292" lon="7.82253">
        <ele>1140.26</ele>
        <time>2019-04-03T09:55:07Z</time>
      </trkpt>
      <trkpt lat="60.4528" lon="7.82254">
        <ele>1141.22</ele>
        <time>2019-04-03T09:55:19Z</time>
      </trkpt>
      <trkpt lat="60.45271" lon="7.82256">
        <ele>1141.7</ele>
        <time>2019-04-03T09:55:30Z</time>
      </trkpt>
      <trkpt lat="60.45263" lon="7.82258">
        <ele>1142.18</ele>
        <time>2019-04-03T09:55:41Z</time>
      </trkpt>
      <trkpt lat="60.45254" lon="7.8226">
        <ele>1142.18</ele>
        <time>2019-04-03T09:55:51Z</time>
      </trkpt>
      <trkpt lat="60.45244" lon="7.82263">
        <ele>1143.14</ele>
        <time>2019-04-03T09:56:02Z</time>
      </trkpt>
      <trkpt lat="60.45235" lon="7.82266">
        <ele>1143.14</ele>
        <time>2019-04-03T09:56:13Z</time>
      </trkpt>
      <trkpt lat="60.45222" lon="7.82273">
        <ele>1143.63</ele>
        <time>2019-04-03T09:56:27Z</time>
      </trkpt>
      <trkpt lat="60.45211" lon="7.82277">
        <ele>1143.63</ele>
        <time>2019-04-03T09:56:38Z</time>
      </trkpt>
      <trkpt lat="60.45201" lon="7.82283">
        <ele>1142.18</ele>
        <time>2019-04-03T09:56:49Z</time>
      </trkpt>
      <trkpt lat="60.45191" lon="7.82287">
        <ele>1142.18</ele>
        <time>2019-04-03T09:57:00Z</time>
      </trkpt>
      <trkpt lat="60.45177" lon="7.82295">
        <ele>1141.22</ele>
        <time>2019-04-03T09:57:13Z</time>
      </trkpt>
      <trkpt lat="60.45165" lon="7.82304">
        <ele>1139.78</ele>
        <time>2019-04-03T09:57:24Z</time>
      </trkpt>
      <trkpt lat="60.45155" lon="7.82309">
        <ele>1138.82</ele>
        <time>2019-04-03T09:57:36Z</time>
      </trkpt>
      <trkpt lat="60.45147" lon="7.82315">
        <ele>1138.82</ele>
        <time>2019-04-03T09:57:47Z</time>
      </trkpt>
      <trkpt lat="60.45142" lon="7.82316">
        <ele>1140.26</ele>
        <time>2019-04-03T09:57:52Z</time>
      </trkpt>
      <trkpt lat="60.45132" lon="7.82318">
        <ele>1140.26</ele>
        <time>2019-04-03T09:58:04Z</time>
      </trkpt>
      <trkpt lat="60.45121" lon="7.82317">
        <ele>1140.26</ele>
        <time>2019-04-03T09:58:15Z</time>
      </trkpt>
      <trkpt lat="60.45111" lon="7.8232">
        <ele>1140.26</ele>
        <time>2019-04-03T09:58:26Z</time>
      </trkpt>
      <trkpt lat="60.45101" lon="7.82321">
        <ele>1140.26</ele>
        <time>2019-04-03T09:58:37Z</time>
      </trkpt>
      <trkpt lat="60.45094" lon="7.82323">
        <ele>1140.74</ele>
        <time>2019-04-03T09:58:48Z</time>
      </trkpt>
      <trkpt lat="60.45087" lon="7.82324">
        <ele>1141.7</ele>
        <time>2019-04-03T09:58:59Z</time>
      </trkpt>
      <trkpt lat="60.45079" lon="7.82327">
        <ele>1142.66</ele>
        <time>2019-04-03T09:59:11Z</time>
      </trkpt>
      <trkpt lat="60.45071" lon="7.82329">
        <ele>1143.14</ele>
        <time>2019-04-03T09:59:21Z</time>
      </trkpt>
      <trkpt lat="60.45063" lon="7.82332">
        <ele>1143.14</ele>
        <time>2019-04-03T09:59:31Z</time>
      </trkpt>
      <trkpt lat="60.45053" lon="7.82335">
        <ele>1143.63</ele>
        <time>2019-04-03T09:59:43Z</time>
      </trkpt>
      <trkpt lat="60.45044" lon="7.82337">
        <ele>1144.11</ele>
        <time>2019-04-03T09:59:55Z</time>
      </trkpt>
      <trkpt lat="60.45033" lon="7.8234">
        <ele>1144.11</ele>
        <time>2019-04-03T10:00:08Z</time>
      </trkpt>
      <trkpt lat="60.45021" lon="7.82346">
        <ele>1144.11</ele>
        <time>2019-04-03T10:00:19Z</time>
      </trkpt>
      <trkpt lat="60.4501" lon="7.8235">
        <ele>1143.14</ele>
        <time>2019-04-03T10:00:31Z</time>
      </trkpt>
      <trkpt lat="60.45" lon="7.82353">
        <ele>1143.14</ele>
        <time>2019-04-03T10:00:42Z</time>
      </trkpt>
      <trkpt lat="60.44991" lon="7.82356">
        <ele>1143.14</ele>
        <time>2019-04-03T10:00:53Z</time>
      </trkpt>
      <trkpt lat="60.44986" lon="7.82357">
        <ele>1143.14</ele>
        <time>2019-04-03T10:00:59Z</time>
      </trkpt>
      <trkpt lat="60.44983" lon="7.82357">
        <ele>1143.14</ele>
        <time>2019-04-03T10:01:02Z</time>
      </trkpt>
      <trkpt lat="60.44972" lon="7.8236">
        <ele>1143.14</ele>
        <time>2019-04-03T10:01:13Z</time>
      </trkpt>
      <trkpt lat="60.44971" lon="7.8236">
        <ele>1143.14</ele>
        <time>2019-04-03T10:01:27Z</time>
      </trkpt>
      <trkpt lat="60.4497" lon="7.8236">
        <ele>1143.14</ele>
        <time>2019-04-03T10:01:45Z</time>
      </trkpt>
      <trkpt lat="60.44961" lon="7.82359">
        <ele>1143.14</ele>
        <time>2019-04-03T10:01:56Z</time>
      </trkpt>
      <trkpt lat="60.4496" lon="7.82357">
        <ele>1143.14</ele>
        <time>2019-04-03T10:02:12Z</time>
      </trkpt>
      <trkpt lat="60.4496" lon="7.82357">
        <ele>1144.59</ele>
        <time>2019-04-03T10:02:35Z</time>
      </trkpt>
      <trkpt lat="60.44961" lon="7.82356">
        <ele>1144.59</ele>
        <time>2019-04-03T10:03:02Z</time>
      </trkpt>
      <trkpt lat="60.4496" lon="7.82357">
        <ele>1144.59</ele>
        <time>2019-04-03T10:03:28Z</time>
      </trkpt>
      <trkpt lat="60.44958" lon="7.82353">
        <ele>1144.59</ele>
        <time>2019-04-03T10:03:39Z</time>
      </trkpt>
      <trkpt lat="60.44951" lon="7.82349">
        <ele>1145.07</ele>
        <time>2019-04-03T10:03:49Z</time>
      </trkpt>
      <trkpt lat="60.4494" lon="7.82344">
        <ele>1145.55</ele>
        <time>2019-04-03T10:04:01Z</time>
      </trkpt>
      <trkpt lat="60.44929" lon="7.82337">
        <ele>1146.03</ele>
        <time>2019-04-03T10:04:13Z</time>
      </trkpt>
      <trkpt lat="60.44919" lon="7.82334">
        <ele>1146.03</ele>
        <time>2019-04-03T10:04:24Z</time>
      </trkpt>
      <trkpt lat="60.44908" lon="7.82329">
        <ele>1146.03</ele>
        <time>2019-04-03T10:04:35Z</time>
      </trkpt>
      <trkpt lat="60.44896" lon="7.82323">
        <ele>1146.03</ele>
        <time>2019-04-03T10:04:48Z</time>
      </trkpt>
      <trkpt lat="60.44893" lon="7.82319">
        <ele>1146.03</ele>
        <time>2019-04-03T10:04:58Z</time>
      </trkpt>
      <trkpt lat="60.44893" lon="7.82318">
        <ele>1146.03</ele>
        <time>2019-04-03T10:05:18Z</time>
      </trkpt>
      <trkpt lat="60.44888" lon="7.8232">
        <ele>1146.03</ele>
        <time>2019-04-03T10:05:33Z</time>
      </trkpt>
      <trkpt lat="60.44877" lon="7.82316">
        <ele>1146.51</ele>
        <time>2019-04-03T10:05:44Z</time>
      </trkpt>
      <trkpt lat="60.44866" lon="7.82311">
        <ele>1146.51</ele>
        <time>2019-04-03T10:05:55Z</time>
      </trkpt>
      <trkpt lat="60.44855" lon="7.82308">
        <ele>1146.51</ele>
        <time>2019-04-03T10:06:06Z</time>
      </trkpt>
      <trkpt lat="60.44845" lon="7.823">
        <ele>1145.55</ele>
        <time>2019-04-03T10:06:17Z</time>
      </trkpt>
      <trkpt lat="60.44831" lon="7.8229">
        <ele>1145.07</ele>
        <time>2019-04-03T10:06:29Z</time>
      </trkpt>
      <trkpt lat="60.44819" lon="7.82284">
        <ele>1145.07</ele>
        <time>2019-04-03T10:06:39Z</time>
      </trkpt>
      <trkpt lat="60.44805" lon="7.82277">
        <ele>1143.14</ele>
        <time>2019-04-03T10:06:49Z</time>
      </trkpt>
      <trkpt lat="60.4479" lon="7.8227">
        <ele>1142.18</ele>
        <time>2019-04-03T10:07:01Z</time>
      </trkpt>
      <trkpt lat="60.44779" lon="7.82265">
        <ele>1141.7</ele>
        <time>2019-04-03T10:07:11Z</time>
      </trkpt>
      <trkpt lat="60.44763" lon="7.82259">
        <ele>1140.74</ele>
        <time>2019-04-03T10:07:23Z</time>
      </trkpt>
      <trkpt lat="60.44751" lon="7.82258">
        <ele>1140.74</ele>
        <time>2019-04-03T10:07:35Z</time>
      </trkpt>
      <trkpt lat="60.44746" lon="7.82256">
        <ele>1140.74</ele>
        <time>2019-04-03T10:07:40Z</time>
      </trkpt>
      <trkpt lat="60.44736" lon="7.82248">
        <ele>1140.74</ele>
        <time>2019-04-03T10:07:51Z</time>
      </trkpt>
      <trkpt lat="60.44724" lon="7.82243">
        <ele>1140.74</ele>
        <time>2019-04-03T10:08:04Z</time>
      </trkpt>
      <trkpt lat="60.44714" lon="7.82238">
        <ele>1140.74</ele>
        <time>2019-04-03T10:08:15Z</time>
      </trkpt>
      <trkpt lat="60.44709" lon="7.82233">
        <ele>1140.74</ele>
        <time>2019-04-03T10:08:25Z</time>
      </trkpt>
      <trkpt lat="60.447" lon="7.82227">
        <ele>1140.74</ele>
        <time>2019-04-03T10:08:36Z</time>
      </trkpt>
      <trkpt lat="60.44692" lon="7.82216">
        <ele>1140.74</ele>
        <time>2019-04-03T10:08:46Z</time>
      </trkpt>
      <trkpt lat="60.44681" lon="7.82211">
        <ele>1140.74</ele>
        <time>2019-04-03T10:08:58Z</time>
      </trkpt>
      <trkpt lat="60.4467" lon="7.82206">
        <ele>1140.26</ele>
        <time>2019-04-03T10:09:09Z</time>
      </trkpt>
      <trkpt lat="60.44653" lon="7.82201">
        <ele>1138.82</ele>
        <time>2019-04-03T10:09:21Z</time>
      </trkpt>
      <trkpt lat="60.44641" lon="7.82197">
        <ele>1138.34</ele>
        <time>2019-04-03T10:09:32Z</time>
      </trkpt>
      <trkpt lat="60.44631" lon="7.82191">
        <ele>1138.82</ele>
        <time>2019-04-03T10:09:43Z</time>
      </trkpt>
      <trkpt lat="60.44626" lon="7.82189">
        <ele>1138.82</ele>
        <time>2019-04-03T10:09:53Z</time>
      </trkpt>
      <trkpt lat="60.44621" lon="7.82186">
        <ele>1138.82</ele>
        <time>2019-04-03T10:10:05Z</time>
      </trkpt>
      <trkpt lat="60.44612" lon="7.82182">
        <ele>1138.82</ele>
        <time>2019-04-03T10:10:15Z</time>
      </trkpt>
      <trkpt lat="60.44601" lon="7.82176">
        <ele>1138.34</ele>
        <time>2019-04-03T10:10:28Z</time>
      </trkpt>
      <trkpt lat="60.44592" lon="7.82168">
        <ele>1138.82</ele>
        <time>2019-04-03T10:10:38Z</time>
      </trkpt>
      <trkpt lat="60.44586" lon="7.82163">
        <ele>1138.82</ele>
        <time>2019-04-03T10:10:46Z</time>
      </trkpt>
      <trkpt lat="60.44573" lon="7.82157">
        <ele>1138.82</ele>
        <time>2019-04-03T10:10:59Z</time>
      </trkpt>
      <trkpt lat="60.44566" lon="7.82152">
        <ele>1138.82</ele>
        <time>2019-04-03T10:11:09Z</time>
      </trkpt>
      <trkpt lat="60.44558" lon="7.82146">
        <ele>1139.78</ele>
        <time>2019-04-03T10:11:19Z</time>
      </trkpt>
      <trkpt lat="60.44551" lon="7.8214">
        <ele>1140.26</ele>
        <time>2019-04-03T10:11:29Z</time>
      </trkpt>
      <trkpt lat="60.44548" lon="7.8214">
        <ele>1140.26</ele>
        <time>2019-04-03T10:11:33Z</time>
      </trkpt>
      <trkpt lat="60.44543" lon="7.82141">
        <ele>1140.26</ele>
        <time>2019-04-03T10:11:38Z</time>
      </trkpt>
      <trkpt lat="60.44532" lon="7.82138">
        <ele>1141.22</ele>
        <time>2019-04-03T10:11:50Z</time>
      </trkpt>
      <trkpt lat="60.44523" lon="7.82134">
        <ele>1141.22</ele>
        <time>2019-04-03T10:12:02Z</time>
      </trkpt>
      <trkpt lat="60.44514" lon="7.82131">
        <ele>1141.7</ele>
        <time>2019-04-03T10:12:12Z</time>
      </trkpt>
      <trkpt lat="60.44505" lon="7.82128">
        <ele>1142.18</ele>
        <time>2019-04-03T10:12:23Z</time>
      </trkpt>
      <trkpt lat="60.44496" lon="7.82126">
        <ele>1142.66</ele>
        <time>2019-04-03T10:12:34Z</time>
      </trkpt>
      <trkpt lat="60.44488" lon="7.82122">
        <ele>1144.11</ele>
        <time>2019-04-03T10:12:44Z</time>
      </trkpt>
      <trkpt lat="60.44481" lon="7.82119">
        <ele>1144.11</ele>
        <time>2019-04-03T10:12:54Z</time>
      </trkpt>
      <trkpt lat="60.44473" lon="7.82114">
        <ele>1144.59</ele>
        <time>2019-04-03T10:13:05Z</time>
      </trkpt>
      <trkpt lat="60.44466" lon="7.8211">
        <ele>1144.59</ele>
        <time>2019-04-03T10:13:16Z</time>
      </trkpt>
      <trkpt lat="60.44458" lon="7.82105">
        <ele>1145.07</ele>
        <time>2019-04-03T10:13:27Z</time>
      </trkpt>
      <trkpt lat="60.44449" lon="7.82097">
        <ele>1145.55</ele>
        <time>2019-04-03T10:13:39Z</time>
      </trkpt>
      <trkpt lat="60.44439" lon="7.82085">
        <ele>1145.55</ele>
        <time>2019-04-03T10:13:51Z</time>
      </trkpt>
      <trkpt lat="60.44432" lon="7.82076">
        <ele>1145.55</ele>
        <time>2019-04-03T10:14:02Z</time>
      </trkpt>
      <trkpt lat="60.44427" lon="7.82071">
        <ele>1146.99</ele>
        <time>2019-04-03T10:14:08Z</time>
      </trkpt>
      <trkpt lat="60.44419" lon="7.82065">
        <ele>1146.99</ele>
        <time>2019-04-03T10:14:19Z</time>
      </trkpt>
      <trkpt lat="60.44414" lon="7.82061">
        <ele>1146.99</ele>
        <time>2019-04-03T10:14:25Z</time>
      </trkpt>
      <trkpt lat="60.44403" lon="7.82053">
        <ele>1146.99</ele>
        <time>2019-04-03T10:14:39Z</time>
      </trkpt>
      <trkpt lat="60.44395" lon="7.82046">
        <ele>1147.47</ele>
        <time>2019-04-03T10:14:50Z</time>
      </trkpt>
      <trkpt lat="60.44385" lon="7.82039">
        <ele>1147.47</ele>
        <time>2019-04-03T10:15:02Z</time>
      </trkpt>
      <trkpt lat="60.44375" lon="7.82031">
        <ele>1147.47</ele>
        <time>2019-04-03T10:15:13Z</time>
      </trkpt>
      <trkpt lat="60.44367" lon="7.82018">
        <ele>1147.47</ele>
        <time>2019-04-03T10:15:25Z</time>
      </trkpt>
      <trkpt lat="60.44359" lon="7.82012">
        <ele>1147.47</ele>
        <time>2019-04-03T10:15:35Z</time>
      </trkpt>
      <trkpt lat="60.4435" lon="7.82008">
        <ele>1147.95</ele>
        <time>2019-04-03T10:15:46Z</time>
      </trkpt>
      <trkpt lat="60.44342" lon="7.82003">
        <ele>1147.95</ele>
        <time>2019-04-03T10:15:57Z</time>
      </trkpt>
      <trkpt lat="60.44335" lon="7.81997">
        <ele>1148.43</ele>
        <time>2019-04-03T10:16:07Z</time>
      </trkpt>
      <trkpt lat="60.44327" lon="7.81991">
        <ele>1148.91</ele>
        <time>2019-04-03T10:16:18Z</time>
      </trkpt>
      <trkpt lat="60.44319" lon="7.81987">
        <ele>1149.39</ele>
        <time>2019-04-03T10:16:29Z</time>
      </trkpt>
      <trkpt lat="60.4431" lon="7.81978">
        <ele>1150.35</ele>
        <time>2019-04-03T10:16:41Z</time>
      </trkpt>
      <trkpt lat="60.44303" lon="7.81972">
        <ele>1151.32</ele>
        <time>2019-04-03T10:16:52Z</time>
      </trkpt>
      <trkpt lat="60.44294" lon="7.81966">
        <ele>1151.8</ele>
        <time>2019-04-03T10:17:05Z</time>
      </trkpt>
      <trkpt lat="60.44286" lon="7.81961">
        <ele>1152.28</ele>
        <time>2019-04-03T10:17:16Z</time>
      </trkpt>
      <trkpt lat="60.44275" lon="7.81955">
        <ele>1152.28</ele>
        <time>2019-04-03T10:17:28Z</time>
      </trkpt>
      <trkpt lat="60.44266" lon="7.81947">
        <ele>1152.28</ele>
        <time>2019-04-03T10:17:38Z</time>
      </trkpt>
      <trkpt lat="60.44254" lon="7.81942">
        <ele>1150.84</ele>
        <time>2019-04-03T10:17:49Z</time>
      </trkpt>
      <trkpt lat="60.44243" lon="7.81941">
        <ele>1150.84</ele>
        <time>2019-04-03T10:18:00Z</time>
      </trkpt>
      <trkpt lat="60.44234" lon="7.8194">
        <ele>1150.84</ele>
        <time>2019-04-03T10:18:11Z</time>
      </trkpt>
      <trkpt lat="60.44228" lon="7.81939">
        <ele>1150.84</ele>
        <time>2019-04-03T10:18:23Z</time>
      </trkpt>
      <trkpt lat="60.44227" lon="7.81939">
        <ele>1152.28</ele>
        <time>2019-04-03T10:18:42Z</time>
      </trkpt>
      <trkpt lat="60.44228" lon="7.81937">
        <ele>1152.28</ele>
        <time>2019-04-03T10:19:06Z</time>
      </trkpt>
      <trkpt lat="60.44227" lon="7.81938">
        <ele>1152.28</ele>
        <time>2019-04-03T10:19:36Z</time>
      </trkpt>
      <trkpt lat="60.44226" lon="7.81933">
        <ele>1152.28</ele>
        <time>2019-04-03T10:19:54Z</time>
      </trkpt>
      <trkpt lat="60.44226" lon="7.81934">
        <ele>1152.28</ele>
        <time>2019-04-03T10:20:12Z</time>
      </trkpt>
      <trkpt lat="60.44227" lon="7.81937">
        <ele>1152.28</ele>
        <time>2019-04-03T10:20:31Z</time>
      </trkpt>
      <trkpt lat="60.4422" lon="7.81935">
        <ele>1152.28</ele>
        <time>2019-04-03T10:20:44Z</time>
      </trkpt>
      <trkpt lat="60.44202" lon="7.81917">
        <ele>1147.95</ele>
        <time>2019-04-03T10:20:55Z</time>
      </trkpt>
      <trkpt lat="60.44189" lon="7.81901">
        <ele>1147.95</ele>
        <time>2019-04-03T10:21:01Z</time>
      </trkpt>
      <trkpt lat="60.44178" lon="7.81887">
        <ele>1147.47</ele>
        <time>2019-04-03T10:21:11Z</time>
      </trkpt>
      <trkpt lat="60.44167" lon="7.81874">
        <ele>1147.47</ele>
        <time>2019-04-03T10:21:23Z</time>
      </trkpt>
      <trkpt lat="60.44157" lon="7.81861">
        <ele>1147.47</ele>
        <time>2019-04-03T10:21:35Z</time>
      </trkpt>
      <trkpt lat="60.44149" lon="7.81851">
        <ele>1147.47</ele>
        <time>2019-04-03T10:21:46Z</time>
      </trkpt>
      <trkpt lat="60.44138" lon="7.81842">
        <ele>1147.47</ele>
        <time>2019-04-03T10:21:58Z</time>
      </trkpt>
      <trkpt lat="60.44126" lon="7.81831">
        <ele>1147.47</ele>
        <time>2019-04-03T10:22:11Z</time>
      </trkpt>
      <trkpt lat="60.44116" lon="7.81821">
        <ele>1147.47</ele>
        <time>2019-04-03T10:22:22Z</time>
      </trkpt>
      <trkpt lat="60.44104" lon="7.8181">
        <ele>1147.47</ele>
        <time>2019-04-03T10:22:36Z</time>
      </trkpt>
      <trkpt lat="60.44097" lon="7.81801">
        <ele>1147.47</ele>
        <time>2019-04-03T10:22:47Z</time>
      </trkpt>
      <trkpt lat="60.44091" lon="7.81793">
        <ele>1148.91</ele>
        <time>2019-04-03T10:22:56Z</time>
      </trkpt>
      <trkpt lat="60.44083" lon="7.8178">
        <ele>1149.87</ele>
        <time>2019-04-03T10:23:09Z</time>
      </trkpt>
      <trkpt lat="60.44078" lon="7.81765">
        <ele>1150.84</ele>
        <time>2019-04-03T10:23:23Z</time>
      </trkpt>
      <trkpt lat="60.44074" lon="7.81745">
        <ele>1151.32</ele>
        <time>2019-04-03T10:23:37Z</time>
      </trkpt>
      <trkpt lat="60.44073" lon="7.81742">
        <ele>1151.32</ele>
        <time>2019-04-03T10:23:39Z</time>
      </trkpt>
      <trkpt lat="60.44069" lon="7.81722">
        <ele>1152.76</ele>
        <time>2019-04-03T10:23:53Z</time>
      </trkpt>
      <trkpt lat="60.44066" lon="7.81701">
        <ele>1153.24</ele>
        <time>2019-04-03T10:24:06Z</time>
      </trkpt>
      <trkpt lat="60.44063" lon="7.81679">
        <ele>1153.72</ele>
        <time>2019-04-03T10:24:18Z</time>
      </trkpt>
      <trkpt lat="60.44059" lon="7.8166">
        <ele>1153.72</ele>
        <time>2019-04-03T10:24:29Z</time>
      </trkpt>
      <trkpt lat="60.4405" lon="7.81646">
        <ele>1154.2</ele>
        <time>2019-04-03T10:24:40Z</time>
      </trkpt>
      <trkpt lat="60.44042" lon="7.81642">
        <ele>1154.68</ele>
        <time>2019-04-03T10:24:51Z</time>
      </trkpt>
      <trkpt lat="60.44034" lon="7.81642">
        <ele>1155.64</ele>
        <time>2019-04-03T10:25:02Z</time>
      </trkpt>
      <trkpt lat="60.44025" lon="7.81637">
        <ele>1156.6</ele>
        <time>2019-04-03T10:25:14Z</time>
      </trkpt>
      <trkpt lat="60.44016" lon="7.81631">
        <ele>1157.56</ele>
        <time>2019-04-03T10:25:27Z</time>
      </trkpt>
      <trkpt lat="60.44009" lon="7.81621">
        <ele>1158.53</ele>
        <time>2019-04-03T10:25:39Z</time>
      </trkpt>
      <trkpt lat="60.44001" lon="7.8161">
        <ele>1159.49</ele>
        <time>2019-04-03T10:25:51Z</time>
      </trkpt>
      <trkpt lat="60.43993" lon="7.81599">
        <ele>1160.45</ele>
        <time>2019-04-03T10:26:03Z</time>
      </trkpt>
      <trkpt lat="60.43987" lon="7.81588">
        <ele>1160.93</ele>
        <time>2019-04-03T10:26:14Z</time>
      </trkpt>
      <trkpt lat="60.4398" lon="7.81576">
        <ele>1161.41</ele>
        <time>2019-04-03T10:26:26Z</time>
      </trkpt>
      <trkpt lat="60.43971" lon="7.81568">
        <ele>1162.85</ele>
        <time>2019-04-03T10:26:38Z</time>
      </trkpt>
      <trkpt lat="60.43964" lon="7.81562">
        <ele>1163.33</ele>
        <time>2019-04-03T10:26:49Z</time>
      </trkpt>
      <trkpt lat="60.43959" lon="7.81557">
        <ele>1163.81</ele>
        <time>2019-04-03T10:27:01Z</time>
      </trkpt>
      <trkpt lat="60.4395" lon="7.81545">
        <ele>1163.81</ele>
        <time>2019-04-03T10:27:12Z</time>
      </trkpt>
      <trkpt lat="60.4394" lon="7.81529">
        <ele>1164.29</ele>
        <time>2019-04-03T10:27:23Z</time>
      </trkpt>
      <trkpt lat="60.43929" lon="7.81511">
        <ele>1161.89</ele>
        <time>2019-04-03T10:27:33Z</time>
      </trkpt>
      <trkpt lat="60.43923" lon="7.81494">
        <ele>1161.89</ele>
        <time>2019-04-03T10:27:44Z</time>
      </trkpt>
      <trkpt lat="60.43917" lon="7.81477">
        <ele>1161.89</ele>
        <time>2019-04-03T10:27:54Z</time>
      </trkpt>
      <trkpt lat="60.43911" lon="7.81455">
        <ele>1161.41</ele>
        <time>2019-04-03T10:28:06Z</time>
      </trkpt>
      <trkpt lat="60.43905" lon="7.81432">
        <ele>1160.93</ele>
        <time>2019-04-03T10:28:18Z</time>
      </trkpt>
      <trkpt lat="60.43903" lon="7.81421">
        <ele>1160.93</ele>
        <time>2019-04-03T10:28:29Z</time>
      </trkpt>
      <trkpt lat="60.439" lon="7.81409">
        <ele>1160.93</ele>
        <time>2019-04-03T10:28:41Z</time>
      </trkpt>
      <trkpt lat="60.43895" lon="7.81389">
        <ele>1161.41</ele>
        <time>2019-04-03T10:28:53Z</time>
      </trkpt>
      <trkpt lat="60.43893" lon="7.81376">
        <ele>1162.37</ele>
        <time>2019-04-03T10:29:01Z</time>
      </trkpt>
      <trkpt lat="60.4389" lon="7.81369">
        <ele>1162.37</ele>
        <time>2019-04-03T10:29:13Z</time>
      </trkpt>
      <trkpt lat="60.43889" lon="7.8137">
        <ele>1162.37</ele>
        <time>2019-04-03T10:29:36Z</time>
      </trkpt>
      <trkpt lat="60.43889" lon="7.8137">
        <ele>1161.89</ele>
        <time>2019-04-03T10:29:50Z</time>
      </trkpt>
      <trkpt lat="60.43889" lon="7.81369">
        <ele>1161.41</ele>
        <time>2019-04-03T10:30:09Z</time>
      </trkpt>
      <trkpt lat="60.4389" lon="7.8137">
        <ele>1162.85</ele>
        <time>2019-04-03T10:30:25Z</time>
      </trkpt>
      <trkpt lat="60.43889" lon="7.81369">
        <ele>1162.85</ele>
        <time>2019-04-03T10:30:49Z</time>
      </trkpt>
      <trkpt lat="60.43887" lon="7.8136">
        <ele>1162.85</ele>
        <time>2019-04-03T10:30:58Z</time>
      </trkpt>
      <trkpt lat="60.43883" lon="7.8134">
        <ele>1162.85</ele>
        <time>2019-04-03T10:31:09Z</time>
      </trkpt>
      <trkpt lat="60.43876" lon="7.81317">
        <ele>1162.85</ele>
        <time>2019-04-03T10:31:21Z</time>
      </trkpt>
      <trkpt lat="60.4387" lon="7.81294">
        <ele>1163.33</ele>
        <time>2019-04-03T10:31:33Z</time>
      </trkpt>
      <trkpt lat="60.43867" lon="7.81272">
        <ele>1163.33</ele>
        <time>2019-04-03T10:31:44Z</time>
      </trkpt>
      <trkpt lat="60.43864" lon="7.81251">
        <ele>1163.81</ele>
        <time>2019-04-03T10:31:56Z</time>
      </trkpt>
      <trkpt lat="60.43864" lon="7.81251">
        <ele>1159.49</ele>
        <time>2019-04-03T10:32:00Z</time>
      </trkpt>
      <trkpt lat="60.43864" lon="7.81251">
        <ele>1165.26</ele>
        <time>2019-04-03T10:32:01Z</time>
      </trkpt>
      <trkpt lat="60.43864" lon="7.81251">
        <ele>1165.26</ele>
        <time>2019-04-03T10:32:02Z</time>
      </trkpt>
      <trkpt lat="60.43864" lon="7.81251">
        <ele>1163.33</ele>
        <time>2019-04-03T10:32:04Z</time>
      </trkpt>
      <trkpt lat="60.43864" lon="7.8125">
        <ele>1163.33</ele>
        <time>2019-04-03T10:32:13Z</time>
      </trkpt>
      <trkpt lat="60.43864" lon="7.8125">
        <ele>1157.56</ele>
        <time>2019-04-03T10:32:15Z</time>
      </trkpt>
      <trkpt lat="60.43864" lon="7.8125">
        <ele>1162.37</ele>
        <time>2019-04-03T10:32:16Z</time>
      </trkpt>
      <trkpt lat="60.43863" lon="7.8125">
        <ele>1167.66</ele>
        <time>2019-04-03T10:32:26Z</time>
      </trkpt>
      <trkpt lat="60.43863" lon="7.81251">
        <ele>1167.66</ele>
        <time>2019-04-03T10:32:27Z</time>
      </trkpt>
      <trkpt lat="60.43863" lon="7.81251">
        <ele>1162.37</ele>
        <time>2019-04-03T10:32:29Z</time>
      </trkpt>
      <trkpt lat="60.43862" lon="7.81249">
        <ele>1158.53</ele>
        <time>2019-04-03T10:32:33Z</time>
      </trkpt>
      <trkpt lat="60.43862" lon="7.81249">
        <ele>1164.77</ele>
        <time>2019-04-03T10:32:34Z</time>
      </trkpt>
      <trkpt lat="60.43862" lon="7.81248">
        <ele>1160.45</ele>
        <time>2019-04-03T10:32:41Z</time>
      </trkpt>
      <trkpt lat="60.43862" lon="7.81248">
        <ele>1163.81</ele>
        <time>2019-04-03T10:32:50Z</time>
      </trkpt>
      <trkpt lat="60.43861" lon="7.81251">
        <ele>1162.37</ele>
        <time>2019-04-03T10:33:09Z</time>
      </trkpt>
      <trkpt lat="60.43861" lon="7.81251">
        <ele>1163.33</ele>
        <time>2019-04-03T10:33:27Z</time>
      </trkpt>
      <trkpt lat="60.43861" lon="7.81251">
        <ele>1164.77</ele>
        <time>2019-04-03T10:33:35Z</time>
      </trkpt>
      <trkpt lat="60.43863" lon="7.81252">
        <ele>1164.29</ele>
        <time>2019-04-03T10:33:59Z</time>
      </trkpt>
      <trkpt lat="60.43863" lon="7.81252">
        <ele>1158.05</ele>
        <time>2019-04-03T10:34:00Z</time>
      </trkpt>
      <trkpt lat="60.43863" lon="7.81252">
        <ele>1163.81</ele>
        <time>2019-04-03T10:34:01Z</time>
      </trkpt>
      <trkpt lat="60.43863" lon="7.81252">
        <ele>1159.97</ele>
        <time>2019-04-03T10:34:02Z</time>
      </trkpt>
      <trkpt lat="60.43863" lon="7.81251">
        <ele>1165.26</ele>
        <time>2019-04-03T10:34:03Z</time>
      </trkpt>
      <trkpt lat="60.43864" lon="7.81251">
        <ele>1161.41</ele>
        <time>2019-04-03T10:34:14Z</time>
      </trkpt>
      <trkpt lat="60.43864" lon="7.8125">
        <ele>1164.77</ele>
        <time>2019-04-03T10:34:16Z</time>
      </trkpt>
      <trkpt lat="60.43863" lon="7.81251">
        <ele>1166.22</ele>
        <time>2019-04-03T10:34:18Z</time>
      </trkpt>
      <trkpt lat="60.43864" lon="7.81252">
        <ele>1164.29</ele>
        <time>2019-04-03T10:34:20Z</time>
      </trkpt>
      <trkpt lat="60.43864" lon="7.81253">
        <ele>1158.53</ele>
        <time>2019-04-03T10:34:24Z</time>
      </trkpt>
      <trkpt lat="60.43865" lon="7.81251">
        <ele>1162.85</ele>
        <time>2019-04-03T10:34:25Z</time>
      </trkpt>
      <trkpt lat="60.43864" lon="7.81247">
        <ele>1162.85</ele>
        <time>2019-04-03T10:35:00Z</time>
      </trkpt>
      <trkpt lat="60.43863" lon="7.81249">
        <ele>1162.37</ele>
        <time>2019-04-03T10:35:32Z</time>
      </trkpt>
      <trkpt lat="60.43863" lon="7.81249">
        <ele>1162.37</ele>
        <time>2019-04-03T10:35:55Z</time>
      </trkpt>
      <trkpt lat="60.43865" lon="7.81247">
        <ele>1162.37</ele>
        <time>2019-04-03T10:36:22Z</time>
      </trkpt>
      <trkpt lat="60.43865" lon="7.81248">
        <ele>1162.37</ele>
        <time>2019-04-03T10:36:54Z</time>
      </trkpt>
      <trkpt lat="60.43865" lon="7.8125">
        <ele>1162.37</ele>
        <time>2019-04-03T10:37:28Z</time>
      </trkpt>
      <trkpt lat="60.43866" lon="7.81249">
        <ele>1162.37</ele>
        <time>2019-04-03T10:38:05Z</time>
      </trkpt>
      <trkpt lat="60.43865" lon="7.81248">
        <ele>1162.37</ele>
        <time>2019-04-03T10:38:36Z</time>
      </trkpt>
      <trkpt lat="60.43866" lon="7.81249">
        <ele>1162.37</ele>
        <time>2019-04-03T10:39:08Z</time>
      </trkpt>
      <trkpt lat="60.43865" lon="7.81251">
        <ele>1162.85</ele>
        <time>2019-04-03T10:39:37Z</time>
      </trkpt>
      <trkpt lat="60.43865" lon="7.8125">
        <ele>1162.85</ele>
        <time>2019-04-03T10:40:03Z</time>
      </trkpt>
      <trkpt lat="60.43865" lon="7.81249">
        <ele>1162.85</ele>
        <time>2019-04-03T10:40:29Z</time>
      </trkpt>
      <trkpt lat="60.43864" lon="7.8125">
        <ele>1162.85</ele>
        <time>2019-04-03T10:40:58Z</time>
      </trkpt>
      <trkpt lat="60.43863" lon="7.81252">
        <ele>1162.85</ele>
        <time>2019-04-03T10:41:20Z</time>
      </trkpt>
      <trkpt lat="60.43863" lon="7.81252">
        <ele>1162.85</ele>
        <time>2019-04-03T10:41:44Z</time>
      </trkpt>
      <trkpt lat="60.43864" lon="7.81253">
        <ele>1162.85</ele>
        <time>2019-04-03T10:42:09Z</time>
      </trkpt>
      <trkpt lat="60.43864" lon="7.81254">
        <ele>1162.85</ele>
        <time>2019-04-03T10:42:33Z</time>
      </trkpt>
      <trkpt lat="60.43864" lon="7.81254">
        <ele>1162.85</ele>
        <time>2019-04-03T10:42:56Z</time>
      </trkpt>
      <trkpt lat="60.43863" lon="7.81256">
        <ele>1162.85</ele>
        <time>2019-04-03T10:43:31Z</time>
      </trkpt>
      <trkpt lat="60.43864" lon="7.81254">
        <ele>1163.33</ele>
        <time>2019-04-03T10:44:00Z</time>
      </trkpt>
      <trkpt lat="60.43864" lon="7.81254">
        <ele>1163.33</ele>
        <time>2019-04-03T10:44:31Z</time>
      </trkpt>
      <trkpt lat="60.43863" lon="7.81254">
        <ele>1163.33</ele>
        <time>2019-04-03T10:44:54Z</time>
      </trkpt>
      <trkpt lat="60.43864" lon="7.81252">
        <ele>1164.29</ele>
        <time>2019-04-03T10:45:19Z</time>
      </trkpt>
      <trkpt lat="60.43864" lon="7.81253">
        <ele>1164.77</ele>
        <time>2019-04-03T10:45:42Z</time>
      </trkpt>
      <trkpt lat="60.43863" lon="7.81253">
        <ele>1164.77</ele>
        <time>2019-04-03T10:46:13Z</time>
      </trkpt>
      <trkpt lat="60.43863" lon="7.81253">
        <ele>1167.66</ele>
        <time>2019-04-03T10:46:35Z</time>
      </trkpt>
      <trkpt lat="60.43863" lon="7.81253">
        <ele>1167.66</ele>
        <time>2019-04-03T10:46:36Z</time>
      </trkpt>
      <trkpt lat="60.43863" lon="7.81254">
        <ele>1165.74</ele>
        <time>2019-04-03T10:46:39Z</time>
      </trkpt>
      <trkpt lat="60.43865" lon="7.81252">
        <ele>1160.93</ele>
        <time>2019-04-03T10:46:46Z</time>
      </trkpt>
      <trkpt lat="60.43864" lon="7.81253">
        <ele>1161.41</ele>
        <time>2019-04-03T10:46:47Z</time>
      </trkpt>
      <trkpt lat="60.43864" lon="7.81253">
        <ele>1164.77</ele>
        <time>2019-04-03T10:46:48Z</time>
      </trkpt>
      <trkpt lat="60.43865" lon="7.81252">
        <ele>1164.77</ele>
        <time>2019-04-03T10:46:49Z</time>
      </trkpt>
      <trkpt lat="60.43864" lon="7.81253">
        <ele>1167.18</ele>
        <time>2019-04-03T10:46:53Z</time>
      </trkpt>
      <trkpt lat="60.43864" lon="7.81254">
        <ele>1164.77</ele>
        <time>2019-04-03T10:46:56Z</time>
      </trkpt>
      <trkpt lat="60.43864" lon="7.81254">
        <ele>1168.62</ele>
        <time>2019-04-03T10:46:59Z</time>
      </trkpt>
      <trkpt lat="60.43864" lon="7.81254">
        <ele>1159.97</ele>
        <time>2019-04-03T10:47:02Z</time>
      </trkpt>
      <trkpt lat="60.43864" lon="7.81254">
        <ele>1165.74</ele>
        <time>2019-04-03T10:47:03Z</time>
      </trkpt>
      <trkpt lat="60.43865" lon="7.81256">
        <ele>1167.18</ele>
        <time>2019-04-03T10:47:14Z</time>
      </trkpt>
      <trkpt lat="60.43864" lon="7.81254">
        <ele>1164.77</ele>
        <time>2019-04-03T10:47:20Z</time>
      </trkpt>
      <trkpt lat="60.43864" lon="7.81253">
        <ele>1168.14</ele>
        <time>2019-04-03T10:47:22Z</time>
      </trkpt>
      <trkpt lat="60.43864" lon="7.81253">
        <ele>1166.7</ele>
        <time>2019-04-03T10:47:23Z</time>
      </trkpt>
      <trkpt lat="60.43863" lon="7.81253">
        <ele>1165.26</ele>
        <time>2019-04-03T10:47:37Z</time>
      </trkpt>
      <trkpt lat="60.43863" lon="7.8125">
        <ele>1154.68</ele>
        <time>2019-04-03T10:47:42Z</time>
      </trkpt>
      <trkpt lat="60.43863" lon="7.8125">
        <ele>1169.58</ele>
        <time>2019-04-03T10:47:43Z</time>
      </trkpt>
      <trkpt lat="60.43863" lon="7.8125">
        <ele>1163.81</ele>
        <time>2019-04-03T10:47:44Z</time>
      </trkpt>
      <trkpt lat="60.43863" lon="7.81249">
        <ele>1163.81</ele>
        <time>2019-04-03T10:47:51Z</time>
      </trkpt>
      <trkpt lat="60.43864" lon="7.8125">
        <ele>1168.14</ele>
        <time>2019-04-03T10:47:54Z</time>
      </trkpt>
      <trkpt lat="60.43864" lon="7.81249">
        <ele>1166.22</ele>
        <time>2019-04-03T10:47:55Z</time>
      </trkpt>
      <trkpt lat="60.43866" lon="7.81248">
        <ele>1166.7</ele>
        <time>2019-04-03T10:47:57Z</time>
      </trkpt>
      <trkpt lat="60.43865" lon="7.81247">
        <ele>1165.26</ele>
        <time>2019-04-03T10:48:05Z</time>
      </trkpt>
      <trkpt lat="60.43865" lon="7.81247">
        <ele>1170.54</ele>
        <time>2019-04-03T10:48:06Z</time>
      </trkpt>
      <trkpt lat="60.43864" lon="7.81247">
        <ele>1168.14</ele>
        <time>2019-04-03T10:48:07Z</time>
      </trkpt>
      <trkpt lat="60.43864" lon="7.81246">
        <ele>1164.77</ele>
        <time>2019-04-03T10:48:08Z</time>
      </trkpt>
      <trkpt lat="60.43864" lon="7.81247">
        <ele>1165.74</ele>
        <time>2019-04-03T10:48:09Z</time>
      </trkpt>
      <trkpt lat="60.43865" lon="7.81248">
        <ele>1156.12</ele>
        <time>2019-04-03T10:48:10Z</time>
      </trkpt>
      <trkpt lat="60.43864" lon="7.81248">
        <ele>1157.56</ele>
        <time>2019-04-03T10:48:11Z</time>
      </trkpt>
      <trkpt lat="60.43864" lon="7.81248">
        <ele>1171.98</ele>
        <time>2019-04-03T10:48:12Z</time>
      </trkpt>
      <trkpt lat="60.43864" lon="7.81249">
        <ele>1169.58</ele>
        <time>2019-04-03T10:48:13Z</time>
      </trkpt>
      <trkpt lat="60.43864" lon="7.8125">
        <ele>1165.26</ele>
        <time>2019-04-03T10:48:14Z</time>
      </trkpt>
      <trkpt lat="60.43864" lon="7.8125">
        <ele>1165.26</ele>
        <time>2019-04-03T10:48:15Z</time>
      </trkpt>
      <trkpt lat="60.43864" lon="7.81253">
        <ele>1165.74</ele>
        <time>2019-04-03T10:48:30Z</time>
      </trkpt>
      <trkpt lat="60.43865" lon="7.81253">
        <ele>1165.74</ele>
        <time>2019-04-03T10:48:50Z</time>
      </trkpt>
      <trkpt lat="60.43865" lon="7.81253">
        <ele>1165.74</ele>
        <time>2019-04-03T10:49:08Z</time>
      </trkpt>
      <trkpt lat="60.43864" lon="7.81252">
        <ele>1161.41</ele>
        <time>2019-04-03T10:49:16Z</time>
      </trkpt>
      <trkpt lat="60.43864" lon="7.81252">
        <ele>1163.81</ele>
        <time>2019-04-03T10:49:17Z</time>
      </trkpt>
      <trkpt lat="60.43864" lon="7.81252">
        <ele>1167.66</ele>
        <time>2019-04-03T10:49:18Z</time>
      </trkpt>
      <trkpt lat="60.43864" lon="7.81252">
        <ele>1162.85</ele>
        <time>2019-04-03T10:49:19Z</time>
      </trkpt>
      <trkpt lat="60.43863" lon="7.81252">
        <ele>1166.22</ele>
        <time>2019-04-03T10:49:21Z</time>
      </trkpt>
      <trkpt lat="60.43862" lon="7.81253">
        <ele>1162.37</ele>
        <time>2019-04-03T10:49:26Z</time>
      </trkpt>
      <trkpt lat="60.43862" lon="7.81253">
        <ele>1162.37</ele>
        <time>2019-04-03T10:49:27Z</time>
      </trkpt>
      <trkpt lat="60.43862" lon="7.81253">
        <ele>1166.22</ele>
        <time>2019-04-03T10:49:28Z</time>
      </trkpt>
      <trkpt lat="60.43862" lon="7.81253">
        <ele>1166.22</ele>
        <time>2019-04-03T10:49:29Z</time>
      </trkpt>
      <trkpt lat="60.43862" lon="7.81253">
        <ele>1160.45</ele>
        <time>2019-04-03T10:49:30Z</time>
      </trkpt>
      <trkpt lat="60.43861" lon="7.81253">
        <ele>1165.26</ele>
        <time>2019-04-03T10:49:31Z</time>
      </trkpt>
      <trkpt lat="60.4386" lon="7.8125">
        <ele>1165.74</ele>
        <time>2019-04-03T10:49:51Z</time>
      </trkpt>
      <trkpt lat="60.43861" lon="7.81249">
        <ele>1159.97</ele>
        <time>2019-04-03T10:49:56Z</time>
      </trkpt>
      <trkpt lat="60.43861" lon="7.81249">
        <ele>1168.62</ele>
        <time>2019-04-03T10:49:57Z</time>
      </trkpt>
      <trkpt lat="60.43861" lon="7.81249">
        <ele>1168.62</ele>
        <time>2019-04-03T10:49:58Z</time>
      </trkpt>
      <trkpt lat="60.4386" lon="7.81251">
        <ele>1165.74</ele>
        <time>2019-04-03T10:50:00Z</time>
      </trkpt>
      <trkpt lat="60.43858" lon="7.81263">
        <ele>1162.85</ele>
        <time>2019-04-03T10:50:13Z</time>
      </trkpt>
      <trkpt lat="60.43858" lon="7.81264">
        <ele>1167.18</ele>
        <time>2019-04-03T10:50:15Z</time>
      </trkpt>
      <trkpt lat="60.43858" lon="7.81264">
        <ele>1165.74</ele>
        <time>2019-04-03T10:50:16Z</time>
      </trkpt>
      <trkpt lat="60.43856" lon="7.81261">
        <ele>1165.74</ele>
        <time>2019-04-03T10:50:27Z</time>
      </trkpt>
      <trkpt lat="60.43856" lon="7.81257">
        <ele>1160.93</ele>
        <time>2019-04-03T10:50:30Z</time>
      </trkpt>
      <trkpt lat="60.43856" lon="7.81256">
        <ele>1164.29</ele>
        <time>2019-04-03T10:50:31Z</time>
      </trkpt>
      <trkpt lat="60.43856" lon="7.81256">
        <ele>1166.22</ele>
        <time>2019-04-03T10:50:35Z</time>
      </trkpt>
      <trkpt lat="60.43857" lon="7.81251">
        <ele>1164.29</ele>
        <time>2019-04-03T10:50:37Z</time>
      </trkpt>
      <trkpt lat="60.43864" lon="7.81238">
        <ele>1164.29</ele>
        <time>2019-04-03T10:50:44Z</time>
      </trkpt>
      <trkpt lat="60.4385" lon="7.81235">
        <ele>1163.81</ele>
        <time>2019-04-03T10:50:47Z</time>
      </trkpt>
      <trkpt lat="60.43825" lon="7.81248">
        <ele>1159.49</ele>
        <time>2019-04-03T10:50:51Z</time>
      </trkpt>
      <trkpt lat="60.43818" lon="7.81252">
        <ele>1159.49</ele>
        <time>2019-04-03T10:50:52Z</time>
      </trkpt>
      <trkpt lat="60.43771" lon="7.81267">
        <ele>1156.6</ele>
        <time>2019-04-03T10:50:58Z</time>
      </trkpt>
      <trkpt lat="60.43755" lon="7.81275">
        <ele>1155.64</ele>
        <time>2019-04-03T10:51:00Z</time>
      </trkpt>
      <trkpt lat="60.43749" lon="7.81279">
        <ele>1155.64</ele>
        <time>2019-04-03T10:51:01Z</time>
      </trkpt>
      <trkpt lat="60.43728" lon="7.81278">
        <ele>1158.05</ele>
        <time>2019-04-03T10:51:06Z</time>
      </trkpt>
      <trkpt lat="60.43728" lon="7.8127">
        <ele>1158.05</ele>
        <time>2019-04-03T10:51:08Z</time>
      </trkpt>
      <trkpt lat="60.43731" lon="7.81263">
        <ele>1158.53</ele>
        <time>2019-04-03T10:51:10Z</time>
      </trkpt>
      <trkpt lat="60.43754" lon="7.81244">
        <ele>1160.45</ele>
        <time>2019-04-03T10:51:15Z</time>
      </trkpt>
      <trkpt lat="60.43766" lon="7.81231">
        <ele>1160.45</ele>
        <time>2019-04-03T10:51:21Z</time>
      </trkpt>
      <trkpt lat="60.43779" lon="7.81223">
        <ele>1160.93</ele>
        <time>2019-04-03T10:51:28Z</time>
      </trkpt>
      <trkpt lat="60.43782" lon="7.8122">
        <ele>1161.41</ele>
        <time>2019-04-03T10:51:29Z</time>
      </trkpt>
      <trkpt lat="60.43795" lon="7.81215">
        <ele>1163.33</ele>
        <time>2019-04-03T10:51:32Z</time>
      </trkpt>
      <trkpt lat="60.43809" lon="7.81213">
        <ele>1163.33</ele>
        <time>2019-04-03T10:51:35Z</time>
      </trkpt>
      <trkpt lat="60.43835" lon="7.81213">
        <ele>1163.33</ele>
        <time>2019-04-03T10:51:44Z</time>
      </trkpt>
      <trkpt lat="60.43836" lon="7.81212">
        <ele>1163.81</ele>
        <time>2019-04-03T10:51:56Z</time>
      </trkpt>
      <trkpt lat="60.43836" lon="7.81213">
        <ele>1163.81</ele>
        <time>2019-04-03T10:52:22Z</time>
      </trkpt>
      <trkpt lat="60.43836" lon="7.81213">
        <ele>1164.29</ele>
        <time>2019-04-03T10:52:46Z</time>
      </trkpt>
      <trkpt lat="60.43836" lon="7.8121">
        <ele>1164.29</ele>
        <time>2019-04-03T10:53:05Z</time>
      </trkpt>
      <trkpt lat="60.43836" lon="7.8121">
        <ele>1164.29</ele>
        <time>2019-04-03T10:53:32Z</time>
      </trkpt>
      <trkpt lat="60.43836" lon="7.81209">
        <ele>1164.29</ele>
        <time>2019-04-03T10:53:46Z</time>
      </trkpt>
      <trkpt lat="60.43836" lon="7.81208">
        <ele>1164.29</ele>
        <time>2019-04-03T10:54:06Z</time>
      </trkpt>
      <trkpt lat="60.43836" lon="7.81206">
        <ele>1164.29</ele>
        <time>2019-04-03T10:54:10Z</time>
      </trkpt>
      <trkpt lat="60.43819" lon="7.81199">
        <ele>1161.89</ele>
        <time>2019-04-03T10:54:17Z</time>
      </trkpt>
      <trkpt lat="60.43816" lon="7.81191">
        <ele>1160.93</ele>
        <time>2019-04-03T10:54:18Z</time>
      </trkpt>
      <trkpt lat="60.4378" lon="7.81145">
        <ele>1159.97</ele>
        <time>2019-04-03T10:54:27Z</time>
      </trkpt>
      <trkpt lat="60.43763" lon="7.81112">
        <ele>1159.01</ele>
        <time>2019-04-03T10:54:32Z</time>
      </trkpt>
      <trkpt lat="60.43761" lon="7.81107">
        <ele>1158.53</ele>
        <time>2019-04-03T10:54:33Z</time>
      </trkpt>
      <trkpt lat="60.43771" lon="7.8107">
        <ele>1159.49</ele>
        <time>2019-04-03T10:54:43Z</time>
      </trkpt>
      <trkpt lat="60.43775" lon="7.81053">
        <ele>1159.49</ele>
        <time>2019-04-03T10:54:51Z</time>
      </trkpt>
      <trkpt lat="60.43776" lon="7.81015">
        <ele>1159.49</ele>
        <time>2019-04-03T10:54:56Z</time>
      </trkpt>
      <trkpt lat="60.4379" lon="7.80965">
        <ele>1159.01</ele>
        <time>2019-04-03T10:55:02Z</time>
      </trkpt>
      <trkpt lat="60.43789" lon="7.80919">
        <ele>1158.53</ele>
        <time>2019-04-03T10:55:07Z</time>
      </trkpt>
      <trkpt lat="60.43785" lon="7.80881">
        <ele>1160.45</ele>
        <time>2019-04-03T10:55:12Z</time>
      </trkpt>
      <trkpt lat="60.43782" lon="7.80857">
        <ele>1160.45</ele>
        <time>2019-04-03T10:55:15Z</time>
      </trkpt>
      <trkpt lat="60.43775" lon="7.80841">
        <ele>1161.41</ele>
        <time>2019-04-03T10:55:18Z</time>
      </trkpt>
      <trkpt lat="60.43749" lon="7.80819">
        <ele>1159.49</ele>
        <time>2019-04-03T10:55:24Z</time>
      </trkpt>
      <trkpt lat="60.43748" lon="7.80812">
        <ele>1159.49</ele>
        <time>2019-04-03T10:55:25Z</time>
      </trkpt>
      <trkpt lat="60.43751" lon="7.80755">
        <ele>1160.93</ele>
        <time>2019-04-03T10:55:30Z</time>
      </trkpt>
      <trkpt lat="60.43753" lon="7.80744">
        <ele>1160.93</ele>
        <time>2019-04-03T10:55:31Z</time>
      </trkpt>
      <trkpt lat="60.43754" lon="7.80673">
        <ele>1159.49</ele>
        <time>2019-04-03T10:55:38Z</time>
      </trkpt>
      <trkpt lat="60.43755" lon="7.80661">
        <ele>1159.49</ele>
        <time>2019-04-03T10:55:39Z</time>
      </trkpt>
      <trkpt lat="60.43756" lon="7.80649">
        <ele>1159.49</ele>
        <time>2019-04-03T10:55:40Z</time>
      </trkpt>
      <trkpt lat="60.43771" lon="7.80591">
        <ele>1157.56</ele>
        <time>2019-04-03T10:55:45Z</time>
      </trkpt>
      <trkpt lat="60.43787" lon="7.80546">
        <ele>1155.16</ele>
        <time>2019-04-03T10:55:49Z</time>
      </trkpt>
      <trkpt lat="60.43792" lon="7.80533">
        <ele>1154.68</ele>
        <time>2019-04-03T10:55:50Z</time>
      </trkpt>
      <trkpt lat="60.43805" lon="7.80479">
        <ele>1154.2</ele>
        <time>2019-04-03T10:55:54Z</time>
      </trkpt>
      <trkpt lat="60.43803" lon="7.80398">
        <ele>1152.76</ele>
        <time>2019-04-03T10:56:00Z</time>
      </trkpt>
      <trkpt lat="60.43803" lon="7.80375">
        <ele>1152.28</ele>
        <time>2019-04-03T10:56:02Z</time>
      </trkpt>
      <trkpt lat="60.43804" lon="7.80353">
        <ele>1152.28</ele>
        <time>2019-04-03T10:56:04Z</time>
      </trkpt>
      <trkpt lat="60.43812" lon="7.80295">
        <ele>1152.76</ele>
        <time>2019-04-03T10:56:11Z</time>
      </trkpt>
      <trkpt lat="60.43815" lon="7.80219">
        <ele>1153.72</ele>
        <time>2019-04-03T10:56:19Z</time>
      </trkpt>
      <trkpt lat="60.43816" lon="7.80177">
        <ele>1154.68</ele>
        <time>2019-04-03T10:56:23Z</time>
      </trkpt>
      <trkpt lat="60.43819" lon="7.80146">
        <ele>1156.6</ele>
        <time>2019-04-03T10:56:26Z</time>
      </trkpt>
      <trkpt lat="60.43821" lon="7.80135">
        <ele>1157.08</ele>
        <time>2019-04-03T10:56:27Z</time>
      </trkpt>
      <trkpt lat="60.43828" lon="7.80092">
        <ele>1158.53</ele>
        <time>2019-04-03T10:56:31Z</time>
      </trkpt>
      <trkpt lat="60.43842" lon="7.80019">
        <ele>1156.12</ele>
        <time>2019-04-03T10:56:38Z</time>
      </trkpt>
      <trkpt lat="60.43841" lon="7.80006">
        <ele>1156.12</ele>
        <time>2019-04-03T10:56:39Z</time>
      </trkpt>
      <trkpt lat="60.43845" lon="7.79938">
        <ele>1154.2</ele>
        <time>2019-04-03T10:56:44Z</time>
      </trkpt>
      <trkpt lat="60.43838" lon="7.79915">
        <ele>1153.24</ele>
        <time>2019-04-03T10:56:48Z</time>
      </trkpt>
      <trkpt lat="60.43833" lon="7.79913">
        <ele>1153.24</ele>
        <time>2019-04-03T10:56:49Z</time>
      </trkpt>
      <trkpt lat="60.43806" lon="7.79907">
        <ele>1152.28</ele>
        <time>2019-04-03T10:56:55Z</time>
      </trkpt>
      <trkpt lat="60.43775" lon="7.79852">
        <ele>1151.8</ele>
        <time>2019-04-03T10:57:01Z</time>
      </trkpt>
      <trkpt lat="60.43763" lon="7.79823">
        <ele>1152.28</ele>
        <time>2019-04-03T10:57:04Z</time>
      </trkpt>
      <trkpt lat="60.43746" lon="7.79788">
        <ele>1150.35</ele>
        <time>2019-04-03T10:57:08Z</time>
      </trkpt>
      <trkpt lat="60.43727" lon="7.7974">
        <ele>1148.91</ele>
        <time>2019-04-03T10:57:15Z</time>
      </trkpt>
      <trkpt lat="60.43727" lon="7.79726">
        <ele>1150.35</ele>
        <time>2019-04-03T10:57:19Z</time>
      </trkpt>
      <trkpt lat="60.43728" lon="7.79714">
        <ele>1150.84</ele>
        <time>2019-04-03T10:57:28Z</time>
      </trkpt>
      <trkpt lat="60.43722" lon="7.79677">
        <ele>1149.87</ele>
        <time>2019-04-03T10:57:33Z</time>
      </trkpt>
      <trkpt lat="60.43723" lon="7.7966">
        <ele>1151.32</ele>
        <time>2019-04-03T10:57:36Z</time>
      </trkpt>
      <trkpt lat="60.43715" lon="7.79622">
        <ele>1151.32</ele>
        <time>2019-04-03T10:57:42Z</time>
      </trkpt>
      <trkpt lat="60.43714" lon="7.79581">
        <ele>1152.76</ele>
        <time>2019-04-03T10:57:46Z</time>
      </trkpt>
      <trkpt lat="60.43713" lon="7.79567">
        <ele>1152.76</ele>
        <time>2019-04-03T10:57:48Z</time>
      </trkpt>
      <trkpt lat="60.43716" lon="7.79547">
        <ele>1153.24</ele>
        <time>2019-04-03T10:57:53Z</time>
      </trkpt>
      <trkpt lat="60.43703" lon="7.79518">
        <ele>1153.72</ele>
        <time>2019-04-03T10:57:57Z</time>
      </trkpt>
      <trkpt lat="60.4369" lon="7.79461">
        <ele>1154.2</ele>
        <time>2019-04-03T10:58:03Z</time>
      </trkpt>
      <trkpt lat="60.43685" lon="7.79429">
        <ele>1152.28</ele>
        <time>2019-04-03T10:58:06Z</time>
      </trkpt>
      <trkpt lat="60.43672" lon="7.79395">
        <ele>1151.32</ele>
        <time>2019-04-03T10:58:09Z</time>
      </trkpt>
      <trkpt lat="60.43632" lon="7.79346">
        <ele>1149.39</ele>
        <time>2019-04-03T10:58:16Z</time>
      </trkpt>
      <trkpt lat="60.43623" lon="7.79331">
        <ele>1148.91</ele>
        <time>2019-04-03T10:58:18Z</time>
      </trkpt>
      <trkpt lat="60.43604" lon="7.79293">
        <ele>1148.43</ele>
        <time>2019-04-03T10:58:22Z</time>
      </trkpt>
      <trkpt lat="60.43595" lon="7.79277">
        <ele>1146.51</ele>
        <time>2019-04-03T10:58:24Z</time>
      </trkpt>
      <trkpt lat="60.4359" lon="7.79268">
        <ele>1146.51</ele>
        <time>2019-04-03T10:58:25Z</time>
      </trkpt>
      <trkpt lat="60.43563" lon="7.7922">
        <ele>1147.95</ele>
        <time>2019-04-03T10:58:31Z</time>
      </trkpt>
      <trkpt lat="60.43555" lon="7.79204">
        <ele>1146.51</ele>
        <time>2019-04-03T10:58:33Z</time>
      </trkpt>
      <trkpt lat="60.43549" lon="7.79166">
        <ele>1146.03</ele>
        <time>2019-04-03T10:58:37Z</time>
      </trkpt>
      <trkpt lat="60.43549" lon="7.7914">
        <ele>1147.95</ele>
        <time>2019-04-03T10:58:39Z</time>
      </trkpt>
      <trkpt lat="60.43551" lon="7.79126">
        <ele>1147.95</ele>
        <time>2019-04-03T10:58:40Z</time>
      </trkpt>
      <trkpt lat="60.43554" lon="7.791">
        <ele>1148.43</ele>
        <time>2019-04-03T10:58:42Z</time>
      </trkpt>
      <trkpt lat="60.43558" lon="7.79078">
        <ele>1148.43</ele>
        <time>2019-04-03T10:58:44Z</time>
      </trkpt>
      <trkpt lat="60.43561" lon="7.78983">
        <ele>1148.43</ele>
        <time>2019-04-03T10:58:51Z</time>
      </trkpt>
      <trkpt lat="60.43563" lon="7.78956">
        <ele>1148.43</ele>
        <time>2019-04-03T10:58:53Z</time>
      </trkpt>
      <trkpt lat="60.43562" lon="7.78898">
        <ele>1148.43</ele>
        <time>2019-04-03T10:58:57Z</time>
      </trkpt>
      <trkpt lat="60.43561" lon="7.78872">
        <ele>1148.43</ele>
        <time>2019-04-03T10:58:59Z</time>
      </trkpt>
      <trkpt lat="60.43569" lon="7.78783">
        <ele>1148.43</ele>
        <time>2019-04-03T10:59:05Z</time>
      </trkpt>
      <trkpt lat="60.43568" lon="7.78768">
        <ele>1148.43</ele>
        <time>2019-04-03T10:59:06Z</time>
      </trkpt>
      <trkpt lat="60.43567" lon="7.7874">
        <ele>1146.99</ele>
        <time>2019-04-03T10:59:08Z</time>
      </trkpt>
      <trkpt lat="60.43568" lon="7.78712">
        <ele>1146.99</ele>
        <time>2019-04-03T10:59:10Z</time>
      </trkpt>
      <trkpt lat="60.43578" lon="7.78659">
        <ele>1146.99</ele>
        <time>2019-04-03T10:59:15Z</time>
      </trkpt>
      <trkpt lat="60.43582" lon="7.78641">
        <ele>1146.99</ele>
        <time>2019-04-03T10:59:17Z</time>
      </trkpt>
      <trkpt lat="60.43584" lon="7.7862">
        <ele>1148.43</ele>
        <time>2019-04-03T10:59:19Z</time>
      </trkpt>
      <trkpt lat="60.4358" lon="7.78589">
        <ele>1151.8</ele>
        <time>2019-04-03T10:59:23Z</time>
      </trkpt>
      <trkpt lat="60.43581" lon="7.7858">
        <ele>1152.28</ele>
        <time>2019-04-03T10:59:24Z</time>
      </trkpt>
      <trkpt lat="60.43583" lon="7.78565">
        <ele>1154.68</ele>
        <time>2019-04-03T10:59:26Z</time>
      </trkpt>
      <trkpt lat="60.43575" lon="7.78522">
        <ele>1159.49</ele>
        <time>2019-04-03T10:59:32Z</time>
      </trkpt>
      <trkpt lat="60.43574" lon="7.78512">
        <ele>1160.45</ele>
        <time>2019-04-03T10:59:34Z</time>
      </trkpt>
      <trkpt lat="60.43572" lon="7.78489">
        <ele>1163.33</ele>
        <time>2019-04-03T10:59:40Z</time>
      </trkpt>
      <trkpt lat="60.43572" lon="7.7849">
        <ele>1163.33</ele>
        <time>2019-04-03T10:59:55Z</time>
      </trkpt>
      <trkpt lat="60.43571" lon="7.78489">
        <ele>1163.33</ele>
        <time>2019-04-03T11:00:16Z</time>
      </trkpt>
      <trkpt lat="60.43561" lon="7.78488">
        <ele>1161.41</ele>
        <time>2019-04-03T11:00:21Z</time>
      </trkpt>
      <trkpt lat="60.43543" lon="7.78454">
        <ele>1160.93</ele>
        <time>2019-04-03T11:00:28Z</time>
      </trkpt>
      <trkpt lat="60.43527" lon="7.78431">
        <ele>1160.93</ele>
        <time>2019-04-03T11:00:31Z</time>
      </trkpt>
      <trkpt lat="60.43506" lon="7.78411">
        <ele>1162.85</ele>
        <time>2019-04-03T11:00:35Z</time>
      </trkpt>
      <trkpt lat="60.43499" lon="7.78397">
        <ele>1163.81</ele>
        <time>2019-04-03T11:00:37Z</time>
      </trkpt>
      <trkpt lat="60.43489" lon="7.7837">
        <ele>1166.7</ele>
        <time>2019-04-03T11:00:41Z</time>
      </trkpt>
      <trkpt lat="60.43481" lon="7.78353">
        <ele>1167.66</ele>
        <time>2019-04-03T11:00:44Z</time>
      </trkpt>
      <trkpt lat="60.43468" lon="7.78325">
        <ele>1169.1</ele>
        <time>2019-04-03T11:00:48Z</time>
      </trkpt>
      <trkpt lat="60.43458" lon="7.78305">
        <ele>1171.02</ele>
        <time>2019-04-03T11:00:51Z</time>
      </trkpt>
      <trkpt lat="60.43455" lon="7.783">
        <ele>1171.02</ele>
        <time>2019-04-03T11:00:52Z</time>
      </trkpt>
      <trkpt lat="60.4344" lon="7.7828">
        <ele>1172.47</ele>
        <time>2019-04-03T11:01:00Z</time>
      </trkpt>
      <trkpt lat="60.43437" lon="7.78269">
        <ele>1172.47</ele>
        <time>2019-04-03T11:01:04Z</time>
      </trkpt>
      <trkpt lat="60.43434" lon="7.78266">
        <ele>1172.47</ele>
        <time>2019-04-03T11:01:07Z</time>
      </trkpt>
      <trkpt lat="60.43427" lon="7.78244">
        <ele>1172.47</ele>
        <time>2019-04-03T11:01:13Z</time>
      </trkpt>
      <trkpt lat="60.43424" lon="7.78239">
        <ele>1170.54</ele>
        <time>2019-04-03T11:01:14Z</time>
      </trkpt>
      <trkpt lat="60.43404" lon="7.78205">
        <ele>1172.47</ele>
        <time>2019-04-03T11:01:19Z</time>
      </trkpt>
      <trkpt lat="60.43384" lon="7.78151">
        <ele>1174.87</ele>
        <time>2019-04-03T11:01:28Z</time>
      </trkpt>
      <trkpt lat="60.43371" lon="7.78117">
        <ele>1175.83</ele>
        <time>2019-04-03T11:01:35Z</time>
      </trkpt>
      <trkpt lat="60.43343" lon="7.78101">
        <ele>1176.79</ele>
        <time>2019-04-03T11:01:41Z</time>
      </trkpt>
      <trkpt lat="60.43326" lon="7.781">
        <ele>1178.23</ele>
        <time>2019-04-03T11:01:45Z</time>
      </trkpt>
      <trkpt lat="60.43308" lon="7.7809">
        <ele>1178.71</ele>
        <time>2019-04-03T11:01:50Z</time>
      </trkpt>
      <trkpt lat="60.43283" lon="7.78103">
        <ele>1181.12</ele>
        <time>2019-04-03T11:02:00Z</time>
      </trkpt>
      <trkpt lat="60.4328" lon="7.78103">
        <ele>1182.08</ele>
        <time>2019-04-03T11:02:12Z</time>
      </trkpt>
      <trkpt lat="60.4328" lon="7.78103">
        <ele>1181.12</ele>
        <time>2019-04-03T11:02:32Z</time>
      </trkpt>
      <trkpt lat="60.43281" lon="7.78102">
        <ele>1181.12</ele>
        <time>2019-04-03T11:02:57Z</time>
      </trkpt>
      <trkpt lat="60.43281" lon="7.78102">
        <ele>1181.12</ele>
        <time>2019-04-03T11:03:21Z</time>
      </trkpt>
      <trkpt lat="60.43281" lon="7.78101">
        <ele>1181.12</ele>
        <time>2019-04-03T11:03:45Z</time>
      </trkpt>
      <trkpt lat="60.43281" lon="7.781">
        <ele>1181.6</ele>
        <time>2019-04-03T11:04:04Z</time>
      </trkpt>
      <trkpt lat="60.43281" lon="7.781">
        <ele>1181.6</ele>
        <time>2019-04-03T11:04:06Z</time>
      </trkpt>
      <trkpt lat="60.43279" lon="7.78084">
        <ele>1179.67</ele>
        <time>2019-04-03T11:04:09Z</time>
      </trkpt>
      <trkpt lat="60.4327" lon="7.78068">
        <ele>1176.79</ele>
        <time>2019-04-03T11:04:11Z</time>
      </trkpt>
      <trkpt lat="60.43264" lon="7.78063">
        <ele>1176.31</ele>
        <time>2019-04-03T11:04:12Z</time>
      </trkpt>
      <trkpt lat="60.43235" lon="7.78042">
        <ele>1176.31</ele>
        <time>2019-04-03T11:04:17Z</time>
      </trkpt>
      <trkpt lat="60.43223" lon="7.78033">
        <ele>1178.23</ele>
        <time>2019-04-03T11:04:20Z</time>
      </trkpt>
      <trkpt lat="60.43202" lon="7.77986">
        <ele>1177.27</ele>
        <time>2019-04-03T11:04:27Z</time>
      </trkpt>
      <trkpt lat="60.43181" lon="7.77964">
        <ele>1179.19</ele>
        <time>2019-04-03T11:04:32Z</time>
      </trkpt>
      <trkpt lat="60.43171" lon="7.7795">
        <ele>1180.16</ele>
        <time>2019-04-03T11:04:34Z</time>
      </trkpt>
      <trkpt lat="60.43145" lon="7.77905">
        <ele>1177.27</ele>
        <time>2019-04-03T11:04:39Z</time>
      </trkpt>
      <trkpt lat="60.43125" lon="7.77888">
        <ele>1177.27</ele>
        <time>2019-04-03T11:04:43Z</time>
      </trkpt>
      <trkpt lat="60.43122" lon="7.77874">
        <ele>1178.71</ele>
        <time>2019-04-03T11:04:45Z</time>
      </trkpt>
      <trkpt lat="60.43122" lon="7.77852">
        <ele>1176.31</ele>
        <time>2019-04-03T11:04:47Z</time>
      </trkpt>
      <trkpt lat="60.43135" lon="7.77784">
        <ele>1174.39</ele>
        <time>2019-04-03T11:04:52Z</time>
      </trkpt>
      <trkpt lat="60.43138" lon="7.77763">
        <ele>1173.43</ele>
        <time>2019-04-03T11:04:54Z</time>
      </trkpt>
      <trkpt lat="60.4313" lon="7.77738">
        <ele>1169.58</ele>
        <time>2019-04-03T11:04:57Z</time>
      </trkpt>
      <trkpt lat="60.43125" lon="7.77732">
        <ele>1169.58</ele>
        <time>2019-04-03T11:04:58Z</time>
      </trkpt>
      <trkpt lat="60.4312" lon="7.77725">
        <ele>1169.1</ele>
        <time>2019-04-03T11:04:59Z</time>
      </trkpt>
      <trkpt lat="60.43094" lon="7.77702">
        <ele>1164.29</ele>
        <time>2019-04-03T11:05:03Z</time>
      </trkpt>
      <trkpt lat="60.43087" lon="7.77695">
        <ele>1164.29</ele>
        <time>2019-04-03T11:05:04Z</time>
      </trkpt>
      <trkpt lat="60.4308" lon="7.77688">
        <ele>1159.49</ele>
        <time>2019-04-03T11:05:05Z</time>
      </trkpt>
      <trkpt lat="60.43073" lon="7.77682">
        <ele>1163.33</ele>
        <time>2019-04-03T11:05:06Z</time>
      </trkpt>
      <trkpt lat="60.43066" lon="7.77676">
        <ele>1163.81</ele>
        <time>2019-04-03T11:05:07Z</time>
      </trkpt>
      <trkpt lat="60.43038" lon="7.77651">
        <ele>1162.85</ele>
        <time>2019-04-03T11:05:12Z</time>
      </trkpt>
      <trkpt lat="60.43018" lon="7.77625">
        <ele>1160.93</ele>
        <time>2019-04-03T11:05:16Z</time>
      </trkpt>
      <trkpt lat="60.42997" lon="7.77604">
        <ele>1157.08</ele>
        <time>2019-04-03T11:05:19Z</time>
      </trkpt>
      <trkpt lat="60.42977" lon="7.77587">
        <ele>1157.56</ele>
        <time>2019-04-03T11:05:22Z</time>
      </trkpt>
      <trkpt lat="60.4296" lon="7.77577">
        <ele>1159.01</ele>
        <time>2019-04-03T11:05:25Z</time>
      </trkpt>
      <trkpt lat="60.42951" lon="7.77568">
        <ele>1160.45</ele>
        <time>2019-04-03T11:05:27Z</time>
      </trkpt>
      <trkpt lat="60.42927" lon="7.77525">
        <ele>1159.49</ele>
        <time>2019-04-03T11:05:33Z</time>
      </trkpt>
      <trkpt lat="60.4292" lon="7.77503">
        <ele>1161.41</ele>
        <time>2019-04-03T11:05:36Z</time>
      </trkpt>
      <trkpt lat="60.42918" lon="7.77396">
        <ele>1157.56</ele>
        <time>2019-04-03T11:05:44Z</time>
      </trkpt>
      <trkpt lat="60.42921" lon="7.7737">
        <ele>1157.08</ele>
        <time>2019-04-03T11:05:46Z</time>
      </trkpt>
      <trkpt lat="60.42935" lon="7.7732">
        <ele>1157.08</ele>
        <time>2019-04-03T11:05:50Z</time>
      </trkpt>
      <trkpt lat="60.42947" lon="7.77245">
        <ele>1157.08</ele>
        <time>2019-04-03T11:05:56Z</time>
      </trkpt>
      <trkpt lat="60.42945" lon="7.77221">
        <ele>1156.6</ele>
        <time>2019-04-03T11:05:58Z</time>
      </trkpt>
      <trkpt lat="60.42957" lon="7.77146">
        <ele>1158.05</ele>
        <time>2019-04-03T11:06:04Z</time>
      </trkpt>
      <trkpt lat="60.42979" lon="7.77077">
        <ele>1158.05</ele>
        <time>2019-04-03T11:06:10Z</time>
      </trkpt>
      <trkpt lat="60.42982" lon="7.77014">
        <ele>1157.56</ele>
        <time>2019-04-03T11:06:15Z</time>
      </trkpt>
      <trkpt lat="60.4298" lon="7.76942">
        <ele>1157.08</ele>
        <time>2019-04-03T11:06:22Z</time>
      </trkpt>
      <trkpt lat="60.42978" lon="7.76914">
        <ele>1157.56</ele>
        <time>2019-04-03T11:06:25Z</time>
      </trkpt>
      <trkpt lat="60.42977" lon="7.76906">
        <ele>1157.56</ele>
        <time>2019-04-03T11:06:26Z</time>
      </trkpt>
      <trkpt lat="60.42978" lon="7.76878">
        <ele>1157.56</ele>
        <time>2019-04-03T11:06:29Z</time>
      </trkpt>
      <trkpt lat="60.42976" lon="7.76841">
        <ele>1158.05</ele>
        <time>2019-04-03T11:06:33Z</time>
      </trkpt>
      <trkpt lat="60.42976" lon="7.76831">
        <ele>1158.05</ele>
        <time>2019-04-03T11:06:34Z</time>
      </trkpt>
      <trkpt lat="60.42976" lon="7.76822">
        <ele>1156.6</ele>
        <time>2019-04-03T11:06:35Z</time>
      </trkpt>
      <trkpt lat="60.42973" lon="7.76775">
        <ele>1158.05</ele>
        <time>2019-04-03T11:06:40Z</time>
      </trkpt>
      <trkpt lat="60.42973" lon="7.76718">
        <ele>1158.05</ele>
        <time>2019-04-03T11:06:46Z</time>
      </trkpt>
      <trkpt lat="60.42972" lon="7.76689">
        <ele>1158.05</ele>
        <time>2019-04-03T11:06:52Z</time>
      </trkpt>
      <trkpt lat="60.42975" lon="7.76648">
        <ele>1158.05</ele>
        <time>2019-04-03T11:06:56Z</time>
      </trkpt>
      <trkpt lat="60.42974" lon="7.76611">
        <ele>1154.68</ele>
        <time>2019-04-03T11:07:00Z</time>
      </trkpt>
      <trkpt lat="60.42971" lon="7.76585">
        <ele>1158.05</ele>
        <time>2019-04-03T11:07:03Z</time>
      </trkpt>
      <trkpt lat="60.42973" lon="7.76562">
        <ele>1158.05</ele>
        <time>2019-04-03T11:07:05Z</time>
      </trkpt>
      <trkpt lat="60.42977" lon="7.7653">
        <ele>1158.05</ele>
        <time>2019-04-03T11:07:08Z</time>
      </trkpt>
      <trkpt lat="60.4298" lon="7.76482">
        <ele>1158.05</ele>
        <time>2019-04-03T11:07:12Z</time>
      </trkpt>
      <trkpt lat="60.42981" lon="7.76432">
        <ele>1157.08</ele>
        <time>2019-04-03T11:07:18Z</time>
      </trkpt>
      <trkpt lat="60.42967" lon="7.76422">
        <ele>1156.12</ele>
        <time>2019-04-03T11:07:22Z</time>
      </trkpt>
      <trkpt lat="60.42945" lon="7.76395">
        <ele>1155.16</ele>
        <time>2019-04-03T11:07:26Z</time>
      </trkpt>
      <trkpt lat="60.42936" lon="7.76382">
        <ele>1157.56</ele>
        <time>2019-04-03T11:07:28Z</time>
      </trkpt>
      <trkpt lat="60.42915" lon="7.76342">
        <ele>1157.56</ele>
        <time>2019-04-03T11:07:35Z</time>
      </trkpt>
      <trkpt lat="60.4289" lon="7.76306">
        <ele>1156.12</ele>
        <time>2019-04-03T11:07:41Z</time>
      </trkpt>
      <trkpt lat="60.42879" lon="7.76286">
        <ele>1158.05</ele>
        <time>2019-04-03T11:07:44Z</time>
      </trkpt>
      <trkpt lat="60.42871" lon="7.76244">
        <ele>1156.6</ele>
        <time>2019-04-03T11:07:50Z</time>
      </trkpt>
      <trkpt lat="60.42878" lon="7.76225">
        <ele>1158.05</ele>
        <time>2019-04-03T11:07:52Z</time>
      </trkpt>
      <trkpt lat="60.42885" lon="7.76207">
        <ele>1158.05</ele>
        <time>2019-04-03T11:07:54Z</time>
      </trkpt>
      <trkpt lat="60.42891" lon="7.76134">
        <ele>1157.08</ele>
        <time>2019-04-03T11:08:00Z</time>
      </trkpt>
      <trkpt lat="60.42891" lon="7.76108">
        <ele>1157.08</ele>
        <time>2019-04-03T11:08:02Z</time>
      </trkpt>
      <trkpt lat="60.42899" lon="7.76056">
        <ele>1157.08</ele>
        <time>2019-04-03T11:08:06Z</time>
      </trkpt>
      <trkpt lat="60.42896" lon="7.76011">
        <ele>1157.56</ele>
        <time>2019-04-03T11:08:10Z</time>
      </trkpt>
      <trkpt lat="60.42896" lon="7.75992">
        <ele>1156.6</ele>
        <time>2019-04-03T11:08:12Z</time>
      </trkpt>
      <trkpt lat="60.42889" lon="7.75958">
        <ele>1156.6</ele>
        <time>2019-04-03T11:08:16Z</time>
      </trkpt>
      <trkpt lat="60.42875" lon="7.75948">
        <ele>1156.12</ele>
        <time>2019-04-03T11:08:19Z</time>
      </trkpt>
      <trkpt lat="60.42858" lon="7.7595">
        <ele>1155.64</ele>
        <time>2019-04-03T11:08:22Z</time>
      </trkpt>
      <trkpt lat="60.42823" lon="7.7596">
        <ele>1154.2</ele>
        <time>2019-04-03T11:08:27Z</time>
      </trkpt>
      <trkpt lat="60.4279" lon="7.75961">
        <ele>1156.12</ele>
        <time>2019-04-03T11:08:31Z</time>
      </trkpt>
      <trkpt lat="60.42744" lon="7.7592">
        <ele>1159.97</ele>
        <time>2019-04-03T11:08:39Z</time>
      </trkpt>
      <trkpt lat="60.42724" lon="7.75885">
        <ele>1160.93</ele>
        <time>2019-04-03T11:08:44Z</time>
      </trkpt>
      <trkpt lat="60.42716" lon="7.75871">
        <ele>1161.41</ele>
        <time>2019-04-03T11:08:47Z</time>
      </trkpt>
      <trkpt lat="60.42725" lon="7.75833">
        <ele>1163.33</ele>
        <time>2019-04-03T11:08:51Z</time>
      </trkpt>
      <trkpt lat="60.42747" lon="7.75781">
        <ele>1159.49</ele>
        <time>2019-04-03T11:08:57Z</time>
      </trkpt>
      <trkpt lat="60.42745" lon="7.75779">
        <ele>1159.49</ele>
        <time>2019-04-03T11:08:58Z</time>
      </trkpt>
      <trkpt lat="60.42739" lon="7.75773">
        <ele>1159.49</ele>
        <time>2019-04-03T11:09:00Z</time>
      </trkpt>
      <trkpt lat="60.42729" lon="7.75762">
        <ele>1162.85</ele>
        <time>2019-04-03T11:09:05Z</time>
      </trkpt>
      <trkpt lat="60.42722" lon="7.7574">
        <ele>1164.29</ele>
        <time>2019-04-03T11:09:09Z</time>
      </trkpt>
      <trkpt lat="60.4271" lon="7.75727">
        <ele>1165.26</ele>
        <time>2019-04-03T11:09:13Z</time>
      </trkpt>
      <trkpt lat="60.42699" lon="7.75704">
        <ele>1166.22</ele>
        <time>2019-04-03T11:09:18Z</time>
      </trkpt>
      <trkpt lat="60.42695" lon="7.7568">
        <ele>1166.22</ele>
        <time>2019-04-03T11:09:21Z</time>
      </trkpt>
      <trkpt lat="60.42688" lon="7.75669">
        <ele>1166.22</ele>
        <time>2019-04-03T11:09:23Z</time>
      </trkpt>
      <trkpt lat="60.4267" lon="7.75657">
        <ele>1166.22</ele>
        <time>2019-04-03T11:09:27Z</time>
      </trkpt>
      <trkpt lat="60.42655" lon="7.75624">
        <ele>1167.66</ele>
        <time>2019-04-03T11:09:33Z</time>
      </trkpt>
      <trkpt lat="60.42648" lon="7.75589">
        <ele>1167.66</ele>
        <time>2019-04-03T11:09:38Z</time>
      </trkpt>
      <trkpt lat="60.42628" lon="7.75577">
        <ele>1165.74</ele>
        <time>2019-04-03T11:09:42Z</time>
      </trkpt>
      <trkpt lat="60.42611" lon="7.75573">
        <ele>1165.74</ele>
        <time>2019-04-03T11:09:45Z</time>
      </trkpt>
      <trkpt lat="60.426" lon="7.7557">
        <ele>1165.74</ele>
        <time>2019-04-03T11:09:47Z</time>
      </trkpt>
      <trkpt lat="60.42591" lon="7.75569">
        <ele>1168.14</ele>
        <time>2019-04-03T11:09:49Z</time>
      </trkpt>
      <trkpt lat="60.42589" lon="7.75569">
        <ele>1171.02</ele>
        <time>2019-04-03T11:09:50Z</time>
      </trkpt>
      <trkpt lat="60.42586" lon="7.75567">
        <ele>1171.02</ele>
        <time>2019-04-03T11:09:51Z</time>
      </trkpt>
      <trkpt lat="60.42581" lon="7.75558">
        <ele>1171.5</ele>
        <time>2019-04-03T11:09:53Z</time>
      </trkpt>
      <trkpt lat="60.42568" lon="7.75544">
        <ele>1173.43</ele>
        <time>2019-04-03T11:09:57Z</time>
      </trkpt>
      <trkpt lat="60.42557" lon="7.75531">
        <ele>1174.87</ele>
        <time>2019-04-03T11:10:02Z</time>
      </trkpt>
      <trkpt lat="60.42552" lon="7.7552">
        <ele>1176.31</ele>
        <time>2019-04-03T11:10:04Z</time>
      </trkpt>
      <trkpt lat="60.4254" lon="7.75497">
        <ele>1176.79</ele>
        <time>2019-04-03T11:10:10Z</time>
      </trkpt>
      <trkpt lat="60.42536" lon="7.75494">
        <ele>1178.23</ele>
        <time>2019-04-03T11:10:12Z</time>
      </trkpt>
      <trkpt lat="60.42523" lon="7.75469">
        <ele>1179.19</ele>
        <time>2019-04-03T11:10:19Z</time>
      </trkpt>
      <trkpt lat="60.42522" lon="7.75468">
        <ele>1180.16</ele>
        <time>2019-04-03T11:10:23Z</time>
      </trkpt>
      <trkpt lat="60.42509" lon="7.75449">
        <ele>1180.64</ele>
        <time>2019-04-03T11:10:29Z</time>
      </trkpt>
      <trkpt lat="60.42502" lon="7.75446">
        <ele>1180.64</ele>
        <time>2019-04-03T11:10:32Z</time>
      </trkpt>
      <trkpt lat="60.42493" lon="7.75436">
        <ele>1179.19</ele>
        <time>2019-04-03T11:10:36Z</time>
      </trkpt>
      <trkpt lat="60.42489" lon="7.75433">
        <ele>1181.6</ele>
        <time>2019-04-03T11:10:38Z</time>
      </trkpt>
      <trkpt lat="60.4248" lon="7.75416">
        <ele>1180.16</ele>
        <time>2019-04-03T11:10:42Z</time>
      </trkpt>
      <trkpt lat="60.42473" lon="7.75398">
        <ele>1179.19</ele>
        <time>2019-04-03T11:10:45Z</time>
      </trkpt>
      <trkpt lat="60.42462" lon="7.75384">
        <ele>1178.23</ele>
        <time>2019-04-03T11:10:49Z</time>
      </trkpt>
      <trkpt lat="60.42458" lon="7.7538">
        <ele>1178.23</ele>
        <time>2019-04-03T11:10:51Z</time>
      </trkpt>
      <trkpt lat="60.42455" lon="7.75378">
        <ele>1178.23</ele>
        <time>2019-04-03T11:11:02Z</time>
      </trkpt>
      <trkpt lat="60.42455" lon="7.75378">
        <ele>1178.23</ele>
        <time>2019-04-03T11:11:03Z</time>
      </trkpt>
      <trkpt lat="60.42456" lon="7.75379">
        <ele>1178.23</ele>
        <time>2019-04-03T11:11:31Z</time>
      </trkpt>
      <trkpt lat="60.42456" lon="7.75376">
        <ele>1178.23</ele>
        <time>2019-04-03T11:11:55Z</time>
      </trkpt>
      <trkpt lat="60.42458" lon="7.75377">
        <ele>1178.23</ele>
        <time>2019-04-03T11:12:28Z</time>
      </trkpt>
      <trkpt lat="60.42459" lon="7.75375">
        <ele>1178.23</ele>
        <time>2019-04-03T11:12:56Z</time>
      </trkpt>
      <trkpt lat="60.42459" lon="7.75375">
        <ele>1178.23</ele>
        <time>2019-04-03T11:13:33Z</time>
      </trkpt>
      <trkpt lat="60.42456" lon="7.75375">
        <ele>1178.23</ele>
        <time>2019-04-03T11:14:03Z</time>
      </trkpt>
      <trkpt lat="60.42456" lon="7.75375">
        <ele>1178.71</ele>
        <time>2019-04-03T11:14:26Z</time>
      </trkpt>
      <trkpt lat="60.4245" lon="7.75363">
        <ele>1177.27</ele>
        <time>2019-04-03T11:14:34Z</time>
      </trkpt>
      <trkpt lat="60.42446" lon="7.7535">
        <ele>1176.31</ele>
        <time>2019-04-03T11:14:38Z</time>
      </trkpt>
      <trkpt lat="60.42436" lon="7.75312">
        <ele>1175.83</ele>
        <time>2019-04-03T11:14:46Z</time>
      </trkpt>
      <trkpt lat="60.42422" lon="7.75289">
        <ele>1174.87</ele>
        <time>2019-04-03T11:14:50Z</time>
      </trkpt>
      <trkpt lat="60.42406" lon="7.75254">
        <ele>1174.39</ele>
        <time>2019-04-03T11:14:56Z</time>
      </trkpt>
      <trkpt lat="60.42412" lon="7.75192">
        <ele>1174.39</ele>
        <time>2019-04-03T11:15:02Z</time>
      </trkpt>
      <trkpt lat="60.42417" lon="7.75143">
        <ele>1174.39</ele>
        <time>2019-04-03T11:15:06Z</time>
      </trkpt>
      <trkpt lat="60.42417" lon="7.75123">
        <ele>1174.39</ele>
        <time>2019-04-03T11:15:08Z</time>
      </trkpt>
      <trkpt lat="60.42419" lon="7.75102">
        <ele>1176.31</ele>
        <time>2019-04-03T11:15:10Z</time>
      </trkpt>
      <trkpt lat="60.42407" lon="7.75063">
        <ele>1177.75</ele>
        <time>2019-04-03T11:15:15Z</time>
      </trkpt>
      <trkpt lat="60.42371" lon="7.75032">
        <ele>1175.35</ele>
        <time>2019-04-03T11:15:22Z</time>
      </trkpt>
      <trkpt lat="60.42361" lon="7.75038">
        <ele>1179.67</ele>
        <time>2019-04-03T11:15:24Z</time>
      </trkpt>
      <trkpt lat="60.42355" lon="7.75036">
        <ele>1180.16</ele>
        <time>2019-04-03T11:15:25Z</time>
      </trkpt>
      <trkpt lat="60.42348" lon="7.75025">
        <ele>1180.16</ele>
        <time>2019-04-03T11:15:27Z</time>
      </trkpt>
      <trkpt lat="60.42337" lon="7.75005">
        <ele>1183.04</ele>
        <time>2019-04-03T11:15:31Z</time>
      </trkpt>
      <trkpt lat="60.42325" lon="7.74975">
        <ele>1185.44</ele>
        <time>2019-04-03T11:15:36Z</time>
      </trkpt>
      <trkpt lat="60.4231" lon="7.7495">
        <ele>1186.4</ele>
        <time>2019-04-03T11:15:42Z</time>
      </trkpt>
      <trkpt lat="60.42293" lon="7.74921">
        <ele>1188.33</ele>
        <time>2019-04-03T11:15:47Z</time>
      </trkpt>
      <trkpt lat="60.42275" lon="7.74895">
        <ele>1190.73</ele>
        <time>2019-04-03T11:15:52Z</time>
      </trkpt>
      <trkpt lat="60.42256" lon="7.74852">
        <ele>1192.17</ele>
        <time>2019-04-03T11:15:58Z</time>
      </trkpt>
      <trkpt lat="60.42248" lon="7.7483">
        <ele>1192.65</ele>
        <time>2019-04-03T11:16:01Z</time>
      </trkpt>
      <trkpt lat="60.42237" lon="7.74782">
        <ele>1193.61</ele>
        <time>2019-04-03T11:16:06Z</time>
      </trkpt>
      <trkpt lat="60.42242" lon="7.74727">
        <ele>1194.09</ele>
        <time>2019-04-03T11:16:10Z</time>
      </trkpt>
      <trkpt lat="60.42242" lon="7.74677">
        <ele>1190.25</ele>
        <time>2019-04-03T11:16:15Z</time>
      </trkpt>
      <trkpt lat="60.42242" lon="7.74675">
        <ele>1190.25</ele>
        <time>2019-04-03T11:16:22Z</time>
      </trkpt>
      <trkpt lat="60.42242" lon="7.74677">
        <ele>1190.73</ele>
        <time>2019-04-03T11:16:43Z</time>
      </trkpt>
      <trkpt lat="60.42241" lon="7.74678">
        <ele>1190.73</ele>
        <time>2019-04-03T11:17:04Z</time>
      </trkpt>
      <trkpt lat="60.42241" lon="7.74683">
        <ele>1190.73</ele>
        <time>2019-04-03T11:17:16Z</time>
      </trkpt>
      <trkpt lat="60.42244" lon="7.74684">
        <ele>1190.73</ele>
        <time>2019-04-03T11:17:29Z</time>
      </trkpt>
      <trkpt lat="60.42244" lon="7.74685">
        <ele>1185.92</ele>
        <time>2019-04-03T11:17:45Z</time>
      </trkpt>
      <trkpt lat="60.42244" lon="7.74685">
        <ele>1179.19</ele>
        <time>2019-04-03T11:17:46Z</time>
      </trkpt>
      <trkpt lat="60.42245" lon="7.74684">
        <ele>1199.38</ele>
        <time>2019-04-03T11:17:47Z</time>
      </trkpt>
      <trkpt lat="60.42245" lon="7.74685">
        <ele>1191.21</ele>
        <time>2019-04-03T11:17:48Z</time>
      </trkpt>
      <trkpt lat="60.42245" lon="7.74685">
        <ele>1187.85</ele>
        <time>2019-04-03T11:17:49Z</time>
      </trkpt>
      <trkpt lat="60.42245" lon="7.74685">
        <ele>1189.29</ele>
        <time>2019-04-03T11:17:50Z</time>
      </trkpt>
      <trkpt lat="60.42245" lon="7.74685">
        <ele>1192.17</ele>
        <time>2019-04-03T11:17:51Z</time>
      </trkpt>
      <trkpt lat="60.42245" lon="7.74685">
        <ele>1201.3</ele>
        <time>2019-04-03T11:17:52Z</time>
      </trkpt>
      <trkpt lat="60.42245" lon="7.74685">
        <ele>1193.13</ele>
        <time>2019-04-03T11:17:53Z</time>
      </trkpt>
      <trkpt lat="60.42244" lon="7.74686">
        <ele>1187.37</ele>
        <time>2019-04-03T11:17:54Z</time>
      </trkpt>
      <trkpt lat="60.42244" lon="7.74687">
        <ele>1194.09</ele>
        <time>2019-04-03T11:17:55Z</time>
      </trkpt>
      <trkpt lat="60.42244" lon="7.74689">
        <ele>1190.25</ele>
        <time>2019-04-03T11:17:57Z</time>
      </trkpt>
      <trkpt lat="60.42245" lon="7.7469">
        <ele>1190.25</ele>
        <time>2019-04-03T11:17:58Z</time>
      </trkpt>
      <trkpt lat="60.42245" lon="7.74689">
        <ele>1187.37</ele>
        <time>2019-04-03T11:18:01Z</time>
      </trkpt>
      <trkpt lat="60.42243" lon="7.74687">
        <ele>1183.04</ele>
        <time>2019-04-03T11:18:07Z</time>
      </trkpt>
      <trkpt lat="60.42243" lon="7.74687">
        <ele>1191.69</ele>
        <time>2019-04-03T11:18:08Z</time>
      </trkpt>
      <trkpt lat="60.42243" lon="7.74687">
        <ele>1191.69</ele>
        <time>2019-04-03T11:18:09Z</time>
      </trkpt>
      <trkpt lat="60.42243" lon="7.74686">
        <ele>1184.96</ele>
        <time>2019-04-03T11:18:15Z</time>
      </trkpt>
      <trkpt lat="60.42243" lon="7.74686">
        <ele>1188.81</ele>
        <time>2019-04-03T11:18:16Z</time>
      </trkpt>
      <trkpt lat="60.42241" lon="7.74682">
        <ele>1186.88</ele>
        <time>2019-04-03T11:18:45Z</time>
      </trkpt>
      <trkpt lat="60.42241" lon="7.74682">
        <ele>1190.25</ele>
        <time>2019-04-03T11:18:56Z</time>
      </trkpt>
      <trkpt lat="60.42242" lon="7.74682">
        <ele>1190.25</ele>
        <time>2019-04-03T11:19:09Z</time>
      </trkpt>
      <trkpt lat="60.42242" lon="7.74682">
        <ele>1190.25</ele>
        <time>2019-04-03T11:19:17Z</time>
      </trkpt>
      <trkpt lat="60.42241" lon="7.74678">
        <ele>1193.13</ele>
        <time>2019-04-03T11:19:20Z</time>
      </trkpt>
      <trkpt lat="60.42241" lon="7.74677">
        <ele>1189.77</ele>
        <time>2019-04-03T11:19:21Z</time>
      </trkpt>
      <trkpt lat="60.42241" lon="7.74676">
        <ele>1188.81</ele>
        <time>2019-04-03T11:19:23Z</time>
      </trkpt>
      <trkpt lat="60.42242" lon="7.74675">
        <ele>1189.77</ele>
        <time>2019-04-03T11:19:41Z</time>
      </trkpt>
      <trkpt lat="60.42242" lon="7.74673">
        <ele>1189.77</ele>
        <time>2019-04-03T11:20:02Z</time>
      </trkpt>
      <trkpt lat="60.42241" lon="7.74673">
        <ele>1189.77</ele>
        <time>2019-04-03T11:20:21Z</time>
      </trkpt>
      <trkpt lat="60.42241" lon="7.74672">
        <ele>1189.29</ele>
        <time>2019-04-03T11:20:30Z</time>
      </trkpt>
      <trkpt lat="60.42232" lon="7.74634">
        <ele>1189.29</ele>
        <time>2019-04-03T11:20:36Z</time>
      </trkpt>
      <trkpt lat="60.42229" lon="7.74618">
        <ele>1191.21</ele>
        <time>2019-04-03T11:20:38Z</time>
      </trkpt>
      <trkpt lat="60.42218" lon="7.74581">
        <ele>1191.21</ele>
        <time>2019-04-03T11:20:43Z</time>
      </trkpt>
      <trkpt lat="60.42212" lon="7.74557">
        <ele>1191.21</ele>
        <time>2019-04-03T11:20:46Z</time>
      </trkpt>
      <trkpt lat="60.42184" lon="7.74501">
        <ele>1191.21</ele>
        <time>2019-04-03T11:20:53Z</time>
      </trkpt>
      <trkpt lat="60.42165" lon="7.74449">
        <ele>1190.73</ele>
        <time>2019-04-03T11:20:58Z</time>
      </trkpt>
      <trkpt lat="60.42158" lon="7.74432">
        <ele>1188.33</ele>
        <time>2019-04-03T11:21:00Z</time>
      </trkpt>
      <trkpt lat="60.42149" lon="7.74403">
        <ele>1190.25</ele>
        <time>2019-04-03T11:21:07Z</time>
      </trkpt>
      <trkpt lat="60.42149" lon="7.74398">
        <ele>1190.25</ele>
        <time>2019-04-03T11:21:08Z</time>
      </trkpt>
      <trkpt lat="60.4215" lon="7.74371">
        <ele>1191.21</ele>
        <time>2019-04-03T11:21:14Z</time>
      </trkpt>
      <trkpt lat="60.42156" lon="7.74345">
        <ele>1192.65</ele>
        <time>2019-04-03T11:21:18Z</time>
      </trkpt>
      <trkpt lat="60.42165" lon="7.74324">
        <ele>1196.02</ele>
        <time>2019-04-03T11:21:21Z</time>
      </trkpt>
      <trkpt lat="60.42179" lon="7.74265">
        <ele>1198.9</ele>
        <time>2019-04-03T11:21:28Z</time>
      </trkpt>
      <trkpt lat="60.42178" lon="7.74219">
        <ele>1200.82</ele>
        <time>2019-04-03T11:21:34Z</time>
      </trkpt>
      <trkpt lat="60.42177" lon="7.74186">
        <ele>1201.3</ele>
        <time>2019-04-03T11:21:38Z</time>
      </trkpt>
      <trkpt lat="60.42181" lon="7.74132">
        <ele>1202.27</ele>
        <time>2019-04-03T11:21:43Z</time>
      </trkpt>
      <trkpt lat="60.42177" lon="7.74108">
        <ele>1202.75</ele>
        <time>2019-04-03T11:21:46Z</time>
      </trkpt>
      <trkpt lat="60.42164" lon="7.74076">
        <ele>1204.19</ele>
        <time>2019-04-03T11:21:51Z</time>
      </trkpt>
      <trkpt lat="60.42166" lon="7.74029">
        <ele>1204.67</ele>
        <time>2019-04-03T11:21:56Z</time>
      </trkpt>
      <trkpt lat="60.42161" lon="7.73977">
        <ele>1204.19</ele>
        <time>2019-04-03T11:22:03Z</time>
      </trkpt>
      <trkpt lat="60.42151" lon="7.73952">
        <ele>1203.71</ele>
        <time>2019-04-03T11:22:07Z</time>
      </trkpt>
      <trkpt lat="60.42147" lon="7.73944">
        <ele>1204.67</ele>
        <time>2019-04-03T11:22:10Z</time>
      </trkpt>
      <trkpt lat="60.42133" lon="7.73897">
        <ele>1205.63</ele>
        <time>2019-04-03T11:22:18Z</time>
      </trkpt>
      <trkpt lat="60.42124" lon="7.73856">
        <ele>1202.75</ele>
        <time>2019-04-03T11:22:25Z</time>
      </trkpt>
      <trkpt lat="60.42122" lon="7.73849">
        <ele>1206.11</ele>
        <time>2019-04-03T11:22:26Z</time>
      </trkpt>
      <trkpt lat="60.42117" lon="7.7384">
        <ele>1206.59</ele>
        <time>2019-04-03T11:22:28Z</time>
      </trkpt>
      <trkpt lat="60.42104" lon="7.73796">
        <ele>1206.59</ele>
        <time>2019-04-03T11:22:35Z</time>
      </trkpt>
      <trkpt lat="60.42108" lon="7.73769">
        <ele>1206.59</ele>
        <time>2019-04-03T11:22:39Z</time>
      </trkpt>
      <trkpt lat="60.42112" lon="7.73751">
        <ele>1206.59</ele>
        <time>2019-04-03T11:22:41Z</time>
      </trkpt>
      <trkpt lat="60.42114" lon="7.73734">
        <ele>1205.15</ele>
        <time>2019-04-03T11:22:43Z</time>
      </trkpt>
      <trkpt lat="60.42115" lon="7.7372">
        <ele>1204.67</ele>
        <time>2019-04-03T11:22:45Z</time>
      </trkpt>
      <trkpt lat="60.42112" lon="7.73658">
        <ele>1201.79</ele>
        <time>2019-04-03T11:22:51Z</time>
      </trkpt>
      <trkpt lat="60.4211" lon="7.73621">
        <ele>1199.86</ele>
        <time>2019-04-03T11:22:54Z</time>
      </trkpt>
      <trkpt lat="60.42114" lon="7.73569">
        <ele>1197.94</ele>
        <time>2019-04-03T11:22:58Z</time>
      </trkpt>
      <trkpt lat="60.4212" lon="7.7352">
        <ele>1196.02</ele>
        <time>2019-04-03T11:23:03Z</time>
      </trkpt>
      <trkpt lat="60.42116" lon="7.73476">
        <ele>1196.02</ele>
        <time>2019-04-03T11:23:09Z</time>
      </trkpt>
      <trkpt lat="60.42109" lon="7.73462">
        <ele>1196.5</ele>
        <time>2019-04-03T11:23:14Z</time>
      </trkpt>
      <trkpt lat="60.42099" lon="7.73437">
        <ele>1195.06</ele>
        <time>2019-04-03T11:23:18Z</time>
      </trkpt>
      <trkpt lat="60.42074" lon="7.73377">
        <ele>1196.5</ele>
        <time>2019-04-03T11:23:28Z</time>
      </trkpt>
      <trkpt lat="60.42072" lon="7.73367">
        <ele>1195.06</ele>
        <time>2019-04-03T11:23:30Z</time>
      </trkpt>
      <trkpt lat="60.42071" lon="7.73352">
        <ele>1196.02</ele>
        <time>2019-04-03T11:23:32Z</time>
      </trkpt>
      <trkpt lat="60.42063" lon="7.73323">
        <ele>1196.02</ele>
        <time>2019-04-03T11:23:37Z</time>
      </trkpt>
      <trkpt lat="60.42062" lon="7.7331">
        <ele>1197.46</ele>
        <time>2019-04-03T11:23:39Z</time>
      </trkpt>
      <trkpt lat="60.42062" lon="7.73278">
        <ele>1198.9</ele>
        <time>2019-04-03T11:23:43Z</time>
      </trkpt>
      <trkpt lat="60.42064" lon="7.73267">
        <ele>1198.9</ele>
        <time>2019-04-03T11:23:44Z</time>
      </trkpt>
      <trkpt lat="60.4207" lon="7.73188">
        <ele>1196.98</ele>
        <time>2019-04-03T11:23:51Z</time>
      </trkpt>
      <trkpt lat="60.42078" lon="7.73112">
        <ele>1196.02</ele>
        <time>2019-04-03T11:23:57Z</time>
      </trkpt>
      <trkpt lat="60.42075" lon="7.73074">
        <ele>1195.54</ele>
        <time>2019-04-03T11:24:01Z</time>
      </trkpt>
      <trkpt lat="60.42077" lon="7.73043">
        <ele>1195.54</ele>
        <time>2019-04-03T11:24:04Z</time>
      </trkpt>
      <trkpt lat="60.42077" lon="7.73011">
        <ele>1195.54</ele>
        <time>2019-04-03T11:24:07Z</time>
      </trkpt>
      <trkpt lat="60.42074" lon="7.72966">
        <ele>1195.54</ele>
        <time>2019-04-03T11:24:12Z</time>
      </trkpt>
      <trkpt lat="60.42068" lon="7.72953">
        <ele>1195.54</ele>
        <time>2019-04-03T11:24:14Z</time>
      </trkpt>
      <trkpt lat="60.42059" lon="7.72942">
        <ele>1194.09</ele>
        <time>2019-04-03T11:24:16Z</time>
      </trkpt>
      <trkpt lat="60.42053" lon="7.72938">
        <ele>1194.09</ele>
        <time>2019-04-03T11:24:17Z</time>
      </trkpt>
      <trkpt lat="60.42048" lon="7.72892">
        <ele>1196.02</ele>
        <time>2019-04-03T11:24:23Z</time>
      </trkpt>
      <trkpt lat="60.42052" lon="7.72872">
        <ele>1196.02</ele>
        <time>2019-04-03T11:24:25Z</time>
      </trkpt>
      <trkpt lat="60.42057" lon="7.7284">
        <ele>1195.54</ele>
        <time>2019-04-03T11:24:28Z</time>
      </trkpt>
      <trkpt lat="60.42058" lon="7.72805">
        <ele>1194.58</ele>
        <time>2019-04-03T11:24:31Z</time>
      </trkpt>
      <trkpt lat="60.42058" lon="7.72786">
        <ele>1194.09</ele>
        <time>2019-04-03T11:24:33Z</time>
      </trkpt>
      <trkpt lat="60.42062" lon="7.72736">
        <ele>1193.13</ele>
        <time>2019-04-03T11:24:38Z</time>
      </trkpt>
      <trkpt lat="60.42061" lon="7.72645">
        <ele>1193.13</ele>
        <time>2019-04-03T11:24:46Z</time>
      </trkpt>
      <trkpt lat="60.42054" lon="7.72607">
        <ele>1193.13</ele>
        <time>2019-04-03T11:24:51Z</time>
      </trkpt>
      <trkpt lat="60.42047" lon="7.72563">
        <ele>1192.65</ele>
        <time>2019-04-03T11:24:56Z</time>
      </trkpt>
      <trkpt lat="60.42025" lon="7.72537">
        <ele>1192.65</ele>
        <time>2019-04-03T11:25:01Z</time>
      </trkpt>
      <trkpt lat="60.42009" lon="7.72514">
        <ele>1194.09</ele>
        <time>2019-04-03T11:25:06Z</time>
      </trkpt>
      <trkpt lat="60.42002" lon="7.72496">
        <ele>1191.21</ele>
        <time>2019-04-03T11:25:13Z</time>
      </trkpt>
      <trkpt lat="60.42002" lon="7.72495">
        <ele>1194.58</ele>
        <time>2019-04-03T11:25:14Z</time>
      </trkpt>
      <trkpt lat="60.41993" lon="7.72464">
        <ele>1194.58</ele>
        <time>2019-04-03T11:25:20Z</time>
      </trkpt>
      <trkpt lat="60.41971" lon="7.72419">
        <ele>1196.02</ele>
        <time>2019-04-03T11:25:30Z</time>
      </trkpt>
      <trkpt lat="60.4197" lon="7.72418">
        <ele>1196.02</ele>
        <time>2019-04-03T11:25:31Z</time>
      </trkpt>
      <trkpt lat="60.41966" lon="7.7241">
        <ele>1194.09</ele>
        <time>2019-04-03T11:25:35Z</time>
      </trkpt>
      <trkpt lat="60.41957" lon="7.724">
        <ele>1196.5</ele>
        <time>2019-04-03T11:25:37Z</time>
      </trkpt>
      <trkpt lat="60.41935" lon="7.7237">
        <ele>1195.06</ele>
        <time>2019-04-03T11:25:42Z</time>
      </trkpt>
      <trkpt lat="60.41923" lon="7.72361">
        <ele>1191.21</ele>
        <time>2019-04-03T11:25:44Z</time>
      </trkpt>
      <trkpt lat="60.41916" lon="7.7236">
        <ele>1194.09</ele>
        <time>2019-04-03T11:25:45Z</time>
      </trkpt>
      <trkpt lat="60.4191" lon="7.72358">
        <ele>1193.13</ele>
        <time>2019-04-03T11:25:46Z</time>
      </trkpt>
      <trkpt lat="60.41876" lon="7.72349">
        <ele>1194.58</ele>
        <time>2019-04-03T11:25:52Z</time>
      </trkpt>
      <trkpt lat="60.41866" lon="7.72344">
        <ele>1196.02</ele>
        <time>2019-04-03T11:25:55Z</time>
      </trkpt>
      <trkpt lat="60.41837" lon="7.72341">
        <ele>1195.06</ele>
        <time>2019-04-03T11:26:03Z</time>
      </trkpt>
      <trkpt lat="60.4182" lon="7.72328">
        <ele>1196.02</ele>
        <time>2019-04-03T11:26:12Z</time>
      </trkpt>
      <trkpt lat="60.41804" lon="7.72305">
        <ele>1195.54</ele>
        <time>2019-04-03T11:26:20Z</time>
      </trkpt>
      <trkpt lat="60.41791" lon="7.72277">
        <ele>1194.58</ele>
        <time>2019-04-03T11:26:24Z</time>
      </trkpt>
      <trkpt lat="60.41782" lon="7.72256">
        <ele>1194.09</ele>
        <time>2019-04-03T11:26:28Z</time>
      </trkpt>
      <trkpt lat="60.41775" lon="7.72246">
        <ele>1195.54</ele>
        <time>2019-04-03T11:26:30Z</time>
      </trkpt>
      <trkpt lat="60.41766" lon="7.72239">
        <ele>1195.54</ele>
        <time>2019-04-03T11:26:32Z</time>
      </trkpt>
      <trkpt lat="60.41757" lon="7.7223">
        <ele>1194.09</ele>
        <time>2019-04-03T11:26:34Z</time>
      </trkpt>
      <trkpt lat="60.41749" lon="7.72217">
        <ele>1196.98</ele>
        <time>2019-04-03T11:26:36Z</time>
      </trkpt>
      <trkpt lat="60.41738" lon="7.72198">
        <ele>1194.58</ele>
        <time>2019-04-03T11:26:39Z</time>
      </trkpt>
      <trkpt lat="60.41728" lon="7.7219">
        <ele>1196.5</ele>
        <time>2019-04-03T11:26:41Z</time>
      </trkpt>
      <trkpt lat="60.41713" lon="7.72176">
        <ele>1196.5</ele>
        <time>2019-04-03T11:26:44Z</time>
      </trkpt>
      <trkpt lat="60.41701" lon="7.72155">
        <ele>1196.5</ele>
        <time>2019-04-03T11:26:47Z</time>
      </trkpt>
      <trkpt lat="60.41683" lon="7.72146">
        <ele>1198.42</ele>
        <time>2019-04-03T11:26:51Z</time>
      </trkpt>
      <trkpt lat="60.4168" lon="7.72145">
        <ele>1198.42</ele>
        <time>2019-04-03T11:26:52Z</time>
      </trkpt>
      <trkpt lat="60.41672" lon="7.7212">
        <ele>1198.9</ele>
        <time>2019-04-03T11:26:56Z</time>
      </trkpt>
      <trkpt lat="60.41672" lon="7.72047">
        <ele>1196.98</ele>
        <time>2019-04-03T11:27:02Z</time>
      </trkpt>
      <trkpt lat="60.4167" lon="7.72012">
        <ele>1195.06</ele>
        <time>2019-04-03T11:27:05Z</time>
      </trkpt>
      <trkpt lat="60.41672" lon="7.7199">
        <ele>1194.58</ele>
        <time>2019-04-03T11:27:07Z</time>
      </trkpt>
      <trkpt lat="60.41668" lon="7.71962">
        <ele>1193.61</ele>
        <time>2019-04-03T11:27:10Z</time>
      </trkpt>
      <trkpt lat="60.41646" lon="7.71941">
        <ele>1193.61</ele>
        <time>2019-04-03T11:27:16Z</time>
      </trkpt>
      <trkpt lat="60.41643" lon="7.7194">
        <ele>1193.61</ele>
        <time>2019-04-03T11:27:17Z</time>
      </trkpt>
      <trkpt lat="60.41628" lon="7.71927">
        <ele>1194.58</ele>
        <time>2019-04-03T11:27:21Z</time>
      </trkpt>
      <trkpt lat="60.41609" lon="7.71893">
        <ele>1192.65</ele>
        <time>2019-04-03T11:27:27Z</time>
      </trkpt>
      <trkpt lat="60.41602" lon="7.71884">
        <ele>1195.06</ele>
        <time>2019-04-03T11:27:29Z</time>
      </trkpt>
      <trkpt lat="60.41584" lon="7.71862">
        <ele>1193.61</ele>
        <time>2019-04-03T11:27:34Z</time>
      </trkpt>
      <trkpt lat="60.41571" lon="7.71846">
        <ele>1194.58</ele>
        <time>2019-04-03T11:27:37Z</time>
      </trkpt>
      <trkpt lat="60.41556" lon="7.71815">
        <ele>1193.61</ele>
        <time>2019-04-03T11:27:42Z</time>
      </trkpt>
      <trkpt lat="60.41553" lon="7.71811">
        <ele>1192.17</ele>
        <time>2019-04-03T11:27:43Z</time>
      </trkpt>
      <trkpt lat="60.41536" lon="7.71787">
        <ele>1194.58</ele>
        <time>2019-04-03T11:27:48Z</time>
      </trkpt>
      <trkpt lat="60.41525" lon="7.71769">
        <ele>1193.13</ele>
        <time>2019-04-03T11:27:51Z</time>
      </trkpt>
      <trkpt lat="60.41502" lon="7.7173">
        <ele>1188.81</ele>
        <time>2019-04-03T11:27:57Z</time>
      </trkpt>
      <trkpt lat="60.41477" lon="7.71698">
        <ele>1187.85</ele>
        <time>2019-04-03T11:28:02Z</time>
      </trkpt>
      <trkpt lat="60.41466" lon="7.71689">
        <ele>1187.37</ele>
        <time>2019-04-03T11:28:04Z</time>
      </trkpt>
      <trkpt lat="60.41442" lon="7.7168">
        <ele>1185.44</ele>
        <time>2019-04-03T11:28:08Z</time>
      </trkpt>
      <trkpt lat="60.41421" lon="7.71677">
        <ele>1187.37</ele>
        <time>2019-04-03T11:28:12Z</time>
      </trkpt>
      <trkpt lat="60.41417" lon="7.71677">
        <ele>1187.37</ele>
        <time>2019-04-03T11:28:13Z</time>
      </trkpt>
      <trkpt lat="60.41393" lon="7.71665">
        <ele>1184</ele>
        <time>2019-04-03T11:28:18Z</time>
      </trkpt>
      <trkpt lat="60.4134" lon="7.71674">
        <ele>1182.56</ele>
        <time>2019-04-03T11:28:28Z</time>
      </trkpt>
      <trkpt lat="60.41309" lon="7.71684">
        <ele>1181.6</ele>
        <time>2019-04-03T11:28:33Z</time>
      </trkpt>
      <trkpt lat="60.41286" lon="7.71685">
        <ele>1181.6</ele>
        <time>2019-04-03T11:28:37Z</time>
      </trkpt>
      <trkpt lat="60.41264" lon="7.71691">
        <ele>1181.6</ele>
        <time>2019-04-03T11:28:41Z</time>
      </trkpt>
      <trkpt lat="60.41253" lon="7.71697">
        <ele>1181.12</ele>
        <time>2019-04-03T11:28:43Z</time>
      </trkpt>
      <trkpt lat="60.41236" lon="7.71702">
        <ele>1181.12</ele>
        <time>2019-04-03T11:28:46Z</time>
      </trkpt>
      <trkpt lat="60.41226" lon="7.71707">
        <ele>1179.67</ele>
        <time>2019-04-03T11:28:48Z</time>
      </trkpt>
      <trkpt lat="60.41204" lon="7.71734">
        <ele>1178.71</ele>
        <time>2019-04-03T11:28:53Z</time>
      </trkpt>
      <trkpt lat="60.41158" lon="7.71785">
        <ele>1178.71</ele>
        <time>2019-04-03T11:29:03Z</time>
      </trkpt>
      <trkpt lat="60.41149" lon="7.71797">
        <ele>1180.64</ele>
        <time>2019-04-03T11:29:05Z</time>
      </trkpt>
      <trkpt lat="60.4112" lon="7.7183">
        <ele>1179.67</ele>
        <time>2019-04-03T11:29:11Z</time>
      </trkpt>
      <trkpt lat="60.41076" lon="7.71864">
        <ele>1178.23</ele>
        <time>2019-04-03T11:29:19Z</time>
      </trkpt>
      <trkpt lat="60.41065" lon="7.71876">
        <ele>1176.31</ele>
        <time>2019-04-03T11:29:21Z</time>
      </trkpt>
      <trkpt lat="60.41051" lon="7.71894">
        <ele>1177.75</ele>
        <time>2019-04-03T11:29:24Z</time>
      </trkpt>
      <trkpt lat="60.41033" lon="7.71911">
        <ele>1179.19</ele>
        <time>2019-04-03T11:29:28Z</time>
      </trkpt>
      <trkpt lat="60.41024" lon="7.71921">
        <ele>1180.64</ele>
        <time>2019-04-03T11:29:30Z</time>
      </trkpt>
      <trkpt lat="60.41016" lon="7.71933">
        <ele>1181.6</ele>
        <time>2019-04-03T11:29:32Z</time>
      </trkpt>
      <trkpt lat="60.41008" lon="7.71946">
        <ele>1179.67</ele>
        <time>2019-04-03T11:29:34Z</time>
      </trkpt>
      <trkpt lat="60.40968" lon="7.72002">
        <ele>1178.23</ele>
        <time>2019-04-03T11:29:43Z</time>
      </trkpt>
      <trkpt lat="60.40963" lon="7.72007">
        <ele>1180.16</ele>
        <time>2019-04-03T11:29:45Z</time>
      </trkpt>
      <trkpt lat="60.4096" lon="7.72009">
        <ele>1180.64</ele>
        <time>2019-04-03T11:29:46Z</time>
      </trkpt>
      <trkpt lat="60.40937" lon="7.72033">
        <ele>1177.27</ele>
        <time>2019-04-03T11:29:51Z</time>
      </trkpt>
      <trkpt lat="60.40933" lon="7.72038">
        <ele>1177.27</ele>
        <time>2019-04-03T11:29:52Z</time>
      </trkpt>
      <trkpt lat="60.40923" lon="7.72051">
        <ele>1177.27</ele>
        <time>2019-04-03T11:29:54Z</time>
      </trkpt>
      <trkpt lat="60.40898" lon="7.72076">
        <ele>1178.23</ele>
        <time>2019-04-03T11:29:59Z</time>
      </trkpt>
      <trkpt lat="60.40894" lon="7.72079">
        <ele>1179.19</ele>
        <time>2019-04-03T11:30:00Z</time>
      </trkpt>
      <trkpt lat="60.40858" lon="7.72113">
        <ele>1179.19</ele>
        <time>2019-04-03T11:30:09Z</time>
      </trkpt>
      <trkpt lat="60.40827" lon="7.72135">
        <ele>1178.71</ele>
        <time>2019-04-03T11:30:17Z</time>
      </trkpt>
      <trkpt lat="60.4081" lon="7.72166">
        <ele>1180.16</ele>
        <time>2019-04-03T11:30:23Z</time>
      </trkpt>
      <trkpt lat="60.40807" lon="7.72171">
        <ele>1180.16</ele>
        <time>2019-04-03T11:30:24Z</time>
      </trkpt>
      <trkpt lat="60.40786" lon="7.72202">
        <ele>1178.23</ele>
        <time>2019-04-03T11:30:30Z</time>
      </trkpt>
      <trkpt lat="60.40758" lon="7.72241">
        <ele>1178.23</ele>
        <time>2019-04-03T11:30:37Z</time>
      </trkpt>
      <trkpt lat="60.40742" lon="7.72261">
        <ele>1179.67</ele>
        <time>2019-04-03T11:30:41Z</time>
      </trkpt>
      <trkpt lat="60.40738" lon="7.72265">
        <ele>1179.67</ele>
        <time>2019-04-03T11:30:42Z</time>
      </trkpt>
      <trkpt lat="60.40725" lon="7.72276">
        <ele>1178.23</ele>
        <time>2019-04-03T11:30:45Z</time>
      </trkpt>
      <trkpt lat="60.40711" lon="7.72293">
        <ele>1180.16</ele>
        <time>2019-04-03T11:30:49Z</time>
      </trkpt>
      <trkpt lat="60.40693" lon="7.72336">
        <ele>1181.6</ele>
        <time>2019-04-03T11:30:57Z</time>
      </trkpt>
      <trkpt lat="60.4067" lon="7.72377">
        <ele>1183.52</ele>
        <time>2019-04-03T11:31:06Z</time>
      </trkpt>
      <trkpt lat="60.40667" lon="7.72383">
        <ele>1183.52</ele>
        <time>2019-04-03T11:31:07Z</time>
      </trkpt>
      <trkpt lat="60.4065" lon="7.72416">
        <ele>1182.08</ele>
        <time>2019-04-03T11:31:13Z</time>
      </trkpt>
      <trkpt lat="60.40639" lon="7.72433">
        <ele>1181.6</ele>
        <time>2019-04-03T11:31:16Z</time>
      </trkpt>
      <trkpt lat="60.40627" lon="7.72455">
        <ele>1183.04</ele>
        <time>2019-04-03T11:31:19Z</time>
      </trkpt>
      <trkpt lat="60.40619" lon="7.72469">
        <ele>1182.08</ele>
        <time>2019-04-03T11:31:21Z</time>
      </trkpt>
      <trkpt lat="60.40609" lon="7.72488">
        <ele>1184</ele>
        <time>2019-04-03T11:31:24Z</time>
      </trkpt>
      <trkpt lat="60.40597" lon="7.72513">
        <ele>1184</ele>
        <time>2019-04-03T11:31:28Z</time>
      </trkpt>
      <trkpt lat="60.40582" lon="7.72543">
        <ele>1185.92</ele>
        <time>2019-04-03T11:31:33Z</time>
      </trkpt>
      <trkpt lat="60.40573" lon="7.72564">
        <ele>1183.52</ele>
        <time>2019-04-03T11:31:36Z</time>
      </trkpt>
      <trkpt lat="60.40549" lon="7.72639">
        <ele>1184.48</ele>
        <time>2019-04-03T11:31:47Z</time>
      </trkpt>
      <trkpt lat="60.40541" lon="7.72665">
        <ele>1184</ele>
        <time>2019-04-03T11:31:51Z</time>
      </trkpt>
      <trkpt lat="60.4053" lon="7.72705">
        <ele>1183.52</ele>
        <time>2019-04-03T11:31:56Z</time>
      </trkpt>
      <trkpt lat="60.40519" lon="7.72739">
        <ele>1181.6</ele>
        <time>2019-04-03T11:32:00Z</time>
      </trkpt>
      <trkpt lat="60.40512" lon="7.72758">
        <ele>1180.16</ele>
        <time>2019-04-03T11:32:02Z</time>
      </trkpt>
      <trkpt lat="60.40502" lon="7.72787">
        <ele>1179.19</ele>
        <time>2019-04-03T11:32:05Z</time>
      </trkpt>
      <trkpt lat="60.40494" lon="7.72805">
        <ele>1178.23</ele>
        <time>2019-04-03T11:32:07Z</time>
      </trkpt>
      <trkpt lat="60.4049" lon="7.72814">
        <ele>1178.23</ele>
        <time>2019-04-03T11:32:08Z</time>
      </trkpt>
      <trkpt lat="60.40477" lon="7.7284">
        <ele>1177.27</ele>
        <time>2019-04-03T11:32:11Z</time>
      </trkpt>
      <trkpt lat="60.40469" lon="7.72854">
        <ele>1178.71</ele>
        <time>2019-04-03T11:32:13Z</time>
      </trkpt>
      <trkpt lat="60.40457" lon="7.72874">
        <ele>1176.79</ele>
        <time>2019-04-03T11:32:17Z</time>
      </trkpt>
      <trkpt lat="60.40441" lon="7.72905">
        <ele>1179.19</ele>
        <time>2019-04-03T11:32:23Z</time>
      </trkpt>
      <trkpt lat="60.40428" lon="7.72931">
        <ele>1179.67</ele>
        <time>2019-04-03T11:32:31Z</time>
      </trkpt>
      <trkpt lat="60.40414" lon="7.72945">
        <ele>1178.23</ele>
        <time>2019-04-03T11:32:42Z</time>
      </trkpt>
      <trkpt lat="60.4041" lon="7.72949">
        <ele>1178.23</ele>
        <time>2019-04-03T11:32:43Z</time>
      </trkpt>
      <trkpt lat="60.40396" lon="7.7297">
        <ele>1176.79</ele>
        <time>2019-04-03T11:32:47Z</time>
      </trkpt>
      <trkpt lat="60.40382" lon="7.73001">
        <ele>1175.35</ele>
        <time>2019-04-03T11:32:52Z</time>
      </trkpt>
      <trkpt lat="60.40378" lon="7.73007">
        <ele>1174.87</ele>
        <time>2019-04-03T11:32:53Z</time>
      </trkpt>
      <trkpt lat="60.4036" lon="7.73034">
        <ele>1174.87</ele>
        <time>2019-04-03T11:33:01Z</time>
      </trkpt>
      <trkpt lat="60.40359" lon="7.73034">
        <ele>1176.31</ele>
        <time>2019-04-03T11:33:03Z</time>
      </trkpt>
      <trkpt lat="60.40359" lon="7.73034">
        <ele>1176.79</ele>
        <time>2019-04-03T11:33:24Z</time>
      </trkpt>
      <trkpt lat="60.40358" lon="7.73035">
        <ele>1176.79</ele>
        <time>2019-04-03T11:33:45Z</time>
      </trkpt>
      <trkpt lat="60.40358" lon="7.73035">
        <ele>1175.83</ele>
        <time>2019-04-03T11:34:02Z</time>
      </trkpt>
      <trkpt lat="60.40358" lon="7.73034">
        <ele>1175.35</ele>
        <time>2019-04-03T11:34:30Z</time>
      </trkpt>
      <trkpt lat="60.40356" lon="7.73035">
        <ele>1175.83</ele>
        <time>2019-04-03T11:34:43Z</time>
      </trkpt>
      <trkpt lat="60.4035" lon="7.73045">
        <ele>1175.35</ele>
        <time>2019-04-03T11:34:47Z</time>
      </trkpt>
      <trkpt lat="60.40342" lon="7.73055">
        <ele>1176.79</ele>
        <time>2019-04-03T11:34:51Z</time>
      </trkpt>
      <trkpt lat="60.40318" lon="7.73116">
        <ele>1177.27</ele>
        <time>2019-04-03T11:35:01Z</time>
      </trkpt>
      <trkpt lat="60.40309" lon="7.73141">
        <ele>1176.31</ele>
        <time>2019-04-03T11:35:04Z</time>
      </trkpt>
      <trkpt lat="60.40288" lon="7.73209">
        <ele>1177.75</ele>
        <time>2019-04-03T11:35:11Z</time>
      </trkpt>
      <trkpt lat="60.4026" lon="7.73292">
        <ele>1180.16</ele>
        <time>2019-04-03T11:35:21Z</time>
      </trkpt>
      <trkpt lat="60.40254" lon="7.73312">
        <ele>1177.27</ele>
        <time>2019-04-03T11:35:23Z</time>
      </trkpt>
      <trkpt lat="60.40242" lon="7.73351">
        <ele>1174.87</ele>
        <time>2019-04-03T11:35:27Z</time>
      </trkpt>
      <trkpt lat="60.40236" lon="7.7337">
        <ele>1173.91</ele>
        <time>2019-04-03T11:35:29Z</time>
      </trkpt>
      <trkpt lat="60.4023" lon="7.73388">
        <ele>1173.91</ele>
        <time>2019-04-03T11:35:31Z</time>
      </trkpt>
      <trkpt lat="60.40205" lon="7.73458">
        <ele>1171.98</ele>
        <time>2019-04-03T11:35:40Z</time>
      </trkpt>
      <trkpt lat="60.40193" lon="7.73494">
        <ele>1170.54</ele>
        <time>2019-04-03T11:35:44Z</time>
      </trkpt>
      <trkpt lat="60.40186" lon="7.7351">
        <ele>1169.1</ele>
        <time>2019-04-03T11:35:46Z</time>
      </trkpt>
      <trkpt lat="60.40181" lon="7.73532">
        <ele>1169.1</ele>
        <time>2019-04-03T11:35:49Z</time>
      </trkpt>
      <trkpt lat="60.40171" lon="7.73566">
        <ele>1166.22</ele>
        <time>2019-04-03T11:35:53Z</time>
      </trkpt>
      <trkpt lat="60.40168" lon="7.73576">
        <ele>1165.26</ele>
        <time>2019-04-03T11:35:54Z</time>
      </trkpt>
      <trkpt lat="60.40164" lon="7.73595">
        <ele>1164.29</ele>
        <time>2019-04-03T11:35:56Z</time>
      </trkpt>
      <trkpt lat="60.40159" lon="7.73615">
        <ele>1163.81</ele>
        <time>2019-04-03T11:35:58Z</time>
      </trkpt>
      <trkpt lat="60.40146" lon="7.73648">
        <ele>1163.81</ele>
        <time>2019-04-03T11:36:02Z</time>
      </trkpt>
      <trkpt lat="60.4013" lon="7.7369">
        <ele>1163.81</ele>
        <time>2019-04-03T11:36:07Z</time>
      </trkpt>
      <trkpt lat="60.4012" lon="7.7372">
        <ele>1163.81</ele>
        <time>2019-04-03T11:36:10Z</time>
      </trkpt>
      <trkpt lat="60.40112" lon="7.73739">
        <ele>1163.81</ele>
        <time>2019-04-03T11:36:12Z</time>
      </trkpt>
      <trkpt lat="60.40103" lon="7.73756">
        <ele>1165.26</ele>
        <time>2019-04-03T11:36:14Z</time>
      </trkpt>
      <trkpt lat="60.4008" lon="7.73799">
        <ele>1166.7</ele>
        <time>2019-04-03T11:36:21Z</time>
      </trkpt>
      <trkpt lat="60.40077" lon="7.73806">
        <ele>1164.77</ele>
        <time>2019-04-03T11:36:22Z</time>
      </trkpt>
      <trkpt lat="60.40071" lon="7.73822">
        <ele>1164.29</ele>
        <time>2019-04-03T11:36:24Z</time>
      </trkpt>
      <trkpt lat="60.40057" lon="7.73869">
        <ele>1161.89</ele>
        <time>2019-04-03T11:36:29Z</time>
      </trkpt>
      <trkpt lat="60.40048" lon="7.73895">
        <ele>1161.89</ele>
        <time>2019-04-03T11:36:32Z</time>
      </trkpt>
      <trkpt lat="60.40043" lon="7.73909">
        <ele>1165.74</ele>
        <time>2019-04-03T11:36:34Z</time>
      </trkpt>
      <trkpt lat="60.40034" lon="7.73925">
        <ele>1168.14</ele>
        <time>2019-04-03T11:36:37Z</time>
      </trkpt>
      <trkpt lat="60.40024" lon="7.73949">
        <ele>1169.58</ele>
        <time>2019-04-03T11:36:41Z</time>
      </trkpt>
      <trkpt lat="60.40014" lon="7.73977">
        <ele>1170.06</ele>
        <time>2019-04-03T11:36:45Z</time>
      </trkpt>
      <trkpt lat="60.40001" lon="7.7402">
        <ele>1167.66</ele>
        <time>2019-04-03T11:36:50Z</time>
      </trkpt>
      <trkpt lat="60.39997" lon="7.7403">
        <ele>1167.66</ele>
        <time>2019-04-03T11:36:51Z</time>
      </trkpt>
      <trkpt lat="60.39987" lon="7.74059">
        <ele>1166.22</ele>
        <time>2019-04-03T11:36:54Z</time>
      </trkpt>
      <trkpt lat="60.39965" lon="7.74116">
        <ele>1168.14</ele>
        <time>2019-04-03T11:37:00Z</time>
      </trkpt>
      <trkpt lat="60.39948" lon="7.74162">
        <ele>1169.58</ele>
        <time>2019-04-03T11:37:05Z</time>
      </trkpt>
      <trkpt lat="60.3994" lon="7.7418">
        <ele>1168.14</ele>
        <time>2019-04-03T11:37:07Z</time>
      </trkpt>
      <trkpt lat="60.39933" lon="7.74199">
        <ele>1169.58</ele>
        <time>2019-04-03T11:37:09Z</time>
      </trkpt>
      <trkpt lat="60.39906" lon="7.74255">
        <ele>1169.1</ele>
        <time>2019-04-03T11:37:16Z</time>
      </trkpt>
      <trkpt lat="60.39891" lon="7.74273">
        <ele>1170.54</ele>
        <time>2019-04-03T11:37:19Z</time>
      </trkpt>
      <trkpt lat="60.39871" lon="7.74308">
        <ele>1170.54</ele>
        <time>2019-04-03T11:37:24Z</time>
      </trkpt>
      <trkpt lat="60.39857" lon="7.74335">
        <ele>1171.98</ele>
        <time>2019-04-03T11:37:28Z</time>
      </trkpt>
      <trkpt lat="60.39837" lon="7.74368">
        <ele>1171.02</ele>
        <time>2019-04-03T11:37:33Z</time>
      </trkpt>
      <trkpt lat="60.39826" lon="7.74392">
        <ele>1171.02</ele>
        <time>2019-04-03T11:37:36Z</time>
      </trkpt>
      <trkpt lat="60.39808" lon="7.74424">
        <ele>1172.95</ele>
        <time>2019-04-03T11:37:41Z</time>
      </trkpt>
      <trkpt lat="60.39789" lon="7.74464">
        <ele>1172.95</ele>
        <time>2019-04-03T11:37:47Z</time>
      </trkpt>
      <trkpt lat="60.39761" lon="7.74509">
        <ele>1172.47</ele>
        <time>2019-04-03T11:37:54Z</time>
      </trkpt>
      <trkpt lat="60.39753" lon="7.74521">
        <ele>1171.02</ele>
        <time>2019-04-03T11:37:56Z</time>
      </trkpt>
      <trkpt lat="60.39741" lon="7.74541">
        <ele>1172.47</ele>
        <time>2019-04-03T11:38:00Z</time>
      </trkpt>
      <trkpt lat="60.39734" lon="7.74556">
        <ele>1172.95</ele>
        <time>2019-04-03T11:38:03Z</time>
      </trkpt>
      <trkpt lat="60.39722" lon="7.74576">
        <ele>1173.43</ele>
        <time>2019-04-03T11:38:11Z</time>
      </trkpt>
      <trkpt lat="60.39717" lon="7.7458">
        <ele>1173.91</ele>
        <time>2019-04-03T11:38:16Z</time>
      </trkpt>
      <trkpt lat="60.39713" lon="7.74581">
        <ele>1173.91</ele>
        <time>2019-04-03T11:38:18Z</time>
      </trkpt>
      <trkpt lat="60.39705" lon="7.74589">
        <ele>1171.98</ele>
        <time>2019-04-03T11:38:21Z</time>
      </trkpt>
      <trkpt lat="60.39701" lon="7.7459">
        <ele>1171.98</ele>
        <time>2019-04-03T11:38:22Z</time>
      </trkpt>
      <trkpt lat="60.39683" lon="7.74599">
        <ele>1170.06</ele>
        <time>2019-04-03T11:38:26Z</time>
      </trkpt>
      <trkpt lat="60.39675" lon="7.74609">
        <ele>1172.95</ele>
        <time>2019-04-03T11:38:30Z</time>
      </trkpt>
      <trkpt lat="60.39657" lon="7.74615">
        <ele>1171.02</ele>
        <time>2019-04-03T11:38:36Z</time>
      </trkpt>
      <trkpt lat="60.39641" lon="7.74638">
        <ele>1171.02</ele>
        <time>2019-04-03T11:38:41Z</time>
      </trkpt>
      <trkpt lat="60.39637" lon="7.74645">
        <ele>1171.98</ele>
        <time>2019-04-03T11:38:43Z</time>
      </trkpt>
      <trkpt lat="60.3962" lon="7.74657">
        <ele>1170.54</ele>
        <time>2019-04-03T11:38:50Z</time>
      </trkpt>
      <trkpt lat="60.39616" lon="7.74662">
        <ele>1170.54</ele>
        <time>2019-04-03T11:38:51Z</time>
      </trkpt>
      <trkpt lat="60.3961" lon="7.74671">
        <ele>1170.54</ele>
        <time>2019-04-03T11:38:53Z</time>
      </trkpt>
      <trkpt lat="60.39599" lon="7.74686">
        <ele>1170.54</ele>
        <time>2019-04-03T11:38:56Z</time>
      </trkpt>
      <trkpt lat="60.39585" lon="7.74709">
        <ele>1171.98</ele>
        <time>2019-04-03T11:39:00Z</time>
      </trkpt>
      <trkpt lat="60.39577" lon="7.74719">
        <ele>1170.06</ele>
        <time>2019-04-03T11:39:02Z</time>
      </trkpt>
      <trkpt lat="60.39573" lon="7.74724">
        <ele>1169.58</ele>
        <time>2019-04-03T11:39:03Z</time>
      </trkpt>
      <trkpt lat="60.39546" lon="7.74778">
        <ele>1170.54</ele>
        <time>2019-04-03T11:39:12Z</time>
      </trkpt>
      <trkpt lat="60.39532" lon="7.74792">
        <ele>1170.54</ele>
        <time>2019-04-03T11:39:16Z</time>
      </trkpt>
      <trkpt lat="60.39496" lon="7.74851">
        <ele>1171.02</ele>
        <time>2019-04-03T11:39:28Z</time>
      </trkpt>
      <trkpt lat="60.39477" lon="7.74891">
        <ele>1171.02</ele>
        <time>2019-04-03T11:39:36Z</time>
      </trkpt>
      <trkpt lat="60.39454" lon="7.74935">
        <ele>1169.1</ele>
        <time>2019-04-03T11:39:45Z</time>
      </trkpt>
      <trkpt lat="60.3945" lon="7.74946">
        <ele>1171.02</ele>
        <time>2019-04-03T11:39:47Z</time>
      </trkpt>
      <trkpt lat="60.39446" lon="7.74956">
        <ele>1169.58</ele>
        <time>2019-04-03T11:39:49Z</time>
      </trkpt>
      <trkpt lat="60.39437" lon="7.74985">
        <ele>1171.02</ele>
        <time>2019-04-03T11:39:58Z</time>
      </trkpt>
      <trkpt lat="60.39436" lon="7.74984">
        <ele>1171.02</ele>
        <time>2019-04-03T11:39:59Z</time>
      </trkpt>
      <trkpt lat="60.3943" lon="7.74984">
        <ele>1171.5</ele>
        <time>2019-04-03T11:40:16Z</time>
      </trkpt>
      <trkpt lat="60.39426" lon="7.74989">
        <ele>1171.5</ele>
        <time>2019-04-03T11:40:22Z</time>
      </trkpt>
      <trkpt lat="60.39411" lon="7.74998">
        <ele>1168.14</ele>
        <time>2019-04-03T11:40:27Z</time>
      </trkpt>
      <trkpt lat="60.39399" lon="7.75024">
        <ele>1169.58</ele>
        <time>2019-04-03T11:40:31Z</time>
      </trkpt>
      <trkpt lat="60.3938" lon="7.75074">
        <ele>1169.1</ele>
        <time>2019-04-03T11:40:40Z</time>
      </trkpt>
      <trkpt lat="60.3937" lon="7.75097">
        <ele>1171.02</ele>
        <time>2019-04-03T11:40:44Z</time>
      </trkpt>
      <trkpt lat="60.39364" lon="7.7511">
        <ele>1169.1</ele>
        <time>2019-04-03T11:40:46Z</time>
      </trkpt>
      <trkpt lat="60.3935" lon="7.75149">
        <ele>1168.62</ele>
        <time>2019-04-03T11:40:52Z</time>
      </trkpt>
      <trkpt lat="60.39324" lon="7.75221">
        <ele>1165.74</ele>
        <time>2019-04-03T11:41:02Z</time>
      </trkpt>
      <trkpt lat="60.39309" lon="7.7525">
        <ele>1164.29</ele>
        <time>2019-04-03T11:41:06Z</time>
      </trkpt>
      <trkpt lat="60.39305" lon="7.75257">
        <ele>1163.81</ele>
        <time>2019-04-03T11:41:07Z</time>
      </trkpt>
      <trkpt lat="60.39294" lon="7.75281">
        <ele>1160.93</ele>
        <time>2019-04-03T11:41:10Z</time>
      </trkpt>
      <trkpt lat="60.39281" lon="7.75326">
        <ele>1159.49</ele>
        <time>2019-04-03T11:41:15Z</time>
      </trkpt>
      <trkpt lat="60.39276" lon="7.75344">
        <ele>1158.05</ele>
        <time>2019-04-03T11:41:17Z</time>
      </trkpt>
      <trkpt lat="60.39266" lon="7.75372">
        <ele>1159.01</ele>
        <time>2019-04-03T11:41:20Z</time>
      </trkpt>
      <trkpt lat="60.39239" lon="7.75426">
        <ele>1154.2</ele>
        <time>2019-04-03T11:41:26Z</time>
      </trkpt>
      <trkpt lat="60.3923" lon="7.75444">
        <ele>1152.28</ele>
        <time>2019-04-03T11:41:28Z</time>
      </trkpt>
      <trkpt lat="60.392" lon="7.75501">
        <ele>1151.8</ele>
        <time>2019-04-03T11:41:35Z</time>
      </trkpt>
      <trkpt lat="60.39193" lon="7.75517">
        <ele>1153.72</ele>
        <time>2019-04-03T11:41:37Z</time>
      </trkpt>
      <trkpt lat="60.39187" lon="7.75533">
        <ele>1152.28</ele>
        <time>2019-04-03T11:41:39Z</time>
      </trkpt>
      <trkpt lat="60.39154" lon="7.75604">
        <ele>1150.35</ele>
        <time>2019-04-03T11:41:48Z</time>
      </trkpt>
      <trkpt lat="60.39107" lon="7.75679">
        <ele>1151.32</ele>
        <time>2019-04-03T11:41:57Z</time>
      </trkpt>
      <trkpt lat="60.39086" lon="7.75726">
        <ele>1151.32</ele>
        <time>2019-04-03T11:42:03Z</time>
      </trkpt>
      <trkpt lat="60.39063" lon="7.75781">
        <ele>1153.24</ele>
        <time>2019-04-03T11:42:13Z</time>
      </trkpt>
      <trkpt lat="60.39055" lon="7.75795">
        <ele>1151.8</ele>
        <time>2019-04-03T11:42:15Z</time>
      </trkpt>
      <trkpt lat="60.39034" lon="7.7583">
        <ele>1151.32</ele>
        <time>2019-04-03T11:42:20Z</time>
      </trkpt>
      <trkpt lat="60.39024" lon="7.75856">
        <ele>1152.76</ele>
        <time>2019-04-03T11:42:24Z</time>
      </trkpt>
      <trkpt lat="60.39016" lon="7.75881">
        <ele>1153.24</ele>
        <time>2019-04-03T11:42:28Z</time>
      </trkpt>
      <trkpt lat="60.39006" lon="7.75906">
        <ele>1155.64</ele>
        <time>2019-04-03T11:42:37Z</time>
      </trkpt>
      <trkpt lat="60.39006" lon="7.75907">
        <ele>1152.28</ele>
        <time>2019-04-03T11:42:44Z</time>
      </trkpt>
      <trkpt lat="60.39006" lon="7.75907">
        <ele>1157.08</ele>
        <time>2019-04-03T11:42:45Z</time>
      </trkpt>
      <trkpt lat="60.39005" lon="7.75907">
        <ele>1156.12</ele>
        <time>2019-04-03T11:42:58Z</time>
      </trkpt>
      <trkpt lat="60.39004" lon="7.75907">
        <ele>1154.2</ele>
        <time>2019-04-03T11:43:15Z</time>
      </trkpt>
      <trkpt lat="60.39003" lon="7.75908">
        <ele>1155.64</ele>
        <time>2019-04-03T11:43:31Z</time>
      </trkpt>
      <trkpt lat="60.39003" lon="7.75907">
        <ele>1153.72</ele>
        <time>2019-04-03T11:43:33Z</time>
      </trkpt>
      <trkpt lat="60.39003" lon="7.75907">
        <ele>1156.12</ele>
        <time>2019-04-03T11:43:35Z</time>
      </trkpt>
      <trkpt lat="60.39003" lon="7.75907">
        <ele>1152.28</ele>
        <time>2019-04-03T11:43:36Z</time>
      </trkpt>
      <trkpt lat="60.39003" lon="7.75907">
        <ele>1156.12</ele>
        <time>2019-04-03T11:43:37Z</time>
      </trkpt>
      <trkpt lat="60.39003" lon="7.75906">
        <ele>1154.68</ele>
        <time>2019-04-03T11:43:50Z</time>
      </trkpt>
      <trkpt lat="60.39003" lon="7.75906">
        <ele>1154.68</ele>
        <time>2019-04-03T11:44:07Z</time>
      </trkpt>
      <trkpt lat="60.39003" lon="7.75907">
        <ele>1155.64</ele>
        <time>2019-04-03T11:44:10Z</time>
      </trkpt>
      <trkpt lat="60.39002" lon="7.75907">
        <ele>1154.2</ele>
        <time>2019-04-03T11:44:12Z</time>
      </trkpt>
      <trkpt lat="60.39002" lon="7.75906">
        <ele>1155.64</ele>
        <time>2019-04-03T11:44:29Z</time>
      </trkpt>
      <trkpt lat="60.39001" lon="7.75908">
        <ele>1154.68</ele>
        <time>2019-04-03T11:44:38Z</time>
      </trkpt>
      <trkpt lat="60.39" lon="7.75908">
        <ele>1156.6</ele>
        <time>2019-04-03T11:44:48Z</time>
      </trkpt>
      <trkpt lat="60.39" lon="7.75908">
        <ele>1156.6</ele>
        <time>2019-04-03T11:44:52Z</time>
      </trkpt>
      <trkpt lat="60.38997" lon="7.75911">
        <ele>1155.16</ele>
        <time>2019-04-03T11:44:54Z</time>
      </trkpt>
      <trkpt lat="60.38994" lon="7.75915">
        <ele>1155.16</ele>
        <time>2019-04-03T11:44:56Z</time>
      </trkpt>
      <trkpt lat="60.38984" lon="7.75922">
        <ele>1156.6</ele>
        <time>2019-04-03T11:45:07Z</time>
      </trkpt>
      <trkpt lat="60.38984" lon="7.75922">
        <ele>1153.24</ele>
        <time>2019-04-03T11:45:10Z</time>
      </trkpt>
      <trkpt lat="60.38984" lon="7.75922">
        <ele>1157.56</ele>
        <time>2019-04-03T11:45:12Z</time>
      </trkpt>
      <trkpt lat="60.38984" lon="7.75923">
        <ele>1154.68</ele>
        <time>2019-04-03T11:45:15Z</time>
      </trkpt>
      <trkpt lat="60.38983" lon="7.75922">
        <ele>1156.12</ele>
        <time>2019-04-03T11:45:19Z</time>
      </trkpt>
      <trkpt lat="60.38983" lon="7.75922">
        <ele>1156.12</ele>
        <time>2019-04-03T11:45:47Z</time>
      </trkpt>
      <trkpt lat="60.38983" lon="7.75922">
        <ele>1156.12</ele>
        <time>2019-04-03T11:46:22Z</time>
      </trkpt>
      <trkpt lat="60.38982" lon="7.75923">
        <ele>1155.64</ele>
        <time>2019-04-03T11:46:44Z</time>
      </trkpt>
      <trkpt lat="60.38983" lon="7.75921">
        <ele>1155.64</ele>
        <time>2019-04-03T11:47:16Z</time>
      </trkpt>
      <trkpt lat="60.38984" lon="7.7592">
        <ele>1155.16</ele>
        <time>2019-04-03T11:47:53Z</time>
      </trkpt>
      <trkpt lat="60.38984" lon="7.75921">
        <ele>1155.64</ele>
        <time>2019-04-03T11:48:19Z</time>
      </trkpt>
      <trkpt lat="60.38983" lon="7.75924">
        <ele>1154.68</ele>
        <time>2019-04-03T11:48:45Z</time>
      </trkpt>
      <trkpt lat="60.38983" lon="7.75923">
        <ele>1154.68</ele>
        <time>2019-04-03T11:49:10Z</time>
      </trkpt>
      <trkpt lat="60.38983" lon="7.75923">
        <ele>1154.68</ele>
        <time>2019-04-03T11:49:36Z</time>
      </trkpt>
      <trkpt lat="60.38983" lon="7.75922">
        <ele>1154.68</ele>
        <time>2019-04-03T11:50:03Z</time>
      </trkpt>
      <trkpt lat="60.38982" lon="7.75922">
        <ele>1154.68</ele>
        <time>2019-04-03T11:50:30Z</time>
      </trkpt>
      <trkpt lat="60.38982" lon="7.75922">
        <ele>1159.01</ele>
        <time>2019-04-03T11:50:51Z</time>
      </trkpt>
      <trkpt lat="60.38981" lon="7.75922">
        <ele>1153.72</ele>
        <time>2019-04-03T11:50:52Z</time>
      </trkpt>
      <trkpt lat="60.38982" lon="7.75922">
        <ele>1154.68</ele>
        <time>2019-04-03T11:51:14Z</time>
      </trkpt>
      <trkpt lat="60.38982" lon="7.75922">
        <ele>1155.16</ele>
        <time>2019-04-03T11:51:38Z</time>
      </trkpt>
      <trkpt lat="60.38982" lon="7.75923">
        <ele>1153.72</ele>
        <time>2019-04-03T11:51:43Z</time>
      </trkpt>
      <trkpt lat="60.38982" lon="7.75922">
        <ele>1153.72</ele>
        <time>2019-04-03T11:52:02Z</time>
      </trkpt>
      <trkpt lat="60.38982" lon="7.75922">
        <ele>1155.16</ele>
        <time>2019-04-03T11:52:05Z</time>
      </trkpt>
      <trkpt lat="60.38982" lon="7.75922">
        <ele>1154.68</ele>
        <time>2019-04-03T11:52:10Z</time>
      </trkpt>
      <trkpt lat="60.38981" lon="7.75923">
        <ele>1153.72</ele>
        <time>2019-04-03T11:52:38Z</time>
      </trkpt>
      <trkpt lat="60.38981" lon="7.75924">
        <ele>1154.2</ele>
        <time>2019-04-03T11:53:09Z</time>
      </trkpt>
      <trkpt lat="60.38981" lon="7.75926">
        <ele>1154.2</ele>
        <time>2019-04-03T11:53:34Z</time>
      </trkpt>
      <trkpt lat="60.38981" lon="7.75927">
        <ele>1154.2</ele>
        <time>2019-04-03T11:54:01Z</time>
      </trkpt>
      <trkpt lat="60.38981" lon="7.75926">
        <ele>1154.2</ele>
        <time>2019-04-03T11:54:05Z</time>
      </trkpt>
      <trkpt lat="60.38969" lon="7.75916">
        <ele>1152.76</ele>
        <time>2019-04-03T11:54:10Z</time>
      </trkpt>
      <trkpt lat="60.38941" lon="7.7592">
        <ele>1151.32</ele>
        <time>2019-04-03T11:54:16Z</time>
      </trkpt>
      <trkpt lat="60.38932" lon="7.75927">
        <ele>1150.35</ele>
        <time>2019-04-03T11:54:18Z</time>
      </trkpt>
      <trkpt lat="60.38923" lon="7.75933">
        <ele>1149.87</ele>
        <time>2019-04-03T11:54:20Z</time>
      </trkpt>
      <trkpt lat="60.38899" lon="7.75938">
        <ele>1147.95</ele>
        <time>2019-04-03T11:54:24Z</time>
      </trkpt>
      <trkpt lat="60.38862" lon="7.75949">
        <ele>1147.47</ele>
        <time>2019-04-03T11:54:30Z</time>
      </trkpt>
      <trkpt lat="60.38837" lon="7.75965">
        <ele>1145.07</ele>
        <time>2019-04-03T11:54:34Z</time>
      </trkpt>
      <trkpt lat="60.38794" lon="7.76003">
        <ele>1144.59</ele>
        <time>2019-04-03T11:54:41Z</time>
      </trkpt>
      <trkpt lat="60.38776" lon="7.76019">
        <ele>1141.7</ele>
        <time>2019-04-03T11:54:44Z</time>
      </trkpt>
      <trkpt lat="60.38764" lon="7.76031">
        <ele>1140.74</ele>
        <time>2019-04-03T11:54:46Z</time>
      </trkpt>
      <trkpt lat="60.3874" lon="7.7605">
        <ele>1137.38</ele>
        <time>2019-04-03T11:54:50Z</time>
      </trkpt>
      <trkpt lat="60.38726" lon="7.76062">
        <ele>1134.97</ele>
        <time>2019-04-03T11:54:52Z</time>
      </trkpt>
      <trkpt lat="60.38701" lon="7.7608">
        <ele>1131.61</ele>
        <time>2019-04-03T11:54:55Z</time>
      </trkpt>
      <trkpt lat="60.38693" lon="7.76088">
        <ele>1128.73</ele>
        <time>2019-04-03T11:54:56Z</time>
      </trkpt>
      <trkpt lat="60.38653" lon="7.76127">
        <ele>1124.88</ele>
        <time>2019-04-03T11:55:01Z</time>
      </trkpt>
      <trkpt lat="60.38646" lon="7.76134">
        <ele>1124.88</ele>
        <time>2019-04-03T11:55:02Z</time>
      </trkpt>
      <trkpt lat="60.3861" lon="7.76171">
        <ele>1122.96</ele>
        <time>2019-04-03T11:55:07Z</time>
      </trkpt>
      <trkpt lat="60.38598" lon="7.76185">
        <ele>1121.52</ele>
        <time>2019-04-03T11:55:09Z</time>
      </trkpt>
      <trkpt lat="60.38592" lon="7.76192">
        <ele>1121.52</ele>
        <time>2019-04-03T11:55:10Z</time>
      </trkpt>
      <trkpt lat="60.38572" lon="7.76208">
        <ele>1123.44</ele>
        <time>2019-04-03T11:55:13Z</time>
      </trkpt>
      <trkpt lat="60.38537" lon="7.76238">
        <ele>1124.4</ele>
        <time>2019-04-03T11:55:19Z</time>
      </trkpt>
      <trkpt lat="60.38521" lon="7.76249">
        <ele>1124.4</ele>
        <time>2019-04-03T11:55:22Z</time>
      </trkpt>
      <trkpt lat="60.38505" lon="7.76255">
        <ele>1122.96</ele>
        <time>2019-04-03T11:55:25Z</time>
      </trkpt>
      <trkpt lat="60.385" lon="7.76257">
        <ele>1124.4</ele>
        <time>2019-04-03T11:55:26Z</time>
      </trkpt>
      <trkpt lat="60.38484" lon="7.76258">
        <ele>1124.4</ele>
        <time>2019-04-03T11:55:30Z</time>
      </trkpt>
      <trkpt lat="60.38458" lon="7.7627">
        <ele>1124.4</ele>
        <time>2019-04-03T11:55:37Z</time>
      </trkpt>
      <trkpt lat="60.38445" lon="7.7626">
        <ele>1122.96</ele>
        <time>2019-04-03T11:55:40Z</time>
      </trkpt>
      <trkpt lat="60.38433" lon="7.76257">
        <ele>1121.03</ele>
        <time>2019-04-03T11:55:42Z</time>
      </trkpt>
      <trkpt lat="60.38413" lon="7.76264">
        <ele>1122</ele>
        <time>2019-04-03T11:55:46Z</time>
      </trkpt>
      <trkpt lat="60.38401" lon="7.76268">
        <ele>1122.48</ele>
        <time>2019-04-03T11:55:49Z</time>
      </trkpt>
      <trkpt lat="60.38376" lon="7.76271">
        <ele>1122.48</ele>
        <time>2019-04-03T11:55:56Z</time>
      </trkpt>
      <trkpt lat="60.38363" lon="7.7627">
        <ele>1122.48</ele>
        <time>2019-04-03T11:55:59Z</time>
      </trkpt>
      <trkpt lat="60.38354" lon="7.76276">
        <ele>1122.48</ele>
        <time>2019-04-03T11:56:01Z</time>
      </trkpt>
      <trkpt lat="60.38346" lon="7.76285">
        <ele>1121.03</ele>
        <time>2019-04-03T11:56:03Z</time>
      </trkpt>
      <trkpt lat="60.38335" lon="7.76285">
        <ele>1122.48</ele>
        <time>2019-04-03T11:56:06Z</time>
      </trkpt>
      <trkpt lat="60.38321" lon="7.76282">
        <ele>1122.48</ele>
        <time>2019-04-03T11:56:09Z</time>
      </trkpt>
      <trkpt lat="60.38303" lon="7.76294">
        <ele>1122</ele>
        <time>2019-04-03T11:56:13Z</time>
      </trkpt>
      <trkpt lat="60.38282" lon="7.76289">
        <ele>1122</ele>
        <time>2019-04-03T11:56:18Z</time>
      </trkpt>
      <trkpt lat="60.38266" lon="7.76286">
        <ele>1122</ele>
        <time>2019-04-03T11:56:21Z</time>
      </trkpt>
      <trkpt lat="60.3825" lon="7.76289">
        <ele>1120.55</ele>
        <time>2019-04-03T11:56:24Z</time>
      </trkpt>
      <trkpt lat="60.38241" lon="7.7629">
        <ele>1122</ele>
        <time>2019-04-03T11:56:26Z</time>
      </trkpt>
      <trkpt lat="60.38227" lon="7.76291">
        <ele>1122</ele>
        <time>2019-04-03T11:56:29Z</time>
      </trkpt>
      <trkpt lat="60.38191" lon="7.76295">
        <ele>1122</ele>
        <time>2019-04-03T11:56:37Z</time>
      </trkpt>
      <trkpt lat="60.38169" lon="7.76298">
        <ele>1122.48</ele>
        <time>2019-04-03T11:56:43Z</time>
      </trkpt>
      <trkpt lat="60.38153" lon="7.76303">
        <ele>1122.48</ele>
        <time>2019-04-03T11:56:47Z</time>
      </trkpt>
      <trkpt lat="60.38145" lon="7.7631">
        <ele>1121.03</ele>
        <time>2019-04-03T11:56:49Z</time>
      </trkpt>
      <trkpt lat="60.38137" lon="7.76318">
        <ele>1121.03</ele>
        <time>2019-04-03T11:56:51Z</time>
      </trkpt>
      <trkpt lat="60.3813" lon="7.76323">
        <ele>1121.03</ele>
        <time>2019-04-03T11:56:53Z</time>
      </trkpt>
      <trkpt lat="60.38114" lon="7.76334">
        <ele>1122.48</ele>
        <time>2019-04-03T11:56:57Z</time>
      </trkpt>
      <trkpt lat="60.38107" lon="7.76337">
        <ele>1122.48</ele>
        <time>2019-04-03T11:56:59Z</time>
      </trkpt>
      <trkpt lat="60.38087" lon="7.76352">
        <ele>1122.48</ele>
        <time>2019-04-03T11:57:04Z</time>
      </trkpt>
      <trkpt lat="60.38065" lon="7.76342">
        <ele>1122.48</ele>
        <time>2019-04-03T11:57:09Z</time>
      </trkpt>
      <trkpt lat="60.38044" lon="7.76351">
        <ele>1121.03</ele>
        <time>2019-04-03T11:57:13Z</time>
      </trkpt>
      <trkpt lat="60.38031" lon="7.76356">
        <ele>1122.48</ele>
        <time>2019-04-03T11:57:16Z</time>
      </trkpt>
      <trkpt lat="60.38011" lon="7.76387">
        <ele>1122.48</ele>
        <time>2019-04-03T11:57:23Z</time>
      </trkpt>
      <trkpt lat="60.38006" lon="7.7639">
        <ele>1122.48</ele>
        <time>2019-04-03T11:57:25Z</time>
      </trkpt>
      <trkpt lat="60.37985" lon="7.76403">
        <ele>1122.48</ele>
        <time>2019-04-03T11:57:34Z</time>
      </trkpt>
      <trkpt lat="60.37985" lon="7.76402">
        <ele>1122.96</ele>
        <time>2019-04-03T11:57:41Z</time>
      </trkpt>
      <trkpt lat="60.37978" lon="7.76404">
        <ele>1122.96</ele>
        <time>2019-04-03T11:57:46Z</time>
      </trkpt>
      <trkpt lat="60.3797" lon="7.76403">
        <ele>1122.96</ele>
        <time>2019-04-03T11:57:48Z</time>
      </trkpt>
      <trkpt lat="60.37959" lon="7.76412">
        <ele>1121.52</ele>
        <time>2019-04-03T11:57:51Z</time>
      </trkpt>
      <trkpt lat="60.37956" lon="7.76418">
        <ele>1121.52</ele>
        <time>2019-04-03T11:57:52Z</time>
      </trkpt>
      <trkpt lat="60.37945" lon="7.76422">
        <ele>1122.96</ele>
        <time>2019-04-03T11:57:55Z</time>
      </trkpt>
      <trkpt lat="60.37932" lon="7.76422">
        <ele>1122.96</ele>
        <time>2019-04-03T11:57:58Z</time>
      </trkpt>
      <trkpt lat="60.37912" lon="7.76434">
        <ele>1122.96</ele>
        <time>2019-04-03T11:58:03Z</time>
      </trkpt>
      <trkpt lat="60.37905" lon="7.76442">
        <ele>1121.52</ele>
        <time>2019-04-03T11:58:05Z</time>
      </trkpt>
      <trkpt lat="60.37899" lon="7.76448">
        <ele>1122.48</ele>
        <time>2019-04-03T11:58:07Z</time>
      </trkpt>
      <trkpt lat="60.37879" lon="7.76441">
        <ele>1122.96</ele>
        <time>2019-04-03T11:58:13Z</time>
      </trkpt>
      <trkpt lat="60.37872" lon="7.76447">
        <ele>1122.96</ele>
        <time>2019-04-03T11:58:15Z</time>
      </trkpt>
      <trkpt lat="60.37865" lon="7.76459">
        <ele>1123.44</ele>
        <time>2019-04-03T11:58:18Z</time>
      </trkpt>
      <trkpt lat="60.37841" lon="7.76468">
        <ele>1123.44</ele>
        <time>2019-04-03T11:58:26Z</time>
      </trkpt>
      <trkpt lat="60.37837" lon="7.76474">
        <ele>1123.44</ele>
        <time>2019-04-03T11:58:28Z</time>
      </trkpt>
      <trkpt lat="60.37821" lon="7.76483">
        <ele>1124.4</ele>
        <time>2019-04-03T11:58:36Z</time>
      </trkpt>
      <trkpt lat="60.37819" lon="7.76484">
        <ele>1124.4</ele>
        <time>2019-04-03T11:58:37Z</time>
      </trkpt>
      <trkpt lat="60.37803" lon="7.76508">
        <ele>1124.88</ele>
        <time>2019-04-03T11:58:46Z</time>
      </trkpt>
      <trkpt lat="60.37796" lon="7.76512">
        <ele>1125.36</ele>
        <time>2019-04-03T11:58:56Z</time>
      </trkpt>
      <trkpt lat="60.37795" lon="7.76511">
        <ele>1125.36</ele>
        <time>2019-04-03T11:59:05Z</time>
      </trkpt>
      <trkpt lat="60.37784" lon="7.76515">
        <ele>1125.36</ele>
        <time>2019-04-03T11:59:12Z</time>
      </trkpt>
      <trkpt lat="60.3778" lon="7.76517">
        <ele>1125.36</ele>
        <time>2019-04-03T11:59:14Z</time>
      </trkpt>
      <trkpt lat="60.37769" lon="7.76528">
        <ele>1125.36</ele>
        <time>2019-04-03T11:59:19Z</time>
      </trkpt>
      <trkpt lat="60.37766" lon="7.76536">
        <ele>1125.36</ele>
        <time>2019-04-03T11:59:21Z</time>
      </trkpt>
      <trkpt lat="60.37758" lon="7.76537">
        <ele>1125.84</ele>
        <time>2019-04-03T11:59:24Z</time>
      </trkpt>
      <trkpt lat="60.37739" lon="7.76545">
        <ele>1123.92</ele>
        <time>2019-04-03T11:59:28Z</time>
      </trkpt>
      <trkpt lat="60.37729" lon="7.76555">
        <ele>1123.44</ele>
        <time>2019-04-03T11:59:30Z</time>
      </trkpt>
      <trkpt lat="60.37708" lon="7.7658">
        <ele>1122.96</ele>
        <time>2019-04-03T11:59:35Z</time>
      </trkpt>
      <trkpt lat="60.37698" lon="7.76595">
        <ele>1122.96</ele>
        <time>2019-04-03T11:59:38Z</time>
      </trkpt>
      <trkpt lat="60.37675" lon="7.76637">
        <ele>1122</ele>
        <time>2019-04-03T11:59:46Z</time>
      </trkpt>
      <trkpt lat="60.37663" lon="7.76665">
        <ele>1122.48</ele>
        <time>2019-04-03T11:59:51Z</time>
      </trkpt>
      <trkpt lat="60.37649" lon="7.76678">
        <ele>1122.48</ele>
        <time>2019-04-03T12:00:01Z</time>
      </trkpt>
      <trkpt lat="60.37648" lon="7.76681">
        <ele>1122.96</ele>
        <time>2019-04-03T12:00:15Z</time>
      </trkpt>
      <trkpt lat="60.37643" lon="7.7669">
        <ele>1122.96</ele>
        <time>2019-04-03T12:00:22Z</time>
      </trkpt>
      <trkpt lat="60.37642" lon="7.7669">
        <ele>1122.96</ele>
        <time>2019-04-03T12:00:23Z</time>
      </trkpt>
      <trkpt lat="60.37627" lon="7.767">
        <ele>1122</ele>
        <time>2019-04-03T12:00:29Z</time>
      </trkpt>
      <trkpt lat="60.37625" lon="7.76705">
        <ele>1122</ele>
        <time>2019-04-03T12:00:30Z</time>
      </trkpt>
      <trkpt lat="60.37618" lon="7.7672">
        <ele>1122</ele>
        <time>2019-04-03T12:00:34Z</time>
      </trkpt>
      <trkpt lat="60.37614" lon="7.76726">
        <ele>1122</ele>
        <time>2019-04-03T12:00:36Z</time>
      </trkpt>
      <trkpt lat="60.37605" lon="7.76726">
        <ele>1122</ele>
        <time>2019-04-03T12:00:39Z</time>
      </trkpt>
      <trkpt lat="60.37581" lon="7.76746">
        <ele>1122</ele>
        <time>2019-04-03T12:00:45Z</time>
      </trkpt>
      <trkpt lat="60.37567" lon="7.76765">
        <ele>1122.48</ele>
        <time>2019-04-03T12:00:49Z</time>
      </trkpt>
      <trkpt lat="60.37559" lon="7.76773">
        <ele>1122.48</ele>
        <time>2019-04-03T12:00:51Z</time>
      </trkpt>
      <trkpt lat="60.37552" lon="7.76783">
        <ele>1122.48</ele>
        <time>2019-04-03T12:00:53Z</time>
      </trkpt>
      <trkpt lat="60.37529" lon="7.76808">
        <ele>1121.03</ele>
        <time>2019-04-03T12:01:00Z</time>
      </trkpt>
      <trkpt lat="60.37524" lon="7.76813">
        <ele>1122.48</ele>
        <time>2019-04-03T12:01:02Z</time>
      </trkpt>
      <trkpt lat="60.37515" lon="7.7682">
        <ele>1122.96</ele>
        <time>2019-04-03T12:01:05Z</time>
      </trkpt>
      <trkpt lat="60.37493" lon="7.76843">
        <ele>1122.96</ele>
        <time>2019-04-03T12:01:14Z</time>
      </trkpt>
      <trkpt lat="60.37479" lon="7.76836">
        <ele>1122.96</ele>
        <time>2019-04-03T12:01:18Z</time>
      </trkpt>
      <trkpt lat="60.37448" lon="7.7683">
        <ele>1122.96</ele>
        <time>2019-04-03T12:01:26Z</time>
      </trkpt>
      <trkpt lat="60.37435" lon="7.76821">
        <ele>1122.96</ele>
        <time>2019-04-03T12:01:30Z</time>
      </trkpt>
      <trkpt lat="60.37418" lon="7.76819">
        <ele>1122.96</ele>
        <time>2019-04-03T12:01:34Z</time>
      </trkpt>
      <trkpt lat="60.374" lon="7.76828">
        <ele>1122.96</ele>
        <time>2019-04-03T12:01:38Z</time>
      </trkpt>
      <trkpt lat="60.37373" lon="7.76816">
        <ele>1122.96</ele>
        <time>2019-04-03T12:01:46Z</time>
      </trkpt>
      <trkpt lat="60.37351" lon="7.76823">
        <ele>1122</ele>
        <time>2019-04-03T12:01:53Z</time>
      </trkpt>
      <trkpt lat="60.37343" lon="7.76839">
        <ele>1123.44</ele>
        <time>2019-04-03T12:01:58Z</time>
      </trkpt>
      <trkpt lat="60.37337" lon="7.76845">
        <ele>1123.44</ele>
        <time>2019-04-03T12:02:04Z</time>
      </trkpt>
      <trkpt lat="60.37325" lon="7.76848">
        <ele>1123.44</ele>
        <time>2019-04-03T12:02:10Z</time>
      </trkpt>
      <trkpt lat="60.37303" lon="7.76851">
        <ele>1123.44</ele>
        <time>2019-04-03T12:02:19Z</time>
      </trkpt>
      <trkpt lat="60.37279" lon="7.76865">
        <ele>1123.44</ele>
        <time>2019-04-03T12:02:27Z</time>
      </trkpt>
      <trkpt lat="60.37259" lon="7.76857">
        <ele>1123.44</ele>
        <time>2019-04-03T12:02:34Z</time>
      </trkpt>
      <trkpt lat="60.37232" lon="7.76863">
        <ele>1123.44</ele>
        <time>2019-04-03T12:02:40Z</time>
      </trkpt>
      <trkpt lat="60.37224" lon="7.7687">
        <ele>1122</ele>
        <time>2019-04-03T12:02:42Z</time>
      </trkpt>
      <trkpt lat="60.37206" lon="7.76886">
        <ele>1123.44</ele>
        <time>2019-04-03T12:02:48Z</time>
      </trkpt>
      <trkpt lat="60.37197" lon="7.76885">
        <ele>1123.44</ele>
        <time>2019-04-03T12:02:55Z</time>
      </trkpt>
      <trkpt lat="60.37193" lon="7.76881">
        <ele>1123.44</ele>
        <time>2019-04-03T12:02:58Z</time>
      </trkpt>
      <trkpt lat="60.37173" lon="7.76863">
        <ele>1123.44</ele>
        <time>2019-04-03T12:03:08Z</time>
      </trkpt>
      <trkpt lat="60.37152" lon="7.76828">
        <ele>1123.44</ele>
        <time>2019-04-03T12:03:16Z</time>
      </trkpt>
      <trkpt lat="60.37134" lon="7.76801">
        <ele>1123.44</ele>
        <time>2019-04-03T12:03:22Z</time>
      </trkpt>
      <trkpt lat="60.37114" lon="7.76776">
        <ele>1123.44</ele>
        <time>2019-04-03T12:03:28Z</time>
      </trkpt>
      <trkpt lat="60.37095" lon="7.76744">
        <ele>1123.44</ele>
        <time>2019-04-03T12:03:35Z</time>
      </trkpt>
      <trkpt lat="60.37075" lon="7.76712">
        <ele>1123.44</ele>
        <time>2019-04-03T12:03:42Z</time>
      </trkpt>
      <trkpt lat="60.37063" lon="7.76701">
        <ele>1123.92</ele>
        <time>2019-04-03T12:03:46Z</time>
      </trkpt>
      <trkpt lat="60.37055" lon="7.76687">
        <ele>1124.4</ele>
        <time>2019-04-03T12:03:50Z</time>
      </trkpt>
      <trkpt lat="60.37046" lon="7.76679">
        <ele>1124.88</ele>
        <time>2019-04-03T12:03:54Z</time>
      </trkpt>
      <trkpt lat="60.37029" lon="7.76648">
        <ele>1125.36</ele>
        <time>2019-04-03T12:04:02Z</time>
      </trkpt>
      <trkpt lat="60.37026" lon="7.76643">
        <ele>1125.36</ele>
        <time>2019-04-03T12:04:03Z</time>
      </trkpt>
      <trkpt lat="60.37018" lon="7.76616">
        <ele>1125.36</ele>
        <time>2019-04-03T12:04:07Z</time>
      </trkpt>
      <trkpt lat="60.37002" lon="7.76591">
        <ele>1126.8</ele>
        <time>2019-04-03T12:04:13Z</time>
      </trkpt>
      <trkpt lat="60.36985" lon="7.76562">
        <ele>1127.76</ele>
        <time>2019-04-03T12:04:22Z</time>
      </trkpt>
      <trkpt lat="60.3698" lon="7.76551">
        <ele>1127.76</ele>
        <time>2019-04-03T12:04:25Z</time>
      </trkpt>
      <trkpt lat="60.36964" lon="7.76532">
        <ele>1128.73</ele>
        <time>2019-04-03T12:04:32Z</time>
      </trkpt>
      <trkpt lat="60.36957" lon="7.76524">
        <ele>1130.17</ele>
        <time>2019-04-03T12:04:35Z</time>
      </trkpt>
      <trkpt lat="60.36946" lon="7.76507">
        <ele>1130.17</ele>
        <time>2019-04-03T12:04:40Z</time>
      </trkpt>
      <trkpt lat="60.36928" lon="7.76477">
        <ele>1131.61</ele>
        <time>2019-04-03T12:04:48Z</time>
      </trkpt>
      <trkpt lat="60.36918" lon="7.76456">
        <ele>1132.57</ele>
        <time>2019-04-03T12:04:53Z</time>
      </trkpt>
      <trkpt lat="60.36904" lon="7.76435">
        <ele>1133.53</ele>
        <time>2019-04-03T12:05:01Z</time>
      </trkpt>
      <trkpt lat="60.36903" lon="7.76433">
        <ele>1134.49</ele>
        <time>2019-04-03T12:05:02Z</time>
      </trkpt>
      <trkpt lat="60.36887" lon="7.76407">
        <ele>1135.45</ele>
        <time>2019-04-03T12:05:11Z</time>
      </trkpt>
      <trkpt lat="60.3687" lon="7.76376">
        <ele>1137.38</ele>
        <time>2019-04-03T12:05:19Z</time>
      </trkpt>
      <trkpt lat="60.36859" lon="7.76343">
        <ele>1139.3</ele>
        <time>2019-04-03T12:05:28Z</time>
      </trkpt>
      <trkpt lat="60.36852" lon="7.76315">
        <ele>1140.74</ele>
        <time>2019-04-03T12:05:36Z</time>
      </trkpt>
      <trkpt lat="60.36847" lon="7.76295">
        <ele>1142.66</ele>
        <time>2019-04-03T12:05:42Z</time>
      </trkpt>
      <trkpt lat="60.3684" lon="7.76271">
        <ele>1144.59</ele>
        <time>2019-04-03T12:05:49Z</time>
      </trkpt>
      <trkpt lat="60.36835" lon="7.76248">
        <ele>1146.03</ele>
        <time>2019-04-03T12:05:56Z</time>
      </trkpt>
      <trkpt lat="60.36834" lon="7.76241">
        <ele>1146.03</ele>
        <time>2019-04-03T12:05:58Z</time>
      </trkpt>
      <trkpt lat="60.36827" lon="7.76216">
        <ele>1149.39</ele>
        <time>2019-04-03T12:06:06Z</time>
      </trkpt>
      <trkpt lat="60.3682" lon="7.76192">
        <ele>1150.84</ele>
        <time>2019-04-03T12:06:13Z</time>
      </trkpt>
      <trkpt lat="60.36811" lon="7.76172">
        <ele>1153.24</ele>
        <time>2019-04-03T12:06:21Z</time>
      </trkpt>
      <trkpt lat="60.36806" lon="7.76151">
        <ele>1153.24</ele>
        <time>2019-04-03T12:06:26Z</time>
      </trkpt>
      <trkpt lat="60.36802" lon="7.76136">
        <ele>1154.68</ele>
        <time>2019-04-03T12:06:30Z</time>
      </trkpt>
      <trkpt lat="60.36796" lon="7.76117">
        <ele>1156.12</ele>
        <time>2019-04-03T12:06:35Z</time>
      </trkpt>
      <trkpt lat="60.36787" lon="7.76075">
        <ele>1157.56</ele>
        <time>2019-04-03T12:06:46Z</time>
      </trkpt>
      <trkpt lat="60.36782" lon="7.7606">
        <ele>1159.01</ele>
        <time>2019-04-03T12:06:51Z</time>
      </trkpt>
      <trkpt lat="60.36775" lon="7.76031">
        <ele>1160.93</ele>
        <time>2019-04-03T12:07:00Z</time>
      </trkpt>
      <trkpt lat="60.36774" lon="7.76027">
        <ele>1160.93</ele>
        <time>2019-04-03T12:07:01Z</time>
      </trkpt>
      <trkpt lat="60.36769" lon="7.76002">
        <ele>1162.85</ele>
        <time>2019-04-03T12:07:08Z</time>
      </trkpt>
      <trkpt lat="60.36767" lon="7.75994">
        <ele>1163.33</ele>
        <time>2019-04-03T12:07:11Z</time>
      </trkpt>
      <trkpt lat="60.36758" lon="7.75968">
        <ele>1166.22</ele>
        <time>2019-04-03T12:07:19Z</time>
      </trkpt>
      <trkpt lat="60.36757" lon="7.75964">
        <ele>1166.22</ele>
        <time>2019-04-03T12:07:20Z</time>
      </trkpt>
      <trkpt lat="60.36747" lon="7.75937">
        <ele>1168.14</ele>
        <time>2019-04-03T12:07:28Z</time>
      </trkpt>
      <trkpt lat="60.36743" lon="7.75921">
        <ele>1169.58</ele>
        <time>2019-04-03T12:07:33Z</time>
      </trkpt>
      <trkpt lat="60.36734" lon="7.75896">
        <ele>1171.98</ele>
        <time>2019-04-03T12:07:42Z</time>
      </trkpt>
      <trkpt lat="60.36732" lon="7.75888">
        <ele>1171.98</ele>
        <time>2019-04-03T12:07:44Z</time>
      </trkpt>
      <trkpt lat="60.36728" lon="7.75879">
        <ele>1173.43</ele>
        <time>2019-04-03T12:07:47Z</time>
      </trkpt>
      <trkpt lat="60.3672" lon="7.75858">
        <ele>1174.39</ele>
        <time>2019-04-03T12:07:55Z</time>
      </trkpt>
      <trkpt lat="60.36715" lon="7.75846">
        <ele>1175.35</ele>
        <time>2019-04-03T12:08:01Z</time>
      </trkpt>
      <trkpt lat="60.36711" lon="7.75835">
        <ele>1175.83</ele>
        <time>2019-04-03T12:08:05Z</time>
      </trkpt>
      <trkpt lat="60.367" lon="7.75809">
        <ele>1177.27</ele>
        <time>2019-04-03T12:08:16Z</time>
      </trkpt>
      <trkpt lat="60.367" lon="7.75808">
        <ele>1177.27</ele>
        <time>2019-04-03T12:08:17Z</time>
      </trkpt>
      <trkpt lat="60.36692" lon="7.75777">
        <ele>1177.75</ele>
        <time>2019-04-03T12:08:27Z</time>
      </trkpt>
      <trkpt lat="60.36683" lon="7.75757">
        <ele>1179.19</ele>
        <time>2019-04-03T12:08:34Z</time>
      </trkpt>
      <trkpt lat="60.36673" lon="7.75735">
        <ele>1180.64</ele>
        <time>2019-04-03T12:08:42Z</time>
      </trkpt>
      <trkpt lat="60.36662" lon="7.75707">
        <ele>1182.08</ele>
        <time>2019-04-03T12:08:51Z</time>
      </trkpt>
      <trkpt lat="60.36657" lon="7.75695">
        <ele>1182.56</ele>
        <time>2019-04-03T12:08:57Z</time>
      </trkpt>
      <trkpt lat="60.36654" lon="7.75687">
        <ele>1183.04</ele>
        <time>2019-04-03T12:09:01Z</time>
      </trkpt>
      <trkpt lat="60.36644" lon="7.7566">
        <ele>1184</ele>
        <time>2019-04-03T12:09:10Z</time>
      </trkpt>
      <trkpt lat="60.36633" lon="7.75632">
        <ele>1184.48</ele>
        <time>2019-04-03T12:09:20Z</time>
      </trkpt>
      <trkpt lat="60.36631" lon="7.75628">
        <ele>1184.96</ele>
        <time>2019-04-03T12:09:22Z</time>
      </trkpt>
      <trkpt lat="60.36621" lon="7.75607">
        <ele>1186.4</ele>
        <time>2019-04-03T12:09:31Z</time>
      </trkpt>
      <trkpt lat="60.36613" lon="7.75592">
        <ele>1186.88</ele>
        <time>2019-04-03T12:09:38Z</time>
      </trkpt>
      <trkpt lat="60.36601" lon="7.75573">
        <ele>1188.33</ele>
        <time>2019-04-03T12:09:46Z</time>
      </trkpt>
      <trkpt lat="60.36592" lon="7.75548">
        <ele>1190.73</ele>
        <time>2019-04-03T12:09:55Z</time>
      </trkpt>
      <trkpt lat="60.36581" lon="7.75527">
        <ele>1191.69</ele>
        <time>2019-04-03T12:10:04Z</time>
      </trkpt>
      <trkpt lat="60.36579" lon="7.75518">
        <ele>1192.17</ele>
        <time>2019-04-03T12:10:08Z</time>
      </trkpt>
      <trkpt lat="60.36575" lon="7.75513">
        <ele>1192.65</ele>
        <time>2019-04-03T12:10:11Z</time>
      </trkpt>
      <trkpt lat="60.36569" lon="7.75506">
        <ele>1193.61</ele>
        <time>2019-04-03T12:10:15Z</time>
      </trkpt>
      <trkpt lat="60.36561" lon="7.75496">
        <ele>1194.58</ele>
        <time>2019-04-03T12:10:20Z</time>
      </trkpt>
      <trkpt lat="60.36557" lon="7.75473">
        <ele>1196.02</ele>
        <time>2019-04-03T12:10:28Z</time>
      </trkpt>
      <trkpt lat="60.36552" lon="7.75457">
        <ele>1197.46</ele>
        <time>2019-04-03T12:10:33Z</time>
      </trkpt>
      <trkpt lat="60.36543" lon="7.75431">
        <ele>1199.86</ele>
        <time>2019-04-03T12:10:42Z</time>
      </trkpt>
      <trkpt lat="60.36542" lon="7.75428">
        <ele>1199.86</ele>
        <time>2019-04-03T12:10:43Z</time>
      </trkpt>
      <trkpt lat="60.36536" lon="7.75411">
        <ele>1201.3</ele>
        <time>2019-04-03T12:10:48Z</time>
      </trkpt>
      <trkpt lat="60.36529" lon="7.75399">
        <ele>1202.75</ele>
        <time>2019-04-03T12:10:52Z</time>
      </trkpt>
      <trkpt lat="60.36528" lon="7.75395">
        <ele>1202.75</ele>
        <time>2019-04-03T12:10:53Z</time>
      </trkpt>
      <trkpt lat="60.36519" lon="7.75382">
        <ele>1204.19</ele>
        <time>2019-04-03T12:10:57Z</time>
      </trkpt>
      <trkpt lat="60.36501" lon="7.75359">
        <ele>1206.11</ele>
        <time>2019-04-03T12:11:04Z</time>
      </trkpt>
      <trkpt lat="60.36498" lon="7.75351">
        <ele>1206.59</ele>
        <time>2019-04-03T12:11:06Z</time>
      </trkpt>
      <trkpt lat="60.36483" lon="7.75331">
        <ele>1208.03</ele>
        <time>2019-04-03T12:11:13Z</time>
      </trkpt>
      <trkpt lat="60.36472" lon="7.75306">
        <ele>1211.4</ele>
        <time>2019-04-03T12:11:20Z</time>
      </trkpt>
      <trkpt lat="60.36467" lon="7.75291">
        <ele>1212.84</ele>
        <time>2019-04-03T12:11:24Z</time>
      </trkpt>
      <trkpt lat="60.36457" lon="7.75264">
        <ele>1216.69</ele>
        <time>2019-04-03T12:11:31Z</time>
      </trkpt>
      <trkpt lat="60.3645" lon="7.75244">
        <ele>1218.61</ele>
        <time>2019-04-03T12:11:36Z</time>
      </trkpt>
      <trkpt lat="60.36442" lon="7.75243">
        <ele>1219.09</ele>
        <time>2019-04-03T12:11:40Z</time>
      </trkpt>
      <trkpt lat="60.36435" lon="7.75216">
        <ele>1221.01</ele>
        <time>2019-04-03T12:11:48Z</time>
      </trkpt>
      <trkpt lat="60.36436" lon="7.75213">
        <ele>1221.97</ele>
        <time>2019-04-03T12:11:57Z</time>
      </trkpt>
      <trkpt lat="60.36435" lon="7.7521">
        <ele>1221.97</ele>
        <time>2019-04-03T12:12:19Z</time>
      </trkpt>
      <trkpt lat="60.36435" lon="7.7521">
        <ele>1221.97</ele>
        <time>2019-04-03T12:12:21Z</time>
      </trkpt>
      <trkpt lat="60.36436" lon="7.75205">
        <ele>1221.97</ele>
        <time>2019-04-03T12:12:31Z</time>
      </trkpt>
      <trkpt lat="60.36435" lon="7.75203">
        <ele>1221.49</ele>
        <time>2019-04-03T12:12:48Z</time>
      </trkpt>
      <trkpt lat="60.36435" lon="7.75178">
        <ele>1222.45</ele>
        <time>2019-04-03T12:12:54Z</time>
      </trkpt>
      <trkpt lat="60.36435" lon="7.75167">
        <ele>1222.93</ele>
        <time>2019-04-03T12:13:02Z</time>
      </trkpt>
      <trkpt lat="60.36434" lon="7.75166">
        <ele>1223.42</ele>
        <time>2019-04-03T12:13:05Z</time>
      </trkpt>
      <trkpt lat="60.36432" lon="7.75159">
        <ele>1223.42</ele>
        <time>2019-04-03T12:13:12Z</time>
      </trkpt>
      <trkpt lat="60.36428" lon="7.75143">
        <ele>1223.42</ele>
        <time>2019-04-03T12:13:16Z</time>
      </trkpt>
      <trkpt lat="60.36428" lon="7.75135">
        <ele>1223.9</ele>
        <time>2019-04-03T12:13:28Z</time>
      </trkpt>
      <trkpt lat="60.36427" lon="7.75132">
        <ele>1223.9</ele>
        <time>2019-04-03T12:13:49Z</time>
      </trkpt>
      <trkpt lat="60.36427" lon="7.7513">
        <ele>1223.9</ele>
        <time>2019-04-03T12:13:57Z</time>
      </trkpt>
      <trkpt lat="60.36414" lon="7.7512">
        <ele>1223.9</ele>
        <time>2019-04-03T12:14:03Z</time>
      </trkpt>
      <trkpt lat="60.36412" lon="7.75117">
        <ele>1223.9</ele>
        <time>2019-04-03T12:14:04Z</time>
      </trkpt>
      <trkpt lat="60.36407" lon="7.75111">
        <ele>1223.9</ele>
        <time>2019-04-03T12:14:06Z</time>
      </trkpt>
      <trkpt lat="60.36394" lon="7.75104">
        <ele>1224.38</ele>
        <time>2019-04-03T12:14:15Z</time>
      </trkpt>
      <trkpt lat="60.36392" lon="7.751">
        <ele>1224.38</ele>
        <time>2019-04-03T12:14:27Z</time>
      </trkpt>
      <trkpt lat="60.36392" lon="7.75099">
        <ele>1223.9</ele>
        <time>2019-04-03T12:14:48Z</time>
      </trkpt>
      <trkpt lat="60.3639" lon="7.75096">
        <ele>1224.38</ele>
        <time>2019-04-03T12:14:56Z</time>
      </trkpt>
      <trkpt lat="60.36386" lon="7.75087">
        <ele>1224.38</ele>
        <time>2019-04-03T12:15:01Z</time>
      </trkpt>
      <trkpt lat="60.3638" lon="7.75073">
        <ele>1225.82</ele>
        <time>2019-04-03T12:15:05Z</time>
      </trkpt>
      <trkpt lat="60.36376" lon="7.75062">
        <ele>1226.78</ele>
        <time>2019-04-03T12:15:11Z</time>
      </trkpt>
      <trkpt lat="60.36374" lon="7.75039">
        <ele>1228.22</ele>
        <time>2019-04-03T12:15:19Z</time>
      </trkpt>
      <trkpt lat="60.3637" lon="7.7502">
        <ele>1229.18</ele>
        <time>2019-04-03T12:15:25Z</time>
      </trkpt>
      <trkpt lat="60.36366" lon="7.75013">
        <ele>1230.14</ele>
        <time>2019-04-03T12:15:28Z</time>
      </trkpt>
      <trkpt lat="60.36359" lon="7.74998">
        <ele>1231.59</ele>
        <time>2019-04-03T12:15:34Z</time>
      </trkpt>
      <trkpt lat="60.36355" lon="7.74993">
        <ele>1232.07</ele>
        <time>2019-04-03T12:15:37Z</time>
      </trkpt>
      <trkpt lat="60.36351" lon="7.74977">
        <ele>1233.03</ele>
        <time>2019-04-03T12:15:41Z</time>
      </trkpt>
      <trkpt lat="60.36335" lon="7.74966">
        <ele>1233.99</ele>
        <time>2019-04-03T12:15:46Z</time>
      </trkpt>
      <trkpt lat="60.36323" lon="7.74946">
        <ele>1234.47</ele>
        <time>2019-04-03T12:15:50Z</time>
      </trkpt>
      <trkpt lat="60.36316" lon="7.74905">
        <ele>1235.43</ele>
        <time>2019-04-03T12:15:57Z</time>
      </trkpt>
      <trkpt lat="60.36318" lon="7.74884">
        <ele>1235.91</ele>
        <time>2019-04-03T12:16:01Z</time>
      </trkpt>
      <trkpt lat="60.36303" lon="7.74845">
        <ele>1236.39</ele>
        <time>2019-04-03T12:16:09Z</time>
      </trkpt>
      <trkpt lat="60.36296" lon="7.74831">
        <ele>1236.87</ele>
        <time>2019-04-03T12:16:14Z</time>
      </trkpt>
      <trkpt lat="60.36286" lon="7.74799">
        <ele>1237.83</ele>
        <time>2019-04-03T12:16:21Z</time>
      </trkpt>
      <trkpt lat="60.36284" lon="7.74794">
        <ele>1237.83</ele>
        <time>2019-04-03T12:16:22Z</time>
      </trkpt>
      <trkpt lat="60.36268" lon="7.74775">
        <ele>1237.83</ele>
        <time>2019-04-03T12:16:28Z</time>
      </trkpt>
      <trkpt lat="60.36255" lon="7.74755">
        <ele>1237.83</ele>
        <time>2019-04-03T12:16:33Z</time>
      </trkpt>
      <trkpt lat="60.36242" lon="7.7473">
        <ele>1239.28</ele>
        <time>2019-04-03T12:16:39Z</time>
      </trkpt>
      <trkpt lat="60.36224" lon="7.74717">
        <ele>1240.24</ele>
        <time>2019-04-03T12:16:44Z</time>
      </trkpt>
      <trkpt lat="60.3621" lon="7.74699">
        <ele>1242.16</ele>
        <time>2019-04-03T12:16:49Z</time>
      </trkpt>
      <trkpt lat="60.3619" lon="7.74686">
        <ele>1244.08</ele>
        <time>2019-04-03T12:16:54Z</time>
      </trkpt>
      <trkpt lat="60.36179" lon="7.74664">
        <ele>1245.04</ele>
        <time>2019-04-03T12:16:58Z</time>
      </trkpt>
      <trkpt lat="60.36149" lon="7.7465">
        <ele>1247.93</ele>
        <time>2019-04-03T12:17:05Z</time>
      </trkpt>
      <trkpt lat="60.36146" lon="7.74642">
        <ele>1248.89</ele>
        <time>2019-04-03T12:17:07Z</time>
      </trkpt>
      <trkpt lat="60.36143" lon="7.74605">
        <ele>1251.77</ele>
        <time>2019-04-03T12:17:14Z</time>
      </trkpt>
      <trkpt lat="60.36139" lon="7.74595">
        <ele>1253.22</ele>
        <time>2019-04-03T12:17:16Z</time>
      </trkpt>
      <trkpt lat="60.36125" lon="7.74553">
        <ele>1254.66</ele>
        <time>2019-04-03T12:17:25Z</time>
      </trkpt>
      <trkpt lat="60.36114" lon="7.74534">
        <ele>1256.1</ele>
        <time>2019-04-03T12:17:30Z</time>
      </trkpt>
      <trkpt lat="60.36098" lon="7.74497">
        <ele>1257.06</ele>
        <time>2019-04-03T12:17:38Z</time>
      </trkpt>
      <trkpt lat="60.36091" lon="7.74486">
        <ele>1257.54</ele>
        <time>2019-04-03T12:17:41Z</time>
      </trkpt>
      <trkpt lat="60.36084" lon="7.74465">
        <ele>1256.1</ele>
        <time>2019-04-03T12:17:44Z</time>
      </trkpt>
      <trkpt lat="60.36067" lon="7.74442">
        <ele>1252.25</ele>
        <time>2019-04-03T12:17:48Z</time>
      </trkpt>
      <trkpt lat="60.36062" lon="7.74439">
        <ele>1251.29</ele>
        <time>2019-04-03T12:17:49Z</time>
      </trkpt>
      <trkpt lat="60.36044" lon="7.74428">
        <ele>1250.33</ele>
        <time>2019-04-03T12:17:53Z</time>
      </trkpt>
      <trkpt lat="60.36035" lon="7.7442">
        <ele>1248.89</ele>
        <time>2019-04-03T12:17:55Z</time>
      </trkpt>
      <trkpt lat="60.36027" lon="7.74412">
        <ele>1248.41</ele>
        <time>2019-04-03T12:17:57Z</time>
      </trkpt>
      <trkpt lat="60.36017" lon="7.74405">
        <ele>1246.97</ele>
        <time>2019-04-03T12:17:59Z</time>
      </trkpt>
      <trkpt lat="60.36" lon="7.74396">
        <ele>1245.53</ele>
        <time>2019-04-03T12:18:02Z</time>
      </trkpt>
      <trkpt lat="60.35982" lon="7.74393">
        <ele>1243.6</ele>
        <time>2019-04-03T12:18:05Z</time>
      </trkpt>
      <trkpt lat="60.35969" lon="7.74389">
        <ele>1243.12</ele>
        <time>2019-04-03T12:18:07Z</time>
      </trkpt>
      <trkpt lat="60.35951" lon="7.74377">
        <ele>1239.76</ele>
        <time>2019-04-03T12:18:10Z</time>
      </trkpt>
      <trkpt lat="60.35944" lon="7.74374">
        <ele>1239.76</ele>
        <time>2019-04-03T12:18:11Z</time>
      </trkpt>
      <trkpt lat="60.3593" lon="7.74363">
        <ele>1237.83</ele>
        <time>2019-04-03T12:18:13Z</time>
      </trkpt>
      <trkpt lat="60.35902" lon="7.7433">
        <ele>1237.35</ele>
        <time>2019-04-03T12:18:18Z</time>
      </trkpt>
      <trkpt lat="60.35891" lon="7.74318">
        <ele>1238.8</ele>
        <time>2019-04-03T12:18:20Z</time>
      </trkpt>
      <trkpt lat="60.35866" lon="7.74296">
        <ele>1238.8</ele>
        <time>2019-04-03T12:18:25Z</time>
      </trkpt>
      <trkpt lat="60.35849" lon="7.74279">
        <ele>1240.72</ele>
        <time>2019-04-03T12:18:29Z</time>
      </trkpt>
      <trkpt lat="60.3583" lon="7.74264">
        <ele>1243.12</ele>
        <time>2019-04-03T12:18:35Z</time>
      </trkpt>
      <trkpt lat="60.35812" lon="7.74248">
        <ele>1244.08</ele>
        <time>2019-04-03T12:18:40Z</time>
      </trkpt>
      <trkpt lat="60.35783" lon="7.74228">
        <ele>1244.56</ele>
        <time>2019-04-03T12:18:46Z</time>
      </trkpt>
      <trkpt lat="60.35769" lon="7.74206">
        <ele>1245.04</ele>
        <time>2019-04-03T12:18:50Z</time>
      </trkpt>
      <trkpt lat="60.35752" lon="7.74195">
        <ele>1245.04</ele>
        <time>2019-04-03T12:18:53Z</time>
      </trkpt>
      <trkpt lat="60.35721" lon="7.74144">
        <ele>1243.6</ele>
        <time>2019-04-03T12:18:59Z</time>
      </trkpt>
      <trkpt lat="60.35699" lon="7.74123">
        <ele>1242.64</ele>
        <time>2019-04-03T12:19:03Z</time>
      </trkpt>
      <trkpt lat="60.35686" lon="7.74117">
        <ele>1244.08</ele>
        <time>2019-04-03T12:19:06Z</time>
      </trkpt>
      <trkpt lat="60.35666" lon="7.74087">
        <ele>1245.53</ele>
        <time>2019-04-03T12:19:12Z</time>
      </trkpt>
      <trkpt lat="60.35646" lon="7.74079">
        <ele>1248.41</ele>
        <time>2019-04-03T12:19:17Z</time>
      </trkpt>
      <trkpt lat="60.35622" lon="7.74053">
        <ele>1251.77</ele>
        <time>2019-04-03T12:19:24Z</time>
      </trkpt>
      <trkpt lat="60.3561" lon="7.74034">
        <ele>1252.74</ele>
        <time>2019-04-03T12:19:28Z</time>
      </trkpt>
      <trkpt lat="60.35585" lon="7.74002">
        <ele>1254.66</ele>
        <time>2019-04-03T12:19:35Z</time>
      </trkpt>
      <trkpt lat="60.35572" lon="7.73988">
        <ele>1256.1</ele>
        <time>2019-04-03T12:19:38Z</time>
      </trkpt>
      <trkpt lat="60.35546" lon="7.73967">
        <ele>1258.5</ele>
        <time>2019-04-03T12:19:44Z</time>
      </trkpt>
      <trkpt lat="60.3553" lon="7.73951">
        <ele>1259.94</ele>
        <time>2019-04-03T12:19:48Z</time>
      </trkpt>
      <trkpt lat="60.35527" lon="7.73945">
        <ele>1259.94</ele>
        <time>2019-04-03T12:19:49Z</time>
      </trkpt>
      <trkpt lat="60.35511" lon="7.73917">
        <ele>1261.39</ele>
        <time>2019-04-03T12:19:54Z</time>
      </trkpt>
      <trkpt lat="60.355" lon="7.73894">
        <ele>1261.87</ele>
        <time>2019-04-03T12:20:02Z</time>
      </trkpt>
      <trkpt lat="60.35489" lon="7.73854">
        <ele>1262.35</ele>
        <time>2019-04-03T12:20:09Z</time>
      </trkpt>
      <trkpt lat="60.35483" lon="7.73839">
        <ele>1262.35</ele>
        <time>2019-04-03T12:20:12Z</time>
      </trkpt>
      <trkpt lat="60.35471" lon="7.73813">
        <ele>1262.35</ele>
        <time>2019-04-03T12:20:19Z</time>
      </trkpt>
      <trkpt lat="60.35471" lon="7.73811">
        <ele>1262.35</ele>
        <time>2019-04-03T12:20:21Z</time>
      </trkpt>
      <trkpt lat="60.35457" lon="7.73795">
        <ele>1262.83</ele>
        <time>2019-04-03T12:20:28Z</time>
      </trkpt>
      <trkpt lat="60.35442" lon="7.73767">
        <ele>1263.79</ele>
        <time>2019-04-03T12:20:34Z</time>
      </trkpt>
      <trkpt lat="60.35437" lon="7.73751">
        <ele>1264.27</ele>
        <time>2019-04-03T12:20:44Z</time>
      </trkpt>
      <trkpt lat="60.35424" lon="7.73746">
        <ele>1264.27</ele>
        <time>2019-04-03T12:20:50Z</time>
      </trkpt>
      <trkpt lat="60.35422" lon="7.73739">
        <ele>1264.27</ele>
        <time>2019-04-03T12:20:52Z</time>
      </trkpt>
      <trkpt lat="60.35421" lon="7.73719">
        <ele>1263.79</ele>
        <time>2019-04-03T12:20:56Z</time>
      </trkpt>
      <trkpt lat="60.35416" lon="7.73712">
        <ele>1263.79</ele>
        <time>2019-04-03T12:20:58Z</time>
      </trkpt>
      <trkpt lat="60.35398" lon="7.73706">
        <ele>1261.39</ele>
        <time>2019-04-03T12:21:02Z</time>
      </trkpt>
      <trkpt lat="60.35384" lon="7.73674">
        <ele>1260.43</ele>
        <time>2019-04-03T12:21:06Z</time>
      </trkpt>
      <trkpt lat="60.35382" lon="7.73647">
        <ele>1260.43</ele>
        <time>2019-04-03T12:21:10Z</time>
      </trkpt>
      <trkpt lat="60.35386" lon="7.73634">
        <ele>1260.43</ele>
        <time>2019-04-03T12:21:12Z</time>
      </trkpt>
      <trkpt lat="60.35392" lon="7.73616">
        <ele>1261.87</ele>
        <time>2019-04-03T12:21:15Z</time>
      </trkpt>
      <trkpt lat="60.35396" lon="7.73597">
        <ele>1262.35</ele>
        <time>2019-04-03T12:21:18Z</time>
      </trkpt>
      <trkpt lat="60.354" lon="7.73575">
        <ele>1263.79</ele>
        <time>2019-04-03T12:21:22Z</time>
      </trkpt>
      <trkpt lat="60.35414" lon="7.73536">
        <ele>1265.23</ele>
        <time>2019-04-03T12:21:29Z</time>
      </trkpt>
      <trkpt lat="60.35415" lon="7.73511">
        <ele>1265.23</ele>
        <time>2019-04-03T12:21:33Z</time>
      </trkpt>
      <trkpt lat="60.35413" lon="7.73506">
        <ele>1265.23</ele>
        <time>2019-04-03T12:21:34Z</time>
      </trkpt>
      <trkpt lat="60.35399" lon="7.73471">
        <ele>1265.23</ele>
        <time>2019-04-03T12:21:40Z</time>
      </trkpt>
      <trkpt lat="60.35378" lon="7.73447">
        <ele>1263.79</ele>
        <time>2019-04-03T12:21:46Z</time>
      </trkpt>
      <trkpt lat="60.35371" lon="7.73438">
        <ele>1263.79</ele>
        <time>2019-04-03T12:21:48Z</time>
      </trkpt>
      <trkpt lat="60.35358" lon="7.73425">
        <ele>1262.83</ele>
        <time>2019-04-03T12:21:51Z</time>
      </trkpt>
      <trkpt lat="60.35338" lon="7.73416">
        <ele>1261.39</ele>
        <time>2019-04-03T12:21:55Z</time>
      </trkpt>
      <trkpt lat="60.35317" lon="7.73418">
        <ele>1258.5</ele>
        <time>2019-04-03T12:21:59Z</time>
      </trkpt>
      <trkpt lat="60.35307" lon="7.73423">
        <ele>1256.1</ele>
        <time>2019-04-03T12:22:01Z</time>
      </trkpt>
      <trkpt lat="60.35296" lon="7.73428">
        <ele>1255.14</ele>
        <time>2019-04-03T12:22:03Z</time>
      </trkpt>
      <trkpt lat="60.35277" lon="7.73414">
        <ele>1254.66</ele>
        <time>2019-04-03T12:22:07Z</time>
      </trkpt>
      <trkpt lat="60.35261" lon="7.73389">
        <ele>1254.18</ele>
        <time>2019-04-03T12:22:11Z</time>
      </trkpt>
      <trkpt lat="60.35248" lon="7.7339">
        <ele>1248.89</ele>
        <time>2019-04-03T12:22:14Z</time>
      </trkpt>
      <trkpt lat="60.35245" lon="7.73391">
        <ele>1243.12</ele>
        <time>2019-04-03T12:22:17Z</time>
      </trkpt>
      <trkpt lat="60.35245" lon="7.73388">
        <ele>1245.04</ele>
        <time>2019-04-03T12:22:33Z</time>
      </trkpt>
      <trkpt lat="60.35245" lon="7.73388">
        <ele>1243.6</ele>
        <time>2019-04-03T12:22:34Z</time>
      </trkpt>
      <trkpt lat="60.35243" lon="7.7339">
        <ele>1251.29</ele>
        <time>2019-04-03T12:22:36Z</time>
      </trkpt>
      <trkpt lat="60.35241" lon="7.73393">
        <ele>1245.04</ele>
        <time>2019-04-03T12:22:37Z</time>
      </trkpt>
      <trkpt lat="60.35236" lon="7.73406">
        <ele>1241.2</ele>
        <time>2019-04-03T12:22:40Z</time>
      </trkpt>
      <trkpt lat="60.35231" lon="7.73421">
        <ele>1240.24</ele>
        <time>2019-04-03T12:22:42Z</time>
      </trkpt>
      <trkpt lat="60.35219" lon="7.73433">
        <ele>1240.24</ele>
        <time>2019-04-03T12:22:46Z</time>
      </trkpt>
      <trkpt lat="60.35201" lon="7.73426">
        <ele>1241.68</ele>
        <time>2019-04-03T12:22:54Z</time>
      </trkpt>
      <trkpt lat="60.35185" lon="7.73392">
        <ele>1241.68</ele>
        <time>2019-04-03T12:23:02Z</time>
      </trkpt>
      <trkpt lat="60.35176" lon="7.73378">
        <ele>1243.12</ele>
        <time>2019-04-03T12:23:07Z</time>
      </trkpt>
      <trkpt lat="60.35168" lon="7.73367">
        <ele>1243.12</ele>
        <time>2019-04-03T12:23:11Z</time>
      </trkpt>
      <trkpt lat="60.3515" lon="7.73348">
        <ele>1244.56</ele>
        <time>2019-04-03T12:23:16Z</time>
      </trkpt>
      <trkpt lat="60.35116" lon="7.73337">
        <ele>1244.08</ele>
        <time>2019-04-03T12:23:26Z</time>
      </trkpt>
      <trkpt lat="60.35102" lon="7.73335">
        <ele>1241.68</ele>
        <time>2019-04-03T12:23:29Z</time>
      </trkpt>
      <trkpt lat="60.35079" lon="7.73333">
        <ele>1240.24</ele>
        <time>2019-04-03T12:23:34Z</time>
      </trkpt>
      <trkpt lat="60.35056" lon="7.73328">
        <ele>1235.43</ele>
        <time>2019-04-03T12:23:38Z</time>
      </trkpt>
      <trkpt lat="60.35049" lon="7.73329">
        <ele>1235.43</ele>
        <time>2019-04-03T12:23:39Z</time>
      </trkpt>
      <trkpt lat="60.35021" lon="7.73327">
        <ele>1232.07</ele>
        <time>2019-04-03T12:23:43Z</time>
      </trkpt>
      <trkpt lat="60.35013" lon="7.73325">
        <ele>1232.07</ele>
        <time>2019-04-03T12:23:44Z</time>
      </trkpt>
      <trkpt lat="60.3499" lon="7.73316">
        <ele>1227.74</ele>
        <time>2019-04-03T12:23:47Z</time>
      </trkpt>
      <trkpt lat="60.34974" lon="7.7331">
        <ele>1226.3</ele>
        <time>2019-04-03T12:23:49Z</time>
      </trkpt>
      <trkpt lat="60.34957" lon="7.73309">
        <ele>1224.86</ele>
        <time>2019-04-03T12:23:51Z</time>
      </trkpt>
      <trkpt lat="60.34936" lon="7.73309">
        <ele>1224.38</ele>
        <time>2019-04-03T12:23:54Z</time>
      </trkpt>
      <trkpt lat="60.34911" lon="7.7331">
        <ele>1225.82</ele>
        <time>2019-04-03T12:23:58Z</time>
      </trkpt>
      <trkpt lat="60.34886" lon="7.7331">
        <ele>1226.3</ele>
        <time>2019-04-03T12:24:05Z</time>
      </trkpt>
      <trkpt lat="60.34878" lon="7.73303">
        <ele>1226.3</ele>
        <time>2019-04-03T12:24:07Z</time>
      </trkpt>
      <trkpt lat="60.34853" lon="7.73293">
        <ele>1225.34</ele>
        <time>2019-04-03T12:24:12Z</time>
      </trkpt>
      <trkpt lat="60.34826" lon="7.73294">
        <ele>1225.34</ele>
        <time>2019-04-03T12:24:17Z</time>
      </trkpt>
      <trkpt lat="60.34815" lon="7.73292">
        <ele>1225.34</ele>
        <time>2019-04-03T12:24:19Z</time>
      </trkpt>
      <trkpt lat="60.3479" lon="7.73286">
        <ele>1225.82</ele>
        <time>2019-04-03T12:24:24Z</time>
      </trkpt>
      <trkpt lat="60.34763" lon="7.7328">
        <ele>1225.82</ele>
        <time>2019-04-03T12:24:29Z</time>
      </trkpt>
      <trkpt lat="60.34727" lon="7.73288">
        <ele>1224.38</ele>
        <time>2019-04-03T12:24:35Z</time>
      </trkpt>
      <trkpt lat="60.3472" lon="7.7329">
        <ele>1223.9</ele>
        <time>2019-04-03T12:24:36Z</time>
      </trkpt>
      <trkpt lat="60.34704" lon="7.73302">
        <ele>1225.82</ele>
        <time>2019-04-03T12:24:40Z</time>
      </trkpt>
      <trkpt lat="60.34689" lon="7.73292">
        <ele>1227.26</ele>
        <time>2019-04-03T12:24:47Z</time>
      </trkpt>
      <trkpt lat="60.34664" lon="7.7327">
        <ele>1227.26</ele>
        <time>2019-04-03T12:24:54Z</time>
      </trkpt>
      <trkpt lat="60.34655" lon="7.73256">
        <ele>1226.78</ele>
        <time>2019-04-03T12:24:58Z</time>
      </trkpt>
      <trkpt lat="60.34641" lon="7.73247">
        <ele>1225.34</ele>
        <time>2019-04-03T12:25:03Z</time>
      </trkpt>
      <trkpt lat="60.34644" lon="7.73209">
        <ele>1225.34</ele>
        <time>2019-04-03T12:25:11Z</time>
      </trkpt>
      <trkpt lat="60.34647" lon="7.732">
        <ele>1225.34</ele>
        <time>2019-04-03T12:25:14Z</time>
      </trkpt>
      <trkpt lat="60.34657" lon="7.7318">
        <ele>1226.78</ele>
        <time>2019-04-03T12:25:18Z</time>
      </trkpt>
      <trkpt lat="60.34663" lon="7.73133">
        <ele>1226.78</ele>
        <time>2019-04-03T12:25:25Z</time>
      </trkpt>
      <trkpt lat="60.34659" lon="7.73114">
        <ele>1226.78</ele>
        <time>2019-04-03T12:25:28Z</time>
      </trkpt>
      <trkpt lat="60.34648" lon="7.73072">
        <ele>1227.26</ele>
        <time>2019-04-03T12:25:36Z</time>
      </trkpt>
      <trkpt lat="60.34658" lon="7.73035">
        <ele>1227.74</ele>
        <time>2019-04-03T12:25:42Z</time>
      </trkpt>
      <trkpt lat="60.34659" lon="7.73012">
        <ele>1225.82</ele>
        <time>2019-04-03T12:25:45Z</time>
      </trkpt>
      <trkpt lat="60.34648" lon="7.72988">
        <ele>1227.26</ele>
        <time>2019-04-03T12:25:50Z</time>
      </trkpt>
      <trkpt lat="60.34647" lon="7.72982">
        <ele>1227.26</ele>
        <time>2019-04-03T12:25:51Z</time>
      </trkpt>
      <trkpt lat="60.34643" lon="7.72956">
        <ele>1229.18</ele>
        <time>2019-04-03T12:25:56Z</time>
      </trkpt>
      <trkpt lat="60.34641" lon="7.72917">
        <ele>1231.59</ele>
        <time>2019-04-03T12:26:04Z</time>
      </trkpt>
      <trkpt lat="60.34639" lon="7.72907">
        <ele>1233.03</ele>
        <time>2019-04-03T12:26:06Z</time>
      </trkpt>
      <trkpt lat="60.34639" lon="7.72864">
        <ele>1234.95</ele>
        <time>2019-04-03T12:26:13Z</time>
      </trkpt>
      <trkpt lat="60.34638" lon="7.72858">
        <ele>1234.95</ele>
        <time>2019-04-03T12:26:14Z</time>
      </trkpt>
      <trkpt lat="60.34645" lon="7.72821">
        <ele>1234.47</ele>
        <time>2019-04-03T12:26:22Z</time>
      </trkpt>
      <trkpt lat="60.34645" lon="7.72817">
        <ele>1234.47</ele>
        <time>2019-04-03T12:26:24Z</time>
      </trkpt>
      <trkpt lat="60.34645" lon="7.72809">
        <ele>1232.55</ele>
        <time>2019-04-03T12:26:27Z</time>
      </trkpt>
      <trkpt lat="60.34639" lon="7.72775">
        <ele>1232.55</ele>
        <time>2019-04-03T12:26:33Z</time>
      </trkpt>
      <trkpt lat="60.34636" lon="7.72761">
        <ele>1232.07</ele>
        <time>2019-04-03T12:26:35Z</time>
      </trkpt>
      <trkpt lat="60.34628" lon="7.72743">
        <ele>1230.62</ele>
        <time>2019-04-03T12:26:38Z</time>
      </trkpt>
      <trkpt lat="60.34622" lon="7.7273">
        <ele>1230.62</ele>
        <time>2019-04-03T12:26:40Z</time>
      </trkpt>
      <trkpt lat="60.3461" lon="7.72708">
        <ele>1228.7</ele>
        <time>2019-04-03T12:26:43Z</time>
      </trkpt>
      <trkpt lat="60.34596" lon="7.72689">
        <ele>1225.82</ele>
        <time>2019-04-03T12:26:46Z</time>
      </trkpt>
      <trkpt lat="60.34591" lon="7.72684">
        <ele>1224.86</ele>
        <time>2019-04-03T12:26:47Z</time>
      </trkpt>
      <trkpt lat="60.34581" lon="7.72673">
        <ele>1224.86</ele>
        <time>2019-04-03T12:26:49Z</time>
      </trkpt>
      <trkpt lat="60.34571" lon="7.72662">
        <ele>1222.93</ele>
        <time>2019-04-03T12:26:51Z</time>
      </trkpt>
      <trkpt lat="60.34565" lon="7.72658">
        <ele>1222.93</ele>
        <time>2019-04-03T12:26:52Z</time>
      </trkpt>
      <trkpt lat="60.34552" lon="7.72653">
        <ele>1221.97</ele>
        <time>2019-04-03T12:26:55Z</time>
      </trkpt>
      <trkpt lat="60.34536" lon="7.72651">
        <ele>1219.57</ele>
        <time>2019-04-03T12:27:00Z</time>
      </trkpt>
      <trkpt lat="60.3452" lon="7.72645">
        <ele>1217.17</ele>
        <time>2019-04-03T12:27:04Z</time>
      </trkpt>
      <trkpt lat="60.34516" lon="7.72644">
        <ele>1215.72</ele>
        <time>2019-04-03T12:27:05Z</time>
      </trkpt>
      <trkpt lat="60.34502" lon="7.72645">
        <ele>1213.8</ele>
        <time>2019-04-03T12:27:08Z</time>
      </trkpt>
      <trkpt lat="60.34491" lon="7.72634">
        <ele>1212.36</ele>
        <time>2019-04-03T12:27:12Z</time>
      </trkpt>
      <trkpt lat="60.34472" lon="7.72618">
        <ele>1208.51</ele>
        <time>2019-04-03T12:27:16Z</time>
      </trkpt>
      <trkpt lat="60.3446" lon="7.72625">
        <ele>1204.67</ele>
        <time>2019-04-03T12:27:19Z</time>
      </trkpt>
      <trkpt lat="60.34454" lon="7.72635">
        <ele>1203.71</ele>
        <time>2019-04-03T12:27:21Z</time>
      </trkpt>
      <trkpt lat="60.34449" lon="7.72645">
        <ele>1202.75</ele>
        <time>2019-04-03T12:27:23Z</time>
      </trkpt>
      <trkpt lat="60.34443" lon="7.72653">
        <ele>1201.3</ele>
        <time>2019-04-03T12:27:25Z</time>
      </trkpt>
      <trkpt lat="60.34436" lon="7.72646">
        <ele>1200.82</ele>
        <time>2019-04-03T12:27:30Z</time>
      </trkpt>
      <trkpt lat="60.34423" lon="7.72641">
        <ele>1198.9</ele>
        <time>2019-04-03T12:27:34Z</time>
      </trkpt>
      <trkpt lat="60.34414" lon="7.72624">
        <ele>1196.5</ele>
        <time>2019-04-03T12:27:38Z</time>
      </trkpt>
      <trkpt lat="60.34415" lon="7.72608">
        <ele>1196.5</ele>
        <time>2019-04-03T12:27:41Z</time>
      </trkpt>
      <trkpt lat="60.34408" lon="7.72581">
        <ele>1194.58</ele>
        <time>2019-04-03T12:27:46Z</time>
      </trkpt>
      <trkpt lat="60.34393" lon="7.72561">
        <ele>1190.25</ele>
        <time>2019-04-03T12:27:49Z</time>
      </trkpt>
      <trkpt lat="60.34381" lon="7.7255">
        <ele>1188.81</ele>
        <time>2019-04-03T12:27:52Z</time>
      </trkpt>
      <trkpt lat="60.34378" lon="7.72545">
        <ele>1188.81</ele>
        <time>2019-04-03T12:27:53Z</time>
      </trkpt>
      <trkpt lat="60.34359" lon="7.72527">
        <ele>1186.4</ele>
        <time>2019-04-03T12:27:57Z</time>
      </trkpt>
      <trkpt lat="60.34343" lon="7.72513">
        <ele>1184</ele>
        <time>2019-04-03T12:28:00Z</time>
      </trkpt>
      <trkpt lat="60.34331" lon="7.72501">
        <ele>1180.64</ele>
        <time>2019-04-03T12:28:02Z</time>
      </trkpt>
      <trkpt lat="60.34325" lon="7.72496">
        <ele>1177.75</ele>
        <time>2019-04-03T12:28:03Z</time>
      </trkpt>
      <trkpt lat="60.34307" lon="7.72478">
        <ele>1173.91</ele>
        <time>2019-04-03T12:28:06Z</time>
      </trkpt>
      <trkpt lat="60.34294" lon="7.72463">
        <ele>1171.5</ele>
        <time>2019-04-03T12:28:08Z</time>
      </trkpt>
      <trkpt lat="60.34267" lon="7.72444">
        <ele>1167.18</ele>
        <time>2019-04-03T12:28:12Z</time>
      </trkpt>
      <trkpt lat="60.34251" lon="7.72437">
        <ele>1163.33</ele>
        <time>2019-04-03T12:28:14Z</time>
      </trkpt>
      <trkpt lat="60.34234" lon="7.72429">
        <ele>1160.93</ele>
        <time>2019-04-03T12:28:16Z</time>
      </trkpt>
      <trkpt lat="60.34207" lon="7.72414">
        <ele>1157.56</ele>
        <time>2019-04-03T12:28:19Z</time>
      </trkpt>
      <trkpt lat="60.34187" lon="7.72404">
        <ele>1156.6</ele>
        <time>2019-04-03T12:28:21Z</time>
      </trkpt>
      <trkpt lat="60.34142" lon="7.72374">
        <ele>1152.76</ele>
        <time>2019-04-03T12:28:26Z</time>
      </trkpt>
      <trkpt lat="60.34054" lon="7.72319">
        <ele>1151.32</ele>
        <time>2019-04-03T12:28:37Z</time>
      </trkpt>
      <trkpt lat="60.33995" lon="7.72274">
        <ele>1150.35</ele>
        <time>2019-04-03T12:28:46Z</time>
      </trkpt>
      <trkpt lat="60.3399" lon="7.72271">
        <ele>1150.35</ele>
        <time>2019-04-03T12:28:47Z</time>
      </trkpt>
      <trkpt lat="60.33964" lon="7.72226">
        <ele>1152.76</ele>
        <time>2019-04-03T12:28:54Z</time>
      </trkpt>
      <trkpt lat="60.33955" lon="7.72215">
        <ele>1152.76</ele>
        <time>2019-04-03T12:28:56Z</time>
      </trkpt>
      <trkpt lat="60.33945" lon="7.72205">
        <ele>1150.35</ele>
        <time>2019-04-03T12:28:58Z</time>
      </trkpt>
      <trkpt lat="60.33909" lon="7.72182">
        <ele>1152.28</ele>
        <time>2019-04-03T12:29:04Z</time>
      </trkpt>
      <trkpt lat="60.33899" lon="7.72174">
        <ele>1152.28</ele>
        <time>2019-04-03T12:29:06Z</time>
      </trkpt>
      <trkpt lat="60.33879" lon="7.72162">
        <ele>1152.28</ele>
        <time>2019-04-03T12:29:10Z</time>
      </trkpt>
      <trkpt lat="60.33865" lon="7.72147">
        <ele>1152.28</ele>
        <time>2019-04-03T12:29:13Z</time>
      </trkpt>
      <trkpt lat="60.33855" lon="7.72138">
        <ele>1150.84</ele>
        <time>2019-04-03T12:29:15Z</time>
      </trkpt>
      <trkpt lat="60.33844" lon="7.72131">
        <ele>1152.28</ele>
        <time>2019-04-03T12:29:17Z</time>
      </trkpt>
      <trkpt lat="60.33828" lon="7.72099">
        <ele>1152.28</ele>
        <time>2019-04-03T12:29:21Z</time>
      </trkpt>
      <trkpt lat="60.33813" lon="7.72081">
        <ele>1151.8</ele>
        <time>2019-04-03T12:29:24Z</time>
      </trkpt>
      <trkpt lat="60.33801" lon="7.72074">
        <ele>1151.8</ele>
        <time>2019-04-03T12:29:26Z</time>
      </trkpt>
      <trkpt lat="60.33777" lon="7.72047">
        <ele>1151.8</ele>
        <time>2019-04-03T12:29:32Z</time>
      </trkpt>
      <trkpt lat="60.33752" lon="7.7201">
        <ele>1152.28</ele>
        <time>2019-04-03T12:29:40Z</time>
      </trkpt>
      <trkpt lat="60.33749" lon="7.72005">
        <ele>1152.28</ele>
        <time>2019-04-03T12:29:41Z</time>
      </trkpt>
      <trkpt lat="60.33744" lon="7.71979">
        <ele>1152.28</ele>
        <time>2019-04-03T12:29:46Z</time>
      </trkpt>
      <trkpt lat="60.33742" lon="7.71964">
        <ele>1152.28</ele>
        <time>2019-04-03T12:29:49Z</time>
      </trkpt>
      <trkpt lat="60.33739" lon="7.71952">
        <ele>1152.28</ele>
        <time>2019-04-03T12:29:52Z</time>
      </trkpt>
      <trkpt lat="60.33737" lon="7.7194">
        <ele>1152.76</ele>
        <time>2019-04-03T12:29:56Z</time>
      </trkpt>
      <trkpt lat="60.33728" lon="7.71917">
        <ele>1154.68</ele>
        <time>2019-04-03T12:30:03Z</time>
      </trkpt>
      <trkpt lat="60.33726" lon="7.71915">
        <ele>1155.16</ele>
        <time>2019-04-03T12:30:04Z</time>
      </trkpt>
      <trkpt lat="60.33717" lon="7.71906">
        <ele>1156.6</ele>
        <time>2019-04-03T12:30:11Z</time>
      </trkpt>
      <trkpt lat="60.33714" lon="7.71901">
        <ele>1157.08</ele>
        <time>2019-04-03T12:30:21Z</time>
      </trkpt>
      <trkpt lat="60.33714" lon="7.71898">
        <ele>1157.08</ele>
        <time>2019-04-03T12:30:31Z</time>
      </trkpt>
      <trkpt lat="60.33713" lon="7.71897">
        <ele>1157.08</ele>
        <time>2019-04-03T12:30:35Z</time>
      </trkpt>
      <trkpt lat="60.33705" lon="7.71885">
        <ele>1157.08</ele>
        <time>2019-04-03T12:30:40Z</time>
      </trkpt>
      <trkpt lat="60.33702" lon="7.71877">
        <ele>1157.08</ele>
        <time>2019-04-03T12:30:43Z</time>
      </trkpt>
      <trkpt lat="60.337" lon="7.71861">
        <ele>1157.08</ele>
        <time>2019-04-03T12:30:51Z</time>
      </trkpt>
      <trkpt lat="60.337" lon="7.71863">
        <ele>1157.08</ele>
        <time>2019-04-03T12:31:08Z</time>
      </trkpt>
      <trkpt lat="60.337" lon="7.71861">
        <ele>1157.08</ele>
        <time>2019-04-03T12:31:25Z</time>
      </trkpt>
      <trkpt lat="60.33698" lon="7.71857">
        <ele>1157.08</ele>
        <time>2019-04-03T12:31:37Z</time>
      </trkpt>
      <trkpt lat="60.33697" lon="7.71854">
        <ele>1157.08</ele>
        <time>2019-04-03T12:31:47Z</time>
      </trkpt>
      <trkpt lat="60.33698" lon="7.71848">
        <ele>1157.08</ele>
        <time>2019-04-03T12:31:57Z</time>
      </trkpt>
      <trkpt lat="60.33697" lon="7.71847">
        <ele>1157.08</ele>
        <time>2019-04-03T12:32:04Z</time>
      </trkpt>
      <trkpt lat="60.33689" lon="7.71847">
        <ele>1155.64</ele>
        <time>2019-04-03T12:32:07Z</time>
      </trkpt>
      <trkpt lat="60.33668" lon="7.7186">
        <ele>1151.32</ele>
        <time>2019-04-03T12:32:11Z</time>
      </trkpt>
      <trkpt lat="60.33658" lon="7.71865">
        <ele>1151.32</ele>
        <time>2019-04-03T12:32:13Z</time>
      </trkpt>
      <trkpt lat="60.33631" lon="7.71866">
        <ele>1150.84</ele>
        <time>2019-04-03T12:32:21Z</time>
      </trkpt>
      <trkpt lat="60.33619" lon="7.71858">
        <ele>1151.32</ele>
        <time>2019-04-03T12:32:25Z</time>
      </trkpt>
      <trkpt lat="60.3361" lon="7.71851">
        <ele>1151.32</ele>
        <time>2019-04-03T12:32:27Z</time>
      </trkpt>
      <trkpt lat="60.33589" lon="7.71849">
        <ele>1148.91</ele>
        <time>2019-04-03T12:32:31Z</time>
      </trkpt>
      <trkpt lat="60.33583" lon="7.71849">
        <ele>1150.35</ele>
        <time>2019-04-03T12:32:32Z</time>
      </trkpt>
      <trkpt lat="60.33574" lon="7.71843">
        <ele>1151.8</ele>
        <time>2019-04-03T12:32:34Z</time>
      </trkpt>
      <trkpt lat="60.33559" lon="7.71819">
        <ele>1151.8</ele>
        <time>2019-04-03T12:32:38Z</time>
      </trkpt>
      <trkpt lat="60.33528" lon="7.718">
        <ele>1152.76</ele>
        <time>2019-04-03T12:32:47Z</time>
      </trkpt>
      <trkpt lat="60.33522" lon="7.71801">
        <ele>1152.76</ele>
        <time>2019-04-03T12:32:52Z</time>
      </trkpt>
      <trkpt lat="60.33502" lon="7.71795">
        <ele>1152.76</ele>
        <time>2019-04-03T12:33:00Z</time>
      </trkpt>
      <trkpt lat="60.3348" lon="7.71769">
        <ele>1152.76</ele>
        <time>2019-04-03T12:33:08Z</time>
      </trkpt>
      <trkpt lat="60.33477" lon="7.71764">
        <ele>1152.76</ele>
        <time>2019-04-03T12:33:09Z</time>
      </trkpt>
      <trkpt lat="60.33457" lon="7.71743">
        <ele>1151.8</ele>
        <time>2019-04-03T12:33:15Z</time>
      </trkpt>
      <trkpt lat="60.33432" lon="7.71727">
        <ele>1152.76</ele>
        <time>2019-04-03T12:33:23Z</time>
      </trkpt>
      <trkpt lat="60.33427" lon="7.71712">
        <ele>1153.24</ele>
        <time>2019-04-03T12:33:28Z</time>
      </trkpt>
      <trkpt lat="60.33421" lon="7.71694">
        <ele>1154.2</ele>
        <time>2019-04-03T12:33:36Z</time>
      </trkpt>
      <trkpt lat="60.33412" lon="7.71685">
        <ele>1155.16</ele>
        <time>2019-04-03T12:33:42Z</time>
      </trkpt>
      <trkpt lat="60.33407" lon="7.71676">
        <ele>1155.16</ele>
        <time>2019-04-03T12:33:44Z</time>
      </trkpt>
      <trkpt lat="60.33397" lon="7.71662">
        <ele>1155.16</ele>
        <time>2019-04-03T12:33:47Z</time>
      </trkpt>
      <trkpt lat="60.33374" lon="7.7165">
        <ele>1150.84</ele>
        <time>2019-04-03T12:33:51Z</time>
      </trkpt>
      <trkpt lat="60.33356" lon="7.71654">
        <ele>1150.84</ele>
        <time>2019-04-03T12:33:55Z</time>
      </trkpt>
      <trkpt lat="60.3335" lon="7.71653">
        <ele>1152.28</ele>
        <time>2019-04-03T12:33:59Z</time>
      </trkpt>
      <trkpt lat="60.3335" lon="7.71651">
        <ele>1152.28</ele>
        <time>2019-04-03T12:34:07Z</time>
      </trkpt>
      <trkpt lat="60.3335" lon="7.71651">
        <ele>1152.28</ele>
        <time>2019-04-03T12:34:08Z</time>
      </trkpt>
      <trkpt lat="60.33342" lon="7.71643">
        <ele>1152.76</ele>
        <time>2019-04-03T12:34:15Z</time>
      </trkpt>
      <trkpt lat="60.33333" lon="7.71638">
        <ele>1152.76</ele>
        <time>2019-04-03T12:34:19Z</time>
      </trkpt>
      <trkpt lat="60.33317" lon="7.71628">
        <ele>1153.24</ele>
        <time>2019-04-03T12:34:28Z</time>
      </trkpt>
      <trkpt lat="60.33301" lon="7.71622">
        <ele>1153.72</ele>
        <time>2019-04-03T12:34:34Z</time>
      </trkpt>
      <trkpt lat="60.33293" lon="7.71616">
        <ele>1152.28</ele>
        <time>2019-04-03T12:34:36Z</time>
      </trkpt>
      <trkpt lat="60.33278" lon="7.71612">
        <ele>1152.28</ele>
        <time>2019-04-03T12:34:39Z</time>
      </trkpt>
      <trkpt lat="60.33259" lon="7.71609">
        <ele>1151.8</ele>
        <time>2019-04-03T12:34:45Z</time>
      </trkpt>
      <trkpt lat="60.33243" lon="7.71596">
        <ele>1153.72</ele>
        <time>2019-04-03T12:34:56Z</time>
      </trkpt>
      <trkpt lat="60.33232" lon="7.71576">
        <ele>1154.68</ele>
        <time>2019-04-03T12:35:05Z</time>
      </trkpt>
      <trkpt lat="60.33231" lon="7.71574">
        <ele>1154.68</ele>
        <time>2019-04-03T12:35:06Z</time>
      </trkpt>
      <trkpt lat="60.33228" lon="7.7157">
        <ele>1155.16</ele>
        <time>2019-04-03T12:35:10Z</time>
      </trkpt>
      <trkpt lat="60.33223" lon="7.71562">
        <ele>1155.64</ele>
        <time>2019-04-03T12:35:15Z</time>
      </trkpt>
      <trkpt lat="60.33217" lon="7.71549">
        <ele>1155.64</ele>
        <time>2019-04-03T12:35:21Z</time>
      </trkpt>
      <trkpt lat="60.332" lon="7.71534">
        <ele>1155.64</ele>
        <time>2019-04-03T12:35:32Z</time>
      </trkpt>
      <trkpt lat="60.33196" lon="7.71529">
        <ele>1155.64</ele>
        <time>2019-04-03T12:35:34Z</time>
      </trkpt>
      <trkpt lat="60.33191" lon="7.71527">
        <ele>1154.2</ele>
        <time>2019-04-03T12:35:36Z</time>
      </trkpt>
      <trkpt lat="60.33176" lon="7.71512">
        <ele>1154.2</ele>
        <time>2019-04-03T12:35:42Z</time>
      </trkpt>
      <trkpt lat="60.33144" lon="7.71513">
        <ele>1153.24</ele>
        <time>2019-04-03T12:35:51Z</time>
      </trkpt>
      <trkpt lat="60.33123" lon="7.71516">
        <ele>1153.24</ele>
        <time>2019-04-03T12:35:58Z</time>
      </trkpt>
      <trkpt lat="60.33114" lon="7.71513">
        <ele>1153.24</ele>
        <time>2019-04-03T12:36:01Z</time>
      </trkpt>
      <trkpt lat="60.33095" lon="7.71523">
        <ele>1153.24</ele>
        <time>2019-04-03T12:36:06Z</time>
      </trkpt>
      <trkpt lat="60.33075" lon="7.7154">
        <ele>1154.2</ele>
        <time>2019-04-03T12:36:13Z</time>
      </trkpt>
      <trkpt lat="60.33073" lon="7.71541">
        <ele>1154.2</ele>
        <time>2019-04-03T12:36:14Z</time>
      </trkpt>
      <trkpt lat="60.33065" lon="7.71547">
        <ele>1154.68</ele>
        <time>2019-04-03T12:36:20Z</time>
      </trkpt>
      <trkpt lat="60.33062" lon="7.71546">
        <ele>1155.16</ele>
        <time>2019-04-03T12:36:24Z</time>
      </trkpt>
      <trkpt lat="60.33059" lon="7.71552">
        <ele>1155.16</ele>
        <time>2019-04-03T12:36:32Z</time>
      </trkpt>
      <trkpt lat="60.33058" lon="7.71553">
        <ele>1155.16</ele>
        <time>2019-04-03T12:36:38Z</time>
      </trkpt>
      <trkpt lat="60.33054" lon="7.7155">
        <ele>1156.12</ele>
        <time>2019-04-03T12:36:46Z</time>
      </trkpt>
      <trkpt lat="60.33053" lon="7.71549">
        <ele>1156.6</ele>
        <time>2019-04-03T12:36:54Z</time>
      </trkpt>
      <trkpt lat="60.33051" lon="7.71549">
        <ele>1156.6</ele>
        <time>2019-04-03T12:37:03Z</time>
      </trkpt>
      <trkpt lat="60.33051" lon="7.7155">
        <ele>1156.6</ele>
        <time>2019-04-03T12:37:05Z</time>
      </trkpt>
      <trkpt lat="60.33049" lon="7.71551">
        <ele>1156.6</ele>
        <time>2019-04-03T12:37:14Z</time>
      </trkpt>
      <trkpt lat="60.33046" lon="7.71555">
        <ele>1156.6</ele>
        <time>2019-04-03T12:37:17Z</time>
      </trkpt>
      <trkpt lat="60.33043" lon="7.71558">
        <ele>1156.6</ele>
        <time>2019-04-03T12:37:22Z</time>
      </trkpt>
      <trkpt lat="60.33034" lon="7.71561">
        <ele>1155.64</ele>
        <time>2019-04-03T12:37:30Z</time>
      </trkpt>
      <trkpt lat="60.33034" lon="7.71561">
        <ele>1155.16</ele>
        <time>2019-04-03T12:37:34Z</time>
      </trkpt>
      <trkpt lat="60.33031" lon="7.71569">
        <ele>1155.16</ele>
        <time>2019-04-03T12:37:44Z</time>
      </trkpt>
      <trkpt lat="60.33031" lon="7.71569">
        <ele>1155.16</ele>
        <time>2019-04-03T12:37:48Z</time>
      </trkpt>
      <trkpt lat="60.33028" lon="7.71568">
        <ele>1156.6</ele>
        <time>2019-04-03T12:37:56Z</time>
      </trkpt>
      <trkpt lat="60.33025" lon="7.71567">
        <ele>1157.56</ele>
        <time>2019-04-03T12:38:05Z</time>
      </trkpt>
      <trkpt lat="60.33019" lon="7.71563">
        <ele>1158.53</ele>
        <time>2019-04-03T12:38:13Z</time>
      </trkpt>
      <trkpt lat="60.33013" lon="7.71559">
        <ele>1158.53</ele>
        <time>2019-04-03T12:38:16Z</time>
      </trkpt>
      <trkpt lat="60.32994" lon="7.71559">
        <ele>1159.01</ele>
        <time>2019-04-03T12:38:23Z</time>
      </trkpt>
      <trkpt lat="60.32984" lon="7.71559">
        <ele>1157.08</ele>
        <time>2019-04-03T12:38:26Z</time>
      </trkpt>
      <trkpt lat="60.32971" lon="7.71551">
        <ele>1155.64</ele>
        <time>2019-04-03T12:38:30Z</time>
      </trkpt>
      <trkpt lat="60.3296" lon="7.71531">
        <ele>1155.64</ele>
        <time>2019-04-03T12:38:34Z</time>
      </trkpt>
      <trkpt lat="60.32944" lon="7.71517">
        <ele>1155.64</ele>
        <time>2019-04-03T12:38:39Z</time>
      </trkpt>
      <trkpt lat="60.32936" lon="7.71495">
        <ele>1155.64</ele>
        <time>2019-04-03T12:38:48Z</time>
      </trkpt>
      <trkpt lat="60.32934" lon="7.71484">
        <ele>1155.64</ele>
        <time>2019-04-03T12:38:52Z</time>
      </trkpt>
      <trkpt lat="60.3293" lon="7.71472">
        <ele>1157.08</ele>
        <time>2019-04-03T12:39:00Z</time>
      </trkpt>
      <trkpt lat="60.32928" lon="7.71468">
        <ele>1157.08</ele>
        <time>2019-04-03T12:39:03Z</time>
      </trkpt>
      <trkpt lat="60.32919" lon="7.71447">
        <ele>1157.56</ele>
        <time>2019-04-03T12:39:14Z</time>
      </trkpt>
      <trkpt lat="60.32911" lon="7.7143">
        <ele>1158.53</ele>
        <time>2019-04-03T12:39:22Z</time>
      </trkpt>
      <trkpt lat="60.32905" lon="7.71411">
        <ele>1159.49</ele>
        <time>2019-04-03T12:39:32Z</time>
      </trkpt>
      <trkpt lat="60.32902" lon="7.71402">
        <ele>1159.97</ele>
        <time>2019-04-03T12:39:37Z</time>
      </trkpt>
      <trkpt lat="60.32901" lon="7.71394">
        <ele>1159.97</ele>
        <time>2019-04-03T12:39:42Z</time>
      </trkpt>
      <trkpt lat="60.32898" lon="7.71384">
        <ele>1160.45</ele>
        <time>2019-04-03T12:39:47Z</time>
      </trkpt>
      <trkpt lat="60.32895" lon="7.71371">
        <ele>1162.37</ele>
        <time>2019-04-03T12:39:56Z</time>
      </trkpt>
      <trkpt lat="60.32895" lon="7.71369">
        <ele>1162.37</ele>
        <time>2019-04-03T12:39:57Z</time>
      </trkpt>
      <trkpt lat="60.32893" lon="7.71357">
        <ele>1162.37</ele>
        <time>2019-04-03T12:40:06Z</time>
      </trkpt>
      <trkpt lat="60.32891" lon="7.71344">
        <ele>1162.85</ele>
        <time>2019-04-03T12:40:15Z</time>
      </trkpt>
      <trkpt lat="60.3289" lon="7.7134">
        <ele>1163.33</ele>
        <time>2019-04-03T12:40:19Z</time>
      </trkpt>
      <trkpt lat="60.32888" lon="7.71335">
        <ele>1164.29</ele>
        <time>2019-04-03T12:40:24Z</time>
      </trkpt>
      <trkpt lat="60.32885" lon="7.71326">
        <ele>1164.77</ele>
        <time>2019-04-03T12:40:33Z</time>
      </trkpt>
      <trkpt lat="60.32883" lon="7.71322">
        <ele>1164.77</ele>
        <time>2019-04-03T12:40:38Z</time>
      </trkpt>
      <trkpt lat="60.32879" lon="7.71316">
        <ele>1165.74</ele>
        <time>2019-04-03T12:40:44Z</time>
      </trkpt>
      <trkpt lat="60.32869" lon="7.71317">
        <ele>1163.81</ele>
        <time>2019-04-03T12:40:48Z</time>
      </trkpt>
      <trkpt lat="60.32856" lon="7.71315">
        <ele>1162.37</ele>
        <time>2019-04-03T12:40:51Z</time>
      </trkpt>
      <trkpt lat="60.32844" lon="7.71297">
        <ele>1162.37</ele>
        <time>2019-04-03T12:40:57Z</time>
      </trkpt>
      <trkpt lat="60.32841" lon="7.71281">
        <ele>1163.81</ele>
        <time>2019-04-03T12:41:02Z</time>
      </trkpt>
      <trkpt lat="60.32841" lon="7.71278">
        <ele>1163.81</ele>
        <time>2019-04-03T12:41:03Z</time>
      </trkpt>
      <trkpt lat="60.3284" lon="7.71258">
        <ele>1164.77</ele>
        <time>2019-04-03T12:41:13Z</time>
      </trkpt>
      <trkpt lat="60.32839" lon="7.71255">
        <ele>1165.26</ele>
        <time>2019-04-03T12:41:15Z</time>
      </trkpt>
      <trkpt lat="60.32837" lon="7.71234">
        <ele>1165.74</ele>
        <time>2019-04-03T12:41:24Z</time>
      </trkpt>
      <trkpt lat="60.32837" lon="7.71227">
        <ele>1165.74</ele>
        <time>2019-04-03T12:41:27Z</time>
      </trkpt>
      <trkpt lat="60.32834" lon="7.71219">
        <ele>1166.22</ele>
        <time>2019-04-03T12:41:31Z</time>
      </trkpt>
      <trkpt lat="60.32828" lon="7.71205">
        <ele>1166.7</ele>
        <time>2019-04-03T12:41:38Z</time>
      </trkpt>
      <trkpt lat="60.32822" lon="7.71186">
        <ele>1166.7</ele>
        <time>2019-04-03T12:41:48Z</time>
      </trkpt>
      <trkpt lat="60.32822" lon="7.71185">
        <ele>1166.7</ele>
        <time>2019-04-03T12:41:49Z</time>
      </trkpt>
      <trkpt lat="60.32821" lon="7.71166">
        <ele>1166.7</ele>
        <time>2019-04-03T12:41:56Z</time>
      </trkpt>
      <trkpt lat="60.3282" lon="7.7116">
        <ele>1166.7</ele>
        <time>2019-04-03T12:42:00Z</time>
      </trkpt>
      <trkpt lat="60.32818" lon="7.71153">
        <ele>1166.7</ele>
        <time>2019-04-03T12:42:08Z</time>
      </trkpt>
      <trkpt lat="60.32817" lon="7.7115">
        <ele>1166.7</ele>
        <time>2019-04-03T12:42:11Z</time>
      </trkpt>
      <trkpt lat="60.32816" lon="7.71144">
        <ele>1166.7</ele>
        <time>2019-04-03T12:42:14Z</time>
      </trkpt>
      <trkpt lat="60.3281" lon="7.71131">
        <ele>1166.7</ele>
        <time>2019-04-03T12:42:21Z</time>
      </trkpt>
      <trkpt lat="60.32803" lon="7.71115">
        <ele>1166.7</ele>
        <time>2019-04-03T12:42:30Z</time>
      </trkpt>
      <trkpt lat="60.32796" lon="7.71101">
        <ele>1166.7</ele>
        <time>2019-04-03T12:42:37Z</time>
      </trkpt>
      <trkpt lat="60.32793" lon="7.71092">
        <ele>1166.7</ele>
        <time>2019-04-03T12:42:40Z</time>
      </trkpt>
      <trkpt lat="60.3279" lon="7.71088">
        <ele>1166.7</ele>
        <time>2019-04-03T12:42:43Z</time>
      </trkpt>
      <trkpt lat="60.32785" lon="7.71077">
        <ele>1167.18</ele>
        <time>2019-04-03T12:42:53Z</time>
      </trkpt>
      <trkpt lat="60.32782" lon="7.7107">
        <ele>1167.18</ele>
        <time>2019-04-03T12:43:05Z</time>
      </trkpt>
      <trkpt lat="60.3278" lon="7.71067">
        <ele>1167.66</ele>
        <time>2019-04-03T12:43:12Z</time>
      </trkpt>
      <trkpt lat="60.32776" lon="7.7106">
        <ele>1168.14</ele>
        <time>2019-04-03T12:43:21Z</time>
      </trkpt>
      <trkpt lat="60.32773" lon="7.71054">
        <ele>1168.62</ele>
        <time>2019-04-03T12:43:30Z</time>
      </trkpt>
      <trkpt lat="60.32772" lon="7.71051">
        <ele>1169.58</ele>
        <time>2019-04-03T12:43:38Z</time>
      </trkpt>
      <trkpt lat="60.3277" lon="7.71046">
        <ele>1168.14</ele>
        <time>2019-04-03T12:43:44Z</time>
      </trkpt>
      <trkpt lat="60.32768" lon="7.71039">
        <ele>1170.06</ele>
        <time>2019-04-03T12:43:51Z</time>
      </trkpt>
      <trkpt lat="60.32765" lon="7.71033">
        <ele>1170.54</ele>
        <time>2019-04-03T12:43:57Z</time>
      </trkpt>
      <trkpt lat="60.32762" lon="7.7103">
        <ele>1170.06</ele>
        <time>2019-04-03T12:44:06Z</time>
      </trkpt>
      <trkpt lat="60.32762" lon="7.71031">
        <ele>1170.06</ele>
        <time>2019-04-03T12:44:19Z</time>
      </trkpt>
      <trkpt lat="60.32761" lon="7.71029">
        <ele>1170.06</ele>
        <time>2019-04-03T12:44:34Z</time>
      </trkpt>
      <trkpt lat="60.32757" lon="7.71023">
        <ele>1170.06</ele>
        <time>2019-04-03T12:44:43Z</time>
      </trkpt>
      <trkpt lat="60.32754" lon="7.71019">
        <ele>1170.06</ele>
        <time>2019-04-03T12:44:53Z</time>
      </trkpt>
      <trkpt lat="60.32753" lon="7.71017">
        <ele>1170.06</ele>
        <time>2019-04-03T12:44:57Z</time>
      </trkpt>
      <trkpt lat="60.32751" lon="7.71011">
        <ele>1170.54</ele>
        <time>2019-04-03T12:45:01Z</time>
      </trkpt>
      <trkpt lat="60.32748" lon="7.71006">
        <ele>1171.5</ele>
        <time>2019-04-03T12:45:05Z</time>
      </trkpt>
      <trkpt lat="60.32739" lon="7.70994">
        <ele>1171.5</ele>
        <time>2019-04-03T12:45:16Z</time>
      </trkpt>
      <trkpt lat="60.32739" lon="7.70994">
        <ele>1171.5</ele>
        <time>2019-04-03T12:45:17Z</time>
      </trkpt>
      <trkpt lat="60.32733" lon="7.70983">
        <ele>1171.5</ele>
        <time>2019-04-03T12:45:27Z</time>
      </trkpt>
      <trkpt lat="60.32732" lon="7.70981">
        <ele>1171.5</ele>
        <time>2019-04-03T12:45:29Z</time>
      </trkpt>
      <trkpt lat="60.32729" lon="7.70975">
        <ele>1171.5</ele>
        <time>2019-04-03T12:45:39Z</time>
      </trkpt>
      <trkpt lat="60.32725" lon="7.7097">
        <ele>1171.98</ele>
        <time>2019-04-03T12:45:49Z</time>
      </trkpt>
      <trkpt lat="60.32723" lon="7.70964">
        <ele>1171.98</ele>
        <time>2019-04-03T12:45:54Z</time>
      </trkpt>
      <trkpt lat="60.32721" lon="7.70961">
        <ele>1171.98</ele>
        <time>2019-04-03T12:46:05Z</time>
      </trkpt>
      <trkpt lat="60.3272" lon="7.7096">
        <ele>1172.47</ele>
        <time>2019-04-03T12:46:11Z</time>
      </trkpt>
      <trkpt lat="60.32717" lon="7.70954">
        <ele>1171.98</ele>
        <time>2019-04-03T12:46:17Z</time>
      </trkpt>
      <trkpt lat="60.32714" lon="7.70951">
        <ele>1171.02</ele>
        <time>2019-04-03T12:46:21Z</time>
      </trkpt>
      <trkpt lat="60.32713" lon="7.70951">
        <ele>1171.02</ele>
        <time>2019-04-03T12:46:25Z</time>
      </trkpt>
      <trkpt lat="60.32709" lon="7.70943">
        <ele>1171.02</ele>
        <time>2019-04-03T12:46:31Z</time>
      </trkpt>
      <trkpt lat="60.32707" lon="7.70945">
        <ele>1171.98</ele>
        <time>2019-04-03T12:46:40Z</time>
      </trkpt>
      <trkpt lat="60.32705" lon="7.70941">
        <ele>1171.98</ele>
        <time>2019-04-03T12:46:52Z</time>
      </trkpt>
      <trkpt lat="60.32703" lon="7.7094">
        <ele>1171.98</ele>
        <time>2019-04-03T12:46:54Z</time>
      </trkpt>
      <trkpt lat="60.32696" lon="7.70931">
        <ele>1172.47</ele>
        <time>2019-04-03T12:47:05Z</time>
      </trkpt>
      <trkpt lat="60.32693" lon="7.7093">
        <ele>1173.43</ele>
        <time>2019-04-03T12:47:14Z</time>
      </trkpt>
      <trkpt lat="60.32689" lon="7.70926">
        <ele>1173.43</ele>
        <time>2019-04-03T12:47:23Z</time>
      </trkpt>
      <trkpt lat="60.32683" lon="7.7092">
        <ele>1173.91</ele>
        <time>2019-04-03T12:47:34Z</time>
      </trkpt>
      <trkpt lat="60.3268" lon="7.70915">
        <ele>1174.87</ele>
        <time>2019-04-03T12:47:43Z</time>
      </trkpt>
      <trkpt lat="60.32678" lon="7.7091">
        <ele>1174.87</ele>
        <time>2019-04-03T12:47:50Z</time>
      </trkpt>
      <trkpt lat="60.32673" lon="7.709">
        <ele>1175.35</ele>
        <time>2019-04-03T12:48:01Z</time>
      </trkpt>
      <trkpt lat="60.3267" lon="7.70897">
        <ele>1175.83</ele>
        <time>2019-04-03T12:48:06Z</time>
      </trkpt>
      <trkpt lat="60.32667" lon="7.70892">
        <ele>1173.91</ele>
        <time>2019-04-03T12:48:13Z</time>
      </trkpt>
      <trkpt lat="60.32663" lon="7.70887">
        <ele>1176.31</ele>
        <time>2019-04-03T12:48:19Z</time>
      </trkpt>
      <trkpt lat="60.32657" lon="7.70879">
        <ele>1176.31</ele>
        <time>2019-04-03T12:48:27Z</time>
      </trkpt>
      <trkpt lat="60.32657" lon="7.70877">
        <ele>1176.31</ele>
        <time>2019-04-03T12:48:28Z</time>
      </trkpt>
      <trkpt lat="60.32654" lon="7.70875">
        <ele>1176.31</ele>
        <time>2019-04-03T12:48:30Z</time>
      </trkpt>
      <trkpt lat="60.32652" lon="7.70871">
        <ele>1176.79</ele>
        <time>2019-04-03T12:48:35Z</time>
      </trkpt>
      <trkpt lat="60.32647" lon="7.70865">
        <ele>1177.27</ele>
        <time>2019-04-03T12:48:43Z</time>
      </trkpt>
      <trkpt lat="60.32644" lon="7.70861">
        <ele>1177.27</ele>
        <time>2019-04-03T12:48:48Z</time>
      </trkpt>
      <trkpt lat="60.32641" lon="7.70851">
        <ele>1177.27</ele>
        <time>2019-04-03T12:48:57Z</time>
      </trkpt>
      <trkpt lat="60.3264" lon="7.70848">
        <ele>1177.75</ele>
        <time>2019-04-03T12:49:01Z</time>
      </trkpt>
      <trkpt lat="60.32636" lon="7.70844">
        <ele>1177.75</ele>
        <time>2019-04-03T12:49:09Z</time>
      </trkpt>
      <trkpt lat="60.32633" lon="7.70835">
        <ele>1178.23</ele>
        <time>2019-04-03T12:49:23Z</time>
      </trkpt>
      <trkpt lat="60.3263" lon="7.70831">
        <ele>1178.71</ele>
        <time>2019-04-03T12:49:30Z</time>
      </trkpt>
      <trkpt lat="60.32626" lon="7.7082">
        <ele>1179.19</ele>
        <time>2019-04-03T12:49:40Z</time>
      </trkpt>
      <trkpt lat="60.32625" lon="7.7082">
        <ele>1179.67</ele>
        <time>2019-04-03T12:49:43Z</time>
      </trkpt>
      <trkpt lat="60.32618" lon="7.70821">
        <ele>1179.67</ele>
        <time>2019-04-03T12:49:54Z</time>
      </trkpt>
      <trkpt lat="60.32616" lon="7.70826">
        <ele>1180.16</ele>
        <time>2019-04-03T12:50:02Z</time>
      </trkpt>
      <trkpt lat="60.32616" lon="7.70826">
        <ele>1180.16</ele>
        <time>2019-04-03T12:50:03Z</time>
      </trkpt>
      <trkpt lat="60.32609" lon="7.7083">
        <ele>1180.64</ele>
        <time>2019-04-03T12:50:12Z</time>
      </trkpt>
      <trkpt lat="60.32609" lon="7.70832">
        <ele>1180.64</ele>
        <time>2019-04-03T12:50:23Z</time>
      </trkpt>
      <trkpt lat="60.32607" lon="7.70831">
        <ele>1180.64</ele>
        <time>2019-04-03T12:50:43Z</time>
      </trkpt>
      <trkpt lat="60.32608" lon="7.70831">
        <ele>1180.64</ele>
        <time>2019-04-03T12:51:02Z</time>
      </trkpt>
      <trkpt lat="60.32607" lon="7.70831">
        <ele>1180.64</ele>
        <time>2019-04-03T12:51:28Z</time>
      </trkpt>
      <trkpt lat="60.32608" lon="7.70832">
        <ele>1181.12</ele>
        <time>2019-04-03T12:51:50Z</time>
      </trkpt>
      <trkpt lat="60.32607" lon="7.7083">
        <ele>1181.12</ele>
        <time>2019-04-03T12:52:16Z</time>
      </trkpt>
      <trkpt lat="60.32606" lon="7.7083">
        <ele>1181.12</ele>
        <time>2019-04-03T12:52:38Z</time>
      </trkpt>
      <trkpt lat="60.32605" lon="7.70829">
        <ele>1181.12</ele>
        <time>2019-04-03T12:52:53Z</time>
      </trkpt>
      <trkpt lat="60.32605" lon="7.70828">
        <ele>1181.12</ele>
        <time>2019-04-03T12:52:54Z</time>
      </trkpt>
      <trkpt lat="60.32596" lon="7.70812">
        <ele>1181.12</ele>
        <time>2019-04-03T12:53:02Z</time>
      </trkpt>
      <trkpt lat="60.32579" lon="7.708">
        <ele>1181.6</ele>
        <time>2019-04-03T12:53:10Z</time>
      </trkpt>
      <trkpt lat="60.32577" lon="7.70794">
        <ele>1182.08</ele>
        <time>2019-04-03T12:53:13Z</time>
      </trkpt>
      <trkpt lat="60.32575" lon="7.70792">
        <ele>1182.08</ele>
        <time>2019-04-03T12:53:15Z</time>
      </trkpt>
      <trkpt lat="60.32565" lon="7.70775">
        <ele>1183.52</ele>
        <time>2019-04-03T12:53:25Z</time>
      </trkpt>
      <trkpt lat="60.32556" lon="7.70768">
        <ele>1184.48</ele>
        <time>2019-04-03T12:53:33Z</time>
      </trkpt>
      <trkpt lat="60.32549" lon="7.70759">
        <ele>1184.48</ele>
        <time>2019-04-03T12:53:38Z</time>
      </trkpt>
      <trkpt lat="60.32546" lon="7.70759">
        <ele>1184.48</ele>
        <time>2019-04-03T12:53:40Z</time>
      </trkpt>
      <trkpt lat="60.32531" lon="7.70752">
        <ele>1184.96</ele>
        <time>2019-04-03T12:53:52Z</time>
      </trkpt>
      <trkpt lat="60.32524" lon="7.70748">
        <ele>1184.96</ele>
        <time>2019-04-03T12:53:57Z</time>
      </trkpt>
      <trkpt lat="60.32518" lon="7.7075">
        <ele>1185.44</ele>
        <time>2019-04-03T12:54:02Z</time>
      </trkpt>
      <trkpt lat="60.32511" lon="7.70743">
        <ele>1186.4</ele>
        <time>2019-04-03T12:54:10Z</time>
      </trkpt>
      <trkpt lat="60.325" lon="7.70732">
        <ele>1187.37</ele>
        <time>2019-04-03T12:54:19Z</time>
      </trkpt>
      <trkpt lat="60.32493" lon="7.70723">
        <ele>1188.33</ele>
        <time>2019-04-03T12:54:26Z</time>
      </trkpt>
      <trkpt lat="60.32481" lon="7.70721">
        <ele>1188.81</ele>
        <time>2019-04-03T12:54:34Z</time>
      </trkpt>
      <trkpt lat="60.32473" lon="7.70716">
        <ele>1189.77</ele>
        <time>2019-04-03T12:54:39Z</time>
      </trkpt>
      <trkpt lat="60.32462" lon="7.7071">
        <ele>1191.21</ele>
        <time>2019-04-03T12:54:47Z</time>
      </trkpt>
      <trkpt lat="60.32459" lon="7.70706">
        <ele>1191.21</ele>
        <time>2019-04-03T12:54:50Z</time>
      </trkpt>
      <trkpt lat="60.32452" lon="7.707">
        <ele>1192.65</ele>
        <time>2019-04-03T12:54:58Z</time>
      </trkpt>
      <trkpt lat="60.32447" lon="7.70694">
        <ele>1193.61</ele>
        <time>2019-04-03T12:55:06Z</time>
      </trkpt>
      <trkpt lat="60.32446" lon="7.70687">
        <ele>1194.09</ele>
        <time>2019-04-03T12:55:14Z</time>
      </trkpt>
      <trkpt lat="60.32442" lon="7.70675">
        <ele>1195.54</ele>
        <time>2019-04-03T12:55:25Z</time>
      </trkpt>
      <trkpt lat="60.32437" lon="7.70664">
        <ele>1196.98</ele>
        <time>2019-04-03T12:55:35Z</time>
      </trkpt>
      <trkpt lat="60.32436" lon="7.70664">
        <ele>1198.9</ele>
        <time>2019-04-03T12:55:36Z</time>
      </trkpt>
      <trkpt lat="60.32431" lon="7.70658">
        <ele>1197.94</ele>
        <time>2019-04-03T12:55:45Z</time>
      </trkpt>
      <trkpt lat="60.32425" lon="7.70652">
        <ele>1200.82</ele>
        <time>2019-04-03T12:55:54Z</time>
      </trkpt>
      <trkpt lat="60.32421" lon="7.70649">
        <ele>1201.3</ele>
        <time>2019-04-03T12:56:01Z</time>
      </trkpt>
      <trkpt lat="60.32416" lon="7.70643">
        <ele>1202.27</ele>
        <time>2019-04-03T12:56:07Z</time>
      </trkpt>
      <trkpt lat="60.32409" lon="7.70634">
        <ele>1204.19</ele>
        <time>2019-04-03T12:56:16Z</time>
      </trkpt>
      <trkpt lat="60.32404" lon="7.7063">
        <ele>1204.67</ele>
        <time>2019-04-03T12:56:24Z</time>
      </trkpt>
      <trkpt lat="60.32403" lon="7.70629">
        <ele>1204.67</ele>
        <time>2019-04-03T12:56:25Z</time>
      </trkpt>
      <trkpt lat="60.32396" lon="7.70625">
        <ele>1205.63</ele>
        <time>2019-04-03T12:56:35Z</time>
      </trkpt>
      <trkpt lat="60.32396" lon="7.70626">
        <ele>1206.59</ele>
        <time>2019-04-03T12:56:39Z</time>
      </trkpt>
      <trkpt lat="60.32392" lon="7.70621">
        <ele>1207.07</ele>
        <time>2019-04-03T12:56:45Z</time>
      </trkpt>
      <trkpt lat="60.32389" lon="7.70616">
        <ele>1207.55</ele>
        <time>2019-04-03T12:56:50Z</time>
      </trkpt>
      <trkpt lat="60.32386" lon="7.70612">
        <ele>1208.03</ele>
        <time>2019-04-03T12:56:54Z</time>
      </trkpt>
      <trkpt lat="60.32382" lon="7.70612">
        <ele>1209</ele>
        <time>2019-04-03T12:57:03Z</time>
      </trkpt>
      <trkpt lat="60.32375" lon="7.70606">
        <ele>1209.96</ele>
        <time>2019-04-03T12:57:10Z</time>
      </trkpt>
      <trkpt lat="60.32371" lon="7.70599">
        <ele>1210.44</ele>
        <time>2019-04-03T12:57:15Z</time>
      </trkpt>
      <trkpt lat="60.32366" lon="7.70594">
        <ele>1211.4</ele>
        <time>2019-04-03T12:57:20Z</time>
      </trkpt>
      <trkpt lat="60.32359" lon="7.70596">
        <ele>1211.88</ele>
        <time>2019-04-03T12:57:29Z</time>
      </trkpt>
      <trkpt lat="60.32357" lon="7.70591">
        <ele>1212.36</ele>
        <time>2019-04-03T12:57:40Z</time>
      </trkpt>
      <trkpt lat="60.32359" lon="7.70594">
        <ele>1212.36</ele>
        <time>2019-04-03T12:57:48Z</time>
      </trkpt>
      <trkpt lat="60.32355" lon="7.7059">
        <ele>1212.36</ele>
        <time>2019-04-03T12:57:52Z</time>
      </trkpt>
      <trkpt lat="60.32344" lon="7.70595">
        <ele>1212.84</ele>
        <time>2019-04-03T12:57:59Z</time>
      </trkpt>
      <trkpt lat="60.32343" lon="7.70594">
        <ele>1212.84</ele>
        <time>2019-04-03T12:58:00Z</time>
      </trkpt>
      <trkpt lat="60.32339" lon="7.7059">
        <ele>1212.84</ele>
        <time>2019-04-03T12:58:03Z</time>
      </trkpt>
      <trkpt lat="60.32321" lon="7.70591">
        <ele>1213.32</ele>
        <time>2019-04-03T12:58:13Z</time>
      </trkpt>
      <trkpt lat="60.32316" lon="7.70592">
        <ele>1213.32</ele>
        <time>2019-04-03T12:58:15Z</time>
      </trkpt>
      <trkpt lat="60.32294" lon="7.7059">
        <ele>1213.32</ele>
        <time>2019-04-03T12:58:23Z</time>
      </trkpt>
      <trkpt lat="60.32278" lon="7.70591">
        <ele>1213.32</ele>
        <time>2019-04-03T12:58:29Z</time>
      </trkpt>
      <trkpt lat="60.32264" lon="7.70583">
        <ele>1214.28</ele>
        <time>2019-04-03T12:58:40Z</time>
      </trkpt>
      <trkpt lat="60.32261" lon="7.70579">
        <ele>1214.28</ele>
        <time>2019-04-03T12:58:46Z</time>
      </trkpt>
      <trkpt lat="60.32256" lon="7.70582">
        <ele>1214.28</ele>
        <time>2019-04-03T12:58:54Z</time>
      </trkpt>
      <trkpt lat="60.32256" lon="7.70581">
        <ele>1214.28</ele>
        <time>2019-04-03T12:59:05Z</time>
      </trkpt>
      <trkpt lat="60.32255" lon="7.70575">
        <ele>1214.76</ele>
        <time>2019-04-03T12:59:14Z</time>
      </trkpt>
      <trkpt lat="60.32252" lon="7.70574">
        <ele>1215.24</ele>
        <time>2019-04-03T12:59:25Z</time>
      </trkpt>
      <trkpt lat="60.32251" lon="7.70573">
        <ele>1215.24</ele>
        <time>2019-04-03T12:59:36Z</time>
      </trkpt>
      <trkpt lat="60.3225" lon="7.70571">
        <ele>1215.72</ele>
        <time>2019-04-03T12:59:46Z</time>
      </trkpt>
      <trkpt lat="60.32249" lon="7.7057">
        <ele>1215.72</ele>
        <time>2019-04-03T12:59:47Z</time>
      </trkpt>
      <trkpt lat="60.32246" lon="7.70563">
        <ele>1216.21</ele>
        <time>2019-04-03T12:59:52Z</time>
      </trkpt>
      <trkpt lat="60.32242" lon="7.70556">
        <ele>1217.17</ele>
        <time>2019-04-03T13:00:02Z</time>
      </trkpt>
      <trkpt lat="60.32238" lon="7.70549">
        <ele>1218.13</ele>
        <time>2019-04-03T13:00:12Z</time>
      </trkpt>
      <trkpt lat="60.32233" lon="7.70543">
        <ele>1218.61</ele>
        <time>2019-04-03T13:00:21Z</time>
      </trkpt>
      <trkpt lat="60.32231" lon="7.70536">
        <ele>1219.09</ele>
        <time>2019-04-03T13:00:27Z</time>
      </trkpt>
      <trkpt lat="60.32225" lon="7.70529">
        <ele>1219.57</ele>
        <time>2019-04-03T13:00:38Z</time>
      </trkpt>
      <trkpt lat="60.32224" lon="7.70529">
        <ele>1220.05</ele>
        <time>2019-04-03T13:00:42Z</time>
      </trkpt>
      <trkpt lat="60.32222" lon="7.70528">
        <ele>1220.05</ele>
        <time>2019-04-03T13:00:44Z</time>
      </trkpt>
      <trkpt lat="60.32217" lon="7.7052">
        <ele>1221.01</ele>
        <time>2019-04-03T13:00:54Z</time>
      </trkpt>
      <trkpt lat="60.32216" lon="7.7052">
        <ele>1221.01</ele>
        <time>2019-04-03T13:00:55Z</time>
      </trkpt>
      <trkpt lat="60.32212" lon="7.70515">
        <ele>1221.49</ele>
        <time>2019-04-03T13:00:59Z</time>
      </trkpt>
      <trkpt lat="60.32208" lon="7.70508">
        <ele>1222.45</ele>
        <time>2019-04-03T13:01:05Z</time>
      </trkpt>
      <trkpt lat="60.32205" lon="7.70501">
        <ele>1222.93</ele>
        <time>2019-04-03T13:01:10Z</time>
      </trkpt>
      <trkpt lat="60.32196" lon="7.70494">
        <ele>1224.38</ele>
        <time>2019-04-03T13:01:18Z</time>
      </trkpt>
      <trkpt lat="60.32193" lon="7.70489">
        <ele>1224.38</ele>
        <time>2019-04-03T13:01:22Z</time>
      </trkpt>
      <trkpt lat="60.32185" lon="7.70483">
        <ele>1224.86</ele>
        <time>2019-04-03T13:01:29Z</time>
      </trkpt>
      <trkpt lat="60.32183" lon="7.70483">
        <ele>1224.86</ele>
        <time>2019-04-03T13:01:31Z</time>
      </trkpt>
      <trkpt lat="60.32176" lon="7.70473">
        <ele>1226.3</ele>
        <time>2019-04-03T13:01:38Z</time>
      </trkpt>
      <trkpt lat="60.32174" lon="7.70468">
        <ele>1226.78</ele>
        <time>2019-04-03T13:01:42Z</time>
      </trkpt>
      <trkpt lat="60.32167" lon="7.7046">
        <ele>1227.26</ele>
        <time>2019-04-03T13:01:49Z</time>
      </trkpt>
      <trkpt lat="60.32161" lon="7.70451">
        <ele>1228.22</ele>
        <time>2019-04-03T13:01:56Z</time>
      </trkpt>
      <trkpt lat="60.32157" lon="7.70445">
        <ele>1228.7</ele>
        <time>2019-04-03T13:02:03Z</time>
      </trkpt>
      <trkpt lat="60.32153" lon="7.70438">
        <ele>1229.18</ele>
        <time>2019-04-03T13:02:08Z</time>
      </trkpt>
      <trkpt lat="60.3215" lon="7.70434">
        <ele>1229.66</ele>
        <time>2019-04-03T13:02:13Z</time>
      </trkpt>
      <trkpt lat="60.32146" lon="7.70427">
        <ele>1230.14</ele>
        <time>2019-04-03T13:02:19Z</time>
      </trkpt>
      <trkpt lat="60.3214" lon="7.70422">
        <ele>1230.62</ele>
        <time>2019-04-03T13:02:25Z</time>
      </trkpt>
      <trkpt lat="60.32136" lon="7.70411">
        <ele>1231.11</ele>
        <time>2019-04-03T13:02:33Z</time>
      </trkpt>
      <trkpt lat="60.32133" lon="7.7041">
        <ele>1231.59</ele>
        <time>2019-04-03T13:02:35Z</time>
      </trkpt>
      <trkpt lat="60.3213" lon="7.70403">
        <ele>1232.07</ele>
        <time>2019-04-03T13:02:39Z</time>
      </trkpt>
      <trkpt lat="60.32121" lon="7.70389">
        <ele>1233.03</ele>
        <time>2019-04-03T13:02:48Z</time>
      </trkpt>
      <trkpt lat="60.32119" lon="7.70386">
        <ele>1233.03</ele>
        <time>2019-04-03T13:02:52Z</time>
      </trkpt>
      <trkpt lat="60.32114" lon="7.70378">
        <ele>1233.99</ele>
        <time>2019-04-03T13:02:57Z</time>
      </trkpt>
      <trkpt lat="60.32112" lon="7.70374">
        <ele>1234.47</ele>
        <time>2019-04-03T13:02:59Z</time>
      </trkpt>
      <trkpt lat="60.32102" lon="7.70359">
        <ele>1235.91</ele>
        <time>2019-04-03T13:03:09Z</time>
      </trkpt>
      <trkpt lat="60.32102" lon="7.70357">
        <ele>1235.91</ele>
        <time>2019-04-03T13:03:10Z</time>
      </trkpt>
      <trkpt lat="60.32096" lon="7.70351">
        <ele>1235.91</ele>
        <time>2019-04-03T13:03:15Z</time>
      </trkpt>
      <trkpt lat="60.32091" lon="7.70339">
        <ele>1237.35</ele>
        <time>2019-04-03T13:03:22Z</time>
      </trkpt>
      <trkpt lat="60.32088" lon="7.70335">
        <ele>1237.35</ele>
        <time>2019-04-03T13:03:25Z</time>
      </trkpt>
      <trkpt lat="60.32079" lon="7.70319">
        <ele>1238.8</ele>
        <time>2019-04-03T13:03:35Z</time>
      </trkpt>
      <trkpt lat="60.32076" lon="7.70318">
        <ele>1238.8</ele>
        <time>2019-04-03T13:03:37Z</time>
      </trkpt>
      <trkpt lat="60.32065" lon="7.70304">
        <ele>1239.76</ele>
        <time>2019-04-03T13:03:46Z</time>
      </trkpt>
      <trkpt lat="60.32058" lon="7.70297">
        <ele>1240.72</ele>
        <time>2019-04-03T13:03:51Z</time>
      </trkpt>
      <trkpt lat="60.32047" lon="7.70286">
        <ele>1241.68</ele>
        <time>2019-04-03T13:03:59Z</time>
      </trkpt>
      <trkpt lat="60.3204" lon="7.7028">
        <ele>1242.64</ele>
        <time>2019-04-03T13:04:06Z</time>
      </trkpt>
      <trkpt lat="60.32031" lon="7.70272">
        <ele>1243.6</ele>
        <time>2019-04-03T13:04:13Z</time>
      </trkpt>
      <trkpt lat="60.32031" lon="7.70272">
        <ele>1243.6</ele>
        <time>2019-04-03T13:04:14Z</time>
      </trkpt>
      <trkpt lat="60.32024" lon="7.70269">
        <ele>1244.08</ele>
        <time>2019-04-03T13:04:18Z</time>
      </trkpt>
      <trkpt lat="60.32021" lon="7.70266">
        <ele>1244.08</ele>
        <time>2019-04-03T13:04:21Z</time>
      </trkpt>
      <trkpt lat="60.32011" lon="7.70257">
        <ele>1245.04</ele>
        <time>2019-04-03T13:04:28Z</time>
      </trkpt>
      <trkpt lat="60.32005" lon="7.70252">
        <ele>1245.53</ele>
        <time>2019-04-03T13:04:33Z</time>
      </trkpt>
      <trkpt lat="60.31995" lon="7.70241">
        <ele>1246.49</ele>
        <time>2019-04-03T13:04:42Z</time>
      </trkpt>
      <trkpt lat="60.31989" lon="7.70232">
        <ele>1246.97</ele>
        <time>2019-04-03T13:04:50Z</time>
      </trkpt>
      <trkpt lat="60.31989" lon="7.70231">
        <ele>1246.97</ele>
        <time>2019-04-03T13:04:51Z</time>
      </trkpt>
      <trkpt lat="60.31982" lon="7.70215">
        <ele>1247.45</ele>
        <time>2019-04-03T13:05:02Z</time>
      </trkpt>
      <trkpt lat="60.31981" lon="7.70213">
        <ele>1247.93</ele>
        <time>2019-04-03T13:05:03Z</time>
      </trkpt>
      <trkpt lat="60.31977" lon="7.70205">
        <ele>1248.89</ele>
        <time>2019-04-03T13:05:10Z</time>
      </trkpt>
      <trkpt lat="60.31969" lon="7.70193">
        <ele>1249.85</ele>
        <time>2019-04-03T13:05:18Z</time>
      </trkpt>
      <trkpt lat="60.31964" lon="7.7018">
        <ele>1250.81</ele>
        <time>2019-04-03T13:05:27Z</time>
      </trkpt>
      <trkpt lat="60.31956" lon="7.7017">
        <ele>1251.77</ele>
        <time>2019-04-03T13:05:36Z</time>
      </trkpt>
      <trkpt lat="60.3195" lon="7.70156">
        <ele>1253.22</ele>
        <time>2019-04-03T13:05:46Z</time>
      </trkpt>
      <trkpt lat="60.31945" lon="7.70145">
        <ele>1254.66</ele>
        <time>2019-04-03T13:05:54Z</time>
      </trkpt>
      <trkpt lat="60.31942" lon="7.70137">
        <ele>1255.62</ele>
        <time>2019-04-03T13:06:01Z</time>
      </trkpt>
      <trkpt lat="60.31937" lon="7.70132">
        <ele>1256.58</ele>
        <time>2019-04-03T13:06:10Z</time>
      </trkpt>
      <trkpt lat="60.31934" lon="7.7013">
        <ele>1257.06</ele>
        <time>2019-04-03T13:06:15Z</time>
      </trkpt>
      <trkpt lat="60.31928" lon="7.70125">
        <ele>1258.5</ele>
        <time>2019-04-03T13:06:22Z</time>
      </trkpt>
      <trkpt lat="60.31923" lon="7.70113">
        <ele>1259.46</ele>
        <time>2019-04-03T13:06:32Z</time>
      </trkpt>
      <trkpt lat="60.31918" lon="7.70107">
        <ele>1260.43</ele>
        <time>2019-04-03T13:06:38Z</time>
      </trkpt>
      <trkpt lat="60.31908" lon="7.70101">
        <ele>1261.87</ele>
        <time>2019-04-03T13:06:47Z</time>
      </trkpt>
      <trkpt lat="60.31904" lon="7.70096">
        <ele>1261.87</ele>
        <time>2019-04-03T13:06:51Z</time>
      </trkpt>
      <trkpt lat="60.319" lon="7.70099">
        <ele>1261.87</ele>
        <time>2019-04-03T13:06:54Z</time>
      </trkpt>
      <trkpt lat="60.31895" lon="7.70099">
        <ele>1261.87</ele>
        <time>2019-04-03T13:06:57Z</time>
      </trkpt>
      <trkpt lat="60.31889" lon="7.7009">
        <ele>1262.35</ele>
        <time>2019-04-03T13:07:03Z</time>
      </trkpt>
      <trkpt lat="60.31882" lon="7.70088">
        <ele>1262.35</ele>
        <time>2019-04-03T13:07:07Z</time>
      </trkpt>
      <trkpt lat="60.31873" lon="7.70088">
        <ele>1262.35</ele>
        <time>2019-04-03T13:07:11Z</time>
      </trkpt>
      <trkpt lat="60.31867" lon="7.70081">
        <ele>1263.31</ele>
        <time>2019-04-03T13:07:15Z</time>
      </trkpt>
      <trkpt lat="60.3186" lon="7.70075">
        <ele>1264.27</ele>
        <time>2019-04-03T13:07:21Z</time>
      </trkpt>
      <trkpt lat="60.31856" lon="7.7007">
        <ele>1264.75</ele>
        <time>2019-04-03T13:07:25Z</time>
      </trkpt>
      <trkpt lat="60.31843" lon="7.70058">
        <ele>1265.71</ele>
        <time>2019-04-03T13:07:33Z</time>
      </trkpt>
      <trkpt lat="60.31835" lon="7.70054">
        <ele>1266.19</ele>
        <time>2019-04-03T13:07:37Z</time>
      </trkpt>
      <trkpt lat="60.31832" lon="7.70051">
        <ele>1266.19</ele>
        <time>2019-04-03T13:07:39Z</time>
      </trkpt>
      <trkpt lat="60.3182" lon="7.70042">
        <ele>1267.16</ele>
        <time>2019-04-03T13:07:46Z</time>
      </trkpt>
      <trkpt lat="60.31814" lon="7.70033">
        <ele>1268.12</ele>
        <time>2019-04-03T13:07:53Z</time>
      </trkpt>
      <trkpt lat="60.31806" lon="7.7002">
        <ele>1269.56</ele>
        <time>2019-04-03T13:08:01Z</time>
      </trkpt>
      <trkpt lat="60.31803" lon="7.70014">
        <ele>1270.04</ele>
        <time>2019-04-03T13:08:05Z</time>
      </trkpt>
      <trkpt lat="60.31793" lon="7.7">
        <ele>1271.96</ele>
        <time>2019-04-03T13:08:14Z</time>
      </trkpt>
      <trkpt lat="60.31785" lon="7.69985">
        <ele>1272.92</ele>
        <time>2019-04-03T13:08:22Z</time>
      </trkpt>
      <trkpt lat="60.3178" lon="7.69971">
        <ele>1274.85</ele>
        <time>2019-04-03T13:08:29Z</time>
      </trkpt>
      <trkpt lat="60.31775" lon="7.69963">
        <ele>1275.81</ele>
        <time>2019-04-03T13:08:34Z</time>
      </trkpt>
      <trkpt lat="60.31764" lon="7.69948">
        <ele>1277.73</ele>
        <time>2019-04-03T13:08:43Z</time>
      </trkpt>
      <trkpt lat="60.31764" lon="7.69946">
        <ele>1277.73</ele>
        <time>2019-04-03T13:08:44Z</time>
      </trkpt>
      <trkpt lat="60.31762" lon="7.69942">
        <ele>1277.73</ele>
        <time>2019-04-03T13:08:46Z</time>
      </trkpt>
      <trkpt lat="60.31749" lon="7.6993">
        <ele>1279.65</ele>
        <time>2019-04-03T13:08:55Z</time>
      </trkpt>
      <trkpt lat="60.31748" lon="7.69929">
        <ele>1280.13</ele>
        <time>2019-04-03T13:08:56Z</time>
      </trkpt>
      <trkpt lat="60.31741" lon="7.69921">
        <ele>1281.09</ele>
        <time>2019-04-03T13:09:04Z</time>
      </trkpt>
      <trkpt lat="60.3174" lon="7.69918">
        <ele>1281.57</ele>
        <time>2019-04-03T13:09:06Z</time>
      </trkpt>
      <trkpt lat="60.31732" lon="7.6991">
        <ele>1283.5</ele>
        <time>2019-04-03T13:09:14Z</time>
      </trkpt>
      <trkpt lat="60.31729" lon="7.69905">
        <ele>1284.46</ele>
        <time>2019-04-03T13:09:18Z</time>
      </trkpt>
      <trkpt lat="60.31726" lon="7.69899">
        <ele>1284.94</ele>
        <time>2019-04-03T13:09:21Z</time>
      </trkpt>
      <trkpt lat="60.3172" lon="7.69887">
        <ele>1287.34</ele>
        <time>2019-04-03T13:09:28Z</time>
      </trkpt>
      <trkpt lat="60.31708" lon="7.69873">
        <ele>1289.75</ele>
        <time>2019-04-03T13:09:37Z</time>
      </trkpt>
      <trkpt lat="60.31704" lon="7.69866">
        <ele>1290.71</ele>
        <time>2019-04-03T13:09:46Z</time>
      </trkpt>
      <trkpt lat="60.31703" lon="7.69866">
        <ele>1290.71</ele>
        <time>2019-04-03T13:09:52Z</time>
      </trkpt>
      <trkpt lat="60.31701" lon="7.69864">
        <ele>1291.19</ele>
        <time>2019-04-03T13:10:03Z</time>
      </trkpt>
      <trkpt lat="60.31701" lon="7.69862">
        <ele>1291.67</ele>
        <time>2019-04-03T13:10:15Z</time>
      </trkpt>
      <trkpt lat="60.31702" lon="7.69864">
        <ele>1291.67</ele>
        <time>2019-04-03T13:10:32Z</time>
      </trkpt>
      <trkpt lat="60.31701" lon="7.69861">
        <ele>1290.23</ele>
        <time>2019-04-03T13:10:55Z</time>
      </trkpt>
      <trkpt lat="60.31701" lon="7.69861">
        <ele>1290.23</ele>
        <time>2019-04-03T13:11:28Z</time>
      </trkpt>
      <trkpt lat="60.31701" lon="7.69864">
        <ele>1290.23</ele>
        <time>2019-04-03T13:11:47Z</time>
      </trkpt>
      <trkpt lat="60.31695" lon="7.69865">
        <ele>1291.67</ele>
        <time>2019-04-03T13:11:54Z</time>
      </trkpt>
      <trkpt lat="60.31694" lon="7.69864">
        <ele>1292.15</ele>
        <time>2019-04-03T13:12:01Z</time>
      </trkpt>
      <trkpt lat="60.31697" lon="7.69852">
        <ele>1292.15</ele>
        <time>2019-04-03T13:12:06Z</time>
      </trkpt>
      <trkpt lat="60.31703" lon="7.69828">
        <ele>1292.63</ele>
        <time>2019-04-03T13:12:13Z</time>
      </trkpt>
      <trkpt lat="60.31703" lon="7.69827">
        <ele>1292.63</ele>
        <time>2019-04-03T13:12:15Z</time>
      </trkpt>
      <trkpt lat="60.317" lon="7.69811">
        <ele>1293.59</ele>
        <time>2019-04-03T13:12:23Z</time>
      </trkpt>
      <trkpt lat="60.31699" lon="7.69806">
        <ele>1293.59</ele>
        <time>2019-04-03T13:12:33Z</time>
      </trkpt>
      <trkpt lat="60.317" lon="7.69806">
        <ele>1294.07</ele>
        <time>2019-04-03T13:12:47Z</time>
      </trkpt>
      <trkpt lat="60.31699" lon="7.69806">
        <ele>1294.07</ele>
        <time>2019-04-03T13:13:17Z</time>
      </trkpt>
      <trkpt lat="60.31699" lon="7.69807">
        <ele>1294.07</ele>
        <time>2019-04-03T13:13:42Z</time>
      </trkpt>
      <trkpt lat="60.31698" lon="7.69808">
        <ele>1294.07</ele>
        <time>2019-04-03T13:14:03Z</time>
      </trkpt>
      <trkpt lat="60.31697" lon="7.69803">
        <ele>1294.07</ele>
        <time>2019-04-03T13:14:29Z</time>
      </trkpt>
      <trkpt lat="60.31698" lon="7.69805">
        <ele>1294.07</ele>
        <time>2019-04-03T13:15:01Z</time>
      </trkpt>
      <trkpt lat="60.31698" lon="7.69808">
        <ele>1294.07</ele>
        <time>2019-04-03T13:15:35Z</time>
      </trkpt>
      <trkpt lat="60.31699" lon="7.69808">
        <ele>1294.07</ele>
        <time>2019-04-03T13:15:55Z</time>
      </trkpt>
      <trkpt lat="60.31698" lon="7.69809">
        <ele>1294.07</ele>
        <time>2019-04-03T13:16:20Z</time>
      </trkpt>
      <trkpt lat="60.31698" lon="7.69806">
        <ele>1294.07</ele>
        <time>2019-04-03T13:16:55Z</time>
      </trkpt>
      <trkpt lat="60.31698" lon="7.69806">
        <ele>1293.59</ele>
        <time>2019-04-03T13:17:28Z</time>
      </trkpt>
      <trkpt lat="60.31699" lon="7.6981">
        <ele>1293.59</ele>
        <time>2019-04-03T13:17:51Z</time>
      </trkpt>
      <trkpt lat="60.31699" lon="7.69809">
        <ele>1293.59</ele>
        <time>2019-04-03T13:18:16Z</time>
      </trkpt>
      <trkpt lat="60.31698" lon="7.69808">
        <ele>1293.59</ele>
        <time>2019-04-03T13:18:45Z</time>
      </trkpt>
      <trkpt lat="60.31699" lon="7.69807">
        <ele>1293.59</ele>
        <time>2019-04-03T13:19:17Z</time>
      </trkpt>
      <trkpt lat="60.31699" lon="7.69807">
        <ele>1293.59</ele>
        <time>2019-04-03T13:19:42Z</time>
      </trkpt>
      <trkpt lat="60.31699" lon="7.69808">
        <ele>1293.59</ele>
        <time>2019-04-03T13:20:13Z</time>
      </trkpt>
      <trkpt lat="60.317" lon="7.69808">
        <ele>1293.59</ele>
        <time>2019-04-03T13:20:44Z</time>
      </trkpt>
      <trkpt lat="60.31699" lon="7.69806">
        <ele>1293.59</ele>
        <time>2019-04-03T13:21:01Z</time>
      </trkpt>
      <trkpt lat="60.31699" lon="7.69807">
        <ele>1293.59</ele>
        <time>2019-04-03T13:21:20Z</time>
      </trkpt>
      <trkpt lat="60.31699" lon="7.69805">
        <ele>1293.59</ele>
        <time>2019-04-03T13:21:41Z</time>
      </trkpt>
      <trkpt lat="60.31698" lon="7.69807">
        <ele>1293.59</ele>
        <time>2019-04-03T13:22:04Z</time>
      </trkpt>
      <trkpt lat="60.31698" lon="7.69807">
        <ele>1293.59</ele>
        <time>2019-04-03T13:22:10Z</time>
      </trkpt>
      <trkpt lat="60.31693" lon="7.69807">
        <ele>1293.59</ele>
        <time>2019-04-03T13:22:15Z</time>
      </trkpt>
      <trkpt lat="60.3168" lon="7.69823">
        <ele>1292.15</ele>
        <time>2019-04-03T13:22:20Z</time>
      </trkpt>
      <trkpt lat="60.31672" lon="7.69827">
        <ele>1292.15</ele>
        <time>2019-04-03T13:22:22Z</time>
      </trkpt>
      <trkpt lat="60.31638" lon="7.6983">
        <ele>1290.71</ele>
        <time>2019-04-03T13:22:31Z</time>
      </trkpt>
      <trkpt lat="60.31629" lon="7.6982">
        <ele>1292.15</ele>
        <time>2019-04-03T13:22:36Z</time>
      </trkpt>
      <trkpt lat="60.31626" lon="7.69823">
        <ele>1292.15</ele>
        <time>2019-04-03T13:22:38Z</time>
      </trkpt>
      <trkpt lat="60.3162" lon="7.69818">
        <ele>1292.63</ele>
        <time>2019-04-03T13:22:42Z</time>
      </trkpt>
      <trkpt lat="60.31615" lon="7.69814">
        <ele>1293.59</ele>
        <time>2019-04-03T13:22:52Z</time>
      </trkpt>
      <trkpt lat="60.31615" lon="7.69814">
        <ele>1293.59</ele>
        <time>2019-04-03T13:22:53Z</time>
      </trkpt>
      <trkpt lat="60.31604" lon="7.69809">
        <ele>1294.07</ele>
        <time>2019-04-03T13:23:01Z</time>
      </trkpt>
      <trkpt lat="60.31603" lon="7.69809">
        <ele>1294.07</ele>
        <time>2019-04-03T13:23:03Z</time>
      </trkpt>
      <trkpt lat="60.31591" lon="7.69798">
        <ele>1294.55</ele>
        <time>2019-04-03T13:23:09Z</time>
      </trkpt>
      <trkpt lat="60.31591" lon="7.69798">
        <ele>1295.03</ele>
        <time>2019-04-03T13:23:10Z</time>
      </trkpt>
      <trkpt lat="60.31589" lon="7.6979">
        <ele>1295.03</ele>
        <time>2019-04-03T13:23:15Z</time>
      </trkpt>
      <trkpt lat="60.31585" lon="7.69781">
        <ele>1295.51</ele>
        <time>2019-04-03T13:23:21Z</time>
      </trkpt>
      <trkpt lat="60.31577" lon="7.69772">
        <ele>1295.51</ele>
        <time>2019-04-03T13:23:26Z</time>
      </trkpt>
      <trkpt lat="60.31566" lon="7.69756">
        <ele>1296.48</ele>
        <time>2019-04-03T13:23:34Z</time>
      </trkpt>
      <trkpt lat="60.31555" lon="7.69742">
        <ele>1296.96</ele>
        <time>2019-04-03T13:23:41Z</time>
      </trkpt>
      <trkpt lat="60.3154" lon="7.69727">
        <ele>1297.44</ele>
        <time>2019-04-03T13:23:48Z</time>
      </trkpt>
      <trkpt lat="60.31537" lon="7.69721">
        <ele>1297.92</ele>
        <time>2019-04-03T13:23:54Z</time>
      </trkpt>
      <trkpt lat="60.31527" lon="7.6971">
        <ele>1297.92</ele>
        <time>2019-04-03T13:24:01Z</time>
      </trkpt>
      <trkpt lat="60.31513" lon="7.69695">
        <ele>1297.92</ele>
        <time>2019-04-03T13:24:08Z</time>
      </trkpt>
      <trkpt lat="60.315" lon="7.69684">
        <ele>1297.92</ele>
        <time>2019-04-03T13:24:14Z</time>
      </trkpt>
      <trkpt lat="60.31495" lon="7.69678">
        <ele>1297.92</ele>
        <time>2019-04-03T13:24:17Z</time>
      </trkpt>
      <trkpt lat="60.31472" lon="7.69653">
        <ele>1297.92</ele>
        <time>2019-04-03T13:24:28Z</time>
      </trkpt>
      <trkpt lat="60.3147" lon="7.6965">
        <ele>1297.92</ele>
        <time>2019-04-03T13:24:29Z</time>
      </trkpt>
      <trkpt lat="60.31452" lon="7.6964">
        <ele>1297.92</ele>
        <time>2019-04-03T13:24:35Z</time>
      </trkpt>
      <trkpt lat="60.31434" lon="7.69621">
        <ele>1297.92</ele>
        <time>2019-04-03T13:24:43Z</time>
      </trkpt>
      <trkpt lat="60.31432" lon="7.69617">
        <ele>1297.92</ele>
        <time>2019-04-03T13:24:44Z</time>
      </trkpt>
      <trkpt lat="60.31415" lon="7.69598">
        <ele>1298.88</ele>
        <time>2019-04-03T13:24:52Z</time>
      </trkpt>
      <trkpt lat="60.31409" lon="7.69592">
        <ele>1298.88</ele>
        <time>2019-04-03T13:24:55Z</time>
      </trkpt>
      <trkpt lat="60.31393" lon="7.69571">
        <ele>1298.88</ele>
        <time>2019-04-03T13:25:04Z</time>
      </trkpt>
      <trkpt lat="60.31376" lon="7.69552">
        <ele>1298.88</ele>
        <time>2019-04-03T13:25:11Z</time>
      </trkpt>
      <trkpt lat="60.31373" lon="7.69551">
        <ele>1298.88</ele>
        <time>2019-04-03T13:25:12Z</time>
      </trkpt>
      <trkpt lat="60.31367" lon="7.6955">
        <ele>1298.88</ele>
        <time>2019-04-03T13:25:14Z</time>
      </trkpt>
      <trkpt lat="60.31356" lon="7.69531">
        <ele>1298.88</ele>
        <time>2019-04-03T13:25:21Z</time>
      </trkpt>
      <trkpt lat="60.31356" lon="7.69528">
        <ele>1298.88</ele>
        <time>2019-04-03T13:25:23Z</time>
      </trkpt>
      <trkpt lat="60.31353" lon="7.69505">
        <ele>1299.36</ele>
        <time>2019-04-03T13:25:30Z</time>
      </trkpt>
      <trkpt lat="60.3135" lon="7.69502">
        <ele>1299.36</ele>
        <time>2019-04-03T13:25:32Z</time>
      </trkpt>
      <trkpt lat="60.31348" lon="7.69493">
        <ele>1299.84</ele>
        <time>2019-04-03T13:25:36Z</time>
      </trkpt>
      <trkpt lat="60.31337" lon="7.69476">
        <ele>1299.84</ele>
        <time>2019-04-03T13:25:43Z</time>
      </trkpt>
      <trkpt lat="60.31336" lon="7.69475">
        <ele>1298.4</ele>
        <time>2019-04-03T13:25:49Z</time>
      </trkpt>
      <trkpt lat="60.31326" lon="7.69458">
        <ele>1299.84</ele>
        <time>2019-04-03T13:25:56Z</time>
      </trkpt>
      <trkpt lat="60.31326" lon="7.69454">
        <ele>1299.84</ele>
        <time>2019-04-03T13:25:58Z</time>
      </trkpt>
      <trkpt lat="60.31321" lon="7.6945">
        <ele>1299.84</ele>
        <time>2019-04-03T13:26:01Z</time>
      </trkpt>
      <trkpt lat="60.31313" lon="7.69437">
        <ele>1299.84</ele>
        <time>2019-04-03T13:26:06Z</time>
      </trkpt>
      <trkpt lat="60.31306" lon="7.69426">
        <ele>1300.8</ele>
        <time>2019-04-03T13:26:13Z</time>
      </trkpt>
      <trkpt lat="60.31294" lon="7.69411">
        <ele>1301.28</ele>
        <time>2019-04-03T13:26:22Z</time>
      </trkpt>
      <trkpt lat="60.31291" lon="7.69404">
        <ele>1301.28</ele>
        <time>2019-04-03T13:26:24Z</time>
      </trkpt>
      <trkpt lat="60.31289" lon="7.69396">
        <ele>1301.28</ele>
        <time>2019-04-03T13:26:27Z</time>
      </trkpt>
      <trkpt lat="60.31282" lon="7.69387">
        <ele>1301.76</ele>
        <time>2019-04-03T13:26:33Z</time>
      </trkpt>
      <trkpt lat="60.3128" lon="7.69373">
        <ele>1302.24</ele>
        <time>2019-04-03T13:26:42Z</time>
      </trkpt>
      <trkpt lat="60.31279" lon="7.69375">
        <ele>1302.24</ele>
        <time>2019-04-03T13:26:57Z</time>
      </trkpt>
      <trkpt lat="60.31279" lon="7.69372">
        <ele>1302.24</ele>
        <time>2019-04-03T13:27:10Z</time>
      </trkpt>
      <trkpt lat="60.31277" lon="7.69365">
        <ele>1302.24</ele>
        <time>2019-04-03T13:27:13Z</time>
      </trkpt>
      <trkpt lat="60.3127" lon="7.6936">
        <ele>1303.2</ele>
        <time>2019-04-03T13:27:20Z</time>
      </trkpt>
      <trkpt lat="60.31269" lon="7.69361">
        <ele>1303.2</ele>
        <time>2019-04-03T13:27:23Z</time>
      </trkpt>
      <trkpt lat="60.3126" lon="7.69346">
        <ele>1303.69</ele>
        <time>2019-04-03T13:27:30Z</time>
      </trkpt>
      <trkpt lat="60.3126" lon="7.69346">
        <ele>1304.17</ele>
        <time>2019-04-03T13:27:31Z</time>
      </trkpt>
      <trkpt lat="60.31255" lon="7.69338">
        <ele>1304.17</ele>
        <time>2019-04-03T13:27:36Z</time>
      </trkpt>
      <trkpt lat="60.31252" lon="7.69327">
        <ele>1304.65</ele>
        <time>2019-04-03T13:27:40Z</time>
      </trkpt>
      <trkpt lat="60.31244" lon="7.69305">
        <ele>1305.13</ele>
        <time>2019-04-03T13:27:51Z</time>
      </trkpt>
      <trkpt lat="60.31245" lon="7.69305">
        <ele>1305.13</ele>
        <time>2019-04-03T13:27:53Z</time>
      </trkpt>
      <trkpt lat="60.31236" lon="7.69297">
        <ele>1305.13</ele>
        <time>2019-04-03T13:27:59Z</time>
      </trkpt>
      <trkpt lat="60.3123" lon="7.69289">
        <ele>1305.61</ele>
        <time>2019-04-03T13:28:05Z</time>
      </trkpt>
      <trkpt lat="60.3122" lon="7.69269">
        <ele>1307.05</ele>
        <time>2019-04-03T13:28:15Z</time>
      </trkpt>
      <trkpt lat="60.3122" lon="7.69269">
        <ele>1307.05</ele>
        <time>2019-04-03T13:28:16Z</time>
      </trkpt>
      <trkpt lat="60.31212" lon="7.69255">
        <ele>1307.53</ele>
        <time>2019-04-03T13:28:24Z</time>
      </trkpt>
      <trkpt lat="60.31208" lon="7.6925">
        <ele>1308.01</ele>
        <time>2019-04-03T13:28:26Z</time>
      </trkpt>
      <trkpt lat="60.31206" lon="7.69243">
        <ele>1308.01</ele>
        <time>2019-04-03T13:28:29Z</time>
      </trkpt>
      <trkpt lat="60.312" lon="7.69232">
        <ele>1308.49</ele>
        <time>2019-04-03T13:28:35Z</time>
      </trkpt>
      <trkpt lat="60.31192" lon="7.69218">
        <ele>1308.97</ele>
        <time>2019-04-03T13:28:42Z</time>
      </trkpt>
      <trkpt lat="60.3119" lon="7.69213">
        <ele>1308.97</ele>
        <time>2019-04-03T13:28:44Z</time>
      </trkpt>
      <trkpt lat="60.31181" lon="7.69191">
        <ele>1308.97</ele>
        <time>2019-04-03T13:28:53Z</time>
      </trkpt>
      <trkpt lat="60.3118" lon="7.69189">
        <ele>1308.97</ele>
        <time>2019-04-03T13:28:54Z</time>
      </trkpt>
      <trkpt lat="60.31179" lon="7.69163">
        <ele>1308.97</ele>
        <time>2019-04-03T13:29:00Z</time>
      </trkpt>
      <trkpt lat="60.3117" lon="7.69149">
        <ele>1308.97</ele>
        <time>2019-04-03T13:29:06Z</time>
      </trkpt>
      <trkpt lat="60.31163" lon="7.69136">
        <ele>1308.97</ele>
        <time>2019-04-03T13:29:11Z</time>
      </trkpt>
      <trkpt lat="60.31156" lon="7.69115">
        <ele>1308.97</ele>
        <time>2019-04-03T13:29:18Z</time>
      </trkpt>
      <trkpt lat="60.31155" lon="7.69113">
        <ele>1308.97</ele>
        <time>2019-04-03T13:29:19Z</time>
      </trkpt>
      <trkpt lat="60.31146" lon="7.69105">
        <ele>1309.45</ele>
        <time>2019-04-03T13:29:24Z</time>
      </trkpt>
      <trkpt lat="60.31136" lon="7.69094">
        <ele>1310.41</ele>
        <time>2019-04-03T13:29:29Z</time>
      </trkpt>
      <trkpt lat="60.31122" lon="7.69078">
        <ele>1310.41</ele>
        <time>2019-04-03T13:29:37Z</time>
      </trkpt>
      <trkpt lat="60.31113" lon="7.69074">
        <ele>1310.9</ele>
        <time>2019-04-03T13:29:41Z</time>
      </trkpt>
      <trkpt lat="60.31098" lon="7.69054">
        <ele>1311.38</ele>
        <time>2019-04-03T13:29:50Z</time>
      </trkpt>
      <trkpt lat="60.31082" lon="7.69039">
        <ele>1311.86</ele>
        <time>2019-04-03T13:29:59Z</time>
      </trkpt>
      <trkpt lat="60.31065" lon="7.69022">
        <ele>1312.34</ele>
        <time>2019-04-03T13:30:08Z</time>
      </trkpt>
      <trkpt lat="60.31062" lon="7.69015">
        <ele>1312.34</ele>
        <time>2019-04-03T13:30:12Z</time>
      </trkpt>
      <trkpt lat="60.31055" lon="7.69009">
        <ele>1313.3</ele>
        <time>2019-04-03T13:30:16Z</time>
      </trkpt>
      <trkpt lat="60.31041" lon="7.68986">
        <ele>1313.3</ele>
        <time>2019-04-03T13:30:26Z</time>
      </trkpt>
      <trkpt lat="60.31039" lon="7.68982">
        <ele>1313.3</ele>
        <time>2019-04-03T13:30:28Z</time>
      </trkpt>
      <trkpt lat="60.31024" lon="7.68961">
        <ele>1313.3</ele>
        <time>2019-04-03T13:30:38Z</time>
      </trkpt>
      <trkpt lat="60.31017" lon="7.68951">
        <ele>1313.78</ele>
        <time>2019-04-03T13:30:43Z</time>
      </trkpt>
      <trkpt lat="60.31016" lon="7.68946">
        <ele>1313.3</ele>
        <time>2019-04-03T13:30:45Z</time>
      </trkpt>
      <trkpt lat="60.31009" lon="7.68933">
        <ele>1313.78</ele>
        <time>2019-04-03T13:30:51Z</time>
      </trkpt>
      <trkpt lat="60.31" lon="7.68918">
        <ele>1313.78</ele>
        <time>2019-04-03T13:30:58Z</time>
      </trkpt>
      <trkpt lat="60.30996" lon="7.68908">
        <ele>1314.26</ele>
        <time>2019-04-03T13:31:03Z</time>
      </trkpt>
      <trkpt lat="60.30993" lon="7.68901">
        <ele>1314.26</ele>
        <time>2019-04-03T13:31:05Z</time>
      </trkpt>
      <trkpt lat="60.30979" lon="7.68886">
        <ele>1314.74</ele>
        <time>2019-04-03T13:31:14Z</time>
      </trkpt>
      <trkpt lat="60.30977" lon="7.68886">
        <ele>1314.74</ele>
        <time>2019-04-03T13:31:15Z</time>
      </trkpt>
      <trkpt lat="60.30968" lon="7.68881">
        <ele>1315.22</ele>
        <time>2019-04-03T13:31:19Z</time>
      </trkpt>
      <trkpt lat="60.30957" lon="7.68867">
        <ele>1315.22</ele>
        <time>2019-04-03T13:31:26Z</time>
      </trkpt>
      <trkpt lat="60.30964" lon="7.6882">
        <ele>1315.22</ele>
        <time>2019-04-03T13:31:34Z</time>
      </trkpt>
      <trkpt lat="60.30965" lon="7.68815">
        <ele>1315.22</ele>
        <time>2019-04-03T13:31:35Z</time>
      </trkpt>
      <trkpt lat="60.30961" lon="7.68799">
        <ele>1314.26</ele>
        <time>2019-04-03T13:31:40Z</time>
      </trkpt>
      <trkpt lat="60.30942" lon="7.68785">
        <ele>1314.26</ele>
        <time>2019-04-03T13:31:50Z</time>
      </trkpt>
      <trkpt lat="60.3094" lon="7.68778">
        <ele>1314.74</ele>
        <time>2019-04-03T13:31:54Z</time>
      </trkpt>
      <trkpt lat="60.3093" lon="7.68763">
        <ele>1315.22</ele>
        <time>2019-04-03T13:32:03Z</time>
      </trkpt>
      <trkpt lat="60.3093" lon="7.68762">
        <ele>1315.22</ele>
        <time>2019-04-03T13:32:04Z</time>
      </trkpt>
      <trkpt lat="60.30922" lon="7.68758">
        <ele>1315.7</ele>
        <time>2019-04-03T13:32:08Z</time>
      </trkpt>
      <trkpt lat="60.30918" lon="7.6875">
        <ele>1316.18</ele>
        <time>2019-04-03T13:32:15Z</time>
      </trkpt>
      <trkpt lat="60.3092" lon="7.68723">
        <ele>1316.18</ele>
        <time>2019-04-03T13:32:22Z</time>
      </trkpt>
      <trkpt lat="60.30919" lon="7.68722">
        <ele>1316.18</ele>
        <time>2019-04-03T13:32:23Z</time>
      </trkpt>
      <trkpt lat="60.30908" lon="7.68715">
        <ele>1316.18</ele>
        <time>2019-04-03T13:32:30Z</time>
      </trkpt>
      <trkpt lat="60.30897" lon="7.68708">
        <ele>1316.66</ele>
        <time>2019-04-03T13:32:35Z</time>
      </trkpt>
      <trkpt lat="60.30896" lon="7.68703">
        <ele>1316.66</ele>
        <time>2019-04-03T13:32:36Z</time>
      </trkpt>
      <trkpt lat="60.30895" lon="7.68687">
        <ele>1316.66</ele>
        <time>2019-04-03T13:32:39Z</time>
      </trkpt>
      <trkpt lat="60.30897" lon="7.68675">
        <ele>1316.66</ele>
        <time>2019-04-03T13:32:41Z</time>
      </trkpt>
      <trkpt lat="60.30897" lon="7.68645">
        <ele>1316.66</ele>
        <time>2019-04-03T13:32:47Z</time>
      </trkpt>
      <trkpt lat="60.30878" lon="7.68631">
        <ele>1315.22</ele>
        <time>2019-04-03T13:32:54Z</time>
      </trkpt>
      <trkpt lat="60.30868" lon="7.68629">
        <ele>1316.66</ele>
        <time>2019-04-03T13:32:57Z</time>
      </trkpt>
      <trkpt lat="60.30859" lon="7.68616">
        <ele>1316.66</ele>
        <time>2019-04-03T13:33:01Z</time>
      </trkpt>
      <trkpt lat="60.30853" lon="7.68597">
        <ele>1316.66</ele>
        <time>2019-04-03T13:33:07Z</time>
      </trkpt>
      <trkpt lat="60.30852" lon="7.68575">
        <ele>1316.66</ele>
        <time>2019-04-03T13:33:12Z</time>
      </trkpt>
      <trkpt lat="60.30848" lon="7.68569">
        <ele>1316.66</ele>
        <time>2019-04-03T13:33:14Z</time>
      </trkpt>
      <trkpt lat="60.30836" lon="7.68558">
        <ele>1316.66</ele>
        <time>2019-04-03T13:33:21Z</time>
      </trkpt>
      <trkpt lat="60.30837" lon="7.68535">
        <ele>1317.14</ele>
        <time>2019-04-03T13:33:26Z</time>
      </trkpt>
      <trkpt lat="60.30827" lon="7.68525">
        <ele>1317.62</ele>
        <time>2019-04-03T13:33:32Z</time>
      </trkpt>
      <trkpt lat="60.30824" lon="7.68521">
        <ele>1317.62</ele>
        <time>2019-04-03T13:33:34Z</time>
      </trkpt>
      <trkpt lat="60.3081" lon="7.68499">
        <ele>1318.59</ele>
        <time>2019-04-03T13:33:42Z</time>
      </trkpt>
      <trkpt lat="60.30803" lon="7.68487">
        <ele>1319.55</ele>
        <time>2019-04-03T13:33:48Z</time>
      </trkpt>
      <trkpt lat="60.30803" lon="7.68478">
        <ele>1319.55</ele>
        <time>2019-04-03T13:33:51Z</time>
      </trkpt>
      <trkpt lat="60.30795" lon="7.68453">
        <ele>1320.03</ele>
        <time>2019-04-03T13:34:00Z</time>
      </trkpt>
      <trkpt lat="60.30794" lon="7.68452">
        <ele>1320.03</ele>
        <time>2019-04-03T13:34:08Z</time>
      </trkpt>
      <trkpt lat="60.30782" lon="7.68434">
        <ele>1320.51</ele>
        <time>2019-04-03T13:34:15Z</time>
      </trkpt>
      <trkpt lat="60.30783" lon="7.68418">
        <ele>1320.51</ele>
        <time>2019-04-03T13:34:18Z</time>
      </trkpt>
      <trkpt lat="60.30773" lon="7.68399">
        <ele>1321.47</ele>
        <time>2019-04-03T13:34:27Z</time>
      </trkpt>
      <trkpt lat="60.3075" lon="7.68391">
        <ele>1321.95</ele>
        <time>2019-04-03T13:34:35Z</time>
      </trkpt>
      <trkpt lat="60.30741" lon="7.68398">
        <ele>1322.43</ele>
        <time>2019-04-03T13:34:38Z</time>
      </trkpt>
      <trkpt lat="60.30736" lon="7.6838">
        <ele>1322.43</ele>
        <time>2019-04-03T13:34:43Z</time>
      </trkpt>
      <trkpt lat="60.30736" lon="7.68348">
        <ele>1322.91</ele>
        <time>2019-04-03T13:34:49Z</time>
      </trkpt>
      <trkpt lat="60.30724" lon="7.68333">
        <ele>1322.91</ele>
        <time>2019-04-03T13:34:54Z</time>
      </trkpt>
      <trkpt lat="60.3072" lon="7.6829">
        <ele>1323.39</ele>
        <time>2019-04-03T13:35:01Z</time>
      </trkpt>
      <trkpt lat="60.30718" lon="7.68287">
        <ele>1323.39</ele>
        <time>2019-04-03T13:35:02Z</time>
      </trkpt>
      <trkpt lat="60.30704" lon="7.68281">
        <ele>1323.39</ele>
        <time>2019-04-03T13:35:06Z</time>
      </trkpt>
      <trkpt lat="60.30696" lon="7.68253">
        <ele>1323.39</ele>
        <time>2019-04-03T13:35:11Z</time>
      </trkpt>
      <trkpt lat="60.30696" lon="7.68235">
        <ele>1323.39</ele>
        <time>2019-04-03T13:35:14Z</time>
      </trkpt>
      <trkpt lat="60.30671" lon="7.68227">
        <ele>1323.39</ele>
        <time>2019-04-03T13:35:22Z</time>
      </trkpt>
      <trkpt lat="60.30653" lon="7.68227">
        <ele>1323.39</ele>
        <time>2019-04-03T13:35:26Z</time>
      </trkpt>
      <trkpt lat="60.30625" lon="7.68206">
        <ele>1323.39</ele>
        <time>2019-04-03T13:35:34Z</time>
      </trkpt>
      <trkpt lat="60.30622" lon="7.68162">
        <ele>1323.87</ele>
        <time>2019-04-03T13:35:41Z</time>
      </trkpt>
      <trkpt lat="60.30622" lon="7.68156">
        <ele>1323.87</ele>
        <time>2019-04-03T13:35:42Z</time>
      </trkpt>
      <trkpt lat="60.3062" lon="7.68132">
        <ele>1323.87</ele>
        <time>2019-04-03T13:35:46Z</time>
      </trkpt>
      <trkpt lat="60.30609" lon="7.68103">
        <ele>1323.87</ele>
        <time>2019-04-03T13:35:52Z</time>
      </trkpt>
      <trkpt lat="60.30606" lon="7.68102">
        <ele>1323.87</ele>
        <time>2019-04-03T13:35:53Z</time>
      </trkpt>
      <trkpt lat="60.30598" lon="7.68089">
        <ele>1324.83</ele>
        <time>2019-04-03T13:35:57Z</time>
      </trkpt>
      <trkpt lat="60.30581" lon="7.68063">
        <ele>1324.83</ele>
        <time>2019-04-03T13:36:04Z</time>
      </trkpt>
      <trkpt lat="60.30577" lon="7.68057">
        <ele>1324.83</ele>
        <time>2019-04-03T13:36:06Z</time>
      </trkpt>
      <trkpt lat="60.30563" lon="7.68038">
        <ele>1324.83</ele>
        <time>2019-04-03T13:36:13Z</time>
      </trkpt>
      <trkpt lat="60.30555" lon="7.68022">
        <ele>1324.83</ele>
        <time>2019-04-03T13:36:17Z</time>
      </trkpt>
      <trkpt lat="60.30546" lon="7.68014">
        <ele>1324.83</ele>
        <time>2019-04-03T13:36:21Z</time>
      </trkpt>
      <trkpt lat="60.30526" lon="7.67995">
        <ele>1325.31</ele>
        <time>2019-04-03T13:36:28Z</time>
      </trkpt>
      <trkpt lat="60.30513" lon="7.67975">
        <ele>1325.31</ele>
        <time>2019-04-03T13:36:33Z</time>
      </trkpt>
      <trkpt lat="60.30507" lon="7.67973">
        <ele>1325.31</ele>
        <time>2019-04-03T13:36:35Z</time>
      </trkpt>
      <trkpt lat="60.30498" lon="7.67959">
        <ele>1325.31</ele>
        <time>2019-04-03T13:36:39Z</time>
      </trkpt>
      <trkpt lat="60.30495" lon="7.67931">
        <ele>1325.8</ele>
        <time>2019-04-03T13:36:45Z</time>
      </trkpt>
      <trkpt lat="60.30489" lon="7.67907">
        <ele>1325.8</ele>
        <time>2019-04-03T13:36:49Z</time>
      </trkpt>
      <trkpt lat="60.30469" lon="7.67907">
        <ele>1325.8</ele>
        <time>2019-04-03T13:36:54Z</time>
      </trkpt>
      <trkpt lat="60.30467" lon="7.679">
        <ele>1325.8</ele>
        <time>2019-04-03T13:36:55Z</time>
      </trkpt>
      <trkpt lat="60.30464" lon="7.67886">
        <ele>1325.8</ele>
        <time>2019-04-03T13:36:57Z</time>
      </trkpt>
      <trkpt lat="60.30466" lon="7.67845">
        <ele>1325.8</ele>
        <time>2019-04-03T13:37:02Z</time>
      </trkpt>
      <trkpt lat="60.30473" lon="7.67817">
        <ele>1325.8</ele>
        <time>2019-04-03T13:37:06Z</time>
      </trkpt>
      <trkpt lat="60.3048" lon="7.67774">
        <ele>1324.83</ele>
        <time>2019-04-03T13:37:12Z</time>
      </trkpt>
      <trkpt lat="60.30457" lon="7.67765">
        <ele>1324.35</ele>
        <time>2019-04-03T13:37:17Z</time>
      </trkpt>
      <trkpt lat="60.30447" lon="7.67755">
        <ele>1324.35</ele>
        <time>2019-04-03T13:37:19Z</time>
      </trkpt>
      <trkpt lat="60.30415" lon="7.67731">
        <ele>1323.39</ele>
        <time>2019-04-03T13:37:25Z</time>
      </trkpt>
      <trkpt lat="60.30396" lon="7.67731">
        <ele>1322.91</ele>
        <time>2019-04-03T13:37:28Z</time>
      </trkpt>
      <trkpt lat="60.30362" lon="7.67702">
        <ele>1322.91</ele>
        <time>2019-04-03T13:37:34Z</time>
      </trkpt>
      <trkpt lat="60.30343" lon="7.67681">
        <ele>1322.91</ele>
        <time>2019-04-03T13:37:40Z</time>
      </trkpt>
      <trkpt lat="60.30329" lon="7.67662">
        <ele>1322.91</ele>
        <time>2019-04-03T13:37:44Z</time>
      </trkpt>
      <trkpt lat="60.30323" lon="7.67652">
        <ele>1322.91</ele>
        <time>2019-04-03T13:37:46Z</time>
      </trkpt>
      <trkpt lat="60.303" lon="7.67628">
        <ele>1322.91</ele>
        <time>2019-04-03T13:37:53Z</time>
      </trkpt>
      <trkpt lat="60.30282" lon="7.6763">
        <ele>1322.43</ele>
        <time>2019-04-03T13:37:59Z</time>
      </trkpt>
      <trkpt lat="60.30282" lon="7.67625">
        <ele>1322.43</ele>
        <time>2019-04-03T13:38:06Z</time>
      </trkpt>
      <trkpt lat="60.30283" lon="7.67623">
        <ele>1322.43</ele>
        <time>2019-04-03T13:38:25Z</time>
      </trkpt>
      <trkpt lat="60.30283" lon="7.67623">
        <ele>1322.43</ele>
        <time>2019-04-03T13:38:42Z</time>
      </trkpt>
      <trkpt lat="60.30283" lon="7.67623">
        <ele>1322.43</ele>
        <time>2019-04-03T13:39:00Z</time>
      </trkpt>
      <trkpt lat="60.30282" lon="7.67622">
        <ele>1322.43</ele>
        <time>2019-04-03T13:39:20Z</time>
      </trkpt>
      <trkpt lat="60.30281" lon="7.67622">
        <ele>1322.43</ele>
        <time>2019-04-03T13:39:36Z</time>
      </trkpt>
      <trkpt lat="60.30272" lon="7.67629">
        <ele>1322.43</ele>
        <time>2019-04-03T13:39:40Z</time>
      </trkpt>
      <trkpt lat="60.30265" lon="7.67635">
        <ele>1321.95</ele>
        <time>2019-04-03T13:39:42Z</time>
      </trkpt>
      <trkpt lat="60.30243" lon="7.67641">
        <ele>1321.95</ele>
        <time>2019-04-03T13:39:46Z</time>
      </trkpt>
      <trkpt lat="60.30218" lon="7.67656">
        <ele>1323.39</ele>
        <time>2019-04-03T13:39:51Z</time>
      </trkpt>
      <trkpt lat="60.30222" lon="7.67617">
        <ele>1323.87</ele>
        <time>2019-04-03T13:39:56Z</time>
      </trkpt>
      <trkpt lat="60.30227" lon="7.67609">
        <ele>1323.87</ele>
        <time>2019-04-03T13:39:57Z</time>
      </trkpt>
      <trkpt lat="60.30286" lon="7.67509">
        <ele>1323.39</ele>
        <time>2019-04-03T13:40:07Z</time>
      </trkpt>
      <trkpt lat="60.30292" lon="7.675">
        <ele>1323.39</ele>
        <time>2019-04-03T13:40:08Z</time>
      </trkpt>
      <trkpt lat="60.30305" lon="7.67474">
        <ele>1320.99</ele>
        <time>2019-04-03T13:40:14Z</time>
      </trkpt>
      <trkpt lat="60.30301" lon="7.67475">
        <ele>1320.99</ele>
        <time>2019-04-03T13:40:21Z</time>
      </trkpt>
      <trkpt lat="60.30292" lon="7.6749">
        <ele>1320.03</ele>
        <time>2019-04-03T13:40:26Z</time>
      </trkpt>
      <trkpt lat="60.30271" lon="7.6751">
        <ele>1318.1</ele>
        <time>2019-04-03T13:40:30Z</time>
      </trkpt>
      <trkpt lat="60.30246" lon="7.67586">
        <ele>1319.07</ele>
        <time>2019-04-03T13:40:37Z</time>
      </trkpt>
      <trkpt lat="60.3024" lon="7.67587">
        <ele>1321.47</ele>
        <time>2019-04-03T13:40:41Z</time>
      </trkpt>
      <trkpt lat="60.30259" lon="7.67566">
        <ele>1323.39</ele>
        <time>2019-04-03T13:40:45Z</time>
      </trkpt>
      <trkpt lat="60.30287" lon="7.6755">
        <ele>1324.35</ele>
        <time>2019-04-03T13:40:50Z</time>
      </trkpt>
      <trkpt lat="60.30307" lon="7.67543">
        <ele>1324.35</ele>
        <time>2019-04-03T13:40:54Z</time>
      </trkpt>
      <trkpt lat="60.30331" lon="7.67533">
        <ele>1324.35</ele>
        <time>2019-04-03T13:40:59Z</time>
      </trkpt>
      <trkpt lat="60.30343" lon="7.67517">
        <ele>1321.47</ele>
        <time>2019-04-03T13:41:04Z</time>
      </trkpt>
      <trkpt lat="60.30335" lon="7.67526">
        <ele>1321.47</ele>
        <time>2019-04-03T13:41:07Z</time>
      </trkpt>
      <trkpt lat="60.30316" lon="7.67551">
        <ele>1321.47</ele>
        <time>2019-04-03T13:41:18Z</time>
      </trkpt>
      <trkpt lat="60.30313" lon="7.67553">
        <ele>1321.47</ele>
        <time>2019-04-03T13:41:30Z</time>
      </trkpt>
      <trkpt lat="60.30313" lon="7.67552">
        <ele>1321.47</ele>
        <time>2019-04-03T13:41:50Z</time>
      </trkpt>
      <trkpt lat="60.30313" lon="7.67553">
        <ele>1320.99</ele>
        <time>2019-04-03T13:42:15Z</time>
      </trkpt>
      <trkpt lat="60.30313" lon="7.67552">
        <ele>1320.99</ele>
        <time>2019-04-03T13:42:40Z</time>
      </trkpt>
      <trkpt lat="60.30313" lon="7.67552">
        <ele>1320.99</ele>
        <time>2019-04-03T13:43:01Z</time>
      </trkpt>
      <trkpt lat="60.30313" lon="7.67552">
        <ele>1320.99</ele>
        <time>2019-04-03T13:43:10Z</time>
      </trkpt>
      <trkpt lat="60.30295" lon="7.67546">
        <ele>1320.51</ele>
        <time>2019-04-03T13:43:15Z</time>
      </trkpt>
      <trkpt lat="60.30264" lon="7.6753">
        <ele>1320.03</ele>
        <time>2019-04-03T13:43:21Z</time>
      </trkpt>
      <trkpt lat="60.30263" lon="7.6752">
        <ele>1320.03</ele>
        <time>2019-04-03T13:43:22Z</time>
      </trkpt>
      <trkpt lat="60.30265" lon="7.67447">
        <ele>1319.55</ele>
        <time>2019-04-03T13:43:28Z</time>
      </trkpt>
      <trkpt lat="60.30263" lon="7.67402">
        <ele>1318.1</ele>
        <time>2019-04-03T13:43:33Z</time>
      </trkpt>
      <trkpt lat="60.30258" lon="7.67398">
        <ele>1317.62</ele>
        <time>2019-04-03T13:43:34Z</time>
      </trkpt>
      <trkpt lat="60.30228" lon="7.67376">
        <ele>1315.7</ele>
        <time>2019-04-03T13:43:39Z</time>
      </trkpt>
      <trkpt lat="60.30222" lon="7.67371">
        <ele>1315.22</ele>
        <time>2019-04-03T13:43:40Z</time>
      </trkpt>
      <trkpt lat="60.3019" lon="7.6736">
        <ele>1314.74</ele>
        <time>2019-04-03T13:43:45Z</time>
      </trkpt>
      <trkpt lat="60.30183" lon="7.67309">
        <ele>1313.78</ele>
        <time>2019-04-03T13:43:50Z</time>
      </trkpt>
      <trkpt lat="60.30187" lon="7.67282">
        <ele>1313.78</ele>
        <time>2019-04-03T13:43:52Z</time>
      </trkpt>
      <trkpt lat="60.30193" lon="7.67212">
        <ele>1311.86</ele>
        <time>2019-04-03T13:43:57Z</time>
      </trkpt>
      <trkpt lat="60.30177" lon="7.67157">
        <ele>1310.9</ele>
        <time>2019-04-03T13:44:03Z</time>
      </trkpt>
      <trkpt lat="60.30164" lon="7.67152">
        <ele>1309.93</ele>
        <time>2019-04-03T13:44:05Z</time>
      </trkpt>
      <trkpt lat="60.30144" lon="7.6715">
        <ele>1309.45</ele>
        <time>2019-04-03T13:44:08Z</time>
      </trkpt>
      <trkpt lat="60.30135" lon="7.67108">
        <ele>1308.49</ele>
        <time>2019-04-03T13:44:13Z</time>
      </trkpt>
      <trkpt lat="60.3014" lon="7.6708">
        <ele>1308.49</ele>
        <time>2019-04-03T13:44:15Z</time>
      </trkpt>
      <trkpt lat="60.30156" lon="7.67004">
        <ele>1307.53</ele>
        <time>2019-04-03T13:44:20Z</time>
      </trkpt>
      <trkpt lat="60.30153" lon="7.66962">
        <ele>1303.69</ele>
        <time>2019-04-03T13:44:24Z</time>
      </trkpt>
      <trkpt lat="60.3015" lon="7.66955">
        <ele>1303.69</ele>
        <time>2019-04-03T13:44:25Z</time>
      </trkpt>
      <trkpt lat="60.30098" lon="7.66935">
        <ele>1301.28</ele>
        <time>2019-04-03T13:44:33Z</time>
      </trkpt>
      <trkpt lat="60.30041" lon="7.6693">
        <ele>1299.84</ele>
        <time>2019-04-03T13:44:41Z</time>
      </trkpt>
      <trkpt lat="60.30034" lon="7.66931">
        <ele>1299.84</ele>
        <time>2019-04-03T13:44:42Z</time>
      </trkpt>
      <trkpt lat="60.30012" lon="7.66911">
        <ele>1300.8</ele>
        <time>2019-04-03T13:44:47Z</time>
      </trkpt>
      <trkpt lat="60.30011" lon="7.66884">
        <ele>1300.8</ele>
        <time>2019-04-03T13:44:49Z</time>
      </trkpt>
      <trkpt lat="60.30011" lon="7.66802">
        <ele>1298.88</ele>
        <time>2019-04-03T13:44:54Z</time>
      </trkpt>
      <trkpt lat="60.30012" lon="7.66769">
        <ele>1297.92</ele>
        <time>2019-04-03T13:44:56Z</time>
      </trkpt>
      <trkpt lat="60.30013" lon="7.66751">
        <ele>1296.96</ele>
        <time>2019-04-03T13:44:57Z</time>
      </trkpt>
      <trkpt lat="60.30012" lon="7.6669">
        <ele>1294.07</ele>
        <time>2019-04-03T13:45:01Z</time>
      </trkpt>
      <trkpt lat="60.30005" lon="7.66642">
        <ele>1292.63</ele>
        <time>2019-04-03T13:45:04Z</time>
      </trkpt>
      <trkpt lat="60.30004" lon="7.66605">
        <ele>1291.19</ele>
        <time>2019-04-03T13:45:06Z</time>
      </trkpt>
      <trkpt lat="60.30002" lon="7.66507">
        <ele>1287.82</ele>
        <time>2019-04-03T13:45:11Z</time>
      </trkpt>
      <trkpt lat="60.30004" lon="7.66401">
        <ele>1284.94</ele>
        <time>2019-04-03T13:45:17Z</time>
      </trkpt>
      <trkpt lat="60.30005" lon="7.66357">
        <ele>1284.46</ele>
        <time>2019-04-03T13:45:20Z</time>
      </trkpt>
      <trkpt lat="60.30014" lon="7.66263">
        <ele>1283.02</ele>
        <time>2019-04-03T13:45:27Z</time>
      </trkpt>
      <trkpt lat="60.30009" lon="7.66221">
        <ele>1281.57</ele>
        <time>2019-04-03T13:45:31Z</time>
      </trkpt>
      <trkpt lat="60.29997" lon="7.66207">
        <ele>1280.61</ele>
        <time>2019-04-03T13:45:33Z</time>
      </trkpt>
      <trkpt lat="60.29965" lon="7.66192">
        <ele>1279.17</ele>
        <time>2019-04-03T13:45:38Z</time>
      </trkpt>
      <trkpt lat="60.29943" lon="7.66148">
        <ele>1275.81</ele>
        <time>2019-04-03T13:45:44Z</time>
      </trkpt>
      <trkpt lat="60.29932" lon="7.66107">
        <ele>1272.92</ele>
        <time>2019-04-03T13:45:48Z</time>
      </trkpt>
      <trkpt lat="60.29919" lon="7.66091">
        <ele>1271</ele>
        <time>2019-04-03T13:45:50Z</time>
      </trkpt>
      <trkpt lat="60.29885" lon="7.66073">
        <ele>1265.23</ele>
        <time>2019-04-03T13:45:54Z</time>
      </trkpt>
      <trkpt lat="60.29866" lon="7.66071">
        <ele>1263.79</ele>
        <time>2019-04-03T13:45:56Z</time>
      </trkpt>
      <trkpt lat="60.2985" lon="7.66059">
        <ele>1262.35</ele>
        <time>2019-04-03T13:45:58Z</time>
      </trkpt>
      <trkpt lat="60.29845" lon="7.66033">
        <ele>1261.87</ele>
        <time>2019-04-03T13:46:00Z</time>
      </trkpt>
      <trkpt lat="60.29842" lon="7.65966">
        <ele>1259.94</ele>
        <time>2019-04-03T13:46:04Z</time>
      </trkpt>
      <trkpt lat="60.2985" lon="7.65873">
        <ele>1258.5</ele>
        <time>2019-04-03T13:46:10Z</time>
      </trkpt>
      <trkpt lat="60.2984" lon="7.65833">
        <ele>1256.1</ele>
        <time>2019-04-03T13:46:14Z</time>
      </trkpt>
      <trkpt lat="60.29833" lon="7.65825">
        <ele>1254.66</ele>
        <time>2019-04-03T13:46:15Z</time>
      </trkpt>
      <trkpt lat="60.29798" lon="7.65817">
        <ele>1248.41</ele>
        <time>2019-04-03T13:46:19Z</time>
      </trkpt>
      <trkpt lat="60.29781" lon="7.65795">
        <ele>1247.93</ele>
        <time>2019-04-03T13:46:22Z</time>
      </trkpt>
      <trkpt lat="60.29782" lon="7.65751">
        <ele>1247.45</ele>
        <time>2019-04-03T13:46:25Z</time>
      </trkpt>
      <trkpt lat="60.29796" lon="7.6568">
        <ele>1246.49</ele>
        <time>2019-04-03T13:46:30Z</time>
      </trkpt>
      <trkpt lat="60.29802" lon="7.65644">
        <ele>1246.01</ele>
        <time>2019-04-03T13:46:33Z</time>
      </trkpt>
      <trkpt lat="60.29805" lon="7.65636">
        <ele>1245.53</ele>
        <time>2019-04-03T13:46:34Z</time>
      </trkpt>
      <trkpt lat="60.29806" lon="7.65633">
        <ele>1245.04</ele>
        <time>2019-04-03T13:46:35Z</time>
      </trkpt>
      <trkpt lat="60.29808" lon="7.65621">
        <ele>1245.53</ele>
        <time>2019-04-03T13:46:43Z</time>
      </trkpt>
      <trkpt lat="60.29808" lon="7.656">
        <ele>1244.08</ele>
        <time>2019-04-03T13:46:53Z</time>
      </trkpt>
      <trkpt lat="60.29809" lon="7.65595">
        <ele>1244.08</ele>
        <time>2019-04-03T13:47:04Z</time>
      </trkpt>
      <trkpt lat="60.29809" lon="7.65593">
        <ele>1243.6</ele>
        <time>2019-04-03T13:47:23Z</time>
      </trkpt>
      <trkpt lat="60.2981" lon="7.65586">
        <ele>1243.6</ele>
        <time>2019-04-03T13:47:34Z</time>
      </trkpt>
      <trkpt lat="60.29816" lon="7.65566">
        <ele>1243.6</ele>
        <time>2019-04-03T13:47:43Z</time>
      </trkpt>
      <trkpt lat="60.29815" lon="7.65564">
        <ele>1243.6</ele>
        <time>2019-04-03T13:47:59Z</time>
      </trkpt>
      <trkpt lat="60.29814" lon="7.6556">
        <ele>1243.6</ele>
        <time>2019-04-03T13:48:07Z</time>
      </trkpt>
      <trkpt lat="60.29815" lon="7.65552">
        <ele>1243.6</ele>
        <time>2019-04-03T13:48:18Z</time>
      </trkpt>
      <trkpt lat="60.29815" lon="7.65551">
        <ele>1242.64</ele>
        <time>2019-04-03T13:48:21Z</time>
      </trkpt>
      <trkpt lat="60.29816" lon="7.65549">
        <ele>1242.64</ele>
        <time>2019-04-03T13:48:27Z</time>
      </trkpt>
      <trkpt lat="60.29826" lon="7.65524">
        <ele>1242.64</ele>
        <time>2019-04-03T13:48:33Z</time>
      </trkpt>
      <trkpt lat="60.2983" lon="7.65515">
        <ele>1242.64</ele>
        <time>2019-04-03T13:48:34Z</time>
      </trkpt>
      <trkpt lat="60.29835" lon="7.65508">
        <ele>1244.08</ele>
        <time>2019-04-03T13:48:35Z</time>
      </trkpt>
      <trkpt lat="60.29841" lon="7.65501">
        <ele>1244.08</ele>
        <time>2019-04-03T13:48:36Z</time>
      </trkpt>
      <trkpt lat="60.29852" lon="7.65489">
        <ele>1245.04</ele>
        <time>2019-04-03T13:48:38Z</time>
      </trkpt>
      <trkpt lat="60.29866" lon="7.65481">
        <ele>1245.53</ele>
        <time>2019-04-03T13:48:41Z</time>
      </trkpt>
      <trkpt lat="60.29868" lon="7.65475">
        <ele>1246.01</ele>
        <time>2019-04-03T13:48:42Z</time>
      </trkpt>
      <trkpt lat="60.29868" lon="7.65472">
        <ele>1244.56</ele>
        <time>2019-04-03T13:48:43Z</time>
      </trkpt>
      <trkpt lat="60.29864" lon="7.65479">
        <ele>1243.6</ele>
        <time>2019-04-03T13:48:45Z</time>
      </trkpt>
      <trkpt lat="60.29861" lon="7.65485">
        <ele>1243.12</ele>
        <time>2019-04-03T13:48:46Z</time>
      </trkpt>
      <trkpt lat="60.29859" lon="7.65493">
        <ele>1243.12</ele>
        <time>2019-04-03T13:48:47Z</time>
      </trkpt>
      <trkpt lat="60.29856" lon="7.65502">
        <ele>1242.64</ele>
        <time>2019-04-03T13:48:48Z</time>
      </trkpt>
      <trkpt lat="60.29853" lon="7.65511">
        <ele>1242.64</ele>
        <time>2019-04-03T13:48:49Z</time>
      </trkpt>
      <trkpt lat="60.29848" lon="7.65528">
        <ele>1245.04</ele>
        <time>2019-04-03T13:48:51Z</time>
      </trkpt>
      <trkpt lat="60.29843" lon="7.65545">
        <ele>1245.04</ele>
        <time>2019-04-03T13:48:53Z</time>
      </trkpt>
      <trkpt lat="60.29839" lon="7.65563">
        <ele>1243.12</ele>
        <time>2019-04-03T13:48:55Z</time>
      </trkpt>
      <trkpt lat="60.29834" lon="7.6558">
        <ele>1246.01</ele>
        <time>2019-04-03T13:48:57Z</time>
      </trkpt>
      <trkpt lat="60.29831" lon="7.6559">
        <ele>1244.56</ele>
        <time>2019-04-03T13:48:58Z</time>
      </trkpt>
      <trkpt lat="60.29821" lon="7.65621">
        <ele>1242.64</ele>
        <time>2019-04-03T13:49:01Z</time>
      </trkpt>
      <trkpt lat="60.29794" lon="7.65711">
        <ele>1245.04</ele>
        <time>2019-04-03T13:49:09Z</time>
      </trkpt>
      <trkpt lat="60.2979" lon="7.65724">
        <ele>1243.6</ele>
        <time>2019-04-03T13:49:10Z</time>
      </trkpt>
      <trkpt lat="60.29767" lon="7.65789">
        <ele>1241.68</ele>
        <time>2019-04-03T13:49:15Z</time>
      </trkpt>
      <trkpt lat="60.29752" lon="7.65822">
        <ele>1245.04</ele>
        <time>2019-04-03T13:49:18Z</time>
      </trkpt>
      <trkpt lat="60.29719" lon="7.65928">
        <ele>1248.41</ele>
        <time>2019-04-03T13:49:27Z</time>
      </trkpt>
      <trkpt lat="60.29702" lon="7.65982">
        <ele>1249.37</ele>
        <time>2019-04-03T13:49:32Z</time>
      </trkpt>
      <trkpt lat="60.29681" lon="7.66036">
        <ele>1251.77</ele>
        <time>2019-04-03T13:49:41Z</time>
      </trkpt>
      <trkpt lat="60.29678" lon="7.66042">
        <ele>1252.74</ele>
        <time>2019-04-03T13:49:48Z</time>
      </trkpt>
      <trkpt lat="60.29677" lon="7.66042">
        <ele>1252.74</ele>
        <time>2019-04-03T13:49:49Z</time>
      </trkpt>
      <trkpt lat="60.29667" lon="7.66047">
        <ele>1252.74</ele>
        <time>2019-04-03T13:49:55Z</time>
      </trkpt>
      <trkpt lat="60.29671" lon="7.66035">
        <ele>1253.7</ele>
        <time>2019-04-03T13:50:00Z</time>
      </trkpt>
      <trkpt lat="60.29683" lon="7.66026">
        <ele>1253.7</ele>
        <time>2019-04-03T13:50:03Z</time>
      </trkpt>
      <trkpt lat="60.29697" lon="7.66009">
        <ele>1253.7</ele>
        <time>2019-04-03T13:50:06Z</time>
      </trkpt>
      <trkpt lat="60.29761" lon="7.65929">
        <ele>1256.1</ele>
        <time>2019-04-03T13:50:15Z</time>
      </trkpt>
      <trkpt lat="60.29826" lon="7.65886">
        <ele>1256.1</ele>
        <time>2019-04-03T13:50:24Z</time>
      </trkpt>
      <trkpt lat="60.29865" lon="7.65852">
        <ele>1259.46</ele>
        <time>2019-04-03T13:50:31Z</time>
      </trkpt>
      <trkpt lat="60.2987" lon="7.65848">
        <ele>1260.43</ele>
        <time>2019-04-03T13:50:32Z</time>
      </trkpt>
      <trkpt lat="60.2988" lon="7.65837">
        <ele>1260.91</ele>
        <time>2019-04-03T13:50:34Z</time>
      </trkpt>
      <trkpt lat="60.2989" lon="7.65823">
        <ele>1262.83</ele>
        <time>2019-04-03T13:50:36Z</time>
      </trkpt>
      <trkpt lat="60.29923" lon="7.6578">
        <ele>1265.23</ele>
        <time>2019-04-03T13:50:41Z</time>
      </trkpt>
      <trkpt lat="60.29962" lon="7.65737">
        <ele>1268.6</ele>
        <time>2019-04-03T13:50:46Z</time>
      </trkpt>
      <trkpt lat="60.29971" lon="7.65729">
        <ele>1268.6</ele>
        <time>2019-04-03T13:50:47Z</time>
      </trkpt>
      <trkpt lat="60.3005" lon="7.65676">
        <ele>1269.08</ele>
        <time>2019-04-03T13:50:57Z</time>
      </trkpt>
      <trkpt lat="60.3008" lon="7.65656">
        <ele>1270.52</ele>
        <time>2019-04-03T13:51:01Z</time>
      </trkpt>
      <trkpt lat="60.30092" lon="7.65648">
        <ele>1270.52</ele>
        <time>2019-04-03T13:51:03Z</time>
      </trkpt>
      <trkpt lat="60.30094" lon="7.6564">
        <ele>1266.19</ele>
        <time>2019-04-03T13:51:05Z</time>
      </trkpt>
      <trkpt lat="60.30092" lon="7.65641">
        <ele>1266.19</ele>
        <time>2019-04-03T13:51:06Z</time>
      </trkpt>
      <trkpt lat="60.30088" lon="7.65645">
        <ele>1265.71</ele>
        <time>2019-04-03T13:51:07Z</time>
      </trkpt>
      <trkpt lat="60.30085" lon="7.65651">
        <ele>1265.71</ele>
        <time>2019-04-03T13:51:08Z</time>
      </trkpt>
      <trkpt lat="60.30082" lon="7.65659">
        <ele>1265.23</ele>
        <time>2019-04-03T13:51:09Z</time>
      </trkpt>
      <trkpt lat="60.30079" lon="7.65669">
        <ele>1264.75</ele>
        <time>2019-04-03T13:51:10Z</time>
      </trkpt>
      <trkpt lat="60.30069" lon="7.65706">
        <ele>1265.71</ele>
        <time>2019-04-03T13:51:14Z</time>
      </trkpt>
      <trkpt lat="60.30065" lon="7.65723">
        <ele>1266.67</ele>
        <time>2019-04-03T13:51:16Z</time>
      </trkpt>
      <trkpt lat="60.30053" lon="7.65765">
        <ele>1265.71</ele>
        <time>2019-04-03T13:51:21Z</time>
      </trkpt>
      <trkpt lat="60.30039" lon="7.65812">
        <ele>1269.56</ele>
        <time>2019-04-03T13:51:26Z</time>
      </trkpt>
      <trkpt lat="60.30034" lon="7.65832">
        <ele>1270.04</ele>
        <time>2019-04-03T13:51:28Z</time>
      </trkpt>
      <trkpt lat="60.3003" lon="7.65844">
        <ele>1268.6</ele>
        <time>2019-04-03T13:51:29Z</time>
      </trkpt>
      <trkpt lat="60.30023" lon="7.65873">
        <ele>1270.04</ele>
        <time>2019-04-03T13:51:32Z</time>
      </trkpt>
      <trkpt lat="60.30004" lon="7.65936">
        <ele>1271</ele>
        <time>2019-04-03T13:51:39Z</time>
      </trkpt>
      <trkpt lat="60.29989" lon="7.65971">
        <ele>1271</ele>
        <time>2019-04-03T13:51:43Z</time>
      </trkpt>
      <trkpt lat="60.29957" lon="7.66055">
        <ele>1271</ele>
        <time>2019-04-03T13:51:51Z</time>
      </trkpt>
      <trkpt lat="60.29947" lon="7.66085">
        <ele>1271</ele>
        <time>2019-04-03T13:51:54Z</time>
      </trkpt>
      <trkpt lat="60.29936" lon="7.66127">
        <ele>1271.48</ele>
        <time>2019-04-03T13:51:58Z</time>
      </trkpt>
      <trkpt lat="60.29897" lon="7.66229">
        <ele>1268.6</ele>
        <time>2019-04-03T13:52:08Z</time>
      </trkpt>
      <trkpt lat="60.29864" lon="7.66301">
        <ele>1269.08</ele>
        <time>2019-04-03T13:52:14Z</time>
      </trkpt>
      <trkpt lat="60.2983" lon="7.66395">
        <ele>1271.48</ele>
        <time>2019-04-03T13:52:22Z</time>
      </trkpt>
      <trkpt lat="60.29822" lon="7.66415">
        <ele>1271.48</ele>
        <time>2019-04-03T13:52:24Z</time>
      </trkpt>
      <trkpt lat="60.29805" lon="7.66453">
        <ele>1271.48</ele>
        <time>2019-04-03T13:52:28Z</time>
      </trkpt>
      <trkpt lat="60.2979" lon="7.66498">
        <ele>1273.88</ele>
        <time>2019-04-03T13:52:32Z</time>
      </trkpt>
      <trkpt lat="60.29763" lon="7.66576">
        <ele>1275.33</ele>
        <time>2019-04-03T13:52:39Z</time>
      </trkpt>
      <trkpt lat="60.29754" lon="7.66609">
        <ele>1277.73</ele>
        <time>2019-04-03T13:52:42Z</time>
      </trkpt>
      <trkpt lat="60.29743" lon="7.66641">
        <ele>1277.73</ele>
        <time>2019-04-03T13:52:45Z</time>
      </trkpt>
      <trkpt lat="60.29735" lon="7.66671">
        <ele>1279.65</ele>
        <time>2019-04-03T13:52:49Z</time>
      </trkpt>
      <trkpt lat="60.29745" lon="7.66643">
        <ele>1282.06</ele>
        <time>2019-04-03T13:52:53Z</time>
      </trkpt>
      <trkpt lat="60.29757" lon="7.66633">
        <ele>1281.57</ele>
        <time>2019-04-03T13:52:55Z</time>
      </trkpt>
      <trkpt lat="60.29777" lon="7.66623">
        <ele>1283.98</ele>
        <time>2019-04-03T13:52:58Z</time>
      </trkpt>
      <trkpt lat="60.2985" lon="7.66584">
        <ele>1284.94</ele>
        <time>2019-04-03T13:53:08Z</time>
      </trkpt>
      <trkpt lat="60.29918" lon="7.66564">
        <ele>1287.34</ele>
        <time>2019-04-03T13:53:19Z</time>
      </trkpt>
      <trkpt lat="60.29923" lon="7.66563">
        <ele>1287.34</ele>
        <time>2019-04-03T13:53:20Z</time>
      </trkpt>
      <trkpt lat="60.29974" lon="7.66548">
        <ele>1287.82</ele>
        <time>2019-04-03T13:53:30Z</time>
      </trkpt>
      <trkpt lat="60.30013" lon="7.66504">
        <ele>1287.82</ele>
        <time>2019-04-03T13:53:37Z</time>
      </trkpt>
      <trkpt lat="60.30049" lon="7.66471">
        <ele>1288.78</ele>
        <time>2019-04-03T13:53:42Z</time>
      </trkpt>
      <trkpt lat="60.30094" lon="7.66454">
        <ele>1289.27</ele>
        <time>2019-04-03T13:53:49Z</time>
      </trkpt>
      <trkpt lat="60.30119" lon="7.66443">
        <ele>1291.19</ele>
        <time>2019-04-03T13:53:53Z</time>
      </trkpt>
      <trkpt lat="60.30171" lon="7.6641">
        <ele>1294.07</ele>
        <time>2019-04-03T13:54:01Z</time>
      </trkpt>
      <trkpt lat="60.30182" lon="7.66404">
        <ele>1294.55</ele>
        <time>2019-04-03T13:54:03Z</time>
      </trkpt>
      <trkpt lat="60.30187" lon="7.66402">
        <ele>1295.03</ele>
        <time>2019-04-03T13:54:04Z</time>
      </trkpt>
      <trkpt lat="60.30213" lon="7.66385">
        <ele>1297.92</ele>
        <time>2019-04-03T13:54:09Z</time>
      </trkpt>
      <trkpt lat="60.30224" lon="7.66379">
        <ele>1298.4</ele>
        <time>2019-04-03T13:54:11Z</time>
      </trkpt>
      <trkpt lat="60.30229" lon="7.66376">
        <ele>1297.44</ele>
        <time>2019-04-03T13:54:16Z</time>
      </trkpt>
      <trkpt lat="60.30221" lon="7.66387">
        <ele>1294.07</ele>
        <time>2019-04-03T13:54:18Z</time>
      </trkpt>
      <trkpt lat="60.30218" lon="7.66395">
        <ele>1294.07</ele>
        <time>2019-04-03T13:54:19Z</time>
      </trkpt>
      <trkpt lat="60.30213" lon="7.66414">
        <ele>1295.51</ele>
        <time>2019-04-03T13:54:21Z</time>
      </trkpt>
      <trkpt lat="60.30209" lon="7.66432">
        <ele>1295.51</ele>
        <time>2019-04-03T13:54:23Z</time>
      </trkpt>
      <trkpt lat="60.30201" lon="7.66471">
        <ele>1292.63</ele>
        <time>2019-04-03T13:54:27Z</time>
      </trkpt>
      <trkpt lat="60.30187" lon="7.66528">
        <ele>1295.03</ele>
        <time>2019-04-03T13:54:32Z</time>
      </trkpt>
      <trkpt lat="60.30173" lon="7.66579">
        <ele>1293.11</ele>
        <time>2019-04-03T13:54:36Z</time>
      </trkpt>
      <trkpt lat="60.30156" lon="7.66646">
        <ele>1295.03</ele>
        <time>2019-04-03T13:54:41Z</time>
      </trkpt>
      <trkpt lat="60.30149" lon="7.66672">
        <ele>1293.59</ele>
        <time>2019-04-03T13:54:43Z</time>
      </trkpt>
      <trkpt lat="60.30128" lon="7.66752">
        <ele>1290.23</ele>
        <time>2019-04-03T13:54:49Z</time>
      </trkpt>
      <trkpt lat="60.30125" lon="7.66764">
        <ele>1293.59</ele>
        <time>2019-04-03T13:54:50Z</time>
      </trkpt>
      <trkpt lat="60.30122" lon="7.66776">
        <ele>1293.59</ele>
        <time>2019-04-03T13:54:51Z</time>
      </trkpt>
      <trkpt lat="60.30107" lon="7.66849">
        <ele>1295.03</ele>
        <time>2019-04-03T13:54:58Z</time>
      </trkpt>
      <trkpt lat="60.30102" lon="7.66879">
        <ele>1297.44</ele>
        <time>2019-04-03T13:55:01Z</time>
      </trkpt>
      <trkpt lat="60.30083" lon="7.66981">
        <ele>1297.92</ele>
        <time>2019-04-03T13:55:11Z</time>
      </trkpt>
      <trkpt lat="60.30078" lon="7.67002">
        <ele>1300.32</ele>
        <time>2019-04-03T13:55:13Z</time>
      </trkpt>
      <trkpt lat="60.30069" lon="7.67096">
        <ele>1301.76</ele>
        <time>2019-04-03T13:55:23Z</time>
      </trkpt>
      <trkpt lat="60.30064" lon="7.67179">
        <ele>1302.72</ele>
        <time>2019-04-03T13:55:33Z</time>
      </trkpt>
      <trkpt lat="60.30062" lon="7.67218">
        <ele>1303.69</ele>
        <time>2019-04-03T13:55:37Z</time>
      </trkpt>
      <trkpt lat="60.30055" lon="7.67285">
        <ele>1305.13</ele>
        <time>2019-04-03T13:55:44Z</time>
      </trkpt>
      <trkpt lat="60.30049" lon="7.67348">
        <ele>1307.05</ele>
        <time>2019-04-03T13:55:50Z</time>
      </trkpt>
      <trkpt lat="60.30043" lon="7.67389">
        <ele>1308.49</ele>
        <time>2019-04-03T13:55:54Z</time>
      </trkpt>
      <trkpt lat="60.30043" lon="7.67397">
        <ele>1308.97</ele>
        <time>2019-04-03T13:55:55Z</time>
      </trkpt>
      <trkpt lat="60.30041" lon="7.67401">
        <ele>1309.93</ele>
        <time>2019-04-03T13:55:58Z</time>
      </trkpt>
      <trkpt lat="60.30051" lon="7.67388">
        <ele>1312.34</ele>
        <time>2019-04-03T13:56:01Z</time>
      </trkpt>
      <trkpt lat="60.3011" lon="7.67341">
        <ele>1312.82</ele>
        <time>2019-04-03T13:56:11Z</time>
      </trkpt>
      <trkpt lat="60.30186" lon="7.67298">
        <ele>1314.26</ele>
        <time>2019-04-03T13:56:23Z</time>
      </trkpt>
      <trkpt lat="60.30239" lon="7.6725">
        <ele>1314.26</ele>
        <time>2019-04-03T13:56:31Z</time>
      </trkpt>
      <trkpt lat="60.30267" lon="7.67221">
        <ele>1314.26</ele>
        <time>2019-04-03T13:56:35Z</time>
      </trkpt>
      <trkpt lat="60.30299" lon="7.67196">
        <ele>1315.7</ele>
        <time>2019-04-03T13:56:40Z</time>
      </trkpt>
      <trkpt lat="60.30304" lon="7.67191">
        <ele>1314.26</ele>
        <time>2019-04-03T13:56:45Z</time>
      </trkpt>
      <trkpt lat="60.30296" lon="7.67212">
        <ele>1310.41</ele>
        <time>2019-04-03T13:56:48Z</time>
      </trkpt>
      <trkpt lat="60.3029" lon="7.67252">
        <ele>1311.38</ele>
        <time>2019-04-03T13:56:52Z</time>
      </trkpt>
      <trkpt lat="60.30288" lon="7.67271">
        <ele>1309.45</ele>
        <time>2019-04-03T13:56:54Z</time>
      </trkpt>
      <trkpt lat="60.30286" lon="7.67291">
        <ele>1312.82</ele>
        <time>2019-04-03T13:56:57Z</time>
      </trkpt>
      <trkpt lat="60.30284" lon="7.67302">
        <ele>1313.3</ele>
        <time>2019-04-03T13:56:59Z</time>
      </trkpt>
      <trkpt lat="60.30283" lon="7.67308">
        <ele>1312.34</ele>
        <time>2019-04-03T13:57:00Z</time>
      </trkpt>
      <trkpt lat="60.30272" lon="7.6734">
        <ele>1315.7</ele>
        <time>2019-04-03T13:57:07Z</time>
      </trkpt>
      <trkpt lat="60.3026" lon="7.67377">
        <ele>1313.3</ele>
        <time>2019-04-03T13:57:13Z</time>
      </trkpt>
      <trkpt lat="60.30251" lon="7.67417">
        <ele>1313.3</ele>
        <time>2019-04-03T13:57:17Z</time>
      </trkpt>
      <trkpt lat="60.30244" lon="7.67454">
        <ele>1312.82</ele>
        <time>2019-04-03T13:57:21Z</time>
      </trkpt>
      <trkpt lat="60.30238" lon="7.67482">
        <ele>1315.22</ele>
        <time>2019-04-03T13:57:24Z</time>
      </trkpt>
      <trkpt lat="60.30233" lon="7.67497">
        <ele>1315.22</ele>
        <time>2019-04-03T13:57:26Z</time>
      </trkpt>
      <trkpt lat="60.30215" lon="7.67544">
        <ele>1317.62</ele>
        <time>2019-04-03T13:57:34Z</time>
      </trkpt>
      <trkpt lat="60.30234" lon="7.67537">
        <ele>1318.59</ele>
        <time>2019-04-03T13:57:41Z</time>
      </trkpt>
      <trkpt lat="60.30238" lon="7.67535">
        <ele>1318.59</ele>
        <time>2019-04-03T13:57:42Z</time>
      </trkpt>
      <trkpt lat="60.3026" lon="7.67532">
        <ele>1319.55</ele>
        <time>2019-04-03T13:57:47Z</time>
      </trkpt>
      <trkpt lat="60.30283" lon="7.67535">
        <ele>1319.55</ele>
        <time>2019-04-03T13:57:53Z</time>
      </trkpt>
      <trkpt lat="60.30304" lon="7.67527">
        <ele>1319.55</ele>
        <time>2019-04-03T13:58:01Z</time>
      </trkpt>
      <trkpt lat="60.30307" lon="7.67524">
        <ele>1319.55</ele>
        <time>2019-04-03T13:58:02Z</time>
      </trkpt>
      <trkpt lat="60.30344" lon="7.67513">
        <ele>1320.99</ele>
        <time>2019-04-03T13:58:10Z</time>
      </trkpt>
      <trkpt lat="60.30364" lon="7.67512">
        <ele>1320.99</ele>
        <time>2019-04-03T13:58:14Z</time>
      </trkpt>
      <trkpt lat="60.30399" lon="7.67502">
        <ele>1321.47</ele>
        <time>2019-04-03T13:58:21Z</time>
      </trkpt>
      <trkpt lat="60.30425" lon="7.67496">
        <ele>1323.39</ele>
        <time>2019-04-03T13:58:26Z</time>
      </trkpt>
      <trkpt lat="60.30437" lon="7.67498">
        <ele>1323.39</ele>
        <time>2019-04-03T13:58:29Z</time>
      </trkpt>
      <trkpt lat="60.30441" lon="7.67498">
        <ele>1323.39</ele>
        <time>2019-04-03T13:58:31Z</time>
      </trkpt>
      <trkpt lat="60.30433" lon="7.67505">
        <ele>1320.03</ele>
        <time>2019-04-03T13:58:34Z</time>
      </trkpt>
      <trkpt lat="60.3043" lon="7.67522">
        <ele>1318.59</ele>
        <time>2019-04-03T13:58:36Z</time>
      </trkpt>
      <trkpt lat="60.30428" lon="7.6754">
        <ele>1318.59</ele>
        <time>2019-04-03T13:58:38Z</time>
      </trkpt>
      <trkpt lat="60.30422" lon="7.67585">
        <ele>1317.62</ele>
        <time>2019-04-03T13:58:43Z</time>
      </trkpt>
      <trkpt lat="60.30419" lon="7.676">
        <ele>1318.59</ele>
        <time>2019-04-03T13:58:45Z</time>
      </trkpt>
      <trkpt lat="60.30415" lon="7.67625">
        <ele>1317.14</ele>
        <time>2019-04-03T13:58:48Z</time>
      </trkpt>
      <trkpt lat="60.30413" lon="7.67648">
        <ele>1318.1</ele>
        <time>2019-04-03T13:58:51Z</time>
      </trkpt>
      <trkpt lat="60.30409" lon="7.67704">
        <ele>1320.03</ele>
        <time>2019-04-03T13:59:00Z</time>
      </trkpt>
      <trkpt lat="60.30395" lon="7.6775">
        <ele>1320.99</ele>
        <time>2019-04-03T13:59:08Z</time>
      </trkpt>
      <trkpt lat="60.30387" lon="7.67774">
        <ele>1319.07</ele>
        <time>2019-04-03T13:59:11Z</time>
      </trkpt>
      <trkpt lat="60.30378" lon="7.67798">
        <ele>1320.51</ele>
        <time>2019-04-03T13:59:14Z</time>
      </trkpt>
      <trkpt lat="60.30373" lon="7.67816">
        <ele>1320.51</ele>
        <time>2019-04-03T13:59:16Z</time>
      </trkpt>
      <trkpt lat="60.30367" lon="7.67835">
        <ele>1320.99</ele>
        <time>2019-04-03T13:59:18Z</time>
      </trkpt>
      <trkpt lat="60.30359" lon="7.67896">
        <ele>1322.43</ele>
        <time>2019-04-03T13:59:26Z</time>
      </trkpt>
      <trkpt lat="60.30358" lon="7.67901">
        <ele>1323.39</ele>
        <time>2019-04-03T13:59:27Z</time>
      </trkpt>
      <trkpt lat="60.30364" lon="7.67895">
        <ele>1324.83</ele>
        <time>2019-04-03T13:59:32Z</time>
      </trkpt>
      <trkpt lat="60.30376" lon="7.67896">
        <ele>1324.83</ele>
        <time>2019-04-03T13:59:35Z</time>
      </trkpt>
      <trkpt lat="60.30403" lon="7.67892">
        <ele>1325.31</ele>
        <time>2019-04-03T13:59:42Z</time>
      </trkpt>
      <trkpt lat="60.3045" lon="7.67895">
        <ele>1324.83</ele>
        <time>2019-04-03T13:59:52Z</time>
      </trkpt>
      <trkpt lat="60.30482" lon="7.67898">
        <ele>1324.83</ele>
        <time>2019-04-03T13:59:59Z</time>
      </trkpt>
      <trkpt lat="60.30499" lon="7.67898">
        <ele>1323.39</ele>
        <time>2019-04-03T14:00:03Z</time>
      </trkpt>
      <trkpt lat="60.30506" lon="7.67894">
        <ele>1323.39</ele>
        <time>2019-04-03T14:00:05Z</time>
      </trkpt>
      <trkpt lat="60.30527" lon="7.67894">
        <ele>1324.35</ele>
        <time>2019-04-03T14:00:10Z</time>
      </trkpt>
      <trkpt lat="60.30555" lon="7.67899">
        <ele>1324.35</ele>
        <time>2019-04-03T14:00:17Z</time>
      </trkpt>
      <trkpt lat="60.30577" lon="7.67879">
        <ele>1323.87</ele>
        <time>2019-04-03T14:00:23Z</time>
      </trkpt>
      <trkpt lat="60.30594" lon="7.67879">
        <ele>1321.95</ele>
        <time>2019-04-03T14:00:28Z</time>
      </trkpt>
      <trkpt lat="60.30588" lon="7.67889">
        <ele>1320.03</ele>
        <time>2019-04-03T14:00:32Z</time>
      </trkpt>
      <trkpt lat="60.30573" lon="7.67927">
        <ele>1321.47</ele>
        <time>2019-04-03T14:00:43Z</time>
      </trkpt>
      <trkpt lat="60.3057" lon="7.67945">
        <ele>1320.03</ele>
        <time>2019-04-03T14:00:49Z</time>
      </trkpt>
      <trkpt lat="60.30568" lon="7.67958">
        <ele>1321.47</ele>
        <time>2019-04-03T14:00:57Z</time>
      </trkpt>
      <trkpt lat="60.30566" lon="7.6796">
        <ele>1321.47</ele>
        <time>2019-04-03T14:01:00Z</time>
      </trkpt>
      <trkpt lat="60.3056" lon="7.67968">
        <ele>1321.95</ele>
        <time>2019-04-03T14:01:06Z</time>
      </trkpt>
      <trkpt lat="60.30552" lon="7.67987">
        <ele>1321.47</ele>
        <time>2019-04-03T14:01:11Z</time>
      </trkpt>
      <trkpt lat="60.30547" lon="7.68014">
        <ele>1320.03</ele>
        <time>2019-04-03T14:01:15Z</time>
      </trkpt>
      <trkpt lat="60.30546" lon="7.68023">
        <ele>1321.95</ele>
        <time>2019-04-03T14:01:17Z</time>
      </trkpt>
      <trkpt lat="60.30534" lon="7.68048">
        <ele>1322.43</ele>
        <time>2019-04-03T14:01:23Z</time>
      </trkpt>
      <trkpt lat="60.30533" lon="7.68055">
        <ele>1322.43</ele>
        <time>2019-04-03T14:01:24Z</time>
      </trkpt>
      <trkpt lat="60.30533" lon="7.68082">
        <ele>1322.43</ele>
        <time>2019-04-03T14:01:31Z</time>
      </trkpt>
      <trkpt lat="60.30534" lon="7.68077">
        <ele>1322.43</ele>
        <time>2019-04-03T14:01:35Z</time>
      </trkpt>
      <trkpt lat="60.30546" lon="7.68041">
        <ele>1323.87</ele>
        <time>2019-04-03T14:01:42Z</time>
      </trkpt>
      <trkpt lat="60.30562" lon="7.68022">
        <ele>1323.87</ele>
        <time>2019-04-03T14:01:45Z</time>
      </trkpt>
      <trkpt lat="60.3059" lon="7.68014">
        <ele>1323.87</ele>
        <time>2019-04-03T14:01:50Z</time>
      </trkpt>
      <trkpt lat="60.306" lon="7.68014">
        <ele>1323.87</ele>
        <time>2019-04-03T14:01:52Z</time>
      </trkpt>
      <trkpt lat="60.30616" lon="7.68016">
        <ele>1322.43</ele>
        <time>2019-04-03T14:01:55Z</time>
      </trkpt>
      <trkpt lat="60.3063" lon="7.68014">
        <ele>1322.43</ele>
        <time>2019-04-03T14:01:58Z</time>
      </trkpt>
      <trkpt lat="60.3064" lon="7.68014">
        <ele>1321.47</ele>
        <time>2019-04-03T14:02:00Z</time>
      </trkpt>
      <trkpt lat="60.30696" lon="7.6802">
        <ele>1321.47</ele>
        <time>2019-04-03T14:02:12Z</time>
      </trkpt>
      <trkpt lat="60.30698" lon="7.68022">
        <ele>1321.47</ele>
        <time>2019-04-03T14:02:13Z</time>
      </trkpt>
      <trkpt lat="60.30695" lon="7.68022">
        <ele>1320.03</ele>
        <time>2019-04-03T14:02:17Z</time>
      </trkpt>
      <trkpt lat="60.3069" lon="7.68036">
        <ele>1318.59</ele>
        <time>2019-04-03T14:02:19Z</time>
      </trkpt>
      <trkpt lat="60.30687" lon="7.68043">
        <ele>1318.59</ele>
        <time>2019-04-03T14:02:20Z</time>
      </trkpt>
      <trkpt lat="60.30679" lon="7.68066">
        <ele>1319.55</ele>
        <time>2019-04-03T14:02:23Z</time>
      </trkpt>
      <trkpt lat="60.30671" lon="7.68095">
        <ele>1316.66</ele>
        <time>2019-04-03T14:02:26Z</time>
      </trkpt>
      <trkpt lat="60.30669" lon="7.68112">
        <ele>1319.07</ele>
        <time>2019-04-03T14:02:28Z</time>
      </trkpt>
      <trkpt lat="60.30667" lon="7.68127">
        <ele>1317.14</ele>
        <time>2019-04-03T14:02:30Z</time>
      </trkpt>
      <trkpt lat="60.30659" lon="7.68178">
        <ele>1319.07</ele>
        <time>2019-04-03T14:02:39Z</time>
      </trkpt>
      <trkpt lat="60.30657" lon="7.68182">
        <ele>1319.07</ele>
        <time>2019-04-03T14:02:40Z</time>
      </trkpt>
      <trkpt lat="60.30653" lon="7.68204">
        <ele>1319.07</ele>
        <time>2019-04-03T14:02:45Z</time>
      </trkpt>
      <trkpt lat="60.30645" lon="7.68225">
        <ele>1317.62</ele>
        <time>2019-04-03T14:02:52Z</time>
      </trkpt>
      <trkpt lat="60.3063" lon="7.68248">
        <ele>1317.62</ele>
        <time>2019-04-03T14:02:57Z</time>
      </trkpt>
      <trkpt lat="60.3063" lon="7.68252">
        <ele>1317.62</ele>
        <time>2019-04-03T14:03:01Z</time>
      </trkpt>
      <trkpt lat="60.30637" lon="7.68248">
        <ele>1319.07</ele>
        <time>2019-04-03T14:03:03Z</time>
      </trkpt>
      <trkpt lat="60.30655" lon="7.68236">
        <ele>1319.55</ele>
        <time>2019-04-03T14:03:09Z</time>
      </trkpt>
      <trkpt lat="60.30665" lon="7.6823">
        <ele>1320.03</ele>
        <time>2019-04-03T14:03:11Z</time>
      </trkpt>
      <trkpt lat="60.30681" lon="7.68224">
        <ele>1320.51</ele>
        <time>2019-04-03T14:03:14Z</time>
      </trkpt>
      <trkpt lat="60.30707" lon="7.68221">
        <ele>1320.99</ele>
        <time>2019-04-03T14:03:19Z</time>
      </trkpt>
      <trkpt lat="60.30726" lon="7.68227">
        <ele>1320.99</ele>
        <time>2019-04-03T14:03:23Z</time>
      </trkpt>
      <trkpt lat="60.30754" lon="7.68237">
        <ele>1320.99</ele>
        <time>2019-04-03T14:03:31Z</time>
      </trkpt>
      <trkpt lat="60.30779" lon="7.68247">
        <ele>1320.99</ele>
        <time>2019-04-03T14:03:38Z</time>
      </trkpt>
      <trkpt lat="60.30793" lon="7.6826">
        <ele>1319.55</ele>
        <time>2019-04-03T14:03:42Z</time>
      </trkpt>
      <trkpt lat="60.30817" lon="7.68295">
        <ele>1316.66</ele>
        <time>2019-04-03T14:03:51Z</time>
      </trkpt>
      <trkpt lat="60.30827" lon="7.68303">
        <ele>1315.22</ele>
        <time>2019-04-03T14:03:59Z</time>
      </trkpt>
      <trkpt lat="60.30821" lon="7.68311">
        <ele>1313.78</ele>
        <time>2019-04-03T14:04:03Z</time>
      </trkpt>
      <trkpt lat="60.30813" lon="7.68328">
        <ele>1314.74</ele>
        <time>2019-04-03T14:04:08Z</time>
      </trkpt>
      <trkpt lat="60.30807" lon="7.68351">
        <ele>1315.22</ele>
        <time>2019-04-03T14:04:14Z</time>
      </trkpt>
      <trkpt lat="60.30805" lon="7.68354">
        <ele>1316.66</ele>
        <time>2019-04-03T14:04:16Z</time>
      </trkpt>
      <trkpt lat="60.30803" lon="7.68365">
        <ele>1315.22</ele>
        <time>2019-04-03T14:04:19Z</time>
      </trkpt>
      <trkpt lat="60.30803" lon="7.68382">
        <ele>1315.22</ele>
        <time>2019-04-03T14:04:24Z</time>
      </trkpt>
      <trkpt lat="60.30801" lon="7.68395">
        <ele>1315.22</ele>
        <time>2019-04-03T14:04:30Z</time>
      </trkpt>
      <trkpt lat="60.30796" lon="7.68411">
        <ele>1316.18</ele>
        <time>2019-04-03T14:04:37Z</time>
      </trkpt>
      <trkpt lat="60.30795" lon="7.68413">
        <ele>1316.66</ele>
        <time>2019-04-03T14:04:43Z</time>
      </trkpt>
      <trkpt lat="60.30811" lon="7.68381">
        <ele>1316.66</ele>
        <time>2019-04-03T14:04:49Z</time>
      </trkpt>
      <trkpt lat="60.30824" lon="7.68368">
        <ele>1316.66</ele>
        <time>2019-04-03T14:04:53Z</time>
      </trkpt>
      <trkpt lat="60.30847" lon="7.68369">
        <ele>1317.14</ele>
        <time>2019-04-03T14:04:58Z</time>
      </trkpt>
      <trkpt lat="60.30864" lon="7.68385">
        <ele>1315.7</ele>
        <time>2019-04-03T14:05:02Z</time>
      </trkpt>
      <trkpt lat="60.30868" lon="7.6839">
        <ele>1315.7</ele>
        <time>2019-04-03T14:05:03Z</time>
      </trkpt>
      <trkpt lat="60.30892" lon="7.68423">
        <ele>1312.82</ele>
        <time>2019-04-03T14:05:14Z</time>
      </trkpt>
      <trkpt lat="60.30893" lon="7.68423">
        <ele>1312.82</ele>
        <time>2019-04-03T14:05:16Z</time>
      </trkpt>
      <trkpt lat="60.30884" lon="7.68434">
        <ele>1311.86</ele>
        <time>2019-04-03T14:05:22Z</time>
      </trkpt>
      <trkpt lat="60.30878" lon="7.68439">
        <ele>1313.3</ele>
        <time>2019-04-03T14:05:25Z</time>
      </trkpt>
      <trkpt lat="60.30869" lon="7.68449">
        <ele>1313.3</ele>
        <time>2019-04-03T14:05:28Z</time>
      </trkpt>
      <trkpt lat="60.30863" lon="7.68466">
        <ele>1311.38</ele>
        <time>2019-04-03T14:05:31Z</time>
      </trkpt>
      <trkpt lat="60.30853" lon="7.68501">
        <ele>1312.34</ele>
        <time>2019-04-03T14:05:37Z</time>
      </trkpt>
      <trkpt lat="60.30846" lon="7.68532">
        <ele>1310.9</ele>
        <time>2019-04-03T14:05:45Z</time>
      </trkpt>
      <trkpt lat="60.30845" lon="7.68536">
        <ele>1312.34</ele>
        <time>2019-04-03T14:05:47Z</time>
      </trkpt>
      <trkpt lat="60.30843" lon="7.68551">
        <ele>1310.41</ele>
        <time>2019-04-03T14:05:51Z</time>
      </trkpt>
      <trkpt lat="60.30842" lon="7.68554">
        <ele>1310.41</ele>
        <time>2019-04-03T14:05:52Z</time>
      </trkpt>
      <trkpt lat="60.3084" lon="7.68556">
        <ele>1312.34</ele>
        <time>2019-04-03T14:05:55Z</time>
      </trkpt>
      <trkpt lat="60.30854" lon="7.68547">
        <ele>1313.3</ele>
        <time>2019-04-03T14:06:00Z</time>
      </trkpt>
      <trkpt lat="60.30876" lon="7.68551">
        <ele>1312.34</ele>
        <time>2019-04-03T14:06:06Z</time>
      </trkpt>
      <trkpt lat="60.30897" lon="7.68568">
        <ele>1310.9</ele>
        <time>2019-04-03T14:06:16Z</time>
      </trkpt>
      <trkpt lat="60.30898" lon="7.68569">
        <ele>1310.9</ele>
        <time>2019-04-03T14:06:21Z</time>
      </trkpt>
      <trkpt lat="60.30903" lon="7.68569">
        <ele>1310.9</ele>
        <time>2019-04-03T14:06:25Z</time>
      </trkpt>
      <trkpt lat="60.30909" lon="7.68574">
        <ele>1310.9</ele>
        <time>2019-04-03T14:06:35Z</time>
      </trkpt>
      <trkpt lat="60.309" lon="7.6858">
        <ele>1310.41</ele>
        <time>2019-04-03T14:06:39Z</time>
      </trkpt>
      <trkpt lat="60.30883" lon="7.686">
        <ele>1310.9</ele>
        <time>2019-04-03T14:06:48Z</time>
      </trkpt>
      <trkpt lat="60.30877" lon="7.68615">
        <ele>1310.9</ele>
        <time>2019-04-03T14:06:52Z</time>
      </trkpt>
      <trkpt lat="60.30889" lon="7.68606">
        <ele>1312.34</ele>
        <time>2019-04-03T14:06:58Z</time>
      </trkpt>
      <trkpt lat="60.30893" lon="7.68607">
        <ele>1312.34</ele>
        <time>2019-04-03T14:06:59Z</time>
      </trkpt>
      <trkpt lat="60.30921" lon="7.68615">
        <ele>1312.34</ele>
        <time>2019-04-03T14:07:10Z</time>
      </trkpt>
      <trkpt lat="60.30922" lon="7.68616">
        <ele>1310.9</ele>
        <time>2019-04-03T14:07:12Z</time>
      </trkpt>
      <trkpt lat="60.30921" lon="7.68617">
        <ele>1310.9</ele>
        <time>2019-04-03T14:07:18Z</time>
      </trkpt>
      <trkpt lat="60.30938" lon="7.68624">
        <ele>1310.9</ele>
        <time>2019-04-03T14:07:26Z</time>
      </trkpt>
      <trkpt lat="60.3094" lon="7.68625">
        <ele>1310.41</ele>
        <time>2019-04-03T14:07:27Z</time>
      </trkpt>
      <trkpt lat="60.30953" lon="7.68618">
        <ele>1311.38</ele>
        <time>2019-04-03T14:07:32Z</time>
      </trkpt>
      <trkpt lat="60.30989" lon="7.68636">
        <ele>1309.93</ele>
        <time>2019-04-03T14:07:43Z</time>
      </trkpt>
      <trkpt lat="60.30993" lon="7.68636">
        <ele>1309.45</ele>
        <time>2019-04-03T14:07:46Z</time>
      </trkpt>
      <trkpt lat="60.31001" lon="7.68645">
        <ele>1308.97</ele>
        <time>2019-04-03T14:07:54Z</time>
      </trkpt>
      <trkpt lat="60.30994" lon="7.68646">
        <ele>1308.49</ele>
        <time>2019-04-03T14:07:58Z</time>
      </trkpt>
      <trkpt lat="60.30982" lon="7.68673">
        <ele>1308.97</ele>
        <time>2019-04-03T14:08:04Z</time>
      </trkpt>
      <trkpt lat="60.30971" lon="7.68684">
        <ele>1309.45</ele>
        <time>2019-04-03T14:08:09Z</time>
      </trkpt>
      <trkpt lat="60.30964" lon="7.68696">
        <ele>1308.01</ele>
        <time>2019-04-03T14:08:12Z</time>
      </trkpt>
      <trkpt lat="60.30956" lon="7.68709">
        <ele>1309.45</ele>
        <time>2019-04-03T14:08:16Z</time>
      </trkpt>
      <trkpt lat="60.30953" lon="7.68725">
        <ele>1309.93</ele>
        <time>2019-04-03T14:08:20Z</time>
      </trkpt>
      <trkpt lat="60.30942" lon="7.68735">
        <ele>1309.93</ele>
        <time>2019-04-03T14:08:27Z</time>
      </trkpt>
      <trkpt lat="60.30941" lon="7.68733">
        <ele>1310.41</ele>
        <time>2019-04-03T14:08:29Z</time>
      </trkpt>
      <trkpt lat="60.30955" lon="7.68733">
        <ele>1310.9</ele>
        <time>2019-04-03T14:08:37Z</time>
      </trkpt>
      <trkpt lat="60.30955" lon="7.68735">
        <ele>1310.9</ele>
        <time>2019-04-03T14:08:46Z</time>
      </trkpt>
      <trkpt lat="60.30956" lon="7.68735">
        <ele>1309.45</ele>
        <time>2019-04-03T14:08:55Z</time>
      </trkpt>
      <trkpt lat="60.30956" lon="7.68735">
        <ele>1309.45</ele>
        <time>2019-04-03T14:08:59Z</time>
      </trkpt>
      <trkpt lat="60.3097" lon="7.68737">
        <ele>1309.45</ele>
        <time>2019-04-03T14:09:07Z</time>
      </trkpt>
      <trkpt lat="60.30974" lon="7.68738">
        <ele>1309.45</ele>
        <time>2019-04-03T14:09:16Z</time>
      </trkpt>
      <trkpt lat="60.30979" lon="7.6874">
        <ele>1309.45</ele>
        <time>2019-04-03T14:09:23Z</time>
      </trkpt>
      <trkpt lat="60.30972" lon="7.68747">
        <ele>1308.49</ele>
        <time>2019-04-03T14:09:27Z</time>
      </trkpt>
      <trkpt lat="60.30965" lon="7.68782">
        <ele>1309.45</ele>
        <time>2019-04-03T14:09:36Z</time>
      </trkpt>
      <trkpt lat="60.30966" lon="7.68781">
        <ele>1309.93</ele>
        <time>2019-04-03T14:09:38Z</time>
      </trkpt>
      <trkpt lat="60.30973" lon="7.68773">
        <ele>1309.93</ele>
        <time>2019-04-03T14:09:42Z</time>
      </trkpt>
      <trkpt lat="60.30998" lon="7.68779">
        <ele>1309.93</ele>
        <time>2019-04-03T14:09:52Z</time>
      </trkpt>
      <trkpt lat="60.31002" lon="7.6878">
        <ele>1308.97</ele>
        <time>2019-04-03T14:10:01Z</time>
      </trkpt>
      <trkpt lat="60.31003" lon="7.68782">
        <ele>1308.97</ele>
        <time>2019-04-03T14:10:12Z</time>
      </trkpt>
      <trkpt lat="60.31003" lon="7.68783">
        <ele>1308.97</ele>
        <time>2019-04-03T14:10:17Z</time>
      </trkpt>
      <trkpt lat="60.3102" lon="7.68781">
        <ele>1308.97</ele>
        <time>2019-04-03T14:10:26Z</time>
      </trkpt>
      <trkpt lat="60.31026" lon="7.68787">
        <ele>1308.97</ele>
        <time>2019-04-03T14:10:33Z</time>
      </trkpt>
      <trkpt lat="60.31026" lon="7.68786">
        <ele>1308.97</ele>
        <time>2019-04-03T14:10:35Z</time>
      </trkpt>
      <trkpt lat="60.31013" lon="7.68797">
        <ele>1308.97</ele>
        <time>2019-04-03T14:10:42Z</time>
      </trkpt>
      <trkpt lat="60.31011" lon="7.68797">
        <ele>1308.97</ele>
        <time>2019-04-03T14:10:43Z</time>
      </trkpt>
      <trkpt lat="60.30993" lon="7.68824">
        <ele>1308.97</ele>
        <time>2019-04-03T14:10:52Z</time>
      </trkpt>
      <trkpt lat="60.30992" lon="7.68827">
        <ele>1308.97</ele>
        <time>2019-04-03T14:10:53Z</time>
      </trkpt>
      <trkpt lat="60.30981" lon="7.68839">
        <ele>1309.45</ele>
        <time>2019-04-03T14:11:00Z</time>
      </trkpt>
      <trkpt lat="60.30973" lon="7.68855">
        <ele>1310.41</ele>
        <time>2019-04-03T14:11:08Z</time>
      </trkpt>
      <trkpt lat="60.30987" lon="7.68842">
        <ele>1310.9</ele>
        <time>2019-04-03T14:11:14Z</time>
      </trkpt>
      <trkpt lat="60.3102" lon="7.68839">
        <ele>1309.45</ele>
        <time>2019-04-03T14:11:24Z</time>
      </trkpt>
      <trkpt lat="60.31023" lon="7.68839">
        <ele>1309.45</ele>
        <time>2019-04-03T14:11:25Z</time>
      </trkpt>
      <trkpt lat="60.31038" lon="7.68845">
        <ele>1308.97</ele>
        <time>2019-04-03T14:11:32Z</time>
      </trkpt>
      <trkpt lat="60.31037" lon="7.68848">
        <ele>1308.49</ele>
        <time>2019-04-03T14:11:44Z</time>
      </trkpt>
      <trkpt lat="60.31046" lon="7.68847">
        <ele>1308.49</ele>
        <time>2019-04-03T14:11:52Z</time>
      </trkpt>
      <trkpt lat="60.31044" lon="7.68846">
        <ele>1308.49</ele>
        <time>2019-04-03T14:11:54Z</time>
      </trkpt>
      <trkpt lat="60.31029" lon="7.68858">
        <ele>1308.01</ele>
        <time>2019-04-03T14:12:02Z</time>
      </trkpt>
      <trkpt lat="60.31027" lon="7.68858">
        <ele>1307.53</ele>
        <time>2019-04-03T14:12:04Z</time>
      </trkpt>
      <trkpt lat="60.31017" lon="7.68874">
        <ele>1308.49</ele>
        <time>2019-04-03T14:12:11Z</time>
      </trkpt>
      <trkpt lat="60.3101" lon="7.68878">
        <ele>1309.45</ele>
        <time>2019-04-03T14:12:21Z</time>
      </trkpt>
      <trkpt lat="60.31" lon="7.68879">
        <ele>1309.45</ele>
        <time>2019-04-03T14:12:27Z</time>
      </trkpt>
      <trkpt lat="60.31006" lon="7.68876">
        <ele>1309.93</ele>
        <time>2019-04-03T14:12:33Z</time>
      </trkpt>
      <trkpt lat="60.31017" lon="7.68885">
        <ele>1309.93</ele>
        <time>2019-04-03T14:12:39Z</time>
      </trkpt>
      <trkpt lat="60.31017" lon="7.68886">
        <ele>1309.93</ele>
        <time>2019-04-03T14:12:41Z</time>
      </trkpt>
      <trkpt lat="60.31031" lon="7.68886">
        <ele>1309.93</ele>
        <time>2019-04-03T14:12:48Z</time>
      </trkpt>
      <trkpt lat="60.31035" lon="7.6889">
        <ele>1308.97</ele>
        <time>2019-04-03T14:12:57Z</time>
      </trkpt>
      <trkpt lat="60.31038" lon="7.68893">
        <ele>1308.97</ele>
        <time>2019-04-03T14:13:08Z</time>
      </trkpt>
      <trkpt lat="60.31039" lon="7.68892">
        <ele>1308.97</ele>
        <time>2019-04-03T14:13:10Z</time>
      </trkpt>
      <trkpt lat="60.31048" lon="7.68892">
        <ele>1308.97</ele>
        <time>2019-04-03T14:13:16Z</time>
      </trkpt>
      <trkpt lat="60.31048" lon="7.68891">
        <ele>1308.97</ele>
        <time>2019-04-03T14:13:17Z</time>
      </trkpt>
      <trkpt lat="60.31066" lon="7.68888">
        <ele>1308.97</ele>
        <time>2019-04-03T14:13:25Z</time>
      </trkpt>
      <trkpt lat="60.31069" lon="7.68888">
        <ele>1308.97</ele>
        <time>2019-04-03T14:13:28Z</time>
      </trkpt>
      <trkpt lat="60.3109" lon="7.68892">
        <ele>1308.97</ele>
        <time>2019-04-03T14:13:38Z</time>
      </trkpt>
      <trkpt lat="60.31093" lon="7.68897">
        <ele>1308.49</ele>
        <time>2019-04-03T14:13:46Z</time>
      </trkpt>
      <trkpt lat="60.31092" lon="7.68896">
        <ele>1308.49</ele>
        <time>2019-04-03T14:13:48Z</time>
      </trkpt>
      <trkpt lat="60.31082" lon="7.68913">
        <ele>1307.05</ele>
        <time>2019-04-03T14:13:55Z</time>
      </trkpt>
      <trkpt lat="60.3108" lon="7.68914">
        <ele>1308.49</ele>
        <time>2019-04-03T14:13:57Z</time>
      </trkpt>
      <trkpt lat="60.31074" lon="7.6892">
        <ele>1307.05</ele>
        <time>2019-04-03T14:14:01Z</time>
      </trkpt>
      <trkpt lat="60.31072" lon="7.68923">
        <ele>1307.05</ele>
        <time>2019-04-03T14:14:02Z</time>
      </trkpt>
      <trkpt lat="60.31069" lon="7.68924">
        <ele>1308.49</ele>
        <time>2019-04-03T14:14:04Z</time>
      </trkpt>
      <trkpt lat="60.31053" lon="7.68945">
        <ele>1307.53</ele>
        <time>2019-04-03T14:14:11Z</time>
      </trkpt>
      <trkpt lat="60.31052" lon="7.6895">
        <ele>1307.53</ele>
        <time>2019-04-03T14:14:12Z</time>
      </trkpt>
      <trkpt lat="60.31049" lon="7.68957">
        <ele>1308.97</ele>
        <time>2019-04-03T14:14:16Z</time>
      </trkpt>
      <trkpt lat="60.31042" lon="7.68968">
        <ele>1309.45</ele>
        <time>2019-04-03T14:14:25Z</time>
      </trkpt>
      <trkpt lat="60.31054" lon="7.6896">
        <ele>1309.45</ele>
        <time>2019-04-03T14:14:30Z</time>
      </trkpt>
      <trkpt lat="60.31091" lon="7.68975">
        <ele>1308.97</ele>
        <time>2019-04-03T14:14:42Z</time>
      </trkpt>
      <trkpt lat="60.311" lon="7.68981">
        <ele>1308.01</ele>
        <time>2019-04-03T14:14:51Z</time>
      </trkpt>
      <trkpt lat="60.31104" lon="7.68985">
        <ele>1308.01</ele>
        <time>2019-04-03T14:14:56Z</time>
      </trkpt>
      <trkpt lat="60.31116" lon="7.68982">
        <ele>1308.01</ele>
        <time>2019-04-03T14:15:01Z</time>
      </trkpt>
      <trkpt lat="60.31122" lon="7.68984">
        <ele>1308.01</ele>
        <time>2019-04-03T14:15:03Z</time>
      </trkpt>
      <trkpt lat="60.31156" lon="7.69019">
        <ele>1306.09</ele>
        <time>2019-04-03T14:15:14Z</time>
      </trkpt>
      <trkpt lat="60.31157" lon="7.69021">
        <ele>1305.13</ele>
        <time>2019-04-03T14:15:22Z</time>
      </trkpt>
      <trkpt lat="60.31157" lon="7.6902">
        <ele>1305.13</ele>
        <time>2019-04-03T14:15:24Z</time>
      </trkpt>
      <trkpt lat="60.31143" lon="7.69025">
        <ele>1306.09</ele>
        <time>2019-04-03T14:15:31Z</time>
      </trkpt>
      <trkpt lat="60.31127" lon="7.69031">
        <ele>1306.57</ele>
        <time>2019-04-03T14:15:39Z</time>
      </trkpt>
      <trkpt lat="60.31109" lon="7.69043">
        <ele>1307.05</ele>
        <time>2019-04-03T14:15:47Z</time>
      </trkpt>
      <trkpt lat="60.31108" lon="7.69045">
        <ele>1307.53</ele>
        <time>2019-04-03T14:15:50Z</time>
      </trkpt>
      <trkpt lat="60.3109" lon="7.69051">
        <ele>1307.53</ele>
        <time>2019-04-03T14:15:58Z</time>
      </trkpt>
      <trkpt lat="60.31082" lon="7.69067">
        <ele>1308.49</ele>
        <time>2019-04-03T14:16:02Z</time>
      </trkpt>
      <trkpt lat="60.3108" lon="7.6907">
        <ele>1308.49</ele>
        <time>2019-04-03T14:16:05Z</time>
      </trkpt>
      <trkpt lat="60.31074" lon="7.69072">
        <ele>1309.45</ele>
        <time>2019-04-03T14:16:10Z</time>
      </trkpt>
      <trkpt lat="60.3107" lon="7.69079">
        <ele>1309.45</ele>
        <time>2019-04-03T14:16:13Z</time>
      </trkpt>
      <trkpt lat="60.31078" lon="7.69071">
        <ele>1309.93</ele>
        <time>2019-04-03T14:16:19Z</time>
      </trkpt>
      <trkpt lat="60.31083" lon="7.69073">
        <ele>1309.93</ele>
        <time>2019-04-03T14:16:20Z</time>
      </trkpt>
      <trkpt lat="60.31135" lon="7.69099">
        <ele>1307.53</ele>
        <time>2019-04-03T14:16:33Z</time>
      </trkpt>
      <trkpt lat="60.3117" lon="7.69125">
        <ele>1306.09</ele>
        <time>2019-04-03T14:16:44Z</time>
      </trkpt>
      <trkpt lat="60.31181" lon="7.69131">
        <ele>1305.13</ele>
        <time>2019-04-03T14:16:52Z</time>
      </trkpt>
      <trkpt lat="60.31192" lon="7.6913">
        <ele>1305.13</ele>
        <time>2019-04-03T14:16:56Z</time>
      </trkpt>
      <trkpt lat="60.31242" lon="7.69172">
        <ele>1302.24</ele>
        <time>2019-04-03T14:17:07Z</time>
      </trkpt>
      <trkpt lat="60.31253" lon="7.69189">
        <ele>1300.8</ele>
        <time>2019-04-03T14:17:14Z</time>
      </trkpt>
      <trkpt lat="60.31253" lon="7.6919">
        <ele>1300.8</ele>
        <time>2019-04-03T14:17:15Z</time>
      </trkpt>
      <trkpt lat="60.31257" lon="7.69196">
        <ele>1300.32</ele>
        <time>2019-04-03T14:17:24Z</time>
      </trkpt>
      <trkpt lat="60.31257" lon="7.69196">
        <ele>1300.32</ele>
        <time>2019-04-03T14:17:27Z</time>
      </trkpt>
      <trkpt lat="60.31247" lon="7.69197">
        <ele>1300.32</ele>
        <time>2019-04-03T14:17:32Z</time>
      </trkpt>
      <trkpt lat="60.31244" lon="7.69202">
        <ele>1299.84</ele>
        <time>2019-04-03T14:17:34Z</time>
      </trkpt>
      <trkpt lat="60.31231" lon="7.69204">
        <ele>1301.28</ele>
        <time>2019-04-03T14:17:41Z</time>
      </trkpt>
      <trkpt lat="60.31226" lon="7.69204">
        <ele>1302.24</ele>
        <time>2019-04-03T14:17:45Z</time>
      </trkpt>
      <trkpt lat="60.31212" lon="7.69209">
        <ele>1303.2</ele>
        <time>2019-04-03T14:17:54Z</time>
      </trkpt>
      <trkpt lat="60.31209" lon="7.69209">
        <ele>1303.2</ele>
        <time>2019-04-03T14:17:56Z</time>
      </trkpt>
      <trkpt lat="60.31202" lon="7.69215">
        <ele>1304.17</ele>
        <time>2019-04-03T14:18:00Z</time>
      </trkpt>
      <trkpt lat="60.3119" lon="7.6922">
        <ele>1304.65</ele>
        <time>2019-04-03T14:18:06Z</time>
      </trkpt>
      <trkpt lat="60.31182" lon="7.69234">
        <ele>1306.09</ele>
        <time>2019-04-03T14:18:12Z</time>
      </trkpt>
      <trkpt lat="60.31181" lon="7.69232">
        <ele>1306.09</ele>
        <time>2019-04-03T14:18:14Z</time>
      </trkpt>
      <trkpt lat="60.31192" lon="7.69238">
        <ele>1306.57</ele>
        <time>2019-04-03T14:18:20Z</time>
      </trkpt>
      <trkpt lat="60.31209" lon="7.69257">
        <ele>1304.65</ele>
        <time>2019-04-03T14:18:29Z</time>
      </trkpt>
      <trkpt lat="60.31236" lon="7.69287">
        <ele>1302.72</ele>
        <time>2019-04-03T14:18:39Z</time>
      </trkpt>
      <trkpt lat="60.31261" lon="7.69318">
        <ele>1300.8</ele>
        <time>2019-04-03T14:18:49Z</time>
      </trkpt>
      <trkpt lat="60.31275" lon="7.69339">
        <ele>1299.84</ele>
        <time>2019-04-03T14:18:58Z</time>
      </trkpt>
      <trkpt lat="60.3128" lon="7.69349">
        <ele>1298.4</ele>
        <time>2019-04-03T14:19:07Z</time>
      </trkpt>
      <trkpt lat="60.31283" lon="7.69355">
        <ele>1298.88</ele>
        <time>2019-04-03T14:19:14Z</time>
      </trkpt>
      <trkpt lat="60.31285" lon="7.69357">
        <ele>1298.4</ele>
        <time>2019-04-03T14:19:21Z</time>
      </trkpt>
      <trkpt lat="60.31287" lon="7.69355">
        <ele>1298.88</ele>
        <time>2019-04-03T14:19:24Z</time>
      </trkpt>
      <trkpt lat="60.31303" lon="7.69359">
        <ele>1298.88</ele>
        <time>2019-04-03T14:19:31Z</time>
      </trkpt>
      <trkpt lat="60.31311" lon="7.69361">
        <ele>1297.44</ele>
        <time>2019-04-03T14:19:40Z</time>
      </trkpt>
      <trkpt lat="60.31308" lon="7.69362">
        <ele>1296.96</ele>
        <time>2019-04-03T14:19:50Z</time>
      </trkpt>
      <trkpt lat="60.31307" lon="7.69366">
        <ele>1296.48</ele>
        <time>2019-04-03T14:20:01Z</time>
      </trkpt>
      <trkpt lat="60.31307" lon="7.69367">
        <ele>1296.48</ele>
        <time>2019-04-03T14:20:10Z</time>
      </trkpt>
      <trkpt lat="60.31305" lon="7.69378">
        <ele>1296.48</ele>
        <time>2019-04-03T14:20:20Z</time>
      </trkpt>
      <trkpt lat="60.31305" lon="7.69379">
        <ele>1296.48</ele>
        <time>2019-04-03T14:20:22Z</time>
      </trkpt>
      <trkpt lat="60.31301" lon="7.69387">
        <ele>1296.48</ele>
        <time>2019-04-03T14:20:31Z</time>
      </trkpt>
      <trkpt lat="60.31317" lon="7.69379">
        <ele>1297.92</ele>
        <time>2019-04-03T14:20:37Z</time>
      </trkpt>
      <trkpt lat="60.31327" lon="7.69387">
        <ele>1296.48</ele>
        <time>2019-04-03T14:20:43Z</time>
      </trkpt>
      <trkpt lat="60.31327" lon="7.69386">
        <ele>1296.48</ele>
        <time>2019-04-03T14:20:44Z</time>
      </trkpt>
      <trkpt lat="60.31329" lon="7.69385">
        <ele>1296.48</ele>
        <time>2019-04-03T14:20:47Z</time>
      </trkpt>
      <trkpt lat="60.31336" lon="7.69384">
        <ele>1296.48</ele>
        <time>2019-04-03T14:20:54Z</time>
      </trkpt>
      <trkpt lat="60.31345" lon="7.69379">
        <ele>1296.48</ele>
        <time>2019-04-03T14:21:01Z</time>
      </trkpt>
      <trkpt lat="60.31344" lon="7.6938">
        <ele>1296.48</ele>
        <time>2019-04-03T14:21:07Z</time>
      </trkpt>
      <trkpt lat="60.31332" lon="7.6939">
        <ele>1295.03</ele>
        <time>2019-04-03T14:21:11Z</time>
      </trkpt>
      <trkpt lat="60.31323" lon="7.69408">
        <ele>1295.03</ele>
        <time>2019-04-03T14:21:14Z</time>
      </trkpt>
      <trkpt lat="60.31308" lon="7.69436">
        <ele>1295.03</ele>
        <time>2019-04-03T14:21:21Z</time>
      </trkpt>
      <trkpt lat="60.3129" lon="7.69471">
        <ele>1295.03</ele>
        <time>2019-04-03T14:21:28Z</time>
      </trkpt>
      <trkpt lat="60.31285" lon="7.69476">
        <ele>1295.99</ele>
        <time>2019-04-03T14:21:30Z</time>
      </trkpt>
      <trkpt lat="60.31273" lon="7.69485">
        <ele>1295.99</ele>
        <time>2019-04-03T14:21:35Z</time>
      </trkpt>
      <trkpt lat="60.31262" lon="7.6949">
        <ele>1297.92</ele>
        <time>2019-04-03T14:21:41Z</time>
      </trkpt>
      <trkpt lat="60.31272" lon="7.69483">
        <ele>1298.4</ele>
        <time>2019-04-03T14:21:46Z</time>
      </trkpt>
      <trkpt lat="60.31286" lon="7.6949">
        <ele>1296.96</ele>
        <time>2019-04-03T14:21:50Z</time>
      </trkpt>
      <trkpt lat="60.31304" lon="7.69483">
        <ele>1295.99</ele>
        <time>2019-04-03T14:21:57Z</time>
      </trkpt>
      <trkpt lat="60.31321" lon="7.69489">
        <ele>1295.51</ele>
        <time>2019-04-03T14:22:03Z</time>
      </trkpt>
      <trkpt lat="60.31344" lon="7.69485">
        <ele>1295.03</ele>
        <time>2019-04-03T14:22:10Z</time>
      </trkpt>
      <trkpt lat="60.31347" lon="7.69486">
        <ele>1296.48</ele>
        <time>2019-04-03T14:22:11Z</time>
      </trkpt>
      <trkpt lat="60.31353" lon="7.69489">
        <ele>1296.48</ele>
        <time>2019-04-03T14:22:16Z</time>
      </trkpt>
      <trkpt lat="60.31356" lon="7.69487">
        <ele>1295.03</ele>
        <time>2019-04-03T14:22:18Z</time>
      </trkpt>
      <trkpt lat="60.31365" lon="7.69488">
        <ele>1295.03</ele>
        <time>2019-04-03T14:22:26Z</time>
      </trkpt>
      <trkpt lat="60.31365" lon="7.69489">
        <ele>1295.03</ele>
        <time>2019-04-03T14:22:31Z</time>
      </trkpt>
      <trkpt lat="60.31355" lon="7.69503">
        <ele>1294.07</ele>
        <time>2019-04-03T14:22:37Z</time>
      </trkpt>
      <trkpt lat="60.3134" lon="7.69522">
        <ele>1292.63</ele>
        <time>2019-04-03T14:22:42Z</time>
      </trkpt>
      <trkpt lat="60.3133" lon="7.69542">
        <ele>1294.07</ele>
        <time>2019-04-03T14:22:49Z</time>
      </trkpt>
      <trkpt lat="60.31329" lon="7.69541">
        <ele>1294.07</ele>
        <time>2019-04-03T14:22:50Z</time>
      </trkpt>
      <trkpt lat="60.31319" lon="7.6956">
        <ele>1294.07</ele>
        <time>2019-04-03T14:22:56Z</time>
      </trkpt>
      <trkpt lat="60.31317" lon="7.69568">
        <ele>1294.07</ele>
        <time>2019-04-03T14:23:02Z</time>
      </trkpt>
      <trkpt lat="60.31319" lon="7.69565">
        <ele>1294.07</ele>
        <time>2019-04-03T14:23:04Z</time>
      </trkpt>
      <trkpt lat="60.31331" lon="7.69563">
        <ele>1294.55</ele>
        <time>2019-04-03T14:23:10Z</time>
      </trkpt>
      <trkpt lat="60.31347" lon="7.69562">
        <ele>1294.55</ele>
        <time>2019-04-03T14:23:17Z</time>
      </trkpt>
      <trkpt lat="60.31357" lon="7.69561">
        <ele>1294.55</ele>
        <time>2019-04-03T14:23:24Z</time>
      </trkpt>
      <trkpt lat="60.3136" lon="7.69563">
        <ele>1294.55</ele>
        <time>2019-04-03T14:23:34Z</time>
      </trkpt>
      <trkpt lat="60.31363" lon="7.69563">
        <ele>1294.07</ele>
        <time>2019-04-03T14:23:43Z</time>
      </trkpt>
      <trkpt lat="60.31362" lon="7.69563">
        <ele>1294.55</ele>
        <time>2019-04-03T14:23:45Z</time>
      </trkpt>
      <trkpt lat="60.31355" lon="7.69569">
        <ele>1293.11</ele>
        <time>2019-04-03T14:23:48Z</time>
      </trkpt>
      <trkpt lat="60.31352" lon="7.69576">
        <ele>1293.11</ele>
        <time>2019-04-03T14:23:50Z</time>
      </trkpt>
      <trkpt lat="60.31341" lon="7.69587">
        <ele>1292.63</ele>
        <time>2019-04-03T14:23:56Z</time>
      </trkpt>
      <trkpt lat="60.31336" lon="7.69597">
        <ele>1292.63</ele>
        <time>2019-04-03T14:24:03Z</time>
      </trkpt>
      <trkpt lat="60.31351" lon="7.6959">
        <ele>1292.63</ele>
        <time>2019-04-03T14:24:10Z</time>
      </trkpt>
      <trkpt lat="60.31361" lon="7.69583">
        <ele>1294.07</ele>
        <time>2019-04-03T14:24:15Z</time>
      </trkpt>
      <trkpt lat="60.31364" lon="7.6958">
        <ele>1294.07</ele>
        <time>2019-04-03T14:24:18Z</time>
      </trkpt>
      <trkpt lat="60.31381" lon="7.6957">
        <ele>1294.55</ele>
        <time>2019-04-03T14:24:26Z</time>
      </trkpt>
      <trkpt lat="60.31388" lon="7.69571">
        <ele>1294.55</ele>
        <time>2019-04-03T14:24:35Z</time>
      </trkpt>
      <trkpt lat="60.31393" lon="7.6957">
        <ele>1294.55</ele>
        <time>2019-04-03T14:24:47Z</time>
      </trkpt>
      <trkpt lat="60.31394" lon="7.6957">
        <ele>1294.55</ele>
        <time>2019-04-03T14:24:48Z</time>
      </trkpt>
      <trkpt lat="60.31401" lon="7.69566">
        <ele>1294.55</ele>
        <time>2019-04-03T14:24:53Z</time>
      </trkpt>
      <trkpt lat="60.31404" lon="7.69567">
        <ele>1294.55</ele>
        <time>2019-04-03T14:25:00Z</time>
      </trkpt>
      <trkpt lat="60.31396" lon="7.6957">
        <ele>1294.55</ele>
        <time>2019-04-03T14:25:04Z</time>
      </trkpt>
      <trkpt lat="60.31375" lon="7.69615">
        <ele>1293.11</ele>
        <time>2019-04-03T14:25:14Z</time>
      </trkpt>
      <trkpt lat="60.31366" lon="7.69675">
        <ele>1291.67</ele>
        <time>2019-04-03T14:25:25Z</time>
      </trkpt>
      <trkpt lat="60.31367" lon="7.69677">
        <ele>1292.63</ele>
        <time>2019-04-03T14:25:31Z</time>
      </trkpt>
      <trkpt lat="60.31381" lon="7.69668">
        <ele>1292.63</ele>
        <time>2019-04-03T14:25:38Z</time>
      </trkpt>
      <trkpt lat="60.31381" lon="7.69668">
        <ele>1292.63</ele>
        <time>2019-04-03T14:25:39Z</time>
      </trkpt>
      <trkpt lat="60.31386" lon="7.69665">
        <ele>1292.63</ele>
        <time>2019-04-03T14:25:47Z</time>
      </trkpt>
      <trkpt lat="60.31386" lon="7.69664">
        <ele>1292.63</ele>
        <time>2019-04-03T14:25:48Z</time>
      </trkpt>
      <trkpt lat="60.31387" lon="7.69661">
        <ele>1292.63</ele>
        <time>2019-04-03T14:25:50Z</time>
      </trkpt>
      <trkpt lat="60.31395" lon="7.69657">
        <ele>1293.59</ele>
        <time>2019-04-03T14:25:58Z</time>
      </trkpt>
      <trkpt lat="60.31396" lon="7.69658">
        <ele>1293.59</ele>
        <time>2019-04-03T14:25:59Z</time>
      </trkpt>
      <trkpt lat="60.31403" lon="7.69652">
        <ele>1293.11</ele>
        <time>2019-04-03T14:26:03Z</time>
      </trkpt>
      <trkpt lat="60.31407" lon="7.69651">
        <ele>1293.11</ele>
        <time>2019-04-03T14:26:06Z</time>
      </trkpt>
      <trkpt lat="60.31413" lon="7.69643">
        <ele>1293.11</ele>
        <time>2019-04-03T14:26:13Z</time>
      </trkpt>
      <trkpt lat="60.31423" lon="7.69639">
        <ele>1294.07</ele>
        <time>2019-04-03T14:26:19Z</time>
      </trkpt>
      <trkpt lat="60.31426" lon="7.69633">
        <ele>1293.59</ele>
        <time>2019-04-03T14:26:21Z</time>
      </trkpt>
      <trkpt lat="60.31443" lon="7.69626">
        <ele>1293.59</ele>
        <time>2019-04-03T14:26:26Z</time>
      </trkpt>
      <trkpt lat="60.31464" lon="7.6963">
        <ele>1293.59</ele>
        <time>2019-04-03T14:26:36Z</time>
      </trkpt>
      <trkpt lat="60.31465" lon="7.69628">
        <ele>1293.59</ele>
        <time>2019-04-03T14:26:47Z</time>
      </trkpt>
      <trkpt lat="60.31465" lon="7.69627">
        <ele>1293.59</ele>
        <time>2019-04-03T14:26:48Z</time>
      </trkpt>
      <trkpt lat="60.3147" lon="7.69626">
        <ele>1293.59</ele>
        <time>2019-04-03T14:26:55Z</time>
      </trkpt>
      <trkpt lat="60.31465" lon="7.69631">
        <ele>1292.63</ele>
        <time>2019-04-03T14:26:57Z</time>
      </trkpt>
      <trkpt lat="60.31459" lon="7.69648">
        <ele>1291.19</ele>
        <time>2019-04-03T14:27:00Z</time>
      </trkpt>
      <trkpt lat="60.31457" lon="7.69714">
        <ele>1289.27</ele>
        <time>2019-04-03T14:27:10Z</time>
      </trkpt>
      <trkpt lat="60.31457" lon="7.69718">
        <ele>1289.27</ele>
        <time>2019-04-03T14:27:11Z</time>
      </trkpt>
      <trkpt lat="60.31456" lon="7.69721">
        <ele>1289.27</ele>
        <time>2019-04-03T14:27:20Z</time>
      </trkpt>
      <trkpt lat="60.31456" lon="7.69721">
        <ele>1290.23</ele>
        <time>2019-04-03T14:27:22Z</time>
      </trkpt>
      <trkpt lat="60.31464" lon="7.69713">
        <ele>1290.23</ele>
        <time>2019-04-03T14:27:27Z</time>
      </trkpt>
      <trkpt lat="60.31469" lon="7.69714">
        <ele>1290.23</ele>
        <time>2019-04-03T14:27:34Z</time>
      </trkpt>
      <trkpt lat="60.31471" lon="7.69712">
        <ele>1290.23</ele>
        <time>2019-04-03T14:27:40Z</time>
      </trkpt>
      <trkpt lat="60.31479" lon="7.69708">
        <ele>1291.19</ele>
        <time>2019-04-03T14:27:47Z</time>
      </trkpt>
      <trkpt lat="60.31479" lon="7.69708">
        <ele>1291.19</ele>
        <time>2019-04-03T14:27:48Z</time>
      </trkpt>
      <trkpt lat="60.31485" lon="7.69705">
        <ele>1291.67</ele>
        <time>2019-04-03T14:27:58Z</time>
      </trkpt>
      <trkpt lat="60.31485" lon="7.69704">
        <ele>1291.67</ele>
        <time>2019-04-03T14:27:59Z</time>
      </trkpt>
      <trkpt lat="60.31486" lon="7.69698">
        <ele>1291.67</ele>
        <time>2019-04-03T14:28:08Z</time>
      </trkpt>
      <trkpt lat="60.31495" lon="7.69701">
        <ele>1292.63</ele>
        <time>2019-04-03T14:28:16Z</time>
      </trkpt>
      <trkpt lat="60.31496" lon="7.69703">
        <ele>1292.63</ele>
        <time>2019-04-03T14:28:18Z</time>
      </trkpt>
      <trkpt lat="60.31497" lon="7.697">
        <ele>1292.15</ele>
        <time>2019-04-03T14:28:23Z</time>
      </trkpt>
      <trkpt lat="60.31505" lon="7.69698">
        <ele>1292.15</ele>
        <time>2019-04-03T14:28:31Z</time>
      </trkpt>
      <trkpt lat="60.31512" lon="7.69693">
        <ele>1292.63</ele>
        <time>2019-04-03T14:28:35Z</time>
      </trkpt>
      <trkpt lat="60.3152" lon="7.69695">
        <ele>1292.63</ele>
        <time>2019-04-03T14:28:44Z</time>
      </trkpt>
      <trkpt lat="60.3152" lon="7.69693">
        <ele>1292.63</ele>
        <time>2019-04-03T14:28:53Z</time>
      </trkpt>
      <trkpt lat="60.3151" lon="7.69706">
        <ele>1292.63</ele>
        <time>2019-04-03T14:29:03Z</time>
      </trkpt>
      <trkpt lat="60.31511" lon="7.69706">
        <ele>1292.63</ele>
        <time>2019-04-03T14:29:05Z</time>
      </trkpt>
      <trkpt lat="60.31524" lon="7.69705">
        <ele>1292.63</ele>
        <time>2019-04-03T14:29:13Z</time>
      </trkpt>
      <trkpt lat="60.31528" lon="7.69707">
        <ele>1293.11</ele>
        <time>2019-04-03T14:29:22Z</time>
      </trkpt>
      <trkpt lat="60.31528" lon="7.69712">
        <ele>1293.11</ele>
        <time>2019-04-03T14:29:33Z</time>
      </trkpt>
      <trkpt lat="60.31529" lon="7.69712">
        <ele>1292.63</ele>
        <time>2019-04-03T14:29:47Z</time>
      </trkpt>
      <trkpt lat="60.31532" lon="7.69712">
        <ele>1292.63</ele>
        <time>2019-04-03T14:30:05Z</time>
      </trkpt>
      <trkpt lat="60.31531" lon="7.69711">
        <ele>1292.63</ele>
        <time>2019-04-03T14:30:20Z</time>
      </trkpt>
      <trkpt lat="60.31534" lon="7.6971">
        <ele>1292.63</ele>
        <time>2019-04-03T14:30:35Z</time>
      </trkpt>
      <trkpt lat="60.31535" lon="7.69712">
        <ele>1292.63</ele>
        <time>2019-04-03T14:31:04Z</time>
      </trkpt>
      <trkpt lat="60.31536" lon="7.6971">
        <ele>1292.63</ele>
        <time>2019-04-03T14:31:22Z</time>
      </trkpt>
      <trkpt lat="60.31536" lon="7.69712">
        <ele>1292.63</ele>
        <time>2019-04-03T14:31:41Z</time>
      </trkpt>
      <trkpt lat="60.31536" lon="7.69711">
        <ele>1292.63</ele>
        <time>2019-04-03T14:32:03Z</time>
      </trkpt>
      <trkpt lat="60.31537" lon="7.69712">
        <ele>1292.15</ele>
        <time>2019-04-03T14:32:21Z</time>
      </trkpt>
      <trkpt lat="60.31537" lon="7.69715">
        <ele>1292.15</ele>
        <time>2019-04-03T14:32:35Z</time>
      </trkpt>
      <trkpt lat="60.31538" lon="7.69713">
        <ele>1292.15</ele>
        <time>2019-04-03T14:32:47Z</time>
      </trkpt>
      <trkpt lat="60.31537" lon="7.69712">
        <ele>1292.15</ele>
        <time>2019-04-03T14:32:50Z</time>
      </trkpt>
      <trkpt lat="60.31526" lon="7.6971">
        <ele>1292.15</ele>
        <time>2019-04-03T14:32:59Z</time>
      </trkpt>
      <trkpt lat="60.31523" lon="7.69708">
        <ele>1292.15</ele>
        <time>2019-04-03T14:33:02Z</time>
      </trkpt>
      <trkpt lat="60.31514" lon="7.697">
        <ele>1292.15</ele>
        <time>2019-04-03T14:33:10Z</time>
      </trkpt>
      <trkpt lat="60.31511" lon="7.69701">
        <ele>1292.15</ele>
        <time>2019-04-03T14:33:13Z</time>
      </trkpt>
      <trkpt lat="60.31508" lon="7.69697">
        <ele>1292.15</ele>
        <time>2019-04-03T14:33:17Z</time>
      </trkpt>
      <trkpt lat="60.31499" lon="7.69695">
        <ele>1292.15</ele>
        <time>2019-04-03T14:33:21Z</time>
      </trkpt>
      <trkpt lat="60.31492" lon="7.69692">
        <ele>1292.15</ele>
        <time>2019-04-03T14:33:25Z</time>
      </trkpt>
      <trkpt lat="60.3148" lon="7.69694">
        <ele>1290.71</ele>
        <time>2019-04-03T14:33:29Z</time>
      </trkpt>
      <trkpt lat="60.31461" lon="7.69684">
        <ele>1290.23</ele>
        <time>2019-04-03T14:33:36Z</time>
      </trkpt>
      <trkpt lat="60.31446" lon="7.69679">
        <ele>1290.23</ele>
        <time>2019-04-03T14:33:44Z</time>
      </trkpt>
      <trkpt lat="60.31445" lon="7.69679">
        <ele>1290.23</ele>
        <time>2019-04-03T14:33:45Z</time>
      </trkpt>
      <trkpt lat="60.31443" lon="7.69677">
        <ele>1290.23</ele>
        <time>2019-04-03T14:33:48Z</time>
      </trkpt>
      <trkpt lat="60.3144" lon="7.69667">
        <ele>1290.23</ele>
        <time>2019-04-03T14:33:54Z</time>
      </trkpt>
      <trkpt lat="60.31437" lon="7.69653">
        <ele>1291.19</ele>
        <time>2019-04-03T14:34:02Z</time>
      </trkpt>
      <trkpt lat="60.31423" lon="7.69655">
        <ele>1291.19</ele>
        <time>2019-04-03T14:34:10Z</time>
      </trkpt>
      <trkpt lat="60.31414" lon="7.69652">
        <ele>1291.67</ele>
        <time>2019-04-03T14:34:15Z</time>
      </trkpt>
      <trkpt lat="60.31411" lon="7.69648">
        <ele>1291.67</ele>
        <time>2019-04-03T14:34:19Z</time>
      </trkpt>
      <trkpt lat="60.31406" lon="7.69643">
        <ele>1292.15</ele>
        <time>2019-04-03T14:34:26Z</time>
      </trkpt>
      <trkpt lat="60.31396" lon="7.69635">
        <ele>1292.63</ele>
        <time>2019-04-03T14:34:35Z</time>
      </trkpt>
      <trkpt lat="60.31396" lon="7.69633">
        <ele>1292.63</ele>
        <time>2019-04-03T14:34:38Z</time>
      </trkpt>
      <trkpt lat="60.31389" lon="7.69626">
        <ele>1292.63</ele>
        <time>2019-04-03T14:34:45Z</time>
      </trkpt>
      <trkpt lat="60.31382" lon="7.6962">
        <ele>1292.63</ele>
        <time>2019-04-03T14:34:52Z</time>
      </trkpt>
      <trkpt lat="60.3138" lon="7.69614">
        <ele>1292.63</ele>
        <time>2019-04-03T14:34:55Z</time>
      </trkpt>
      <trkpt lat="60.31378" lon="7.69593">
        <ele>1292.63</ele>
        <time>2019-04-03T14:35:02Z</time>
      </trkpt>
      <trkpt lat="60.31372" lon="7.69592">
        <ele>1292.63</ele>
        <time>2019-04-03T14:35:06Z</time>
      </trkpt>
      <trkpt lat="60.31363" lon="7.6958">
        <ele>1292.63</ele>
        <time>2019-04-03T14:35:14Z</time>
      </trkpt>
      <trkpt lat="60.31355" lon="7.69574">
        <ele>1292.63</ele>
        <time>2019-04-03T14:35:18Z</time>
      </trkpt>
      <trkpt lat="60.31351" lon="7.69574">
        <ele>1292.63</ele>
        <time>2019-04-03T14:35:20Z</time>
      </trkpt>
      <trkpt lat="60.31336" lon="7.69573">
        <ele>1292.63</ele>
        <time>2019-04-03T14:35:28Z</time>
      </trkpt>
      <trkpt lat="60.31333" lon="7.69565">
        <ele>1292.63</ele>
        <time>2019-04-03T14:35:35Z</time>
      </trkpt>
      <trkpt lat="60.31329" lon="7.69554">
        <ele>1292.63</ele>
        <time>2019-04-03T14:35:42Z</time>
      </trkpt>
      <trkpt lat="60.31326" lon="7.69552">
        <ele>1292.63</ele>
        <time>2019-04-03T14:35:47Z</time>
      </trkpt>
      <trkpt lat="60.31324" lon="7.69541">
        <ele>1292.63</ele>
        <time>2019-04-03T14:35:56Z</time>
      </trkpt>
      <trkpt lat="60.31324" lon="7.69535">
        <ele>1292.63</ele>
        <time>2019-04-03T14:35:59Z</time>
      </trkpt>
      <trkpt lat="60.31326" lon="7.6952">
        <ele>1292.63</ele>
        <time>2019-04-03T14:36:03Z</time>
      </trkpt>
      <trkpt lat="60.31311" lon="7.69524">
        <ele>1292.63</ele>
        <time>2019-04-03T14:36:14Z</time>
      </trkpt>
      <trkpt lat="60.31305" lon="7.69519">
        <ele>1293.11</ele>
        <time>2019-04-03T14:36:19Z</time>
      </trkpt>
      <trkpt lat="60.31298" lon="7.69516">
        <ele>1293.59</ele>
        <time>2019-04-03T14:36:28Z</time>
      </trkpt>
      <trkpt lat="60.31293" lon="7.69511">
        <ele>1293.59</ele>
        <time>2019-04-03T14:36:31Z</time>
      </trkpt>
      <trkpt lat="60.31287" lon="7.69508">
        <ele>1293.59</ele>
        <time>2019-04-03T14:36:37Z</time>
      </trkpt>
      <trkpt lat="60.31287" lon="7.69501">
        <ele>1293.59</ele>
        <time>2019-04-03T14:36:40Z</time>
      </trkpt>
      <trkpt lat="60.31277" lon="7.69487">
        <ele>1294.07</ele>
        <time>2019-04-03T14:36:48Z</time>
      </trkpt>
      <trkpt lat="60.3127" lon="7.69484">
        <ele>1295.03</ele>
        <time>2019-04-03T14:36:53Z</time>
      </trkpt>
      <trkpt lat="60.31267" lon="7.69481">
        <ele>1295.03</ele>
        <time>2019-04-03T14:36:59Z</time>
      </trkpt>
      <trkpt lat="60.31264" lon="7.69475">
        <ele>1295.99</ele>
        <time>2019-04-03T14:37:03Z</time>
      </trkpt>
      <trkpt lat="60.31261" lon="7.69465">
        <ele>1295.99</ele>
        <time>2019-04-03T14:37:08Z</time>
      </trkpt>
      <trkpt lat="60.31263" lon="7.69451">
        <ele>1295.51</ele>
        <time>2019-04-03T14:37:13Z</time>
      </trkpt>
      <trkpt lat="60.31259" lon="7.69438">
        <ele>1295.51</ele>
        <time>2019-04-03T14:37:20Z</time>
      </trkpt>
      <trkpt lat="60.31252" lon="7.69429">
        <ele>1295.99</ele>
        <time>2019-04-03T14:37:28Z</time>
      </trkpt>
      <trkpt lat="60.31253" lon="7.69417">
        <ele>1296.96</ele>
        <time>2019-04-03T14:37:32Z</time>
      </trkpt>
      <trkpt lat="60.31252" lon="7.69408">
        <ele>1296.96</ele>
        <time>2019-04-03T14:37:34Z</time>
      </trkpt>
      <trkpt lat="60.31265" lon="7.6936">
        <ele>1297.44</ele>
        <time>2019-04-03T14:37:43Z</time>
      </trkpt>
      <trkpt lat="60.31265" lon="7.69354">
        <ele>1297.44</ele>
        <time>2019-04-03T14:37:45Z</time>
      </trkpt>
      <trkpt lat="60.31262" lon="7.69348">
        <ele>1297.44</ele>
        <time>2019-04-03T14:37:50Z</time>
      </trkpt>
      <trkpt lat="60.31253" lon="7.69338">
        <ele>1297.92</ele>
        <time>2019-04-03T14:37:57Z</time>
      </trkpt>
      <trkpt lat="60.31245" lon="7.69327">
        <ele>1297.92</ele>
        <time>2019-04-03T14:38:05Z</time>
      </trkpt>
      <trkpt lat="60.31244" lon="7.69325">
        <ele>1297.92</ele>
        <time>2019-04-03T14:38:06Z</time>
      </trkpt>
      <trkpt lat="60.3124" lon="7.69321">
        <ele>1298.88</ele>
        <time>2019-04-03T14:38:10Z</time>
      </trkpt>
      <trkpt lat="60.31233" lon="7.69311">
        <ele>1299.36</ele>
        <time>2019-04-03T14:38:17Z</time>
      </trkpt>
      <trkpt lat="60.31232" lon="7.69309">
        <ele>1299.36</ele>
        <time>2019-04-03T14:38:19Z</time>
      </trkpt>
      <trkpt lat="60.31229" lon="7.69305">
        <ele>1299.36</ele>
        <time>2019-04-03T14:38:22Z</time>
      </trkpt>
      <trkpt lat="60.31226" lon="7.69281">
        <ele>1299.36</ele>
        <time>2019-04-03T14:38:29Z</time>
      </trkpt>
      <trkpt lat="60.31228" lon="7.69261">
        <ele>1299.84</ele>
        <time>2019-04-03T14:38:33Z</time>
      </trkpt>
      <trkpt lat="60.31217" lon="7.69255">
        <ele>1299.84</ele>
        <time>2019-04-03T14:38:39Z</time>
      </trkpt>
      <trkpt lat="60.31214" lon="7.69251">
        <ele>1300.32</ele>
        <time>2019-04-03T14:38:43Z</time>
      </trkpt>
      <trkpt lat="60.3121" lon="7.69249">
        <ele>1300.8</ele>
        <time>2019-04-03T14:38:46Z</time>
      </trkpt>
      <trkpt lat="60.31199" lon="7.69232">
        <ele>1301.76</ele>
        <time>2019-04-03T14:38:55Z</time>
      </trkpt>
      <trkpt lat="60.31197" lon="7.69229">
        <ele>1301.28</ele>
        <time>2019-04-03T14:38:59Z</time>
      </trkpt>
      <trkpt lat="60.31192" lon="7.69224">
        <ele>1301.76</ele>
        <time>2019-04-03T14:39:06Z</time>
      </trkpt>
      <trkpt lat="60.31182" lon="7.69217">
        <ele>1302.24</ele>
        <time>2019-04-03T14:39:13Z</time>
      </trkpt>
      <trkpt lat="60.31181" lon="7.69213">
        <ele>1302.24</ele>
        <time>2019-04-03T14:39:14Z</time>
      </trkpt>
      <trkpt lat="60.31185" lon="7.69185">
        <ele>1302.24</ele>
        <time>2019-04-03T14:39:19Z</time>
      </trkpt>
      <trkpt lat="60.31174" lon="7.69162">
        <ele>1302.24</ele>
        <time>2019-04-03T14:39:26Z</time>
      </trkpt>
      <trkpt lat="60.31167" lon="7.69162">
        <ele>1302.24</ele>
        <time>2019-04-03T14:39:31Z</time>
      </trkpt>
      <trkpt lat="60.31156" lon="7.69154">
        <ele>1302.72</ele>
        <time>2019-04-03T14:39:39Z</time>
      </trkpt>
      <trkpt lat="60.31158" lon="7.69125">
        <ele>1302.72</ele>
        <time>2019-04-03T14:39:45Z</time>
      </trkpt>
      <trkpt lat="60.31154" lon="7.69119">
        <ele>1302.72</ele>
        <time>2019-04-03T14:39:47Z</time>
      </trkpt>
      <trkpt lat="60.31138" lon="7.69111">
        <ele>1302.72</ele>
        <time>2019-04-03T14:39:55Z</time>
      </trkpt>
      <trkpt lat="60.31127" lon="7.69096">
        <ele>1303.2</ele>
        <time>2019-04-03T14:40:03Z</time>
      </trkpt>
      <trkpt lat="60.31127" lon="7.69096">
        <ele>1303.2</ele>
        <time>2019-04-03T14:40:05Z</time>
      </trkpt>
      <trkpt lat="60.31116" lon="7.69087">
        <ele>1303.69</ele>
        <time>2019-04-03T14:40:11Z</time>
      </trkpt>
      <trkpt lat="60.31104" lon="7.69072">
        <ele>1304.17</ele>
        <time>2019-04-03T14:40:19Z</time>
      </trkpt>
      <trkpt lat="60.31101" lon="7.69066">
        <ele>1305.13</ele>
        <time>2019-04-03T14:40:23Z</time>
      </trkpt>
      <trkpt lat="60.31098" lon="7.69063">
        <ele>1305.13</ele>
        <time>2019-04-03T14:40:26Z</time>
      </trkpt>
      <trkpt lat="60.31091" lon="7.69044">
        <ele>1305.13</ele>
        <time>2019-04-03T14:40:33Z</time>
      </trkpt>
      <trkpt lat="60.31077" lon="7.69031">
        <ele>1305.13</ele>
        <time>2019-04-03T14:40:41Z</time>
      </trkpt>
      <trkpt lat="60.31067" lon="7.69026">
        <ele>1305.13</ele>
        <time>2019-04-03T14:40:46Z</time>
      </trkpt>
      <trkpt lat="60.31052" lon="7.69005">
        <ele>1305.61</ele>
        <time>2019-04-03T14:40:53Z</time>
      </trkpt>
      <trkpt lat="60.31045" lon="7.68992">
        <ele>1305.61</ele>
        <time>2019-04-03T14:40:57Z</time>
      </trkpt>
      <trkpt lat="60.31039" lon="7.6899">
        <ele>1306.57</ele>
        <time>2019-04-03T14:41:02Z</time>
      </trkpt>
      <trkpt lat="60.31038" lon="7.68988">
        <ele>1306.57</ele>
        <time>2019-04-03T14:41:04Z</time>
      </trkpt>
      <trkpt lat="60.31031" lon="7.68961">
        <ele>1306.57</ele>
        <time>2019-04-03T14:41:13Z</time>
      </trkpt>
      <trkpt lat="60.31023" lon="7.68956">
        <ele>1306.57</ele>
        <time>2019-04-03T14:41:17Z</time>
      </trkpt>
      <trkpt lat="60.31009" lon="7.68941">
        <ele>1306.57</ele>
        <time>2019-04-03T14:41:24Z</time>
      </trkpt>
      <trkpt lat="60.30992" lon="7.68919">
        <ele>1307.05</ele>
        <time>2019-04-03T14:41:32Z</time>
      </trkpt>
      <trkpt lat="60.30986" lon="7.68914">
        <ele>1307.53</ele>
        <time>2019-04-03T14:41:36Z</time>
      </trkpt>
      <trkpt lat="60.30981" lon="7.68903">
        <ele>1307.53</ele>
        <time>2019-04-03T14:41:39Z</time>
      </trkpt>
      <trkpt lat="60.30962" lon="7.68879">
        <ele>1308.01</ele>
        <time>2019-04-03T14:41:48Z</time>
      </trkpt>
      <trkpt lat="60.30955" lon="7.68872">
        <ele>1308.01</ele>
        <time>2019-04-03T14:41:53Z</time>
      </trkpt>
      <trkpt lat="60.30953" lon="7.68865">
        <ele>1308.01</ele>
        <time>2019-04-03T14:42:00Z</time>
      </trkpt>
      <trkpt lat="60.30951" lon="7.68862">
        <ele>1308.01</ele>
        <time>2019-04-03T14:42:03Z</time>
      </trkpt>
      <trkpt lat="60.30958" lon="7.68825">
        <ele>1308.01</ele>
        <time>2019-04-03T14:42:10Z</time>
      </trkpt>
      <trkpt lat="60.30961" lon="7.68808">
        <ele>1307.05</ele>
        <time>2019-04-03T14:42:13Z</time>
      </trkpt>
      <trkpt lat="60.30962" lon="7.68804">
        <ele>1307.05</ele>
        <time>2019-04-03T14:42:14Z</time>
      </trkpt>
      <trkpt lat="60.30969" lon="7.6876">
        <ele>1306.57</ele>
        <time>2019-04-03T14:42:22Z</time>
      </trkpt>
      <trkpt lat="60.30975" lon="7.6875">
        <ele>1306.57</ele>
        <time>2019-04-03T14:42:25Z</time>
      </trkpt>
      <trkpt lat="60.3097" lon="7.68722">
        <ele>1305.13</ele>
        <time>2019-04-03T14:42:32Z</time>
      </trkpt>
      <trkpt lat="60.3095" lon="7.68714">
        <ele>1307.05</ele>
        <time>2019-04-03T14:42:39Z</time>
      </trkpt>
      <trkpt lat="60.30945" lon="7.68714">
        <ele>1307.05</ele>
        <time>2019-04-03T14:42:43Z</time>
      </trkpt>
      <trkpt lat="60.3094" lon="7.6872">
        <ele>1307.05</ele>
        <time>2019-04-03T14:42:48Z</time>
      </trkpt>
      <trkpt lat="60.30927" lon="7.68717">
        <ele>1307.53</ele>
        <time>2019-04-03T14:42:56Z</time>
      </trkpt>
      <trkpt lat="60.30915" lon="7.6871">
        <ele>1308.49</ele>
        <time>2019-04-03T14:43:01Z</time>
      </trkpt>
      <trkpt lat="60.30909" lon="7.68705">
        <ele>1308.49</ele>
        <time>2019-04-03T14:43:04Z</time>
      </trkpt>
      <trkpt lat="60.30893" lon="7.68699">
        <ele>1309.45</ele>
        <time>2019-04-03T14:43:11Z</time>
      </trkpt>
      <trkpt lat="60.30884" lon="7.68688">
        <ele>1309.45</ele>
        <time>2019-04-03T14:43:14Z</time>
      </trkpt>
      <trkpt lat="60.30864" lon="7.68688">
        <ele>1310.41</ele>
        <time>2019-04-03T14:43:20Z</time>
      </trkpt>
      <trkpt lat="60.3086" lon="7.68669">
        <ele>1310.41</ele>
        <time>2019-04-03T14:43:27Z</time>
      </trkpt>
      <trkpt lat="60.3086" lon="7.68652">
        <ele>1310.41</ele>
        <time>2019-04-03T14:43:31Z</time>
      </trkpt>
      <trkpt lat="60.30838" lon="7.68623">
        <ele>1308.97</ele>
        <time>2019-04-03T14:43:40Z</time>
      </trkpt>
      <trkpt lat="60.3083" lon="7.68622">
        <ele>1308.97</ele>
        <time>2019-04-03T14:43:43Z</time>
      </trkpt>
      <trkpt lat="60.30814" lon="7.68606">
        <ele>1308.97</ele>
        <time>2019-04-03T14:43:48Z</time>
      </trkpt>
      <trkpt lat="60.30793" lon="7.68602">
        <ele>1310.41</ele>
        <time>2019-04-03T14:43:56Z</time>
      </trkpt>
      <trkpt lat="60.30789" lon="7.686">
        <ele>1310.9</ele>
        <time>2019-04-03T14:43:58Z</time>
      </trkpt>
      <trkpt lat="60.30788" lon="7.68569">
        <ele>1310.9</ele>
        <time>2019-04-03T14:44:05Z</time>
      </trkpt>
      <trkpt lat="60.30788" lon="7.68564">
        <ele>1310.9</ele>
        <time>2019-04-03T14:44:06Z</time>
      </trkpt>
      <trkpt lat="60.30795" lon="7.68535">
        <ele>1311.38</ele>
        <time>2019-04-03T14:44:13Z</time>
      </trkpt>
      <trkpt lat="60.30796" lon="7.68525">
        <ele>1311.38</ele>
        <time>2019-04-03T14:44:15Z</time>
      </trkpt>
      <trkpt lat="60.30799" lon="7.68484">
        <ele>1311.86</ele>
        <time>2019-04-03T14:44:23Z</time>
      </trkpt>
      <trkpt lat="60.30806" lon="7.68455">
        <ele>1312.34</ele>
        <time>2019-04-03T14:44:30Z</time>
      </trkpt>
      <trkpt lat="60.30807" lon="7.6843">
        <ele>1312.82</ele>
        <time>2019-04-03T14:44:36Z</time>
      </trkpt>
      <trkpt lat="60.308" lon="7.68423">
        <ele>1312.82</ele>
        <time>2019-04-03T14:44:39Z</time>
      </trkpt>
      <trkpt lat="60.30778" lon="7.68427">
        <ele>1313.3</ele>
        <time>2019-04-03T14:44:47Z</time>
      </trkpt>
      <trkpt lat="60.30757" lon="7.68418">
        <ele>1314.26</ele>
        <time>2019-04-03T14:44:55Z</time>
      </trkpt>
      <trkpt lat="60.30754" lon="7.68417">
        <ele>1314.26</ele>
        <time>2019-04-03T14:44:56Z</time>
      </trkpt>
      <trkpt lat="60.30729" lon="7.68395">
        <ele>1314.74</ele>
        <time>2019-04-03T14:45:05Z</time>
      </trkpt>
      <trkpt lat="60.30712" lon="7.68379">
        <ele>1315.22</ele>
        <time>2019-04-03T14:45:13Z</time>
      </trkpt>
      <trkpt lat="60.30707" lon="7.68366">
        <ele>1315.22</ele>
        <time>2019-04-03T14:45:16Z</time>
      </trkpt>
      <trkpt lat="60.30714" lon="7.6833">
        <ele>1315.22</ele>
        <time>2019-04-03T14:45:23Z</time>
      </trkpt>
      <trkpt lat="60.30698" lon="7.68301">
        <ele>1315.22</ele>
        <time>2019-04-03T14:45:31Z</time>
      </trkpt>
      <trkpt lat="60.30672" lon="7.68302">
        <ele>1315.22</ele>
        <time>2019-04-03T14:45:37Z</time>
      </trkpt>
      <trkpt lat="60.30655" lon="7.68297">
        <ele>1315.22</ele>
        <time>2019-04-03T14:45:43Z</time>
      </trkpt>
      <trkpt lat="60.30658" lon="7.68258">
        <ele>1315.22</ele>
        <time>2019-04-03T14:45:50Z</time>
      </trkpt>
      <trkpt lat="60.30639" lon="7.68239">
        <ele>1315.22</ele>
        <time>2019-04-03T14:45:57Z</time>
      </trkpt>
      <trkpt lat="60.30623" lon="7.68238">
        <ele>1315.22</ele>
        <time>2019-04-03T14:46:03Z</time>
      </trkpt>
      <trkpt lat="60.30623" lon="7.68228">
        <ele>1315.22</ele>
        <time>2019-04-03T14:46:05Z</time>
      </trkpt>
      <trkpt lat="60.30627" lon="7.68206">
        <ele>1315.7</ele>
        <time>2019-04-03T14:46:11Z</time>
      </trkpt>
      <trkpt lat="60.3063" lon="7.68192">
        <ele>1315.7</ele>
        <time>2019-04-03T14:46:16Z</time>
      </trkpt>
      <trkpt lat="60.30613" lon="7.68175">
        <ele>1316.18</ele>
        <time>2019-04-03T14:46:23Z</time>
      </trkpt>
      <trkpt lat="60.30596" lon="7.6816">
        <ele>1316.66</ele>
        <time>2019-04-03T14:46:29Z</time>
      </trkpt>
      <trkpt lat="60.30594" lon="7.68157">
        <ele>1316.66</ele>
        <time>2019-04-03T14:46:30Z</time>
      </trkpt>
      <trkpt lat="60.30578" lon="7.68142">
        <ele>1318.1</ele>
        <time>2019-04-03T14:46:36Z</time>
      </trkpt>
      <trkpt lat="60.30575" lon="7.68133">
        <ele>1318.59</ele>
        <time>2019-04-03T14:46:38Z</time>
      </trkpt>
      <trkpt lat="60.30565" lon="7.68123">
        <ele>1318.59</ele>
        <time>2019-04-03T14:46:42Z</time>
      </trkpt>
      <trkpt lat="60.30559" lon="7.68117">
        <ele>1318.59</ele>
        <time>2019-04-03T14:46:45Z</time>
      </trkpt>
      <trkpt lat="60.30554" lon="7.68116">
        <ele>1318.59</ele>
        <time>2019-04-03T14:46:47Z</time>
      </trkpt>
      <trkpt lat="60.30547" lon="7.68098">
        <ele>1319.07</ele>
        <time>2019-04-03T14:46:51Z</time>
      </trkpt>
      <trkpt lat="60.3055" lon="7.68052">
        <ele>1319.07</ele>
        <time>2019-04-03T14:46:56Z</time>
      </trkpt>
      <trkpt lat="60.30557" lon="7.68005">
        <ele>1317.62</ele>
        <time>2019-04-03T14:47:03Z</time>
      </trkpt>
      <trkpt lat="60.30552" lon="7.67978">
        <ele>1317.62</ele>
        <time>2019-04-03T14:47:09Z</time>
      </trkpt>
      <trkpt lat="60.30549" lon="7.67976">
        <ele>1317.62</ele>
        <time>2019-04-03T14:47:10Z</time>
      </trkpt>
      <trkpt lat="60.30528" lon="7.67976">
        <ele>1317.62</ele>
        <time>2019-04-03T14:47:17Z</time>
      </trkpt>
      <trkpt lat="60.30508" lon="7.67965">
        <ele>1317.62</ele>
        <time>2019-04-03T14:47:24Z</time>
      </trkpt>
      <trkpt lat="60.30496" lon="7.67962">
        <ele>1317.62</ele>
        <time>2019-04-03T14:47:31Z</time>
      </trkpt>
      <trkpt lat="60.30491" lon="7.67955">
        <ele>1317.62</ele>
        <time>2019-04-03T14:47:33Z</time>
      </trkpt>
      <trkpt lat="60.30476" lon="7.67942">
        <ele>1317.62</ele>
        <time>2019-04-03T14:47:37Z</time>
      </trkpt>
      <trkpt lat="60.30452" lon="7.67915">
        <ele>1319.07</ele>
        <time>2019-04-03T14:47:46Z</time>
      </trkpt>
      <trkpt lat="60.30447" lon="7.67907">
        <ele>1319.07</ele>
        <time>2019-04-03T14:47:48Z</time>
      </trkpt>
      <trkpt lat="60.30436" lon="7.67885">
        <ele>1319.07</ele>
        <time>2019-04-03T14:47:55Z</time>
      </trkpt>
      <trkpt lat="60.30441" lon="7.67864">
        <ele>1319.07</ele>
        <time>2019-04-03T14:47:58Z</time>
      </trkpt>
      <trkpt lat="60.30449" lon="7.67836">
        <ele>1319.07</ele>
        <time>2019-04-03T14:48:02Z</time>
      </trkpt>
      <trkpt lat="60.30447" lon="7.6783">
        <ele>1317.62</ele>
        <time>2019-04-03T14:48:05Z</time>
      </trkpt>
      <trkpt lat="60.3043" lon="7.67821">
        <ele>1317.62</ele>
        <time>2019-04-03T14:48:11Z</time>
      </trkpt>
      <trkpt lat="60.30405" lon="7.67803">
        <ele>1317.62</ele>
        <time>2019-04-03T14:48:19Z</time>
      </trkpt>
      <trkpt lat="60.30389" lon="7.6778">
        <ele>1317.14</ele>
        <time>2019-04-03T14:48:25Z</time>
      </trkpt>
      <trkpt lat="60.30377" lon="7.67771">
        <ele>1317.14</ele>
        <time>2019-04-03T14:48:28Z</time>
      </trkpt>
      <trkpt lat="60.3036" lon="7.67758">
        <ele>1316.18</ele>
        <time>2019-04-03T14:48:32Z</time>
      </trkpt>
      <trkpt lat="60.30338" lon="7.67758">
        <ele>1316.18</ele>
        <time>2019-04-03T14:48:37Z</time>
      </trkpt>
      <trkpt lat="60.30321" lon="7.67736">
        <ele>1317.62</ele>
        <time>2019-04-03T14:48:44Z</time>
      </trkpt>
      <trkpt lat="60.30318" lon="7.67736">
        <ele>1317.62</ele>
        <time>2019-04-03T14:48:45Z</time>
      </trkpt>
      <trkpt lat="60.3031" lon="7.67693">
        <ele>1317.62</ele>
        <time>2019-04-03T14:48:52Z</time>
      </trkpt>
      <trkpt lat="60.30321" lon="7.67652">
        <ele>1317.62</ele>
        <time>2019-04-03T14:48:56Z</time>
      </trkpt>
      <trkpt lat="60.30324" lon="7.6763">
        <ele>1316.18</ele>
        <time>2019-04-03T14:48:58Z</time>
      </trkpt>
      <trkpt lat="60.30324" lon="7.67606">
        <ele>1315.22</ele>
        <time>2019-04-03T14:49:00Z</time>
      </trkpt>
      <trkpt lat="60.30323" lon="7.67536">
        <ele>1314.74</ele>
        <time>2019-04-03T14:49:08Z</time>
      </trkpt>
      <trkpt lat="60.30316" lon="7.67527">
        <ele>1313.78</ele>
        <time>2019-04-03T14:49:11Z</time>
      </trkpt>
      <trkpt lat="60.30296" lon="7.67527">
        <ele>1313.78</ele>
        <time>2019-04-03T14:49:16Z</time>
      </trkpt>
      <trkpt lat="60.3028" lon="7.67518">
        <ele>1313.3</ele>
        <time>2019-04-03T14:49:22Z</time>
      </trkpt>
      <trkpt lat="60.3029" lon="7.67472">
        <ele>1313.3</ele>
        <time>2019-04-03T14:49:27Z</time>
      </trkpt>
      <trkpt lat="60.30288" lon="7.67454">
        <ele>1313.3</ele>
        <time>2019-04-03T14:49:30Z</time>
      </trkpt>
      <trkpt lat="60.30257" lon="7.67438">
        <ele>1310.9</ele>
        <time>2019-04-03T14:49:36Z</time>
      </trkpt>
      <trkpt lat="60.302" lon="7.67415">
        <ele>1308.97</ele>
        <time>2019-04-03T14:49:46Z</time>
      </trkpt>
      <trkpt lat="60.30183" lon="7.67411">
        <ele>1308.49</ele>
        <time>2019-04-03T14:49:49Z</time>
      </trkpt>
      <trkpt lat="60.30159" lon="7.67393">
        <ele>1308.01</ele>
        <time>2019-04-03T14:49:55Z</time>
      </trkpt>
      <trkpt lat="60.3016" lon="7.6737">
        <ele>1308.01</ele>
        <time>2019-04-03T14:49:57Z</time>
      </trkpt>
      <trkpt lat="60.30171" lon="7.67246">
        <ele>1306.09</ele>
        <time>2019-04-03T14:50:07Z</time>
      </trkpt>
      <trkpt lat="60.30175" lon="7.67219">
        <ele>1305.13</ele>
        <time>2019-04-03T14:50:10Z</time>
      </trkpt>
      <trkpt lat="60.3017" lon="7.67153">
        <ele>1304.17</ele>
        <time>2019-04-03T14:50:17Z</time>
      </trkpt>
      <trkpt lat="60.30173" lon="7.67135">
        <ele>1304.17</ele>
        <time>2019-04-03T14:50:19Z</time>
      </trkpt>
      <trkpt lat="60.30178" lon="7.6708">
        <ele>1302.24</ele>
        <time>2019-04-03T14:50:26Z</time>
      </trkpt>
      <trkpt lat="60.30163" lon="7.67074">
        <ele>1301.28</ele>
        <time>2019-04-03T14:50:29Z</time>
      </trkpt>
      <trkpt lat="60.3015" lon="7.67074">
        <ele>1301.28</ele>
        <time>2019-04-03T14:50:31Z</time>
      </trkpt>
      <trkpt lat="60.30132" lon="7.67074">
        <ele>1300.8</ele>
        <time>2019-04-03T14:50:34Z</time>
      </trkpt>
      <trkpt lat="60.30111" lon="7.67057">
        <ele>1298.88</ele>
        <time>2019-04-03T14:50:37Z</time>
      </trkpt>
      <trkpt lat="60.30061" lon="7.67031">
        <ele>1296.96</ele>
        <time>2019-04-03T14:50:44Z</time>
      </trkpt>
      <trkpt lat="60.30039" lon="7.67026">
        <ele>1295.51</ele>
        <time>2019-04-03T14:50:47Z</time>
      </trkpt>
      <trkpt lat="60.30025" lon="7.6699">
        <ele>1295.51</ele>
        <time>2019-04-03T14:50:52Z</time>
      </trkpt>
      <trkpt lat="60.30026" lon="7.66977">
        <ele>1295.99</ele>
        <time>2019-04-03T14:50:53Z</time>
      </trkpt>
      <trkpt lat="60.30043" lon="7.66831">
        <ele>1293.11</ele>
        <time>2019-04-03T14:51:04Z</time>
      </trkpt>
      <trkpt lat="60.30048" lon="7.6669">
        <ele>1288.78</ele>
        <time>2019-04-03T14:51:12Z</time>
      </trkpt>
      <trkpt lat="60.30048" lon="7.66673">
        <ele>1288.78</ele>
        <time>2019-04-03T14:51:13Z</time>
      </trkpt>
      <trkpt lat="60.30048" lon="7.66612">
        <ele>1285.42</ele>
        <time>2019-04-03T14:51:17Z</time>
      </trkpt>
      <trkpt lat="60.30055" lon="7.66506">
        <ele>1282.06</ele>
        <time>2019-04-03T14:51:24Z</time>
      </trkpt>
      <trkpt lat="60.30062" lon="7.66351">
        <ele>1280.13</ele>
        <time>2019-04-03T14:51:33Z</time>
      </trkpt>
      <trkpt lat="60.3007" lon="7.66242">
        <ele>1279.65</ele>
        <time>2019-04-03T14:51:40Z</time>
      </trkpt>
      <trkpt lat="60.30078" lon="7.66145">
        <ele>1277.25</ele>
        <time>2019-04-03T14:51:46Z</time>
      </trkpt>
      <trkpt lat="60.30075" lon="7.66102">
        <ele>1274.85</ele>
        <time>2019-04-03T14:51:50Z</time>
      </trkpt>
      <trkpt lat="60.30056" lon="7.66085">
        <ele>1272.92</ele>
        <time>2019-04-03T14:51:53Z</time>
      </trkpt>
      <trkpt lat="60.30034" lon="7.66073">
        <ele>1271.48</ele>
        <time>2019-04-03T14:51:56Z</time>
      </trkpt>
      <trkpt lat="60.30003" lon="7.66051">
        <ele>1269.56</ele>
        <time>2019-04-03T14:52:00Z</time>
      </trkpt>
      <trkpt lat="60.29988" lon="7.66042">
        <ele>1268.12</ele>
        <time>2019-04-03T14:52:02Z</time>
      </trkpt>
      <trkpt lat="60.29959" lon="7.6603">
        <ele>1265.23</ele>
        <time>2019-04-03T14:52:06Z</time>
      </trkpt>
      <trkpt lat="60.29927" lon="7.66019">
        <ele>1259.94</ele>
        <time>2019-04-03T14:52:10Z</time>
      </trkpt>
      <trkpt lat="60.29904" lon="7.66017">
        <ele>1258.02</ele>
        <time>2019-04-03T14:52:13Z</time>
      </trkpt>
      <trkpt lat="60.29869" lon="7.66023">
        <ele>1255.62</ele>
        <time>2019-04-03T14:52:18Z</time>
      </trkpt>
      <trkpt lat="60.29854" lon="7.66001">
        <ele>1254.66</ele>
        <time>2019-04-03T14:52:22Z</time>
      </trkpt>
      <trkpt lat="60.29853" lon="7.65989">
        <ele>1254.66</ele>
        <time>2019-04-03T14:52:23Z</time>
      </trkpt>
      <trkpt lat="60.29855" lon="7.65946">
        <ele>1254.18</ele>
        <time>2019-04-03T14:52:26Z</time>
      </trkpt>
      <trkpt lat="60.29852" lon="7.65893">
        <ele>1252.25</ele>
        <time>2019-04-03T14:52:30Z</time>
      </trkpt>
      <trkpt lat="60.29848" lon="7.6584">
        <ele>1250.33</ele>
        <time>2019-04-03T14:52:34Z</time>
      </trkpt>
      <trkpt lat="60.2984" lon="7.6579">
        <ele>1248.41</ele>
        <time>2019-04-03T14:52:38Z</time>
      </trkpt>
      <trkpt lat="60.29839" lon="7.65779">
        <ele>1247.93</ele>
        <time>2019-04-03T14:52:39Z</time>
      </trkpt>
      <trkpt lat="60.29837" lon="7.65758">
        <ele>1246.97</ele>
        <time>2019-04-03T14:52:41Z</time>
      </trkpt>
      <trkpt lat="60.29822" lon="7.65747">
        <ele>1245.04</ele>
        <time>2019-04-03T14:52:45Z</time>
      </trkpt>
      <trkpt lat="60.29814" lon="7.65751">
        <ele>1244.08</ele>
        <time>2019-04-03T14:52:52Z</time>
      </trkpt>
      <trkpt lat="60.29811" lon="7.65732">
        <ele>1243.12</ele>
        <time>2019-04-03T14:53:01Z</time>
      </trkpt>
      <trkpt lat="60.29806" lon="7.65717">
        <ele>1242.16</ele>
        <time>2019-04-03T14:53:05Z</time>
      </trkpt>
      <trkpt lat="60.29806" lon="7.65695">
        <ele>1242.16</ele>
        <time>2019-04-03T14:53:09Z</time>
      </trkpt>
      <trkpt lat="60.29815" lon="7.6561">
        <ele>1239.28</ele>
        <time>2019-04-03T14:53:20Z</time>
      </trkpt>
      <trkpt lat="60.29834" lon="7.65525">
        <ele>1238.8</ele>
        <time>2019-04-03T14:53:27Z</time>
      </trkpt>
      <trkpt lat="60.29861" lon="7.65423">
        <ele>1237.83</ele>
        <time>2019-04-03T14:53:33Z</time>
      </trkpt>
      <trkpt lat="60.29907" lon="7.6529">
        <ele>1238.32</ele>
        <time>2019-04-03T14:53:41Z</time>
      </trkpt>
      <trkpt lat="60.29941" lon="7.65219">
        <ele>1239.76</ele>
        <time>2019-04-03T14:53:46Z</time>
      </trkpt>
      <trkpt lat="60.29947" lon="7.65207">
        <ele>1239.76</ele>
        <time>2019-04-03T14:53:47Z</time>
      </trkpt>
      <trkpt lat="60.29961" lon="7.65185">
        <ele>1238.8</ele>
        <time>2019-04-03T14:53:49Z</time>
      </trkpt>
      <trkpt lat="60.29968" lon="7.65173">
        <ele>1238.8</ele>
        <time>2019-04-03T14:53:50Z</time>
      </trkpt>
      <trkpt lat="60.30027" lon="7.65086">
        <ele>1237.35</ele>
        <time>2019-04-03T14:53:58Z</time>
      </trkpt>
      <trkpt lat="60.30082" lon="7.65001">
        <ele>1238.32</ele>
        <time>2019-04-03T14:54:06Z</time>
      </trkpt>
      <trkpt lat="60.30138" lon="7.64892">
        <ele>1238.32</ele>
        <time>2019-04-03T14:54:15Z</time>
      </trkpt>
      <trkpt lat="60.30204" lon="7.6477">
        <ele>1240.24</ele>
        <time>2019-04-03T14:54:25Z</time>
      </trkpt>
      <trkpt lat="60.3025" lon="7.64665">
        <ele>1238.8</ele>
        <time>2019-04-03T14:54:32Z</time>
      </trkpt>
      <trkpt lat="60.30293" lon="7.64568">
        <ele>1237.35</ele>
        <time>2019-04-03T14:54:39Z</time>
      </trkpt>
      <trkpt lat="60.30359" lon="7.64438">
        <ele>1235.91</ele>
        <time>2019-04-03T14:54:49Z</time>
      </trkpt>
      <trkpt lat="60.30379" lon="7.64394">
        <ele>1235.91</ele>
        <time>2019-04-03T14:54:52Z</time>
      </trkpt>
      <trkpt lat="60.30466" lon="7.6425">
        <ele>1233.51</ele>
        <time>2019-04-03T14:55:04Z</time>
      </trkpt>
      <trkpt lat="60.30474" lon="7.64241">
        <ele>1232.55</ele>
        <time>2019-04-03T14:55:05Z</time>
      </trkpt>
      <trkpt lat="60.30489" lon="7.64219">
        <ele>1231.59</ele>
        <time>2019-04-03T14:55:07Z</time>
      </trkpt>
      <trkpt lat="60.30561" lon="7.64094">
        <ele>1230.62</ele>
        <time>2019-04-03T14:55:17Z</time>
      </trkpt>
      <trkpt lat="60.30597" lon="7.64027">
        <ele>1230.62</ele>
        <time>2019-04-03T14:55:22Z</time>
      </trkpt>
      <trkpt lat="60.3065" lon="7.6391">
        <ele>1231.59</ele>
        <time>2019-04-03T14:55:30Z</time>
      </trkpt>
      <trkpt lat="60.30728" lon="7.63748">
        <ele>1229.18</ele>
        <time>2019-04-03T14:55:41Z</time>
      </trkpt>
      <trkpt lat="60.30781" lon="7.63659">
        <ele>1228.7</ele>
        <time>2019-04-03T14:55:49Z</time>
      </trkpt>
      <trkpt lat="60.30795" lon="7.63635">
        <ele>1230.14</ele>
        <time>2019-04-03T14:55:51Z</time>
      </trkpt>
      <trkpt lat="60.30848" lon="7.63559">
        <ele>1228.7</ele>
        <time>2019-04-03T14:55:58Z</time>
      </trkpt>
      <trkpt lat="60.30942" lon="7.63396">
        <ele>1228.22</ele>
        <time>2019-04-03T14:56:10Z</time>
      </trkpt>
      <trkpt lat="60.31029" lon="7.63232">
        <ele>1227.74</ele>
        <time>2019-04-03T14:56:21Z</time>
      </trkpt>
      <trkpt lat="60.31105" lon="7.63077">
        <ele>1226.3</ele>
        <time>2019-04-03T14:56:32Z</time>
      </trkpt>
      <trkpt lat="60.31118" lon="7.63052">
        <ele>1228.22</ele>
        <time>2019-04-03T14:56:34Z</time>
      </trkpt>
      <trkpt lat="60.31174" lon="7.62914">
        <ele>1228.7</ele>
        <time>2019-04-03T14:56:44Z</time>
      </trkpt>
      <trkpt lat="60.31193" lon="7.62861">
        <ele>1229.66</ele>
        <time>2019-04-03T14:56:48Z</time>
      </trkpt>
      <trkpt lat="60.3122" lon="7.62777">
        <ele>1230.14</ele>
        <time>2019-04-03T14:56:55Z</time>
      </trkpt>
      <trkpt lat="60.31252" lon="7.6266">
        <ele>1230.14</ele>
        <time>2019-04-03T14:57:03Z</time>
      </trkpt>
      <trkpt lat="60.31283" lon="7.6256">
        <ele>1231.11</ele>
        <time>2019-04-03T14:57:11Z</time>
      </trkpt>
      <trkpt lat="60.3129" lon="7.62534">
        <ele>1231.59</ele>
        <time>2019-04-03T14:57:13Z</time>
      </trkpt>
      <trkpt lat="60.31302" lon="7.62503">
        <ele>1232.07</ele>
        <time>2019-04-03T14:57:16Z</time>
      </trkpt>
      <trkpt lat="60.31311" lon="7.62485">
        <ele>1233.03</ele>
        <time>2019-04-03T14:57:18Z</time>
      </trkpt>
      <trkpt lat="60.31319" lon="7.62468">
        <ele>1233.03</ele>
        <time>2019-04-03T14:57:20Z</time>
      </trkpt>
      <trkpt lat="60.31331" lon="7.62429">
        <ele>1231.11</ele>
        <time>2019-04-03T14:57:24Z</time>
      </trkpt>
      <trkpt lat="60.31337" lon="7.62405">
        <ele>1230.62</ele>
        <time>2019-04-03T14:57:26Z</time>
      </trkpt>
      <trkpt lat="60.31344" lon="7.62381">
        <ele>1230.14</ele>
        <time>2019-04-03T14:57:28Z</time>
      </trkpt>
      <trkpt lat="60.31363" lon="7.62297">
        <ele>1225.82</ele>
        <time>2019-04-03T14:57:33Z</time>
      </trkpt>
      <trkpt lat="60.31376" lon="7.62242">
        <ele>1223.9</ele>
        <time>2019-04-03T14:57:36Z</time>
      </trkpt>
      <trkpt lat="60.31393" lon="7.62179">
        <ele>1223.42</ele>
        <time>2019-04-03T14:57:40Z</time>
      </trkpt>
      <trkpt lat="60.31408" lon="7.62141">
        <ele>1223.42</ele>
        <time>2019-04-03T14:57:44Z</time>
      </trkpt>
      <trkpt lat="60.31416" lon="7.62128">
        <ele>1224.38</ele>
        <time>2019-04-03T14:57:47Z</time>
      </trkpt>
      <trkpt lat="60.31402" lon="7.62133">
        <ele>1220.53</ele>
        <time>2019-04-03T14:57:52Z</time>
      </trkpt>
      <trkpt lat="60.3139" lon="7.62147">
        <ele>1217.65</ele>
        <time>2019-04-03T14:57:54Z</time>
      </trkpt>
      <trkpt lat="60.3138" lon="7.62166">
        <ele>1215.72</ele>
        <time>2019-04-03T14:57:56Z</time>
      </trkpt>
      <trkpt lat="60.3136" lon="7.62202">
        <ele>1218.13</ele>
        <time>2019-04-03T14:58:00Z</time>
      </trkpt>
      <trkpt lat="60.31348" lon="7.62227">
        <ele>1220.53</ele>
        <time>2019-04-03T14:58:03Z</time>
      </trkpt>
      <trkpt lat="60.31341" lon="7.62241">
        <ele>1221.49</ele>
        <time>2019-04-03T14:58:05Z</time>
      </trkpt>
      <trkpt lat="60.31337" lon="7.62249">
        <ele>1221.49</ele>
        <time>2019-04-03T14:58:06Z</time>
      </trkpt>
      <trkpt lat="60.31315" lon="7.62293">
        <ele>1224.86</ele>
        <time>2019-04-03T14:58:11Z</time>
      </trkpt>
      <trkpt lat="60.31305" lon="7.62311">
        <ele>1227.26</ele>
        <time>2019-04-03T14:58:13Z</time>
      </trkpt>
      <trkpt lat="60.313" lon="7.6232">
        <ele>1227.26</ele>
        <time>2019-04-03T14:58:14Z</time>
      </trkpt>
      <trkpt lat="60.31292" lon="7.6234">
        <ele>1225.34</ele>
        <time>2019-04-03T14:58:16Z</time>
      </trkpt>
      <trkpt lat="60.31283" lon="7.62369">
        <ele>1229.18</ele>
        <time>2019-04-03T14:58:19Z</time>
      </trkpt>
      <trkpt lat="60.3128" lon="7.62378">
        <ele>1229.66</ele>
        <time>2019-04-03T14:58:20Z</time>
      </trkpt>
      <trkpt lat="60.31263" lon="7.62426">
        <ele>1224.86</ele>
        <time>2019-04-03T14:58:24Z</time>
      </trkpt>
      <trkpt lat="60.31259" lon="7.62439">
        <ele>1224.86</ele>
        <time>2019-04-03T14:58:25Z</time>
      </trkpt>
      <trkpt lat="60.31237" lon="7.62504">
        <ele>1223.9</ele>
        <time>2019-04-03T14:58:30Z</time>
      </trkpt>
      <trkpt lat="60.31232" lon="7.62517">
        <ele>1222.93</ele>
        <time>2019-04-03T14:58:31Z</time>
      </trkpt>
      <trkpt lat="60.31224" lon="7.6254">
        <ele>1221.97</ele>
        <time>2019-04-03T14:58:33Z</time>
      </trkpt>
      <trkpt lat="60.31212" lon="7.6257">
        <ele>1225.34</ele>
        <time>2019-04-03T14:58:36Z</time>
      </trkpt>
      <trkpt lat="60.31209" lon="7.62579">
        <ele>1225.34</ele>
        <time>2019-04-03T14:58:37Z</time>
      </trkpt>
      <trkpt lat="60.31204" lon="7.62594">
        <ele>1226.3</ele>
        <time>2019-04-03T14:58:39Z</time>
      </trkpt>
      <trkpt lat="60.31199" lon="7.6261">
        <ele>1226.78</ele>
        <time>2019-04-03T14:58:41Z</time>
      </trkpt>
      <trkpt lat="60.31194" lon="7.62632">
        <ele>1225.34</ele>
        <time>2019-04-03T14:58:45Z</time>
      </trkpt>
      <trkpt lat="60.31191" lon="7.62639">
        <ele>1226.78</ele>
        <time>2019-04-03T14:58:48Z</time>
      </trkpt>
      <trkpt lat="60.31186" lon="7.6265">
        <ele>1226.78</ele>
        <time>2019-04-03T14:58:51Z</time>
      </trkpt>
      <trkpt lat="60.31175" lon="7.62669">
        <ele>1224.86</ele>
        <time>2019-04-03T14:58:54Z</time>
      </trkpt>
      <trkpt lat="60.31161" lon="7.6271">
        <ele>1222.45</ele>
        <time>2019-04-03T14:58:58Z</time>
      </trkpt>
      <trkpt lat="60.31154" lon="7.62734">
        <ele>1221.97</ele>
        <time>2019-04-03T14:59:00Z</time>
      </trkpt>
      <trkpt lat="60.31142" lon="7.6278">
        <ele>1218.61</ele>
        <time>2019-04-03T14:59:04Z</time>
      </trkpt>
      <trkpt lat="60.31139" lon="7.6279">
        <ele>1218.61</ele>
        <time>2019-04-03T14:59:05Z</time>
      </trkpt>
      <trkpt lat="60.31129" lon="7.62821">
        <ele>1219.57</ele>
        <time>2019-04-03T14:59:08Z</time>
      </trkpt>
      <trkpt lat="60.31118" lon="7.62851">
        <ele>1218.13</ele>
        <time>2019-04-03T14:59:11Z</time>
      </trkpt>
      <trkpt lat="60.31097" lon="7.629">
        <ele>1218.61</ele>
        <time>2019-04-03T14:59:16Z</time>
      </trkpt>
      <trkpt lat="60.3108" lon="7.62933">
        <ele>1219.09</ele>
        <time>2019-04-03T14:59:20Z</time>
      </trkpt>
      <trkpt lat="60.31064" lon="7.62966">
        <ele>1221.49</ele>
        <time>2019-04-03T14:59:24Z</time>
      </trkpt>
      <trkpt lat="60.31056" lon="7.62982">
        <ele>1220.53</ele>
        <time>2019-04-03T14:59:26Z</time>
      </trkpt>
      <trkpt lat="60.31046" lon="7.63007">
        <ele>1221.97</ele>
        <time>2019-04-03T14:59:29Z</time>
      </trkpt>
      <trkpt lat="60.31039" lon="7.63024">
        <ele>1220.05</ele>
        <time>2019-04-03T14:59:31Z</time>
      </trkpt>
      <trkpt lat="60.3102" lon="7.63073">
        <ele>1221.01</ele>
        <time>2019-04-03T14:59:36Z</time>
      </trkpt>
      <trkpt lat="60.30972" lon="7.63187">
        <ele>1221.97</ele>
        <time>2019-04-03T14:59:48Z</time>
      </trkpt>
      <trkpt lat="60.30958" lon="7.63224">
        <ele>1221.01</ele>
        <time>2019-04-03T14:59:52Z</time>
      </trkpt>
      <trkpt lat="60.30944" lon="7.63262">
        <ele>1224.38</ele>
        <time>2019-04-03T14:59:56Z</time>
      </trkpt>
      <trkpt lat="60.30941" lon="7.63271">
        <ele>1222.45</ele>
        <time>2019-04-03T14:59:57Z</time>
      </trkpt>
      <trkpt lat="60.30934" lon="7.63289">
        <ele>1221.49</ele>
        <time>2019-04-03T14:59:59Z</time>
      </trkpt>
      <trkpt lat="60.30931" lon="7.63298">
        <ele>1222.93</ele>
        <time>2019-04-03T15:00:00Z</time>
      </trkpt>
      <trkpt lat="60.30907" lon="7.63362">
        <ele>1223.9</ele>
        <time>2019-04-03T15:00:07Z</time>
      </trkpt>
      <trkpt lat="60.309" lon="7.63381">
        <ele>1222.45</ele>
        <time>2019-04-03T15:00:09Z</time>
      </trkpt>
      <trkpt lat="60.30892" lon="7.63398">
        <ele>1221.97</ele>
        <time>2019-04-03T15:00:11Z</time>
      </trkpt>
      <trkpt lat="60.3088" lon="7.63428">
        <ele>1223.9</ele>
        <time>2019-04-03T15:00:14Z</time>
      </trkpt>
      <trkpt lat="60.30858" lon="7.63476">
        <ele>1221.49</ele>
        <time>2019-04-03T15:00:19Z</time>
      </trkpt>
      <trkpt lat="60.30831" lon="7.63541">
        <ele>1222.45</ele>
        <time>2019-04-03T15:00:25Z</time>
      </trkpt>
      <trkpt lat="60.30812" lon="7.63585">
        <ele>1224.86</ele>
        <time>2019-04-03T15:00:29Z</time>
      </trkpt>
      <trkpt lat="60.30808" lon="7.63596">
        <ele>1224.86</ele>
        <time>2019-04-03T15:00:30Z</time>
      </trkpt>
      <trkpt lat="60.30797" lon="7.63617">
        <ele>1222.93</ele>
        <time>2019-04-03T15:00:32Z</time>
      </trkpt>
      <trkpt lat="60.30779" lon="7.63652">
        <ele>1221.01</ele>
        <time>2019-04-03T15:00:35Z</time>
      </trkpt>
      <trkpt lat="60.30757" lon="7.63696">
        <ele>1226.78</ele>
        <time>2019-04-03T15:00:39Z</time>
      </trkpt>
      <trkpt lat="60.30752" lon="7.63706">
        <ele>1226.78</ele>
        <time>2019-04-03T15:00:40Z</time>
      </trkpt>
      <trkpt lat="60.30741" lon="7.63728">
        <ele>1224.86</ele>
        <time>2019-04-03T15:00:42Z</time>
      </trkpt>
      <trkpt lat="60.30723" lon="7.63761">
        <ele>1224.86</ele>
        <time>2019-04-03T15:00:45Z</time>
      </trkpt>
      <trkpt lat="60.30681" lon="7.6386">
        <ele>1227.26</ele>
        <time>2019-04-03T15:00:53Z</time>
      </trkpt>
      <trkpt lat="60.30676" lon="7.63873">
        <ele>1227.26</ele>
        <time>2019-04-03T15:00:54Z</time>
      </trkpt>
      <trkpt lat="60.30658" lon="7.63922">
        <ele>1223.9</ele>
        <time>2019-04-03T15:00:58Z</time>
      </trkpt>
      <trkpt lat="60.30655" lon="7.63934">
        <ele>1223.9</ele>
        <time>2019-04-03T15:00:59Z</time>
      </trkpt>
      <trkpt lat="60.30651" lon="7.63946">
        <ele>1228.7</ele>
        <time>2019-04-03T15:01:00Z</time>
      </trkpt>
      <trkpt lat="60.30632" lon="7.64017">
        <ele>1226.78</ele>
        <time>2019-04-03T15:01:06Z</time>
      </trkpt>
      <trkpt lat="60.30623" lon="7.64041">
        <ele>1225.82</ele>
        <time>2019-04-03T15:01:08Z</time>
      </trkpt>
      <trkpt lat="60.30613" lon="7.64068">
        <ele>1227.26</ele>
        <time>2019-04-03T15:01:10Z</time>
      </trkpt>
      <trkpt lat="60.30548" lon="7.64199">
        <ele>1227.26</ele>
        <time>2019-04-03T15:01:20Z</time>
      </trkpt>
      <trkpt lat="60.3054" lon="7.64213">
        <ele>1227.26</ele>
        <time>2019-04-03T15:01:21Z</time>
      </trkpt>
      <trkpt lat="60.30467" lon="7.64315">
        <ele>1230.14</ele>
        <time>2019-04-03T15:01:30Z</time>
      </trkpt>
      <trkpt lat="60.30453" lon="7.64333">
        <ele>1227.74</ele>
        <time>2019-04-03T15:01:32Z</time>
      </trkpt>
      <trkpt lat="60.30434" lon="7.64363">
        <ele>1231.11</ele>
        <time>2019-04-03T15:01:35Z</time>
      </trkpt>
      <trkpt lat="60.30429" lon="7.64373">
        <ele>1231.11</ele>
        <time>2019-04-03T15:01:36Z</time>
      </trkpt>
      <trkpt lat="60.30378" lon="7.64464">
        <ele>1233.03</ele>
        <time>2019-04-03T15:01:45Z</time>
      </trkpt>
      <trkpt lat="60.30355" lon="7.64506">
        <ele>1233.99</ele>
        <time>2019-04-03T15:01:49Z</time>
      </trkpt>
      <trkpt lat="60.30339" lon="7.64548">
        <ele>1234.95</ele>
        <time>2019-04-03T15:01:53Z</time>
      </trkpt>
      <trkpt lat="60.30331" lon="7.64558">
        <ele>1235.43</ele>
        <time>2019-04-03T15:01:55Z</time>
      </trkpt>
      <trkpt lat="60.30309" lon="7.64581">
        <ele>1232.07</ele>
        <time>2019-04-03T15:01:59Z</time>
      </trkpt>
      <trkpt lat="60.30298" lon="7.64596">
        <ele>1231.11</ele>
        <time>2019-04-03T15:02:01Z</time>
      </trkpt>
      <trkpt lat="60.30287" lon="7.64618">
        <ele>1233.51</ele>
        <time>2019-04-03T15:02:04Z</time>
      </trkpt>
      <trkpt lat="60.30281" lon="7.6463">
        <ele>1234.47</ele>
        <time>2019-04-03T15:02:06Z</time>
      </trkpt>
      <trkpt lat="60.30274" lon="7.64643">
        <ele>1234.47</ele>
        <time>2019-04-03T15:02:08Z</time>
      </trkpt>
      <trkpt lat="60.30266" lon="7.64657">
        <ele>1234.47</ele>
        <time>2019-04-03T15:02:10Z</time>
      </trkpt>
      <trkpt lat="60.30247" lon="7.64701">
        <ele>1234.47</ele>
        <time>2019-04-03T15:02:15Z</time>
      </trkpt>
      <trkpt lat="60.30235" lon="7.64732">
        <ele>1235.43</ele>
        <time>2019-04-03T15:02:18Z</time>
      </trkpt>
      <trkpt lat="60.30207" lon="7.64802">
        <ele>1235.91</ele>
        <time>2019-04-03T15:02:25Z</time>
      </trkpt>
      <trkpt lat="60.30201" lon="7.64821">
        <ele>1237.35</ele>
        <time>2019-04-03T15:02:27Z</time>
      </trkpt>
      <trkpt lat="60.30192" lon="7.64835">
        <ele>1239.28</ele>
        <time>2019-04-03T15:02:29Z</time>
      </trkpt>
      <trkpt lat="60.30187" lon="7.64844">
        <ele>1239.28</ele>
        <time>2019-04-03T15:02:30Z</time>
      </trkpt>
      <trkpt lat="60.30178" lon="7.64862">
        <ele>1236.87</ele>
        <time>2019-04-03T15:02:32Z</time>
      </trkpt>
      <trkpt lat="60.30161" lon="7.64902">
        <ele>1236.87</ele>
        <time>2019-04-03T15:02:36Z</time>
      </trkpt>
      <trkpt lat="60.30135" lon="7.64965">
        <ele>1238.32</ele>
        <time>2019-04-03T15:02:42Z</time>
      </trkpt>
      <trkpt lat="60.3013" lon="7.64975">
        <ele>1238.32</ele>
        <time>2019-04-03T15:02:43Z</time>
      </trkpt>
      <trkpt lat="60.30121" lon="7.64995">
        <ele>1238.8</ele>
        <time>2019-04-03T15:02:45Z</time>
      </trkpt>
      <trkpt lat="60.3011" lon="7.65015">
        <ele>1236.39</ele>
        <time>2019-04-03T15:02:47Z</time>
      </trkpt>
      <trkpt lat="60.30103" lon="7.65024">
        <ele>1237.83</ele>
        <time>2019-04-03T15:02:48Z</time>
      </trkpt>
      <trkpt lat="60.30097" lon="7.65031">
        <ele>1238.32</ele>
        <time>2019-04-03T15:02:49Z</time>
      </trkpt>
      <trkpt lat="60.3009" lon="7.65038">
        <ele>1235.91</ele>
        <time>2019-04-03T15:02:50Z</time>
      </trkpt>
      <trkpt lat="60.30085" lon="7.65046">
        <ele>1235.43</ele>
        <time>2019-04-03T15:02:51Z</time>
      </trkpt>
      <trkpt lat="60.30079" lon="7.65055">
        <ele>1235.43</ele>
        <time>2019-04-03T15:02:52Z</time>
      </trkpt>
      <trkpt lat="60.3006" lon="7.65088">
        <ele>1236.87</ele>
        <time>2019-04-03T15:02:56Z</time>
      </trkpt>
      <trkpt lat="60.3005" lon="7.65107">
        <ele>1233.99</ele>
        <time>2019-04-03T15:02:58Z</time>
      </trkpt>
      <trkpt lat="60.30045" lon="7.65117">
        <ele>1233.99</ele>
        <time>2019-04-03T15:02:59Z</time>
      </trkpt>
      <trkpt lat="60.30001" lon="7.65209">
        <ele>1236.87</ele>
        <time>2019-04-03T15:03:08Z</time>
      </trkpt>
      <trkpt lat="60.29997" lon="7.65219">
        <ele>1236.87</ele>
        <time>2019-04-03T15:03:09Z</time>
      </trkpt>
      <trkpt lat="60.29979" lon="7.65255">
        <ele>1235.43</ele>
        <time>2019-04-03T15:03:13Z</time>
      </trkpt>
      <trkpt lat="60.29963" lon="7.65293">
        <ele>1236.87</ele>
        <time>2019-04-03T15:03:17Z</time>
      </trkpt>
      <trkpt lat="60.29959" lon="7.65303">
        <ele>1236.87</ele>
        <time>2019-04-03T15:03:18Z</time>
      </trkpt>
      <trkpt lat="60.29955" lon="7.65311">
        <ele>1236.87</ele>
        <time>2019-04-03T15:03:19Z</time>
      </trkpt>
      <trkpt lat="60.29951" lon="7.65319">
        <ele>1237.35</ele>
        <time>2019-04-03T15:03:20Z</time>
      </trkpt>
      <trkpt lat="60.29947" lon="7.65326">
        <ele>1237.35</ele>
        <time>2019-04-03T15:03:21Z</time>
      </trkpt>
      <trkpt lat="60.2993" lon="7.65349">
        <ele>1238.32</ele>
        <time>2019-04-03T15:03:25Z</time>
      </trkpt>
      <trkpt lat="60.29926" lon="7.65356">
        <ele>1238.32</ele>
        <time>2019-04-03T15:03:26Z</time>
      </trkpt>
      <trkpt lat="60.29919" lon="7.65369">
        <ele>1236.87</ele>
        <time>2019-04-03T15:03:28Z</time>
      </trkpt>
      <trkpt lat="60.29911" lon="7.65382">
        <ele>1238.32</ele>
        <time>2019-04-03T15:03:31Z</time>
      </trkpt>
      <trkpt lat="60.29905" lon="7.65392">
        <ele>1237.83</ele>
        <time>2019-04-03T15:03:33Z</time>
      </trkpt>
      <trkpt lat="60.29897" lon="7.65407">
        <ele>1236.39</ele>
        <time>2019-04-03T15:03:35Z</time>
      </trkpt>
      <trkpt lat="60.29884" lon="7.6543">
        <ele>1234.47</ele>
        <time>2019-04-03T15:03:38Z</time>
      </trkpt>
      <trkpt lat="60.29873" lon="7.65447">
        <ele>1235.91</ele>
        <time>2019-04-03T15:03:41Z</time>
      </trkpt>
      <trkpt lat="60.29866" lon="7.65455">
        <ele>1234.95</ele>
        <time>2019-04-03T15:03:43Z</time>
      </trkpt>
      <trkpt lat="60.29841" lon="7.65473">
        <ele>1233.51</ele>
        <time>2019-04-03T15:03:51Z</time>
      </trkpt>
      <trkpt lat="60.29837" lon="7.65471">
        <ele>1232.55</ele>
        <time>2019-04-03T15:03:55Z</time>
      </trkpt>
      <trkpt lat="60.29827" lon="7.65487">
        <ele>1233.99</ele>
        <time>2019-04-03T15:04:02Z</time>
      </trkpt>
      <trkpt lat="60.29825" lon="7.6549">
        <ele>1232.55</ele>
        <time>2019-04-03T15:04:06Z</time>
      </trkpt>
      <trkpt lat="60.29825" lon="7.65491">
        <ele>1234.95</ele>
        <time>2019-04-03T15:04:08Z</time>
      </trkpt>
      <trkpt lat="60.29824" lon="7.65491">
        <ele>1234.95</ele>
        <time>2019-04-03T15:04:11Z</time>
      </trkpt>
      <trkpt lat="60.29823" lon="7.65492">
        <ele>1233.03</ele>
        <time>2019-04-03T15:04:12Z</time>
      </trkpt>
      <trkpt lat="60.29821" lon="7.65494">
        <ele>1232.55</ele>
        <time>2019-04-03T15:04:13Z</time>
      </trkpt>
      <trkpt lat="60.2982" lon="7.65496">
        <ele>1232.55</ele>
        <time>2019-04-03T15:04:14Z</time>
      </trkpt>
      <trkpt lat="60.29818" lon="7.65498">
        <ele>1232.55</ele>
        <time>2019-04-03T15:04:15Z</time>
      </trkpt>
      <trkpt lat="60.29817" lon="7.65499">
        <ele>1234.47</ele>
        <time>2019-04-03T15:04:16Z</time>
      </trkpt>
      <trkpt lat="60.29814" lon="7.65501">
        <ele>1234.47</ele>
        <time>2019-04-03T15:04:17Z</time>
      </trkpt>
      <trkpt lat="60.29807" lon="7.65507">
        <ele>1232.07</ele>
        <time>2019-04-03T15:04:20Z</time>
      </trkpt>
      <trkpt lat="60.29804" lon="7.6551">
        <ele>1233.03</ele>
        <time>2019-04-03T15:04:23Z</time>
      </trkpt>
      <trkpt lat="60.29803" lon="7.65511">
        <ele>1233.51</ele>
        <time>2019-04-03T15:04:37Z</time>
      </trkpt>
      <trkpt lat="60.29804" lon="7.65511">
        <ele>1232.55</ele>
        <time>2019-04-03T15:04:44Z</time>
      </trkpt>
      <trkpt lat="60.29804" lon="7.65512">
        <ele>1229.18</ele>
        <time>2019-04-03T15:04:45Z</time>
      </trkpt>
      <trkpt lat="60.29804" lon="7.65512">
        <ele>1233.51</ele>
        <time>2019-04-03T15:04:46Z</time>
      </trkpt>
      <trkpt lat="60.29803" lon="7.65511">
        <ele>1233.51</ele>
        <time>2019-04-03T15:04:52Z</time>
      </trkpt>
      <trkpt lat="60.29802" lon="7.6551">
        <ele>1233.51</ele>
        <time>2019-04-03T15:04:53Z</time>
      </trkpt>
      <trkpt lat="60.29802" lon="7.65509">
        <ele>1232.07</ele>
        <time>2019-04-03T15:04:55Z</time>
      </trkpt>
      <trkpt lat="60.29801" lon="7.65509">
        <ele>1227.26</ele>
        <time>2019-04-03T15:04:59Z</time>
      </trkpt>
      <trkpt lat="60.29801" lon="7.65509">
        <ele>1236.39</ele>
        <time>2019-04-03T15:05:00Z</time>
      </trkpt>
      <trkpt lat="60.29801" lon="7.65508">
        <ele>1233.03</ele>
        <time>2019-04-03T15:05:01Z</time>
      </trkpt>
      <trkpt lat="60.29801" lon="7.65508">
        <ele>1236.87</ele>
        <time>2019-04-03T15:05:02Z</time>
      </trkpt>
      <trkpt lat="60.29801" lon="7.65508">
        <ele>1232.07</ele>
        <time>2019-04-03T15:05:03Z</time>
      </trkpt>
      <trkpt lat="60.29802" lon="7.65509">
        <ele>1232.07</ele>
        <time>2019-04-03T15:05:32Z</time>
      </trkpt>
      <trkpt lat="60.29803" lon="7.65509">
        <ele>1232.07</ele>
        <time>2019-04-03T15:06:03Z</time>
      </trkpt>
      <trkpt lat="60.29802" lon="7.65509">
        <ele>1232.07</ele>
        <time>2019-04-03T15:06:35Z</time>
      </trkpt>
      <trkpt lat="60.29803" lon="7.65508">
        <ele>1232.07</ele>
        <time>2019-04-03T15:07:08Z</time>
      </trkpt>
      <trkpt lat="60.29803" lon="7.65509">
        <ele>1232.55</ele>
        <time>2019-04-03T15:07:42Z</time>
      </trkpt>
      <trkpt lat="60.29802" lon="7.65509">
        <ele>1233.03</ele>
        <time>2019-04-03T15:08:10Z</time>
      </trkpt>
      <trkpt lat="60.29803" lon="7.65509">
        <ele>1233.03</ele>
        <time>2019-04-03T15:08:39Z</time>
      </trkpt>
      <trkpt lat="60.29803" lon="7.65507">
        <ele>1233.03</ele>
        <time>2019-04-03T15:09:09Z</time>
      </trkpt>
      <trkpt lat="60.29802" lon="7.6551">
        <ele>1233.03</ele>
        <time>2019-04-03T15:09:38Z</time>
      </trkpt>
      <trkpt lat="60.29802" lon="7.65511">
        <ele>1233.03</ele>
        <time>2019-04-03T15:10:11Z</time>
      </trkpt>
      <trkpt lat="60.29802" lon="7.65508">
        <ele>1233.51</ele>
        <time>2019-04-03T15:10:31Z</time>
      </trkpt>
      <trkpt lat="60.29802" lon="7.65507">
        <ele>1233.51</ele>
        <time>2019-04-03T15:10:56Z</time>
      </trkpt>
      <trkpt lat="60.29803" lon="7.65508">
        <ele>1233.51</ele>
        <time>2019-04-03T15:11:18Z</time>
      </trkpt>
      <trkpt lat="60.29803" lon="7.65507">
        <ele>1233.51</ele>
        <time>2019-04-03T15:11:52Z</time>
      </trkpt>
      <trkpt lat="60.29803" lon="7.65508">
        <ele>1234.95</ele>
        <time>2019-04-03T15:12:12Z</time>
      </trkpt>
      <trkpt lat="60.29803" lon="7.65508">
        <ele>1234.95</ele>
        <time>2019-04-03T15:12:24Z</time>
      </trkpt>
    </trkseg>
  </trk>
</gpx>